<?xml version="1.0" encoding="UTF-8" standalone="no" ?>
<gpx xmlns="http://www.topografix.com/GPX/1/1" xmlns:xsi="http://www.w3.org/2001/XMLSchema-instance" xsi:schemaLocation="http://www.topografix.com/GPX/1/1 http://www.topografix.com/GPX/1/1/gpx.xsd" version="1.1" creator="VisuGPX - https://www.visugpx.com">
  <metadata>
    <name>L\'épine du chat !</name>
    <desc><![CDATA[Salut ! La trace de notre balade de samedi ! ]]></desc>
  </metadata>
  <trk>
    <name><![CDATA[2014-09-06 14:59:52]]></name>
    <trkseg>
      <trkpt lat="45.56283" lon="5.89272">
        <ele>298.63</ele>
        <time>2014-09-06T06:42:40Z</time>
      </trkpt>
      <trkpt lat="45.56281" lon="5.8927">
        <ele>298.63</ele>
        <time>2014-09-06T06:43:00Z</time>
      </trkpt>
      <trkpt lat="45.56251" lon="5.89271">
        <ele>298.63</ele>
        <time>2014-09-06T06:43:12Z</time>
      </trkpt>
      <trkpt lat="45.56247" lon="5.89276">
        <ele>298.63</ele>
        <time>2014-09-06T06:43:14Z</time>
      </trkpt>
      <trkpt lat="45.56238" lon="5.89281">
        <ele>298.63</ele>
        <time>2014-09-06T06:43:18Z</time>
      </trkpt>
      <trkpt lat="45.56219" lon="5.89282">
        <ele>300.07</ele>
        <time>2014-09-06T06:43:26Z</time>
      </trkpt>
      <trkpt lat="45.56218" lon="5.8928">
        <ele>300.07</ele>
        <time>2014-09-06T06:43:27Z</time>
      </trkpt>
      <trkpt lat="45.56217" lon="5.89277">
        <ele>300.07</ele>
        <time>2014-09-06T06:43:28Z</time>
      </trkpt>
      <trkpt lat="45.56216" lon="5.89274">
        <ele>300.07</ele>
        <time>2014-09-06T06:43:29Z</time>
      </trkpt>
      <trkpt lat="45.56216" lon="5.8927">
        <ele>300.07</ele>
        <time>2014-09-06T06:43:30Z</time>
      </trkpt>
      <trkpt lat="45.56215" lon="5.89266">
        <ele>300.07</ele>
        <time>2014-09-06T06:43:31Z</time>
      </trkpt>
      <trkpt lat="45.56215" lon="5.89263">
        <ele>300.07</ele>
        <time>2014-09-06T06:43:32Z</time>
      </trkpt>
      <trkpt lat="45.56216" lon="5.89259">
        <ele>300.55</ele>
        <time>2014-09-06T06:43:33Z</time>
      </trkpt>
      <trkpt lat="45.56216" lon="5.89254">
        <ele>300.55</ele>
        <time>2014-09-06T06:43:34Z</time>
      </trkpt>
      <trkpt lat="45.56232" lon="5.89178">
        <ele>302.47</ele>
        <time>2014-09-06T06:43:50Z</time>
      </trkpt>
      <trkpt lat="45.56249" lon="5.89107">
        <ele>303.91</ele>
        <time>2014-09-06T06:44:05Z</time>
      </trkpt>
      <trkpt lat="45.56277" lon="5.89065">
        <ele>305.84</ele>
        <time>2014-09-06T06:44:17Z</time>
      </trkpt>
      <trkpt lat="45.56318" lon="5.8902">
        <ele>306.8</ele>
        <time>2014-09-06T06:44:35Z</time>
      </trkpt>
      <trkpt lat="45.56323" lon="5.89018">
        <ele>306.8</ele>
        <time>2014-09-06T06:44:37Z</time>
      </trkpt>
      <trkpt lat="45.56324" lon="5.89016">
        <ele>306.8</ele>
        <time>2014-09-06T06:44:49Z</time>
      </trkpt>
      <trkpt lat="45.56326" lon="5.89015">
        <ele>306.8</ele>
        <time>2014-09-06T06:45:19Z</time>
      </trkpt>
      <trkpt lat="45.56325" lon="5.89013">
        <ele>306.8</ele>
        <time>2014-09-06T06:45:50Z</time>
      </trkpt>
      <trkpt lat="45.56326" lon="5.8901">
        <ele>306.8</ele>
        <time>2014-09-06T06:46:29Z</time>
      </trkpt>
      <trkpt lat="45.56326" lon="5.89009">
        <ele>306.8</ele>
        <time>2014-09-06T06:46:33Z</time>
      </trkpt>
      <trkpt lat="45.56326" lon="5.89007">
        <ele>306.8</ele>
        <time>2014-09-06T06:46:34Z</time>
      </trkpt>
      <trkpt lat="45.56327" lon="5.89004">
        <ele>306.8</ele>
        <time>2014-09-06T06:46:35Z</time>
      </trkpt>
      <trkpt lat="45.56329" lon="5.89002">
        <ele>306.8</ele>
        <time>2014-09-06T06:46:36Z</time>
      </trkpt>
      <trkpt lat="45.56331" lon="5.89">
        <ele>306.8</ele>
        <time>2014-09-06T06:46:37Z</time>
      </trkpt>
      <trkpt lat="45.56333" lon="5.88998">
        <ele>306.8</ele>
        <time>2014-09-06T06:46:38Z</time>
      </trkpt>
      <trkpt lat="45.56335" lon="5.88996">
        <ele>306.8</ele>
        <time>2014-09-06T06:46:39Z</time>
      </trkpt>
      <trkpt lat="45.56368" lon="5.88959">
        <ele>307.76</ele>
        <time>2014-09-06T06:46:55Z</time>
      </trkpt>
      <trkpt lat="45.5639" lon="5.88913">
        <ele>310.16</ele>
        <time>2014-09-06T06:47:12Z</time>
      </trkpt>
      <trkpt lat="45.56397" lon="5.88895">
        <ele>311.6</ele>
        <time>2014-09-06T06:47:20Z</time>
      </trkpt>
      <trkpt lat="45.56398" lon="5.88893">
        <ele>312.09</ele>
        <time>2014-09-06T06:47:21Z</time>
      </trkpt>
      <trkpt lat="45.56399" lon="5.88892">
        <ele>312.09</ele>
        <time>2014-09-06T06:47:22Z</time>
      </trkpt>
      <trkpt lat="45.564" lon="5.8889">
        <ele>312.57</ele>
        <time>2014-09-06T06:47:23Z</time>
      </trkpt>
      <trkpt lat="45.56402" lon="5.88888">
        <ele>312.57</ele>
        <time>2014-09-06T06:47:24Z</time>
      </trkpt>
      <trkpt lat="45.56426" lon="5.88871">
        <ele>315.93</ele>
        <time>2014-09-06T06:47:39Z</time>
      </trkpt>
      <trkpt lat="45.56455" lon="5.88859">
        <ele>319.3</ele>
        <time>2014-09-06T06:47:55Z</time>
      </trkpt>
      <trkpt lat="45.56483" lon="5.88849">
        <ele>321.7</ele>
        <time>2014-09-06T06:48:10Z</time>
      </trkpt>
      <trkpt lat="45.56505" lon="5.88836">
        <ele>324.1</ele>
        <time>2014-09-06T06:48:25Z</time>
      </trkpt>
      <trkpt lat="45.56528" lon="5.88815">
        <ele>326.5</ele>
        <time>2014-09-06T06:48:41Z</time>
      </trkpt>
      <trkpt lat="45.56553" lon="5.88783">
        <ele>329.39</ele>
        <time>2014-09-06T06:48:57Z</time>
      </trkpt>
      <trkpt lat="45.56576" lon="5.88746">
        <ele>332.27</ele>
        <time>2014-09-06T06:49:13Z</time>
      </trkpt>
      <trkpt lat="45.56594" lon="5.88715">
        <ele>335.64</ele>
        <time>2014-09-06T06:49:27Z</time>
      </trkpt>
      <trkpt lat="45.56617" lon="5.88683">
        <ele>338.04</ele>
        <time>2014-09-06T06:49:43Z</time>
      </trkpt>
      <trkpt lat="45.5664" lon="5.88662">
        <ele>341.41</ele>
        <time>2014-09-06T06:49:57Z</time>
      </trkpt>
      <trkpt lat="45.5667" lon="5.88645">
        <ele>344.77</ele>
        <time>2014-09-06T06:50:13Z</time>
      </trkpt>
      <trkpt lat="45.56703" lon="5.88633">
        <ele>347.65</ele>
        <time>2014-09-06T06:50:30Z</time>
      </trkpt>
      <trkpt lat="45.56732" lon="5.88625">
        <ele>350.54</ele>
        <time>2014-09-06T06:50:45Z</time>
      </trkpt>
      <trkpt lat="45.56755" lon="5.88613">
        <ele>353.9</ele>
        <time>2014-09-06T06:50:58Z</time>
      </trkpt>
      <trkpt lat="45.56783" lon="5.88607">
        <ele>357.27</ele>
        <time>2014-09-06T06:51:12Z</time>
      </trkpt>
      <trkpt lat="45.56814" lon="5.88599">
        <ele>360.63</ele>
        <time>2014-09-06T06:51:27Z</time>
      </trkpt>
      <trkpt lat="45.56839" lon="5.88587">
        <ele>364</ele>
        <time>2014-09-06T06:51:39Z</time>
      </trkpt>
      <trkpt lat="45.56862" lon="5.88571">
        <ele>366.88</ele>
        <time>2014-09-06T06:51:51Z</time>
      </trkpt>
      <trkpt lat="45.56892" lon="5.88549">
        <ele>370.24</ele>
        <time>2014-09-06T06:52:07Z</time>
      </trkpt>
      <trkpt lat="45.56916" lon="5.88521">
        <ele>373.61</ele>
        <time>2014-09-06T06:52:21Z</time>
      </trkpt>
      <trkpt lat="45.56939" lon="5.88491">
        <ele>376.97</ele>
        <time>2014-09-06T06:52:34Z</time>
      </trkpt>
      <trkpt lat="45.56959" lon="5.88459">
        <ele>379.86</ele>
        <time>2014-09-06T06:52:51Z</time>
      </trkpt>
      <trkpt lat="45.5695" lon="5.88466">
        <ele>379.86</ele>
        <time>2014-09-06T06:52:58Z</time>
      </trkpt>
      <trkpt lat="45.56951" lon="5.88468">
        <ele>379.86</ele>
        <time>2014-09-06T06:52:59Z</time>
      </trkpt>
      <trkpt lat="45.56954" lon="5.88464">
        <ele>379.86</ele>
        <time>2014-09-06T06:53:02Z</time>
      </trkpt>
      <trkpt lat="45.56979" lon="5.88423">
        <ele>382.26</ele>
        <time>2014-09-06T06:53:22Z</time>
      </trkpt>
      <trkpt lat="45.57003" lon="5.88383">
        <ele>385.63</ele>
        <time>2014-09-06T06:53:41Z</time>
      </trkpt>
      <trkpt lat="45.57019" lon="5.88346">
        <ele>388.99</ele>
        <time>2014-09-06T06:53:58Z</time>
      </trkpt>
      <trkpt lat="45.57016" lon="5.88311">
        <ele>392.36</ele>
        <time>2014-09-06T06:54:12Z</time>
      </trkpt>
      <trkpt lat="45.56996" lon="5.88287">
        <ele>395.24</ele>
        <time>2014-09-06T06:54:27Z</time>
      </trkpt>
      <trkpt lat="45.56978" lon="5.88267">
        <ele>398.12</ele>
        <time>2014-09-06T06:54:39Z</time>
      </trkpt>
      <trkpt lat="45.56972" lon="5.88229">
        <ele>400.53</ele>
        <time>2014-09-06T06:54:53Z</time>
      </trkpt>
      <trkpt lat="45.56964" lon="5.88183">
        <ele>403.41</ele>
        <time>2014-09-06T06:55:09Z</time>
      </trkpt>
      <trkpt lat="45.56947" lon="5.88126">
        <ele>404.85</ele>
        <time>2014-09-06T06:55:27Z</time>
      </trkpt>
      <trkpt lat="45.56916" lon="5.8808">
        <ele>407.26</ele>
        <time>2014-09-06T06:55:45Z</time>
      </trkpt>
      <trkpt lat="45.56893" lon="5.88005">
        <ele>408.22</ele>
        <time>2014-09-06T06:56:04Z</time>
      </trkpt>
      <trkpt lat="45.56873" lon="5.87936">
        <ele>410.62</ele>
        <time>2014-09-06T06:56:22Z</time>
      </trkpt>
      <trkpt lat="45.56856" lon="5.87883">
        <ele>413.02</ele>
        <time>2014-09-06T06:56:37Z</time>
      </trkpt>
      <trkpt lat="45.56834" lon="5.87842">
        <ele>413.98</ele>
        <time>2014-09-06T06:56:51Z</time>
      </trkpt>
      <trkpt lat="45.56813" lon="5.87786">
        <ele>412.54</ele>
        <time>2014-09-06T06:57:03Z</time>
      </trkpt>
      <trkpt lat="45.56811" lon="5.87779">
        <ele>411.58</ele>
        <time>2014-09-06T06:57:04Z</time>
      </trkpt>
      <trkpt lat="45.56802" lon="5.87756">
        <ele>410.62</ele>
        <time>2014-09-06T06:57:07Z</time>
      </trkpt>
      <trkpt lat="45.56761" lon="5.87678">
        <ele>410.14</ele>
        <time>2014-09-06T06:57:19Z</time>
      </trkpt>
      <trkpt lat="45.56751" lon="5.87645">
        <ele>411.58</ele>
        <time>2014-09-06T06:57:25Z</time>
      </trkpt>
      <trkpt lat="45.56743" lon="5.8759">
        <ele>414.47</ele>
        <time>2014-09-06T06:57:39Z</time>
      </trkpt>
      <trkpt lat="45.56744" lon="5.87533">
        <ele>417.35</ele>
        <time>2014-09-06T06:57:53Z</time>
      </trkpt>
      <trkpt lat="45.56751" lon="5.87469">
        <ele>421.19</ele>
        <time>2014-09-06T06:58:10Z</time>
      </trkpt>
      <trkpt lat="45.56758" lon="5.87409">
        <ele>420.71</ele>
        <time>2014-09-06T06:58:25Z</time>
      </trkpt>
      <trkpt lat="45.56759" lon="5.87336">
        <ele>421.68</ele>
        <time>2014-09-06T06:58:41Z</time>
      </trkpt>
      <trkpt lat="45.56746" lon="5.87274">
        <ele>422.16</ele>
        <time>2014-09-06T06:58:54Z</time>
      </trkpt>
      <trkpt lat="45.56742" lon="5.87243">
        <ele>423.6</ele>
        <time>2014-09-06T06:59:04Z</time>
      </trkpt>
      <trkpt lat="45.56742" lon="5.8724">
        <ele>424.08</ele>
        <time>2014-09-06T06:59:05Z</time>
      </trkpt>
      <trkpt lat="45.56737" lon="5.87199">
        <ele>426.96</ele>
        <time>2014-09-06T06:59:19Z</time>
      </trkpt>
      <trkpt lat="45.56731" lon="5.87155">
        <ele>430.33</ele>
        <time>2014-09-06T06:59:33Z</time>
      </trkpt>
      <trkpt lat="45.56729" lon="5.871">
        <ele>432.73</ele>
        <time>2014-09-06T06:59:48Z</time>
      </trkpt>
      <trkpt lat="45.56725" lon="5.87032">
        <ele>433.69</ele>
        <time>2014-09-06T07:00:05Z</time>
      </trkpt>
      <trkpt lat="45.56716" lon="5.8697">
        <ele>434.17</ele>
        <time>2014-09-06T07:00:21Z</time>
      </trkpt>
      <trkpt lat="45.56711" lon="5.86933">
        <ele>435.61</ele>
        <time>2014-09-06T07:00:32Z</time>
      </trkpt>
      <trkpt lat="45.56704" lon="5.869">
        <ele>436.1</ele>
        <time>2014-09-06T07:00:44Z</time>
      </trkpt>
      <trkpt lat="45.56691" lon="5.86851">
        <ele>434.65</ele>
        <time>2014-09-06T07:00:57Z</time>
      </trkpt>
      <trkpt lat="45.5669" lon="5.86848">
        <ele>434.65</ele>
        <time>2014-09-06T07:00:58Z</time>
      </trkpt>
      <trkpt lat="45.56683" lon="5.86804">
        <ele>433.69</ele>
        <time>2014-09-06T07:01:11Z</time>
      </trkpt>
      <trkpt lat="45.56682" lon="5.86796">
        <ele>433.69</ele>
        <time>2014-09-06T07:01:13Z</time>
      </trkpt>
      <trkpt lat="45.56682" lon="5.86791">
        <ele>432.73</ele>
        <time>2014-09-06T07:01:14Z</time>
      </trkpt>
      <trkpt lat="45.56682" lon="5.86785">
        <ele>432.73</ele>
        <time>2014-09-06T07:01:15Z</time>
      </trkpt>
      <trkpt lat="45.56682" lon="5.86778">
        <ele>432.73</ele>
        <time>2014-09-06T07:01:16Z</time>
      </trkpt>
      <trkpt lat="45.56681" lon="5.86773">
        <ele>432.73</ele>
        <time>2014-09-06T07:01:17Z</time>
      </trkpt>
      <trkpt lat="45.5668" lon="5.86767">
        <ele>432.73</ele>
        <time>2014-09-06T07:01:18Z</time>
      </trkpt>
      <trkpt lat="45.56678" lon="5.86762">
        <ele>432.73</ele>
        <time>2014-09-06T07:01:19Z</time>
      </trkpt>
      <trkpt lat="45.5667" lon="5.86733">
        <ele>432.73</ele>
        <time>2014-09-06T07:01:23Z</time>
      </trkpt>
      <trkpt lat="45.5664" lon="5.86625">
        <ele>432.73</ele>
        <time>2014-09-06T07:01:38Z</time>
      </trkpt>
      <trkpt lat="45.56638" lon="5.86616">
        <ele>434.17</ele>
        <time>2014-09-06T07:01:40Z</time>
      </trkpt>
      <trkpt lat="45.56625" lon="5.86581">
        <ele>437.06</ele>
        <time>2014-09-06T07:01:50Z</time>
      </trkpt>
      <trkpt lat="45.56609" lon="5.86538">
        <ele>439.46</ele>
        <time>2014-09-06T07:02:05Z</time>
      </trkpt>
      <trkpt lat="45.56588" lon="5.86496">
        <ele>437.54</ele>
        <time>2014-09-06T07:02:15Z</time>
      </trkpt>
      <trkpt lat="45.56581" lon="5.86486">
        <ele>437.06</ele>
        <time>2014-09-06T07:02:17Z</time>
      </trkpt>
      <trkpt lat="45.56565" lon="5.86462">
        <ele>433.21</ele>
        <time>2014-09-06T07:02:21Z</time>
      </trkpt>
      <trkpt lat="45.56562" lon="5.86453">
        <ele>431.77</ele>
        <time>2014-09-06T07:02:22Z</time>
      </trkpt>
      <trkpt lat="45.56558" lon="5.86444">
        <ele>431.29</ele>
        <time>2014-09-06T07:02:23Z</time>
      </trkpt>
      <trkpt lat="45.56555" lon="5.86434">
        <ele>430.81</ele>
        <time>2014-09-06T07:02:24Z</time>
      </trkpt>
      <trkpt lat="45.56553" lon="5.86425">
        <ele>430.81</ele>
        <time>2014-09-06T07:02:25Z</time>
      </trkpt>
      <trkpt lat="45.56549" lon="5.86407">
        <ele>430.81</ele>
        <time>2014-09-06T07:02:27Z</time>
      </trkpt>
      <trkpt lat="45.56548" lon="5.86399">
        <ele>430.81</ele>
        <time>2014-09-06T07:02:28Z</time>
      </trkpt>
      <trkpt lat="45.56548" lon="5.86392">
        <ele>430.81</ele>
        <time>2014-09-06T07:02:29Z</time>
      </trkpt>
      <trkpt lat="45.56549" lon="5.86387">
        <ele>430.81</ele>
        <time>2014-09-06T07:02:30Z</time>
      </trkpt>
      <trkpt lat="45.5655" lon="5.86384">
        <ele>430.81</ele>
        <time>2014-09-06T07:02:31Z</time>
      </trkpt>
      <trkpt lat="45.56551" lon="5.86382">
        <ele>432.25</ele>
        <time>2014-09-06T07:02:32Z</time>
      </trkpt>
      <trkpt lat="45.56552" lon="5.8638">
        <ele>432.25</ele>
        <time>2014-09-06T07:02:33Z</time>
      </trkpt>
      <trkpt lat="45.56552" lon="5.86378">
        <ele>432.25</ele>
        <time>2014-09-06T07:02:34Z</time>
      </trkpt>
      <trkpt lat="45.56553" lon="5.86376">
        <ele>433.69</ele>
        <time>2014-09-06T07:02:35Z</time>
      </trkpt>
      <trkpt lat="45.56554" lon="5.86373">
        <ele>433.69</ele>
        <time>2014-09-06T07:02:36Z</time>
      </trkpt>
      <trkpt lat="45.56555" lon="5.8637">
        <ele>434.17</ele>
        <time>2014-09-06T07:02:37Z</time>
      </trkpt>
      <trkpt lat="45.56556" lon="5.86366">
        <ele>434.17</ele>
        <time>2014-09-06T07:02:38Z</time>
      </trkpt>
      <trkpt lat="45.56557" lon="5.86362">
        <ele>435.13</ele>
        <time>2014-09-06T07:02:39Z</time>
      </trkpt>
      <trkpt lat="45.56565" lon="5.86337">
        <ele>438.5</ele>
        <time>2014-09-06T07:02:45Z</time>
      </trkpt>
      <trkpt lat="45.56572" lon="5.86312">
        <ele>441.38</ele>
        <time>2014-09-06T07:02:51Z</time>
      </trkpt>
      <trkpt lat="45.56576" lon="5.86279">
        <ele>444.75</ele>
        <time>2014-09-06T07:03:00Z</time>
      </trkpt>
      <trkpt lat="45.56579" lon="5.86229">
        <ele>447.63</ele>
        <time>2014-09-06T07:03:17Z</time>
      </trkpt>
      <trkpt lat="45.56581" lon="5.86178">
        <ele>449.07</ele>
        <time>2014-09-06T07:03:36Z</time>
      </trkpt>
      <trkpt lat="45.56571" lon="5.86127">
        <ele>451</ele>
        <time>2014-09-06T07:03:55Z</time>
      </trkpt>
      <trkpt lat="45.56564" lon="5.86103">
        <ele>451</ele>
        <time>2014-09-06T07:04:07Z</time>
      </trkpt>
      <trkpt lat="45.56574" lon="5.86096">
        <ele>451</ele>
        <time>2014-09-06T07:04:19Z</time>
      </trkpt>
      <trkpt lat="45.56618" lon="5.86058">
        <ele>450.03</ele>
        <time>2014-09-06T07:04:36Z</time>
      </trkpt>
      <trkpt lat="45.56641" lon="5.86022">
        <ele>449.55</ele>
        <time>2014-09-06T07:04:46Z</time>
      </trkpt>
      <trkpt lat="45.56642" lon="5.86017">
        <ele>449.55</ele>
        <time>2014-09-06T07:04:47Z</time>
      </trkpt>
      <trkpt lat="45.56641" lon="5.86012">
        <ele>449.55</ele>
        <time>2014-09-06T07:04:48Z</time>
      </trkpt>
      <trkpt lat="45.56639" lon="5.86007">
        <ele>449.07</ele>
        <time>2014-09-06T07:04:49Z</time>
      </trkpt>
      <trkpt lat="45.56637" lon="5.86003">
        <ele>449.07</ele>
        <time>2014-09-06T07:04:50Z</time>
      </trkpt>
      <trkpt lat="45.56635" lon="5.85998">
        <ele>449.07</ele>
        <time>2014-09-06T07:04:51Z</time>
      </trkpt>
      <trkpt lat="45.56635" lon="5.85993">
        <ele>449.07</ele>
        <time>2014-09-06T07:04:52Z</time>
      </trkpt>
      <trkpt lat="45.56635" lon="5.85988">
        <ele>449.07</ele>
        <time>2014-09-06T07:04:53Z</time>
      </trkpt>
      <trkpt lat="45.56636" lon="5.85983">
        <ele>449.07</ele>
        <time>2014-09-06T07:04:54Z</time>
      </trkpt>
      <trkpt lat="45.56637" lon="5.85979">
        <ele>449.07</ele>
        <time>2014-09-06T07:04:55Z</time>
      </trkpt>
      <trkpt lat="45.56635" lon="5.85923">
        <ele>449.07</ele>
        <time>2014-09-06T07:05:07Z</time>
      </trkpt>
      <trkpt lat="45.56636" lon="5.85882">
        <ele>449.07</ele>
        <time>2014-09-06T07:05:17Z</time>
      </trkpt>
      <trkpt lat="45.56639" lon="5.8587">
        <ele>450.03</ele>
        <time>2014-09-06T07:05:20Z</time>
      </trkpt>
      <trkpt lat="45.5665" lon="5.85809">
        <ele>453.4</ele>
        <time>2014-09-06T07:05:38Z</time>
      </trkpt>
      <trkpt lat="45.56639" lon="5.85775">
        <ele>456.28</ele>
        <time>2014-09-06T07:05:50Z</time>
      </trkpt>
      <trkpt lat="45.56625" lon="5.85734">
        <ele>459.65</ele>
        <time>2014-09-06T07:06:06Z</time>
      </trkpt>
      <trkpt lat="45.56615" lon="5.85687">
        <ele>461.09</ele>
        <time>2014-09-06T07:06:22Z</time>
      </trkpt>
      <trkpt lat="45.56589" lon="5.85668">
        <ele>462.05</ele>
        <time>2014-09-06T07:06:34Z</time>
      </trkpt>
      <trkpt lat="45.56549" lon="5.85656">
        <ele>463.97</ele>
        <time>2014-09-06T07:06:50Z</time>
      </trkpt>
      <trkpt lat="45.56517" lon="5.85635">
        <ele>464.93</ele>
        <time>2014-09-06T07:07:05Z</time>
      </trkpt>
      <trkpt lat="45.56497" lon="5.85617">
        <ele>465.42</ele>
        <time>2014-09-06T07:07:17Z</time>
      </trkpt>
      <trkpt lat="45.56473" lon="5.8562">
        <ele>465.9</ele>
        <time>2014-09-06T07:07:28Z</time>
      </trkpt>
      <trkpt lat="45.56442" lon="5.85626">
        <ele>466.86</ele>
        <time>2014-09-06T07:07:41Z</time>
      </trkpt>
      <trkpt lat="45.564" lon="5.85637">
        <ele>468.3</ele>
        <time>2014-09-06T07:07:55Z</time>
      </trkpt>
      <trkpt lat="45.56371" lon="5.85637">
        <ele>469.26</ele>
        <time>2014-09-06T07:08:06Z</time>
      </trkpt>
      <trkpt lat="45.56358" lon="5.85639">
        <ele>467.82</ele>
        <time>2014-09-06T07:08:09Z</time>
      </trkpt>
      <trkpt lat="45.56324" lon="5.8564">
        <ele>469.26</ele>
        <time>2014-09-06T07:08:18Z</time>
      </trkpt>
      <trkpt lat="45.56296" lon="5.8563">
        <ele>470.7</ele>
        <time>2014-09-06T07:08:30Z</time>
      </trkpt>
      <trkpt lat="45.56255" lon="5.85606">
        <ele>472.14</ele>
        <time>2014-09-06T07:08:46Z</time>
      </trkpt>
      <trkpt lat="45.56213" lon="5.85581">
        <ele>474.07</ele>
        <time>2014-09-06T07:09:00Z</time>
      </trkpt>
      <trkpt lat="45.56182" lon="5.8556">
        <ele>475.99</ele>
        <time>2014-09-06T07:09:13Z</time>
      </trkpt>
      <trkpt lat="45.56156" lon="5.85548">
        <ele>477.91</ele>
        <time>2014-09-06T07:09:25Z</time>
      </trkpt>
      <trkpt lat="45.56154" lon="5.85546">
        <ele>478.39</ele>
        <time>2014-09-06T07:09:26Z</time>
      </trkpt>
      <trkpt lat="45.56153" lon="5.85544">
        <ele>478.39</ele>
        <time>2014-09-06T07:09:27Z</time>
      </trkpt>
      <trkpt lat="45.56152" lon="5.85541">
        <ele>478.39</ele>
        <time>2014-09-06T07:09:28Z</time>
      </trkpt>
      <trkpt lat="45.56151" lon="5.85538">
        <ele>478.39</ele>
        <time>2014-09-06T07:09:29Z</time>
      </trkpt>
      <trkpt lat="45.56126" lon="5.85478">
        <ele>477.91</ele>
        <time>2014-09-06T07:09:41Z</time>
      </trkpt>
      <trkpt lat="45.56109" lon="5.85406">
        <ele>477.91</ele>
        <time>2014-09-06T07:09:55Z</time>
      </trkpt>
      <trkpt lat="45.56096" lon="5.85334">
        <ele>480.8</ele>
        <time>2014-09-06T07:10:11Z</time>
      </trkpt>
      <trkpt lat="45.56087" lon="5.85279">
        <ele>484.16</ele>
        <time>2014-09-06T07:10:27Z</time>
      </trkpt>
      <trkpt lat="45.56086" lon="5.85276">
        <ele>484.16</ele>
        <time>2014-09-06T07:10:28Z</time>
      </trkpt>
      <trkpt lat="45.56071" lon="5.85232">
        <ele>487.05</ele>
        <time>2014-09-06T07:10:43Z</time>
      </trkpt>
      <trkpt lat="45.56052" lon="5.85193">
        <ele>489.93</ele>
        <time>2014-09-06T07:10:57Z</time>
      </trkpt>
      <trkpt lat="45.56051" lon="5.85188">
        <ele>489.93</ele>
        <time>2014-09-06T07:10:58Z</time>
      </trkpt>
      <trkpt lat="45.56051" lon="5.85184">
        <ele>489.93</ele>
        <time>2014-09-06T07:10:59Z</time>
      </trkpt>
      <trkpt lat="45.56061" lon="5.85148">
        <ele>492.81</ele>
        <time>2014-09-06T07:11:11Z</time>
      </trkpt>
      <trkpt lat="45.56056" lon="5.85099">
        <ele>494.26</ele>
        <time>2014-09-06T07:11:26Z</time>
      </trkpt>
      <trkpt lat="45.56035" lon="5.85082">
        <ele>495.7</ele>
        <time>2014-09-06T07:11:37Z</time>
      </trkpt>
      <trkpt lat="45.56029" lon="5.85049">
        <ele>497.62</ele>
        <time>2014-09-06T07:11:47Z</time>
      </trkpt>
      <trkpt lat="45.56025" lon="5.84993">
        <ele>499.06</ele>
        <time>2014-09-06T07:12:01Z</time>
      </trkpt>
      <trkpt lat="45.56033" lon="5.84939">
        <ele>499.06</ele>
        <time>2014-09-06T07:12:14Z</time>
      </trkpt>
      <trkpt lat="45.56063" lon="5.84923">
        <ele>501.46</ele>
        <time>2014-09-06T07:12:26Z</time>
      </trkpt>
      <trkpt lat="45.5609" lon="5.84941">
        <ele>503.39</ele>
        <time>2014-09-06T07:12:39Z</time>
      </trkpt>
      <trkpt lat="45.56131" lon="5.84966">
        <ele>506.75</ele>
        <time>2014-09-06T07:12:57Z</time>
      </trkpt>
      <trkpt lat="45.56165" lon="5.85006">
        <ele>509.16</ele>
        <time>2014-09-06T07:13:14Z</time>
      </trkpt>
      <trkpt lat="45.56199" lon="5.85026">
        <ele>512.04</ele>
        <time>2014-09-06T07:13:30Z</time>
      </trkpt>
      <trkpt lat="45.56228" lon="5.84995">
        <ele>514.44</ele>
        <time>2014-09-06T07:13:45Z</time>
      </trkpt>
      <trkpt lat="45.56256" lon="5.84952">
        <ele>517.33</ele>
        <time>2014-09-06T07:14:01Z</time>
      </trkpt>
      <trkpt lat="45.56287" lon="5.84904">
        <ele>520.69</ele>
        <time>2014-09-06T07:14:19Z</time>
      </trkpt>
      <trkpt lat="45.5629" lon="5.84899">
        <ele>520.69</ele>
        <time>2014-09-06T07:14:21Z</time>
      </trkpt>
      <trkpt lat="45.56292" lon="5.84897">
        <ele>521.17</ele>
        <time>2014-09-06T07:14:22Z</time>
      </trkpt>
      <trkpt lat="45.56294" lon="5.84895">
        <ele>521.17</ele>
        <time>2014-09-06T07:14:23Z</time>
      </trkpt>
      <trkpt lat="45.56325" lon="5.84855">
        <ele>524.06</ele>
        <time>2014-09-06T07:14:40Z</time>
      </trkpt>
      <trkpt lat="45.56362" lon="5.84828">
        <ele>526.46</ele>
        <time>2014-09-06T07:14:56Z</time>
      </trkpt>
      <trkpt lat="45.56394" lon="5.84798">
        <ele>529.34</ele>
        <time>2014-09-06T07:15:10Z</time>
      </trkpt>
      <trkpt lat="45.56414" lon="5.84749">
        <ele>530.79</ele>
        <time>2014-09-06T07:15:26Z</time>
      </trkpt>
      <trkpt lat="45.56411" lon="5.84701">
        <ele>533.19</ele>
        <time>2014-09-06T07:15:40Z</time>
      </trkpt>
      <trkpt lat="45.56386" lon="5.84655">
        <ele>533.67</ele>
        <time>2014-09-06T07:15:53Z</time>
      </trkpt>
      <trkpt lat="45.56361" lon="5.84597">
        <ele>533.67</ele>
        <time>2014-09-06T07:16:07Z</time>
      </trkpt>
      <trkpt lat="45.56351" lon="5.84546">
        <ele>533.67</ele>
        <time>2014-09-06T07:16:18Z</time>
      </trkpt>
      <trkpt lat="45.56358" lon="5.84502">
        <ele>534.63</ele>
        <time>2014-09-06T07:16:29Z</time>
      </trkpt>
      <trkpt lat="45.56385" lon="5.8452">
        <ele>535.11</ele>
        <time>2014-09-06T07:16:38Z</time>
      </trkpt>
      <trkpt lat="45.56422" lon="5.84566">
        <ele>538.48</ele>
        <time>2014-09-06T07:16:54Z</time>
      </trkpt>
      <trkpt lat="45.56462" lon="5.84548">
        <ele>541.36</ele>
        <time>2014-09-06T07:17:04Z</time>
      </trkpt>
      <trkpt lat="45.56466" lon="5.84547">
        <ele>541.36</ele>
        <time>2014-09-06T07:17:05Z</time>
      </trkpt>
      <trkpt lat="45.5647" lon="5.84545">
        <ele>541.84</ele>
        <time>2014-09-06T07:17:06Z</time>
      </trkpt>
      <trkpt lat="45.56475" lon="5.84545">
        <ele>541.84</ele>
        <time>2014-09-06T07:17:07Z</time>
      </trkpt>
      <trkpt lat="45.56479" lon="5.84545">
        <ele>542.8</ele>
        <time>2014-09-06T07:17:08Z</time>
      </trkpt>
      <trkpt lat="45.56527" lon="5.84544">
        <ele>545.69</ele>
        <time>2014-09-06T07:17:22Z</time>
      </trkpt>
      <trkpt lat="45.5657" lon="5.84544">
        <ele>548.57</ele>
        <time>2014-09-06T07:17:39Z</time>
      </trkpt>
      <trkpt lat="45.5661" lon="5.84548">
        <ele>551.45</ele>
        <time>2014-09-06T07:17:55Z</time>
      </trkpt>
      <trkpt lat="45.5664" lon="5.84528">
        <ele>554.34</ele>
        <time>2014-09-06T07:18:09Z</time>
      </trkpt>
      <trkpt lat="45.56657" lon="5.84495">
        <ele>556.26</ele>
        <time>2014-09-06T07:18:21Z</time>
      </trkpt>
      <trkpt lat="45.56687" lon="5.84501">
        <ele>558.66</ele>
        <time>2014-09-06T07:18:34Z</time>
      </trkpt>
      <trkpt lat="45.56723" lon="5.84516">
        <ele>561.55</ele>
        <time>2014-09-06T07:18:49Z</time>
      </trkpt>
      <trkpt lat="45.56744" lon="5.84478">
        <ele>563.95</ele>
        <time>2014-09-06T07:19:03Z</time>
      </trkpt>
      <trkpt lat="45.56759" lon="5.84448">
        <ele>564.43</ele>
        <time>2014-09-06T07:19:15Z</time>
      </trkpt>
      <trkpt lat="45.56794" lon="5.84425">
        <ele>564.91</ele>
        <time>2014-09-06T07:19:29Z</time>
      </trkpt>
      <trkpt lat="45.56844" lon="5.84418">
        <ele>566.35</ele>
        <time>2014-09-06T07:19:45Z</time>
      </trkpt>
      <trkpt lat="45.56891" lon="5.84408">
        <ele>566.83</ele>
        <time>2014-09-06T07:20:00Z</time>
      </trkpt>
      <trkpt lat="45.56924" lon="5.84385">
        <ele>569.24</ele>
        <time>2014-09-06T07:20:13Z</time>
      </trkpt>
      <trkpt lat="45.56953" lon="5.84357">
        <ele>572.12</ele>
        <time>2014-09-06T07:20:27Z</time>
      </trkpt>
      <trkpt lat="45.56985" lon="5.8433">
        <ele>574.53</ele>
        <time>2014-09-06T07:20:44Z</time>
      </trkpt>
      <trkpt lat="45.57015" lon="5.84306">
        <ele>577.41</ele>
        <time>2014-09-06T07:20:59Z</time>
      </trkpt>
      <trkpt lat="45.57046" lon="5.8428">
        <ele>580.29</ele>
        <time>2014-09-06T07:21:16Z</time>
      </trkpt>
      <trkpt lat="45.57075" lon="5.84256">
        <ele>583.18</ele>
        <time>2014-09-06T07:21:32Z</time>
      </trkpt>
      <trkpt lat="45.57106" lon="5.84231">
        <ele>585.58</ele>
        <time>2014-09-06T07:21:48Z</time>
      </trkpt>
      <trkpt lat="45.57133" lon="5.84216">
        <ele>587.5</ele>
        <time>2014-09-06T07:22:01Z</time>
      </trkpt>
      <trkpt lat="45.57158" lon="5.84198">
        <ele>589.91</ele>
        <time>2014-09-06T07:22:14Z</time>
      </trkpt>
      <trkpt lat="45.57185" lon="5.84179">
        <ele>592.31</ele>
        <time>2014-09-06T07:22:28Z</time>
      </trkpt>
      <trkpt lat="45.57213" lon="5.84161">
        <ele>594.71</ele>
        <time>2014-09-06T07:22:42Z</time>
      </trkpt>
      <trkpt lat="45.57244" lon="5.84139">
        <ele>597.6</ele>
        <time>2014-09-06T07:22:58Z</time>
      </trkpt>
      <trkpt lat="45.57262" lon="5.84124">
        <ele>600</ele>
        <time>2014-09-06T07:23:10Z</time>
      </trkpt>
      <trkpt lat="45.57283" lon="5.84091">
        <ele>602.4</ele>
        <time>2014-09-06T07:23:25Z</time>
      </trkpt>
      <trkpt lat="45.57304" lon="5.84042">
        <ele>604.81</ele>
        <time>2014-09-06T07:23:42Z</time>
      </trkpt>
      <trkpt lat="45.57312" lon="5.83998">
        <ele>607.21</ele>
        <time>2014-09-06T07:23:56Z</time>
      </trkpt>
      <trkpt lat="45.57312" lon="5.83995">
        <ele>607.21</ele>
        <time>2014-09-06T07:23:57Z</time>
      </trkpt>
      <trkpt lat="45.57312" lon="5.83993">
        <ele>607.21</ele>
        <time>2014-09-06T07:23:58Z</time>
      </trkpt>
      <trkpt lat="45.57312" lon="5.83991">
        <ele>607.69</ele>
        <time>2014-09-06T07:23:59Z</time>
      </trkpt>
      <trkpt lat="45.57311" lon="5.83989">
        <ele>607.69</ele>
        <time>2014-09-06T07:24:00Z</time>
      </trkpt>
      <trkpt lat="45.5731" lon="5.83987">
        <ele>607.69</ele>
        <time>2014-09-06T07:24:01Z</time>
      </trkpt>
      <trkpt lat="45.57309" lon="5.83985">
        <ele>608.17</ele>
        <time>2014-09-06T07:24:02Z</time>
      </trkpt>
      <trkpt lat="45.57292" lon="5.83967">
        <ele>610.09</ele>
        <time>2014-09-06T07:24:14Z</time>
      </trkpt>
      <trkpt lat="45.57291" lon="5.83965">
        <ele>610.09</ele>
        <time>2014-09-06T07:24:15Z</time>
      </trkpt>
      <trkpt lat="45.5729" lon="5.83962">
        <ele>610.57</ele>
        <time>2014-09-06T07:24:16Z</time>
      </trkpt>
      <trkpt lat="45.57285" lon="5.83961">
        <ele>610.57</ele>
        <time>2014-09-06T07:24:33Z</time>
      </trkpt>
      <trkpt lat="45.57279" lon="5.83955">
        <ele>610.57</ele>
        <time>2014-09-06T07:25:24Z</time>
      </trkpt>
      <trkpt lat="45.57278" lon="5.83953">
        <ele>611.06</ele>
        <time>2014-09-06T07:25:42Z</time>
      </trkpt>
      <trkpt lat="45.57276" lon="5.83953">
        <ele>611.06</ele>
        <time>2014-09-06T07:25:43Z</time>
      </trkpt>
      <trkpt lat="45.57275" lon="5.83953">
        <ele>611.06</ele>
        <time>2014-09-06T07:25:44Z</time>
      </trkpt>
      <trkpt lat="45.57274" lon="5.83952">
        <ele>611.06</ele>
        <time>2014-09-06T07:25:45Z</time>
      </trkpt>
      <trkpt lat="45.57273" lon="5.83952">
        <ele>611.54</ele>
        <time>2014-09-06T07:25:46Z</time>
      </trkpt>
      <trkpt lat="45.57272" lon="5.83951">
        <ele>611.54</ele>
        <time>2014-09-06T07:25:47Z</time>
      </trkpt>
      <trkpt lat="45.5727" lon="5.8395">
        <ele>611.54</ele>
        <time>2014-09-06T07:25:48Z</time>
      </trkpt>
      <trkpt lat="45.57269" lon="5.83949">
        <ele>611.54</ele>
        <time>2014-09-06T07:25:49Z</time>
      </trkpt>
      <trkpt lat="45.57267" lon="5.83948">
        <ele>612.02</ele>
        <time>2014-09-06T07:25:50Z</time>
      </trkpt>
      <trkpt lat="45.57248" lon="5.83918">
        <ele>614.9</ele>
        <time>2014-09-06T07:26:05Z</time>
      </trkpt>
      <trkpt lat="45.57238" lon="5.8388">
        <ele>617.3</ele>
        <time>2014-09-06T07:26:17Z</time>
      </trkpt>
      <trkpt lat="45.57226" lon="5.83833">
        <ele>620.19</ele>
        <time>2014-09-06T07:26:31Z</time>
      </trkpt>
      <trkpt lat="45.57198" lon="5.83796">
        <ele>623.07</ele>
        <time>2014-09-06T07:26:46Z</time>
      </trkpt>
      <trkpt lat="45.57175" lon="5.83772">
        <ele>625.47</ele>
        <time>2014-09-06T07:26:58Z</time>
      </trkpt>
      <trkpt lat="45.57146" lon="5.83751">
        <ele>627.88</ele>
        <time>2014-09-06T07:27:11Z</time>
      </trkpt>
      <trkpt lat="45.5714" lon="5.83745">
        <ele>628.36</ele>
        <time>2014-09-06T07:27:14Z</time>
      </trkpt>
      <trkpt lat="45.57137" lon="5.83744">
        <ele>628.36</ele>
        <time>2014-09-06T07:27:15Z</time>
      </trkpt>
      <trkpt lat="45.57103" lon="5.83724">
        <ele>630.76</ele>
        <time>2014-09-06T07:27:28Z</time>
      </trkpt>
      <trkpt lat="45.57078" lon="5.83703">
        <ele>633.17</ele>
        <time>2014-09-06T07:27:41Z</time>
      </trkpt>
      <trkpt lat="45.57059" lon="5.83685">
        <ele>635.09</ele>
        <time>2014-09-06T07:27:52Z</time>
      </trkpt>
      <trkpt lat="45.57027" lon="5.83668">
        <ele>637.01</ele>
        <time>2014-09-06T07:28:06Z</time>
      </trkpt>
      <trkpt lat="45.56992" lon="5.83659">
        <ele>640.38</ele>
        <time>2014-09-06T07:28:22Z</time>
      </trkpt>
      <trkpt lat="45.56991" lon="5.83657">
        <ele>640.38</ele>
        <time>2014-09-06T07:28:23Z</time>
      </trkpt>
      <trkpt lat="45.56989" lon="5.83655">
        <ele>640.38</ele>
        <time>2014-09-06T07:28:24Z</time>
      </trkpt>
      <trkpt lat="45.56988" lon="5.83652">
        <ele>640.86</ele>
        <time>2014-09-06T07:28:25Z</time>
      </trkpt>
      <trkpt lat="45.56986" lon="5.83646">
        <ele>641.34</ele>
        <time>2014-09-06T07:28:27Z</time>
      </trkpt>
      <trkpt lat="45.56987" lon="5.83636">
        <ele>642.3</ele>
        <time>2014-09-06T07:28:30Z</time>
      </trkpt>
      <trkpt lat="45.56988" lon="5.83632">
        <ele>642.3</ele>
        <time>2014-09-06T07:28:31Z</time>
      </trkpt>
      <trkpt lat="45.56989" lon="5.83629">
        <ele>642.78</ele>
        <time>2014-09-06T07:28:32Z</time>
      </trkpt>
      <trkpt lat="45.5701" lon="5.83605">
        <ele>644.7</ele>
        <time>2014-09-06T07:28:44Z</time>
      </trkpt>
      <trkpt lat="45.57047" lon="5.83583">
        <ele>647.1</ele>
        <time>2014-09-06T07:28:59Z</time>
      </trkpt>
      <trkpt lat="45.57087" lon="5.83567">
        <ele>649.51</ele>
        <time>2014-09-06T07:29:13Z</time>
      </trkpt>
      <trkpt lat="45.57134" lon="5.83529">
        <ele>652.87</ele>
        <time>2014-09-06T07:29:30Z</time>
      </trkpt>
      <trkpt lat="45.57167" lon="5.83491">
        <ele>655.76</ele>
        <time>2014-09-06T07:29:46Z</time>
      </trkpt>
      <trkpt lat="45.57184" lon="5.83456">
        <ele>659.12</ele>
        <time>2014-09-06T07:29:59Z</time>
      </trkpt>
      <trkpt lat="45.57203" lon="5.83422">
        <ele>661.52</ele>
        <time>2014-09-06T07:30:14Z</time>
      </trkpt>
      <trkpt lat="45.57236" lon="5.83385">
        <ele>664.41</ele>
        <time>2014-09-06T07:30:31Z</time>
      </trkpt>
      <trkpt lat="45.57268" lon="5.83352">
        <ele>667.77</ele>
        <time>2014-09-06T07:30:47Z</time>
      </trkpt>
      <trkpt lat="45.57292" lon="5.83313">
        <ele>670.18</ele>
        <time>2014-09-06T07:31:02Z</time>
      </trkpt>
      <trkpt lat="45.57321" lon="5.83286">
        <ele>673.06</ele>
        <time>2014-09-06T07:31:16Z</time>
      </trkpt>
      <trkpt lat="45.57351" lon="5.83253">
        <ele>675.94</ele>
        <time>2014-09-06T07:31:31Z</time>
      </trkpt>
      <trkpt lat="45.57377" lon="5.83214">
        <ele>678.83</ele>
        <time>2014-09-06T07:31:47Z</time>
      </trkpt>
      <trkpt lat="45.57405" lon="5.83185">
        <ele>681.71</ele>
        <time>2014-09-06T07:32:01Z</time>
      </trkpt>
      <trkpt lat="45.57441" lon="5.83158">
        <ele>684.12</ele>
        <time>2014-09-06T07:32:17Z</time>
      </trkpt>
      <trkpt lat="45.57473" lon="5.83139">
        <ele>686.52</ele>
        <time>2014-09-06T07:32:30Z</time>
      </trkpt>
      <trkpt lat="45.57504" lon="5.83125">
        <ele>688.92</ele>
        <time>2014-09-06T07:32:43Z</time>
      </trkpt>
      <trkpt lat="45.5754" lon="5.83124">
        <ele>692.29</ele>
        <time>2014-09-06T07:32:58Z</time>
      </trkpt>
      <trkpt lat="45.57574" lon="5.83139">
        <ele>695.17</ele>
        <time>2014-09-06T07:33:14Z</time>
      </trkpt>
      <trkpt lat="45.57583" lon="5.83145">
        <ele>696.13</ele>
        <time>2014-09-06T07:33:19Z</time>
      </trkpt>
      <trkpt lat="45.57593" lon="5.83151">
        <ele>697.09</ele>
        <time>2014-09-06T07:33:34Z</time>
      </trkpt>
      <trkpt lat="45.57596" lon="5.83152">
        <ele>697.57</ele>
        <time>2014-09-06T07:34:09Z</time>
      </trkpt>
      <trkpt lat="45.57597" lon="5.83156">
        <ele>698.05</ele>
        <time>2014-09-06T07:34:50Z</time>
      </trkpt>
      <trkpt lat="45.57596" lon="5.83153">
        <ele>699.02</ele>
        <time>2014-09-06T07:35:30Z</time>
      </trkpt>
      <trkpt lat="45.57594" lon="5.83147">
        <ele>699.5</ele>
        <time>2014-09-06T07:36:04Z</time>
      </trkpt>
      <trkpt lat="45.5759" lon="5.83145">
        <ele>699.98</ele>
        <time>2014-09-06T07:36:41Z</time>
      </trkpt>
      <trkpt lat="45.57592" lon="5.83147">
        <ele>700.46</ele>
        <time>2014-09-06T07:37:10Z</time>
      </trkpt>
      <trkpt lat="45.57597" lon="5.83149">
        <ele>700.46</ele>
        <time>2014-09-06T07:37:35Z</time>
      </trkpt>
      <trkpt lat="45.57596" lon="5.83148">
        <ele>700.94</ele>
        <time>2014-09-06T07:38:02Z</time>
      </trkpt>
      <trkpt lat="45.57597" lon="5.83148">
        <ele>701.42</ele>
        <time>2014-09-06T07:38:32Z</time>
      </trkpt>
      <trkpt lat="45.576" lon="5.83145">
        <ele>701.42</ele>
        <time>2014-09-06T07:38:45Z</time>
      </trkpt>
      <trkpt lat="45.57601" lon="5.83144">
        <ele>701.42</ele>
        <time>2014-09-06T07:38:46Z</time>
      </trkpt>
      <trkpt lat="45.57602" lon="5.83142">
        <ele>701.42</ele>
        <time>2014-09-06T07:38:47Z</time>
      </trkpt>
      <trkpt lat="45.57603" lon="5.83141">
        <ele>701.42</ele>
        <time>2014-09-06T07:38:48Z</time>
      </trkpt>
      <trkpt lat="45.57604" lon="5.8314">
        <ele>701.9</ele>
        <time>2014-09-06T07:38:49Z</time>
      </trkpt>
      <trkpt lat="45.57605" lon="5.83139">
        <ele>702.38</ele>
        <time>2014-09-06T07:38:50Z</time>
      </trkpt>
      <trkpt lat="45.57605" lon="5.83138">
        <ele>702.38</ele>
        <time>2014-09-06T07:38:51Z</time>
      </trkpt>
      <trkpt lat="45.57606" lon="5.83136">
        <ele>702.86</ele>
        <time>2014-09-06T07:38:52Z</time>
      </trkpt>
      <trkpt lat="45.57607" lon="5.83135">
        <ele>703.34</ele>
        <time>2014-09-06T07:38:53Z</time>
      </trkpt>
      <trkpt lat="45.57609" lon="5.83134">
        <ele>704.3</ele>
        <time>2014-09-06T07:38:55Z</time>
      </trkpt>
      <trkpt lat="45.57611" lon="5.83134">
        <ele>704.3</ele>
        <time>2014-09-06T07:38:56Z</time>
      </trkpt>
      <trkpt lat="45.57612" lon="5.83134">
        <ele>704.78</ele>
        <time>2014-09-06T07:38:57Z</time>
      </trkpt>
      <trkpt lat="45.57613" lon="5.83135">
        <ele>704.78</ele>
        <time>2014-09-06T07:38:58Z</time>
      </trkpt>
      <trkpt lat="45.57614" lon="5.83137">
        <ele>705.26</ele>
        <time>2014-09-06T07:39:00Z</time>
      </trkpt>
      <trkpt lat="45.57622" lon="5.83142">
        <ele>707.67</ele>
        <time>2014-09-06T07:39:11Z</time>
      </trkpt>
      <trkpt lat="45.57637" lon="5.83138">
        <ele>711.03</ele>
        <time>2014-09-06T07:39:25Z</time>
      </trkpt>
      <trkpt lat="45.57647" lon="5.83133">
        <ele>712.47</ele>
        <time>2014-09-06T07:39:35Z</time>
      </trkpt>
      <trkpt lat="45.57664" lon="5.83126">
        <ele>715.84</ele>
        <time>2014-09-06T07:39:51Z</time>
      </trkpt>
      <trkpt lat="45.57679" lon="5.83124">
        <ele>719.2</ele>
        <time>2014-09-06T07:40:08Z</time>
      </trkpt>
      <trkpt lat="45.57689" lon="5.83122">
        <ele>720.65</ele>
        <time>2014-09-06T07:40:17Z</time>
      </trkpt>
      <trkpt lat="45.57707" lon="5.83118">
        <ele>723.53</ele>
        <time>2014-09-06T07:40:31Z</time>
      </trkpt>
      <trkpt lat="45.57719" lon="5.83116">
        <ele>726.89</ele>
        <time>2014-09-06T07:40:42Z</time>
      </trkpt>
      <trkpt lat="45.57729" lon="5.83122">
        <ele>730.26</ele>
        <time>2014-09-06T07:40:53Z</time>
      </trkpt>
      <trkpt lat="45.57743" lon="5.83116">
        <ele>733.62</ele>
        <time>2014-09-06T07:41:05Z</time>
      </trkpt>
      <trkpt lat="45.57743" lon="5.83115">
        <ele>733.62</ele>
        <time>2014-09-06T07:41:06Z</time>
      </trkpt>
      <trkpt lat="45.57742" lon="5.83103">
        <ele>736.99</ele>
        <time>2014-09-06T07:41:18Z</time>
      </trkpt>
      <trkpt lat="45.57736" lon="5.83088">
        <ele>739.87</ele>
        <time>2014-09-06T07:41:32Z</time>
      </trkpt>
      <trkpt lat="45.57727" lon="5.83075">
        <ele>742.28</ele>
        <time>2014-09-06T07:41:46Z</time>
      </trkpt>
      <trkpt lat="45.57726" lon="5.83073">
        <ele>742.76</ele>
        <time>2014-09-06T07:41:47Z</time>
      </trkpt>
      <trkpt lat="45.57718" lon="5.83064">
        <ele>744.68</ele>
        <time>2014-09-06T07:41:57Z</time>
      </trkpt>
      <trkpt lat="45.57707" lon="5.83049">
        <ele>748.04</ele>
        <time>2014-09-06T07:42:11Z</time>
      </trkpt>
      <trkpt lat="45.57706" lon="5.83045">
        <ele>748.52</ele>
        <time>2014-09-06T07:42:14Z</time>
      </trkpt>
      <trkpt lat="45.57706" lon="5.83043">
        <ele>749</ele>
        <time>2014-09-06T07:42:15Z</time>
      </trkpt>
      <trkpt lat="45.57698" lon="5.83022">
        <ele>752.37</ele>
        <time>2014-09-06T07:42:31Z</time>
      </trkpt>
      <trkpt lat="45.57693" lon="5.83014">
        <ele>753.33</ele>
        <time>2014-09-06T07:42:37Z</time>
      </trkpt>
      <trkpt lat="45.57677" lon="5.83004">
        <ele>755.25</ele>
        <time>2014-09-06T07:42:51Z</time>
      </trkpt>
      <trkpt lat="45.57671" lon="5.82993">
        <ele>756.69</ele>
        <time>2014-09-06T07:43:00Z</time>
      </trkpt>
      <trkpt lat="45.57674" lon="5.82985">
        <ele>758.14</ele>
        <time>2014-09-06T07:43:09Z</time>
      </trkpt>
      <trkpt lat="45.57688" lon="5.82988">
        <ele>761.02</ele>
        <time>2014-09-06T07:43:25Z</time>
      </trkpt>
      <trkpt lat="45.57699" lon="5.82993">
        <ele>763.42</ele>
        <time>2014-09-06T07:43:35Z</time>
      </trkpt>
      <trkpt lat="45.57701" lon="5.82995">
        <ele>763.42</ele>
        <time>2014-09-06T07:43:37Z</time>
      </trkpt>
      <trkpt lat="45.57711" lon="5.82997">
        <ele>766.31</ele>
        <time>2014-09-06T07:43:44Z</time>
      </trkpt>
      <trkpt lat="45.57724" lon="5.83">
        <ele>770.15</ele>
        <time>2014-09-06T07:43:54Z</time>
      </trkpt>
      <trkpt lat="45.57726" lon="5.83001">
        <ele>770.63</ele>
        <time>2014-09-06T07:43:56Z</time>
      </trkpt>
      <trkpt lat="45.57737" lon="5.82994">
        <ele>773.52</ele>
        <time>2014-09-06T07:44:10Z</time>
      </trkpt>
      <trkpt lat="45.57747" lon="5.82988">
        <ele>776.88</ele>
        <time>2014-09-06T07:44:23Z</time>
      </trkpt>
      <trkpt lat="45.57756" lon="5.82976">
        <ele>779.29</ele>
        <time>2014-09-06T07:44:36Z</time>
      </trkpt>
      <trkpt lat="45.57758" lon="5.82973">
        <ele>779.77</ele>
        <time>2014-09-06T07:44:38Z</time>
      </trkpt>
      <trkpt lat="45.57759" lon="5.82972">
        <ele>779.77</ele>
        <time>2014-09-06T07:44:39Z</time>
      </trkpt>
      <trkpt lat="45.57769" lon="5.8296">
        <ele>781.69</ele>
        <time>2014-09-06T07:44:49Z</time>
      </trkpt>
      <trkpt lat="45.57785" lon="5.82952">
        <ele>785.05</ele>
        <time>2014-09-06T07:45:04Z</time>
      </trkpt>
      <trkpt lat="45.57801" lon="5.82945">
        <ele>787.94</ele>
        <time>2014-09-06T07:45:19Z</time>
      </trkpt>
      <trkpt lat="45.57806" lon="5.82944">
        <ele>788.9</ele>
        <time>2014-09-06T07:45:24Z</time>
      </trkpt>
      <trkpt lat="45.57813" lon="5.82944">
        <ele>789.86</ele>
        <time>2014-09-06T07:45:30Z</time>
      </trkpt>
      <trkpt lat="45.57815" lon="5.82943">
        <ele>790.34</ele>
        <time>2014-09-06T07:45:31Z</time>
      </trkpt>
      <trkpt lat="45.57816" lon="5.82943">
        <ele>790.34</ele>
        <time>2014-09-06T07:45:32Z</time>
      </trkpt>
      <trkpt lat="45.57833" lon="5.82935">
        <ele>793.22</ele>
        <time>2014-09-06T07:45:47Z</time>
      </trkpt>
      <trkpt lat="45.5784" lon="5.82934">
        <ele>794.67</ele>
        <time>2014-09-06T07:45:53Z</time>
      </trkpt>
      <trkpt lat="45.57859" lon="5.8293">
        <ele>797.55</ele>
        <time>2014-09-06T07:46:08Z</time>
      </trkpt>
      <trkpt lat="45.57869" lon="5.82927">
        <ele>798.99</ele>
        <time>2014-09-06T07:46:15Z</time>
      </trkpt>
      <trkpt lat="45.5787" lon="5.82926">
        <ele>798.99</ele>
        <time>2014-09-06T07:46:16Z</time>
      </trkpt>
      <trkpt lat="45.57886" lon="5.82918">
        <ele>801.4</ele>
        <time>2014-09-06T07:46:29Z</time>
      </trkpt>
      <trkpt lat="45.57902" lon="5.82912">
        <ele>804.28</ele>
        <time>2014-09-06T07:46:42Z</time>
      </trkpt>
      <trkpt lat="45.57906" lon="5.82909">
        <ele>805.72</ele>
        <time>2014-09-06T07:46:46Z</time>
      </trkpt>
      <trkpt lat="45.5791" lon="5.82907">
        <ele>806.2</ele>
        <time>2014-09-06T07:46:50Z</time>
      </trkpt>
      <trkpt lat="45.57921" lon="5.829">
        <ele>808.13</ele>
        <time>2014-09-06T07:47:00Z</time>
      </trkpt>
      <trkpt lat="45.57939" lon="5.8289">
        <ele>810.05</ele>
        <time>2014-09-06T07:47:15Z</time>
      </trkpt>
      <trkpt lat="45.57959" lon="5.82881">
        <ele>812.93</ele>
        <time>2014-09-06T07:47:30Z</time>
      </trkpt>
      <trkpt lat="45.57965" lon="5.82877">
        <ele>813.89</ele>
        <time>2014-09-06T07:47:35Z</time>
      </trkpt>
      <trkpt lat="45.57967" lon="5.82876">
        <ele>813.89</ele>
        <time>2014-09-06T07:47:36Z</time>
      </trkpt>
      <trkpt lat="45.57968" lon="5.82875">
        <ele>814.37</ele>
        <time>2014-09-06T07:47:37Z</time>
      </trkpt>
      <trkpt lat="45.57983" lon="5.82867">
        <ele>815.82</ele>
        <time>2014-09-06T07:47:48Z</time>
      </trkpt>
      <trkpt lat="45.57995" lon="5.82873">
        <ele>817.26</ele>
        <time>2014-09-06T07:47:56Z</time>
      </trkpt>
      <trkpt lat="45.57996" lon="5.82874">
        <ele>817.26</ele>
        <time>2014-09-06T07:47:57Z</time>
      </trkpt>
      <trkpt lat="45.57997" lon="5.82876">
        <ele>817.74</ele>
        <time>2014-09-06T07:47:58Z</time>
      </trkpt>
      <trkpt lat="45.57999" lon="5.82878">
        <ele>817.74</ele>
        <time>2014-09-06T07:47:59Z</time>
      </trkpt>
      <trkpt lat="45.57999" lon="5.82879">
        <ele>817.74</ele>
        <time>2014-09-06T07:48:00Z</time>
      </trkpt>
      <trkpt lat="45.58" lon="5.82881">
        <ele>817.74</ele>
        <time>2014-09-06T07:48:01Z</time>
      </trkpt>
      <trkpt lat="45.58" lon="5.82883">
        <ele>817.74</ele>
        <time>2014-09-06T07:48:02Z</time>
      </trkpt>
      <trkpt lat="45.58021" lon="5.82899">
        <ele>818.22</ele>
        <time>2014-09-06T07:48:17Z</time>
      </trkpt>
      <trkpt lat="45.58037" lon="5.82887">
        <ele>818.22</ele>
        <time>2014-09-06T07:48:29Z</time>
      </trkpt>
      <trkpt lat="45.58039" lon="5.82885">
        <ele>818.22</ele>
        <time>2014-09-06T07:48:30Z</time>
      </trkpt>
      <trkpt lat="45.5804" lon="5.82883">
        <ele>818.22</ele>
        <time>2014-09-06T07:48:31Z</time>
      </trkpt>
      <trkpt lat="45.58041" lon="5.82882">
        <ele>818.22</ele>
        <time>2014-09-06T07:48:32Z</time>
      </trkpt>
      <trkpt lat="45.58042" lon="5.8288">
        <ele>818.22</ele>
        <time>2014-09-06T07:48:33Z</time>
      </trkpt>
      <trkpt lat="45.58043" lon="5.82878">
        <ele>818.7</ele>
        <time>2014-09-06T07:48:34Z</time>
      </trkpt>
      <trkpt lat="45.58049" lon="5.82863">
        <ele>818.7</ele>
        <time>2014-09-06T07:48:41Z</time>
      </trkpt>
      <trkpt lat="45.58051" lon="5.82862">
        <ele>818.7</ele>
        <time>2014-09-06T07:48:42Z</time>
      </trkpt>
      <trkpt lat="45.58052" lon="5.8286">
        <ele>818.7</ele>
        <time>2014-09-06T07:48:43Z</time>
      </trkpt>
      <trkpt lat="45.58053" lon="5.82859">
        <ele>818.7</ele>
        <time>2014-09-06T07:48:44Z</time>
      </trkpt>
      <trkpt lat="45.58055" lon="5.82857">
        <ele>818.7</ele>
        <time>2014-09-06T07:48:45Z</time>
      </trkpt>
      <trkpt lat="45.58056" lon="5.82856">
        <ele>818.7</ele>
        <time>2014-09-06T07:48:46Z</time>
      </trkpt>
      <trkpt lat="45.58058" lon="5.82854">
        <ele>818.7</ele>
        <time>2014-09-06T07:48:47Z</time>
      </trkpt>
      <trkpt lat="45.58059" lon="5.82853">
        <ele>818.7</ele>
        <time>2014-09-06T07:48:48Z</time>
      </trkpt>
      <trkpt lat="45.58087" lon="5.82854">
        <ele>819.66</ele>
        <time>2014-09-06T07:49:02Z</time>
      </trkpt>
      <trkpt lat="45.58089" lon="5.82855">
        <ele>819.66</ele>
        <time>2014-09-06T07:49:03Z</time>
      </trkpt>
      <trkpt lat="45.58105" lon="5.82864">
        <ele>822.06</ele>
        <time>2014-09-06T07:49:16Z</time>
      </trkpt>
      <trkpt lat="45.58107" lon="5.82865">
        <ele>822.06</ele>
        <time>2014-09-06T07:49:17Z</time>
      </trkpt>
      <trkpt lat="45.58108" lon="5.82865">
        <ele>822.06</ele>
        <time>2014-09-06T07:49:18Z</time>
      </trkpt>
      <trkpt lat="45.58124" lon="5.82877">
        <ele>825.43</ele>
        <time>2014-09-06T07:49:34Z</time>
      </trkpt>
      <trkpt lat="45.58125" lon="5.82877">
        <ele>825.43</ele>
        <time>2014-09-06T07:49:35Z</time>
      </trkpt>
      <trkpt lat="45.58144" lon="5.82876">
        <ele>827.35</ele>
        <time>2014-09-06T07:49:47Z</time>
      </trkpt>
      <trkpt lat="45.58166" lon="5.82867">
        <ele>830.72</ele>
        <time>2014-09-06T07:50:03Z</time>
      </trkpt>
      <trkpt lat="45.58185" lon="5.82866">
        <ele>833.6</ele>
        <time>2014-09-06T07:50:19Z</time>
      </trkpt>
      <trkpt lat="45.58198" lon="5.82869">
        <ele>836</ele>
        <time>2014-09-06T07:50:30Z</time>
      </trkpt>
      <trkpt lat="45.58206" lon="5.82866">
        <ele>836.96</ele>
        <time>2014-09-06T07:50:37Z</time>
      </trkpt>
      <trkpt lat="45.58222" lon="5.82861">
        <ele>839.85</ele>
        <time>2014-09-06T07:50:52Z</time>
      </trkpt>
      <trkpt lat="45.58239" lon="5.82857">
        <ele>843.21</ele>
        <time>2014-09-06T07:51:08Z</time>
      </trkpt>
      <trkpt lat="45.5824" lon="5.82857">
        <ele>843.21</ele>
        <time>2014-09-06T07:51:09Z</time>
      </trkpt>
      <trkpt lat="45.58242" lon="5.82857">
        <ele>843.69</ele>
        <time>2014-09-06T07:51:10Z</time>
      </trkpt>
      <trkpt lat="45.58243" lon="5.82857">
        <ele>843.69</ele>
        <time>2014-09-06T07:51:11Z</time>
      </trkpt>
      <trkpt lat="45.5826" lon="5.82862">
        <ele>846.1</ele>
        <time>2014-09-06T07:51:24Z</time>
      </trkpt>
      <trkpt lat="45.58273" lon="5.82865">
        <ele>848.98</ele>
        <time>2014-09-06T07:51:36Z</time>
      </trkpt>
      <trkpt lat="45.58291" lon="5.82858">
        <ele>852.35</ele>
        <time>2014-09-06T07:51:51Z</time>
      </trkpt>
      <trkpt lat="45.58311" lon="5.82846">
        <ele>855.23</ele>
        <time>2014-09-06T07:52:06Z</time>
      </trkpt>
      <trkpt lat="45.58318" lon="5.82842">
        <ele>856.19</ele>
        <time>2014-09-06T07:52:11Z</time>
      </trkpt>
      <trkpt lat="45.58329" lon="5.82831">
        <ele>858.11</ele>
        <time>2014-09-06T07:52:22Z</time>
      </trkpt>
      <trkpt lat="45.58332" lon="5.82829">
        <ele>858.59</ele>
        <time>2014-09-06T07:52:24Z</time>
      </trkpt>
      <trkpt lat="45.58333" lon="5.82829">
        <ele>859.08</ele>
        <time>2014-09-06T07:52:25Z</time>
      </trkpt>
      <trkpt lat="45.58349" lon="5.82818">
        <ele>861.96</ele>
        <time>2014-09-06T07:52:38Z</time>
      </trkpt>
      <trkpt lat="45.58353" lon="5.82817">
        <ele>862.44</ele>
        <time>2014-09-06T07:52:41Z</time>
      </trkpt>
      <trkpt lat="45.58354" lon="5.82818">
        <ele>862.92</ele>
        <time>2014-09-06T07:52:42Z</time>
      </trkpt>
      <trkpt lat="45.58356" lon="5.82818">
        <ele>862.92</ele>
        <time>2014-09-06T07:52:43Z</time>
      </trkpt>
      <trkpt lat="45.5837" lon="5.82819">
        <ele>865.32</ele>
        <time>2014-09-06T07:52:57Z</time>
      </trkpt>
      <trkpt lat="45.58389" lon="5.82813">
        <ele>867.73</ele>
        <time>2014-09-06T07:53:12Z</time>
      </trkpt>
      <trkpt lat="45.58405" lon="5.82806">
        <ele>870.61</ele>
        <time>2014-09-06T07:53:29Z</time>
      </trkpt>
      <trkpt lat="45.58418" lon="5.82798">
        <ele>873.5</ele>
        <time>2014-09-06T07:53:43Z</time>
      </trkpt>
      <trkpt lat="45.58426" lon="5.82796">
        <ele>874.46</ele>
        <time>2014-09-06T07:53:50Z</time>
      </trkpt>
      <trkpt lat="45.58437" lon="5.8279">
        <ele>876.38</ele>
        <time>2014-09-06T07:54:02Z</time>
      </trkpt>
      <trkpt lat="45.58443" lon="5.8279">
        <ele>878.3</ele>
        <time>2014-09-06T07:54:09Z</time>
      </trkpt>
      <trkpt lat="45.58444" lon="5.8279">
        <ele>878.3</ele>
        <time>2014-09-06T07:54:10Z</time>
      </trkpt>
      <trkpt lat="45.58445" lon="5.8279">
        <ele>879.26</ele>
        <time>2014-09-06T07:54:11Z</time>
      </trkpt>
      <trkpt lat="45.58459" lon="5.82783">
        <ele>882.15</ele>
        <time>2014-09-06T07:54:23Z</time>
      </trkpt>
      <trkpt lat="45.58469" lon="5.8278">
        <ele>883.59</ele>
        <time>2014-09-06T07:54:36Z</time>
      </trkpt>
      <trkpt lat="45.58467" lon="5.82779">
        <ele>884.07</ele>
        <time>2014-09-06T07:54:39Z</time>
      </trkpt>
      <trkpt lat="45.58452" lon="5.82766">
        <ele>885.99</ele>
        <time>2014-09-06T07:54:54Z</time>
      </trkpt>
      <trkpt lat="45.58447" lon="5.82763">
        <ele>886.47</ele>
        <time>2014-09-06T07:54:58Z</time>
      </trkpt>
      <trkpt lat="45.58446" lon="5.82762">
        <ele>886.47</ele>
        <time>2014-09-06T07:54:59Z</time>
      </trkpt>
      <trkpt lat="45.58439" lon="5.82759">
        <ele>887.43</ele>
        <time>2014-09-06T07:55:05Z</time>
      </trkpt>
      <trkpt lat="45.58438" lon="5.82759">
        <ele>887.43</ele>
        <time>2014-09-06T07:55:06Z</time>
      </trkpt>
      <trkpt lat="45.58436" lon="5.82758">
        <ele>887.43</ele>
        <time>2014-09-06T07:55:07Z</time>
      </trkpt>
      <trkpt lat="45.58435" lon="5.82758">
        <ele>887.91</ele>
        <time>2014-09-06T07:55:08Z</time>
      </trkpt>
      <trkpt lat="45.58434" lon="5.82758">
        <ele>887.91</ele>
        <time>2014-09-06T07:55:09Z</time>
      </trkpt>
      <trkpt lat="45.58416" lon="5.82755">
        <ele>889.84</ele>
        <time>2014-09-06T07:55:22Z</time>
      </trkpt>
      <trkpt lat="45.58412" lon="5.82753">
        <ele>889.84</ele>
        <time>2014-09-06T07:55:24Z</time>
      </trkpt>
      <trkpt lat="45.58395" lon="5.82742">
        <ele>892.24</ele>
        <time>2014-09-06T07:55:37Z</time>
      </trkpt>
      <trkpt lat="45.58394" lon="5.82741">
        <ele>892.24</ele>
        <time>2014-09-06T07:55:38Z</time>
      </trkpt>
      <trkpt lat="45.58393" lon="5.8274">
        <ele>892.24</ele>
        <time>2014-09-06T07:55:39Z</time>
      </trkpt>
      <trkpt lat="45.58391" lon="5.82739">
        <ele>892.24</ele>
        <time>2014-09-06T07:55:40Z</time>
      </trkpt>
      <trkpt lat="45.5839" lon="5.82738">
        <ele>892.72</ele>
        <time>2014-09-06T07:55:41Z</time>
      </trkpt>
      <trkpt lat="45.58388" lon="5.82737">
        <ele>892.24</ele>
        <time>2014-09-06T07:55:42Z</time>
      </trkpt>
      <trkpt lat="45.58387" lon="5.82736">
        <ele>892.24</ele>
        <time>2014-09-06T07:55:43Z</time>
      </trkpt>
      <trkpt lat="45.58386" lon="5.82735">
        <ele>893.2</ele>
        <time>2014-09-06T07:55:44Z</time>
      </trkpt>
      <trkpt lat="45.58384" lon="5.82733">
        <ele>893.2</ele>
        <time>2014-09-06T07:55:45Z</time>
      </trkpt>
      <trkpt lat="45.58383" lon="5.82732">
        <ele>893.2</ele>
        <time>2014-09-06T07:55:46Z</time>
      </trkpt>
      <trkpt lat="45.58381" lon="5.8273">
        <ele>893.68</ele>
        <time>2014-09-06T07:55:47Z</time>
      </trkpt>
      <trkpt lat="45.58354" lon="5.82727">
        <ele>895.12</ele>
        <time>2014-09-06T07:56:00Z</time>
      </trkpt>
      <trkpt lat="45.58333" lon="5.82732">
        <ele>898.01</ele>
        <time>2014-09-06T07:56:13Z</time>
      </trkpt>
      <trkpt lat="45.58307" lon="5.82734">
        <ele>899.93</ele>
        <time>2014-09-06T07:56:27Z</time>
      </trkpt>
      <trkpt lat="45.58294" lon="5.8273">
        <ele>900.41</ele>
        <time>2014-09-06T07:56:35Z</time>
      </trkpt>
      <trkpt lat="45.58293" lon="5.82729">
        <ele>900.89</ele>
        <time>2014-09-06T07:56:36Z</time>
      </trkpt>
      <trkpt lat="45.58291" lon="5.82728">
        <ele>900.89</ele>
        <time>2014-09-06T07:56:37Z</time>
      </trkpt>
      <trkpt lat="45.5829" lon="5.82724">
        <ele>901.85</ele>
        <time>2014-09-06T07:56:40Z</time>
      </trkpt>
      <trkpt lat="45.5829" lon="5.82717">
        <ele>902.33</ele>
        <time>2014-09-06T07:56:44Z</time>
      </trkpt>
      <trkpt lat="45.58291" lon="5.82713">
        <ele>902.33</ele>
        <time>2014-09-06T07:56:46Z</time>
      </trkpt>
      <trkpt lat="45.58291" lon="5.82711">
        <ele>902.82</ele>
        <time>2014-09-06T07:56:47Z</time>
      </trkpt>
      <trkpt lat="45.58317" lon="5.82705">
        <ele>903.3</ele>
        <time>2014-09-06T07:57:02Z</time>
      </trkpt>
      <trkpt lat="45.58347" lon="5.82701">
        <ele>904.26</ele>
        <time>2014-09-06T07:57:15Z</time>
      </trkpt>
      <trkpt lat="45.58383" lon="5.82697">
        <ele>907.14</ele>
        <time>2014-09-06T07:57:29Z</time>
      </trkpt>
      <trkpt lat="45.58412" lon="5.82692">
        <ele>909.06</ele>
        <time>2014-09-06T07:57:43Z</time>
      </trkpt>
      <trkpt lat="45.58439" lon="5.82685">
        <ele>911.95</ele>
        <time>2014-09-06T07:57:58Z</time>
      </trkpt>
      <trkpt lat="45.58464" lon="5.82679">
        <ele>914.83</ele>
        <time>2014-09-06T07:58:13Z</time>
      </trkpt>
      <trkpt lat="45.58488" lon="5.82674">
        <ele>917.24</ele>
        <time>2014-09-06T07:58:27Z</time>
      </trkpt>
      <trkpt lat="45.58516" lon="5.82671">
        <ele>919.16</ele>
        <time>2014-09-06T07:58:43Z</time>
      </trkpt>
      <trkpt lat="45.58541" lon="5.82664">
        <ele>922.04</ele>
        <time>2014-09-06T07:58:59Z</time>
      </trkpt>
      <trkpt lat="45.58574" lon="5.82653">
        <ele>924.45</ele>
        <time>2014-09-06T07:59:14Z</time>
      </trkpt>
      <trkpt lat="45.58605" lon="5.82647">
        <ele>927.33</ele>
        <time>2014-09-06T07:59:31Z</time>
      </trkpt>
      <trkpt lat="45.58633" lon="5.82643">
        <ele>929.73</ele>
        <time>2014-09-06T07:59:46Z</time>
      </trkpt>
      <trkpt lat="45.58655" lon="5.82647">
        <ele>931.17</ele>
        <time>2014-09-06T07:59:58Z</time>
      </trkpt>
      <trkpt lat="45.58679" lon="5.82645">
        <ele>932.14</ele>
        <time>2014-09-06T08:00:11Z</time>
      </trkpt>
      <trkpt lat="45.58679" lon="5.82643">
        <ele>932.62</ele>
        <time>2014-09-06T08:00:12Z</time>
      </trkpt>
      <trkpt lat="45.58679" lon="5.82641">
        <ele>932.62</ele>
        <time>2014-09-06T08:00:13Z</time>
      </trkpt>
      <trkpt lat="45.58678" lon="5.82638">
        <ele>932.62</ele>
        <time>2014-09-06T08:00:14Z</time>
      </trkpt>
      <trkpt lat="45.58677" lon="5.82632">
        <ele>933.1</ele>
        <time>2014-09-06T08:00:27Z</time>
      </trkpt>
      <trkpt lat="45.5868" lon="5.82637">
        <ele>933.1</ele>
        <time>2014-09-06T08:00:53Z</time>
      </trkpt>
      <trkpt lat="45.58678" lon="5.82635">
        <ele>933.1</ele>
        <time>2014-09-06T08:01:03Z</time>
      </trkpt>
      <trkpt lat="45.58676" lon="5.82634">
        <ele>933.1</ele>
        <time>2014-09-06T08:01:05Z</time>
      </trkpt>
      <trkpt lat="45.58675" lon="5.82634">
        <ele>933.1</ele>
        <time>2014-09-06T08:01:06Z</time>
      </trkpt>
      <trkpt lat="45.58674" lon="5.82633">
        <ele>933.58</ele>
        <time>2014-09-06T08:01:07Z</time>
      </trkpt>
      <trkpt lat="45.58655" lon="5.82626">
        <ele>935.02</ele>
        <time>2014-09-06T08:01:20Z</time>
      </trkpt>
      <trkpt lat="45.58627" lon="5.82624">
        <ele>936.46</ele>
        <time>2014-09-06T08:01:35Z</time>
      </trkpt>
      <trkpt lat="45.58595" lon="5.82621">
        <ele>938.86</ele>
        <time>2014-09-06T08:01:51Z</time>
      </trkpt>
      <trkpt lat="45.58579" lon="5.82619">
        <ele>939.35</ele>
        <time>2014-09-06T08:01:59Z</time>
      </trkpt>
      <trkpt lat="45.58577" lon="5.82619">
        <ele>939.35</ele>
        <time>2014-09-06T08:02:00Z</time>
      </trkpt>
      <trkpt lat="45.58575" lon="5.82619">
        <ele>940.31</ele>
        <time>2014-09-06T08:02:01Z</time>
      </trkpt>
      <trkpt lat="45.58573" lon="5.82619">
        <ele>940.31</ele>
        <time>2014-09-06T08:02:02Z</time>
      </trkpt>
      <trkpt lat="45.58571" lon="5.82618">
        <ele>940.31</ele>
        <time>2014-09-06T08:02:03Z</time>
      </trkpt>
      <trkpt lat="45.58547" lon="5.82617">
        <ele>941.75</ele>
        <time>2014-09-06T08:02:16Z</time>
      </trkpt>
      <trkpt lat="45.58523" lon="5.82617">
        <ele>943.67</ele>
        <time>2014-09-06T08:02:29Z</time>
      </trkpt>
      <trkpt lat="45.58496" lon="5.82619">
        <ele>946.56</ele>
        <time>2014-09-06T08:02:45Z</time>
      </trkpt>
      <trkpt lat="45.58473" lon="5.82619">
        <ele>948.48</ele>
        <time>2014-09-06T08:02:57Z</time>
      </trkpt>
      <trkpt lat="45.58439" lon="5.82618">
        <ele>950.4</ele>
        <time>2014-09-06T08:03:11Z</time>
      </trkpt>
      <trkpt lat="45.5841" lon="5.82613">
        <ele>953.28</ele>
        <time>2014-09-06T08:03:25Z</time>
      </trkpt>
      <trkpt lat="45.58386" lon="5.82616">
        <ele>955.69</ele>
        <time>2014-09-06T08:03:38Z</time>
      </trkpt>
      <trkpt lat="45.58372" lon="5.82617">
        <ele>957.13</ele>
        <time>2014-09-06T08:03:45Z</time>
      </trkpt>
      <trkpt lat="45.5837" lon="5.82617">
        <ele>957.13</ele>
        <time>2014-09-06T08:03:46Z</time>
      </trkpt>
      <trkpt lat="45.58368" lon="5.82617">
        <ele>957.13</ele>
        <time>2014-09-06T08:03:47Z</time>
      </trkpt>
      <trkpt lat="45.58358" lon="5.82612">
        <ele>958.57</ele>
        <time>2014-09-06T08:03:55Z</time>
      </trkpt>
      <trkpt lat="45.58355" lon="5.82611">
        <ele>958.57</ele>
        <time>2014-09-06T08:03:57Z</time>
      </trkpt>
      <trkpt lat="45.58353" lon="5.82611">
        <ele>959.05</ele>
        <time>2014-09-06T08:03:58Z</time>
      </trkpt>
      <trkpt lat="45.58325" lon="5.82606">
        <ele>960.98</ele>
        <time>2014-09-06T08:04:10Z</time>
      </trkpt>
      <trkpt lat="45.583" lon="5.82602">
        <ele>963.38</ele>
        <time>2014-09-06T08:04:22Z</time>
      </trkpt>
      <trkpt lat="45.58292" lon="5.82601">
        <ele>963.86</ele>
        <time>2014-09-06T08:04:25Z</time>
      </trkpt>
      <trkpt lat="45.5829" lon="5.82601">
        <ele>963.86</ele>
        <time>2014-09-06T08:04:26Z</time>
      </trkpt>
      <trkpt lat="45.5827" lon="5.82601">
        <ele>966.74</ele>
        <time>2014-09-06T08:04:39Z</time>
      </trkpt>
      <trkpt lat="45.58253" lon="5.82594">
        <ele>968.18</ele>
        <time>2014-09-06T08:04:47Z</time>
      </trkpt>
      <trkpt lat="45.58252" lon="5.82593">
        <ele>968.18</ele>
        <time>2014-09-06T08:04:48Z</time>
      </trkpt>
      <trkpt lat="45.58251" lon="5.82591">
        <ele>968.18</ele>
        <time>2014-09-06T08:04:49Z</time>
      </trkpt>
      <trkpt lat="45.58249" lon="5.82589">
        <ele>968.67</ele>
        <time>2014-09-06T08:04:50Z</time>
      </trkpt>
      <trkpt lat="45.58247" lon="5.82588">
        <ele>968.67</ele>
        <time>2014-09-06T08:04:51Z</time>
      </trkpt>
      <trkpt lat="45.58218" lon="5.82569">
        <ele>970.59</ele>
        <time>2014-09-06T08:05:05Z</time>
      </trkpt>
      <trkpt lat="45.58192" lon="5.82566">
        <ele>972.99</ele>
        <time>2014-09-06T08:05:18Z</time>
      </trkpt>
      <trkpt lat="45.58181" lon="5.82565">
        <ele>974.43</ele>
        <time>2014-09-06T08:05:25Z</time>
      </trkpt>
      <trkpt lat="45.58179" lon="5.82565">
        <ele>974.43</ele>
        <time>2014-09-06T08:05:26Z</time>
      </trkpt>
      <trkpt lat="45.58177" lon="5.82565">
        <ele>974.43</ele>
        <time>2014-09-06T08:05:27Z</time>
      </trkpt>
      <trkpt lat="45.58175" lon="5.82565">
        <ele>974.43</ele>
        <time>2014-09-06T08:05:28Z</time>
      </trkpt>
      <trkpt lat="45.58174" lon="5.82565">
        <ele>974.43</ele>
        <time>2014-09-06T08:05:29Z</time>
      </trkpt>
      <trkpt lat="45.58151" lon="5.82567">
        <ele>977.32</ele>
        <time>2014-09-06T08:05:42Z</time>
      </trkpt>
      <trkpt lat="45.58122" lon="5.82568">
        <ele>978.76</ele>
        <time>2014-09-06T08:05:55Z</time>
      </trkpt>
      <trkpt lat="45.5812" lon="5.82568">
        <ele>979.24</ele>
        <time>2014-09-06T08:05:56Z</time>
      </trkpt>
      <trkpt lat="45.58098" lon="5.82559">
        <ele>981.16</ele>
        <time>2014-09-06T08:06:08Z</time>
      </trkpt>
      <trkpt lat="45.58073" lon="5.82543">
        <ele>983.09</ele>
        <time>2014-09-06T08:06:20Z</time>
      </trkpt>
      <trkpt lat="45.58035" lon="5.82512">
        <ele>985.97</ele>
        <time>2014-09-06T08:06:38Z</time>
      </trkpt>
      <trkpt lat="45.5802" lon="5.82477">
        <ele>988.85</ele>
        <time>2014-09-06T08:06:53Z</time>
      </trkpt>
      <trkpt lat="45.58022" lon="5.8244">
        <ele>991.26</ele>
        <time>2014-09-06T08:07:07Z</time>
      </trkpt>
      <trkpt lat="45.58035" lon="5.82399">
        <ele>993.66</ele>
        <time>2014-09-06T08:07:22Z</time>
      </trkpt>
      <trkpt lat="45.58049" lon="5.82368">
        <ele>995.58</ele>
        <time>2014-09-06T08:07:36Z</time>
      </trkpt>
      <trkpt lat="45.58061" lon="5.82335">
        <ele>997.51</ele>
        <time>2014-09-06T08:07:50Z</time>
      </trkpt>
      <trkpt lat="45.58082" lon="5.82321">
        <ele>998.47</ele>
        <time>2014-09-06T08:08:02Z</time>
      </trkpt>
      <trkpt lat="45.58102" lon="5.82316">
        <ele>998.95</ele>
        <time>2014-09-06T08:08:16Z</time>
      </trkpt>
      <trkpt lat="45.58105" lon="5.82318">
        <ele>998.95</ele>
        <time>2014-09-06T08:08:18Z</time>
      </trkpt>
      <trkpt lat="45.58105" lon="5.82319">
        <ele>998.95</ele>
        <time>2014-09-06T08:08:19Z</time>
      </trkpt>
      <trkpt lat="45.58108" lon="5.82327">
        <ele>998.95</ele>
        <time>2014-09-06T08:08:24Z</time>
      </trkpt>
      <trkpt lat="45.58108" lon="5.82334">
        <ele>999.43</ele>
        <time>2014-09-06T08:08:38Z</time>
      </trkpt>
      <trkpt lat="45.58111" lon="5.82324">
        <ele>998.95</ele>
        <time>2014-09-06T08:09:09Z</time>
      </trkpt>
      <trkpt lat="45.58111" lon="5.82328">
        <ele>998.47</ele>
        <time>2014-09-06T08:09:53Z</time>
      </trkpt>
      <trkpt lat="45.58109" lon="5.82322">
        <ele>998.47</ele>
        <time>2014-09-06T08:10:37Z</time>
      </trkpt>
      <trkpt lat="45.58108" lon="5.82318">
        <ele>998.47</ele>
        <time>2014-09-06T08:11:21Z</time>
      </trkpt>
      <trkpt lat="45.5811" lon="5.82324">
        <ele>997.02</ele>
        <time>2014-09-06T08:12:03Z</time>
      </trkpt>
      <trkpt lat="45.58114" lon="5.82319">
        <ele>997.02</ele>
        <time>2014-09-06T08:12:33Z</time>
      </trkpt>
      <trkpt lat="45.58115" lon="5.82316">
        <ele>997.02</ele>
        <time>2014-09-06T08:13:11Z</time>
      </trkpt>
      <trkpt lat="45.5811" lon="5.8232">
        <ele>997.02</ele>
        <time>2014-09-06T08:13:52Z</time>
      </trkpt>
      <trkpt lat="45.58112" lon="5.82322">
        <ele>997.02</ele>
        <time>2014-09-06T08:14:27Z</time>
      </trkpt>
      <trkpt lat="45.5811" lon="5.8232">
        <ele>996.54</ele>
        <time>2014-09-06T08:15:12Z</time>
      </trkpt>
      <trkpt lat="45.58111" lon="5.82321">
        <ele>996.54</ele>
        <time>2014-09-06T08:15:22Z</time>
      </trkpt>
      <trkpt lat="45.58115" lon="5.82318">
        <ele>996.54</ele>
        <time>2014-09-06T08:15:27Z</time>
      </trkpt>
      <trkpt lat="45.58135" lon="5.82301">
        <ele>995.58</ele>
        <time>2014-09-06T08:15:41Z</time>
      </trkpt>
      <trkpt lat="45.58152" lon="5.823">
        <ele>995.58</ele>
        <time>2014-09-06T08:15:53Z</time>
      </trkpt>
      <trkpt lat="45.58154" lon="5.823">
        <ele>995.58</ele>
        <time>2014-09-06T08:15:54Z</time>
      </trkpt>
      <trkpt lat="45.58156" lon="5.823">
        <ele>995.58</ele>
        <time>2014-09-06T08:15:55Z</time>
      </trkpt>
      <trkpt lat="45.58159" lon="5.823">
        <ele>995.58</ele>
        <time>2014-09-06T08:15:56Z</time>
      </trkpt>
      <trkpt lat="45.58161" lon="5.823">
        <ele>995.58</ele>
        <time>2014-09-06T08:15:57Z</time>
      </trkpt>
      <trkpt lat="45.58164" lon="5.823">
        <ele>995.58</ele>
        <time>2014-09-06T08:15:58Z</time>
      </trkpt>
      <trkpt lat="45.58167" lon="5.823">
        <ele>995.58</ele>
        <time>2014-09-06T08:15:59Z</time>
      </trkpt>
      <trkpt lat="45.58193" lon="5.82321">
        <ele>994.14</ele>
        <time>2014-09-06T08:16:09Z</time>
      </trkpt>
      <trkpt lat="45.58196" lon="5.82321">
        <ele>994.14</ele>
        <time>2014-09-06T08:16:10Z</time>
      </trkpt>
      <trkpt lat="45.58199" lon="5.8232">
        <ele>993.66</ele>
        <time>2014-09-06T08:16:11Z</time>
      </trkpt>
      <trkpt lat="45.58202" lon="5.82319">
        <ele>993.66</ele>
        <time>2014-09-06T08:16:12Z</time>
      </trkpt>
      <trkpt lat="45.58206" lon="5.82318">
        <ele>993.66</ele>
        <time>2014-09-06T08:16:13Z</time>
      </trkpt>
      <trkpt lat="45.58209" lon="5.82316">
        <ele>993.66</ele>
        <time>2014-09-06T08:16:14Z</time>
      </trkpt>
      <trkpt lat="45.58212" lon="5.82314">
        <ele>993.66</ele>
        <time>2014-09-06T08:16:15Z</time>
      </trkpt>
      <trkpt lat="45.58216" lon="5.82311">
        <ele>993.18</ele>
        <time>2014-09-06T08:16:16Z</time>
      </trkpt>
      <trkpt lat="45.58258" lon="5.82297">
        <ele>992.22</ele>
        <time>2014-09-06T08:16:26Z</time>
      </trkpt>
      <trkpt lat="45.58262" lon="5.82297">
        <ele>992.22</ele>
        <time>2014-09-06T08:16:27Z</time>
      </trkpt>
      <trkpt lat="45.58266" lon="5.82299">
        <ele>992.22</ele>
        <time>2014-09-06T08:16:28Z</time>
      </trkpt>
      <trkpt lat="45.5827" lon="5.823">
        <ele>992.22</ele>
        <time>2014-09-06T08:16:29Z</time>
      </trkpt>
      <trkpt lat="45.58274" lon="5.82302">
        <ele>992.22</ele>
        <time>2014-09-06T08:16:30Z</time>
      </trkpt>
      <trkpt lat="45.58279" lon="5.82304">
        <ele>991.74</ele>
        <time>2014-09-06T08:16:31Z</time>
      </trkpt>
      <trkpt lat="45.58283" lon="5.82306">
        <ele>991.74</ele>
        <time>2014-09-06T08:16:32Z</time>
      </trkpt>
      <trkpt lat="45.58296" lon="5.82314">
        <ele>991.26</ele>
        <time>2014-09-06T08:16:35Z</time>
      </trkpt>
      <trkpt lat="45.58304" lon="5.82318">
        <ele>990.78</ele>
        <time>2014-09-06T08:16:37Z</time>
      </trkpt>
      <trkpt lat="45.58308" lon="5.82319">
        <ele>990.78</ele>
        <time>2014-09-06T08:16:38Z</time>
      </trkpt>
      <trkpt lat="45.58312" lon="5.8232">
        <ele>990.3</ele>
        <time>2014-09-06T08:16:39Z</time>
      </trkpt>
      <trkpt lat="45.58316" lon="5.8232">
        <ele>990.3</ele>
        <time>2014-09-06T08:16:40Z</time>
      </trkpt>
      <trkpt lat="45.5832" lon="5.8232">
        <ele>990.3</ele>
        <time>2014-09-06T08:16:41Z</time>
      </trkpt>
      <trkpt lat="45.58346" lon="5.82306">
        <ele>989.81</ele>
        <time>2014-09-06T08:16:48Z</time>
      </trkpt>
      <trkpt lat="45.58351" lon="5.82302">
        <ele>989.81</ele>
        <time>2014-09-06T08:16:49Z</time>
      </trkpt>
      <trkpt lat="45.58355" lon="5.82299">
        <ele>989.81</ele>
        <time>2014-09-06T08:16:50Z</time>
      </trkpt>
      <trkpt lat="45.58368" lon="5.82294">
        <ele>989.33</ele>
        <time>2014-09-06T08:16:53Z</time>
      </trkpt>
      <trkpt lat="45.58373" lon="5.82293">
        <ele>988.37</ele>
        <time>2014-09-06T08:16:54Z</time>
      </trkpt>
      <trkpt lat="45.58378" lon="5.82292">
        <ele>988.85</ele>
        <time>2014-09-06T08:16:55Z</time>
      </trkpt>
      <trkpt lat="45.58407" lon="5.82289">
        <ele>987.89</ele>
        <time>2014-09-06T08:17:01Z</time>
      </trkpt>
      <trkpt lat="45.58412" lon="5.82287">
        <ele>987.89</ele>
        <time>2014-09-06T08:17:02Z</time>
      </trkpt>
      <trkpt lat="45.58422" lon="5.82279">
        <ele>987.89</ele>
        <time>2014-09-06T08:17:04Z</time>
      </trkpt>
      <trkpt lat="45.58426" lon="5.82276">
        <ele>987.41</ele>
        <time>2014-09-06T08:17:05Z</time>
      </trkpt>
      <trkpt lat="45.58429" lon="5.82272">
        <ele>987.41</ele>
        <time>2014-09-06T08:17:06Z</time>
      </trkpt>
      <trkpt lat="45.58431" lon="5.82267">
        <ele>987.41</ele>
        <time>2014-09-06T08:17:07Z</time>
      </trkpt>
      <trkpt lat="45.58433" lon="5.82263">
        <ele>986.93</ele>
        <time>2014-09-06T08:17:08Z</time>
      </trkpt>
      <trkpt lat="45.58434" lon="5.82258">
        <ele>986.93</ele>
        <time>2014-09-06T08:17:09Z</time>
      </trkpt>
      <trkpt lat="45.58446" lon="5.82193">
        <ele>986.45</ele>
        <time>2014-09-06T08:17:19Z</time>
      </trkpt>
      <trkpt lat="45.58448" lon="5.82186">
        <ele>985.97</ele>
        <time>2014-09-06T08:17:20Z</time>
      </trkpt>
      <trkpt lat="45.58453" lon="5.8217">
        <ele>987.41</ele>
        <time>2014-09-06T08:17:23Z</time>
      </trkpt>
      <trkpt lat="45.58468" lon="5.82136">
        <ele>990.3</ele>
        <time>2014-09-06T08:17:35Z</time>
      </trkpt>
      <trkpt lat="45.58484" lon="5.82107">
        <ele>991.74</ele>
        <time>2014-09-06T08:17:50Z</time>
      </trkpt>
      <trkpt lat="45.58506" lon="5.82093">
        <ele>992.7</ele>
        <time>2014-09-06T08:18:06Z</time>
      </trkpt>
      <trkpt lat="45.58538" lon="5.8211">
        <ele>992.7</ele>
        <time>2014-09-06T08:18:17Z</time>
      </trkpt>
      <trkpt lat="45.58557" lon="5.82154">
        <ele>990.78</ele>
        <time>2014-09-06T08:18:27Z</time>
      </trkpt>
      <trkpt lat="45.58559" lon="5.82165">
        <ele>989.81</ele>
        <time>2014-09-06T08:18:29Z</time>
      </trkpt>
      <trkpt lat="45.58561" lon="5.82171">
        <ele>989.33</ele>
        <time>2014-09-06T08:18:30Z</time>
      </trkpt>
      <trkpt lat="45.58565" lon="5.82177">
        <ele>989.33</ele>
        <time>2014-09-06T08:18:31Z</time>
      </trkpt>
      <trkpt lat="45.58569" lon="5.82185">
        <ele>988.37</ele>
        <time>2014-09-06T08:18:32Z</time>
      </trkpt>
      <trkpt lat="45.58574" lon="5.82193">
        <ele>987.89</ele>
        <time>2014-09-06T08:18:33Z</time>
      </trkpt>
      <trkpt lat="45.58579" lon="5.82199">
        <ele>987.89</ele>
        <time>2014-09-06T08:18:34Z</time>
      </trkpt>
      <trkpt lat="45.58584" lon="5.82204">
        <ele>986.93</ele>
        <time>2014-09-06T08:18:35Z</time>
      </trkpt>
      <trkpt lat="45.5859" lon="5.82208">
        <ele>986.45</ele>
        <time>2014-09-06T08:18:36Z</time>
      </trkpt>
      <trkpt lat="45.58596" lon="5.82211">
        <ele>985.97</ele>
        <time>2014-09-06T08:18:37Z</time>
      </trkpt>
      <trkpt lat="45.58603" lon="5.82213">
        <ele>985.01</ele>
        <time>2014-09-06T08:18:38Z</time>
      </trkpt>
      <trkpt lat="45.58609" lon="5.82215">
        <ele>984.53</ele>
        <time>2014-09-06T08:18:39Z</time>
      </trkpt>
      <trkpt lat="45.58617" lon="5.82215">
        <ele>983.09</ele>
        <time>2014-09-06T08:18:40Z</time>
      </trkpt>
      <trkpt lat="45.58648" lon="5.82217">
        <ele>979.72</ele>
        <time>2014-09-06T08:18:44Z</time>
      </trkpt>
      <trkpt lat="45.58674" lon="5.82218">
        <ele>977.32</ele>
        <time>2014-09-06T08:18:47Z</time>
      </trkpt>
      <trkpt lat="45.58682" lon="5.82216">
        <ele>976.84</ele>
        <time>2014-09-06T08:18:48Z</time>
      </trkpt>
      <trkpt lat="45.58692" lon="5.8221">
        <ele>975.88</ele>
        <time>2014-09-06T08:18:49Z</time>
      </trkpt>
      <trkpt lat="45.58701" lon="5.82203">
        <ele>975.39</ele>
        <time>2014-09-06T08:18:50Z</time>
      </trkpt>
      <trkpt lat="45.5871" lon="5.82195">
        <ele>974.43</ele>
        <time>2014-09-06T08:18:51Z</time>
      </trkpt>
      <trkpt lat="45.58717" lon="5.82186">
        <ele>974.43</ele>
        <time>2014-09-06T08:18:52Z</time>
      </trkpt>
      <trkpt lat="45.58771" lon="5.82124">
        <ele>972.51</ele>
        <time>2014-09-06T08:19:00Z</time>
      </trkpt>
      <trkpt lat="45.58777" lon="5.82119">
        <ele>972.51</ele>
        <time>2014-09-06T08:19:01Z</time>
      </trkpt>
      <trkpt lat="45.58784" lon="5.82115">
        <ele>972.99</ele>
        <time>2014-09-06T08:19:02Z</time>
      </trkpt>
      <trkpt lat="45.58796" lon="5.82109">
        <ele>972.99</ele>
        <time>2014-09-06T08:19:04Z</time>
      </trkpt>
      <trkpt lat="45.5883" lon="5.82097">
        <ele>972.99</ele>
        <time>2014-09-06T08:19:09Z</time>
      </trkpt>
      <trkpt lat="45.58837" lon="5.82098">
        <ele>972.99</ele>
        <time>2014-09-06T08:19:10Z</time>
      </trkpt>
      <trkpt lat="45.58844" lon="5.821">
        <ele>972.99</ele>
        <time>2014-09-06T08:19:11Z</time>
      </trkpt>
      <trkpt lat="45.5885" lon="5.82103">
        <ele>972.99</ele>
        <time>2014-09-06T08:19:12Z</time>
      </trkpt>
      <trkpt lat="45.58856" lon="5.82106">
        <ele>972.99</ele>
        <time>2014-09-06T08:19:13Z</time>
      </trkpt>
      <trkpt lat="45.58902" lon="5.82137">
        <ele>975.88</ele>
        <time>2014-09-06T08:19:25Z</time>
      </trkpt>
      <trkpt lat="45.58929" lon="5.82154">
        <ele>978.28</ele>
        <time>2014-09-06T08:19:37Z</time>
      </trkpt>
      <trkpt lat="45.58951" lon="5.82162">
        <ele>981.16</ele>
        <time>2014-09-06T08:19:49Z</time>
      </trkpt>
      <trkpt lat="45.58986" lon="5.82172">
        <ele>984.53</ele>
        <time>2014-09-06T08:20:06Z</time>
      </trkpt>
      <trkpt lat="45.59021" lon="5.82189">
        <ele>986.45</ele>
        <time>2014-09-06T08:20:21Z</time>
      </trkpt>
      <trkpt lat="45.59056" lon="5.82215">
        <ele>988.37</ele>
        <time>2014-09-06T08:20:37Z</time>
      </trkpt>
      <trkpt lat="45.59093" lon="5.82227">
        <ele>989.81</ele>
        <time>2014-09-06T08:20:51Z</time>
      </trkpt>
      <trkpt lat="45.59124" lon="5.82239">
        <ele>992.7</ele>
        <time>2014-09-06T08:21:04Z</time>
      </trkpt>
      <trkpt lat="45.59156" lon="5.82241">
        <ele>994.62</ele>
        <time>2014-09-06T08:21:18Z</time>
      </trkpt>
      <trkpt lat="45.59189" lon="5.82251">
        <ele>996.06</ele>
        <time>2014-09-06T08:21:31Z</time>
      </trkpt>
      <trkpt lat="45.59236" lon="5.82258">
        <ele>996.06</ele>
        <time>2014-09-06T08:21:44Z</time>
      </trkpt>
      <trkpt lat="45.59284" lon="5.82259">
        <ele>997.51</ele>
        <time>2014-09-06T08:21:58Z</time>
      </trkpt>
      <trkpt lat="45.59326" lon="5.82255">
        <ele>997.99</ele>
        <time>2014-09-06T08:22:10Z</time>
      </trkpt>
      <trkpt lat="45.59375" lon="5.82234">
        <ele>999.43</ele>
        <time>2014-09-06T08:22:24Z</time>
      </trkpt>
      <trkpt lat="45.594" lon="5.82222">
        <ele>1002.31</ele>
        <time>2014-09-06T08:22:33Z</time>
      </trkpt>
      <trkpt lat="45.5943" lon="5.82214">
        <ele>1005.68</ele>
        <time>2014-09-06T08:22:46Z</time>
      </trkpt>
      <trkpt lat="45.59464" lon="5.82202">
        <ele>1008.56</ele>
        <time>2014-09-06T08:23:01Z</time>
      </trkpt>
      <trkpt lat="45.59495" lon="5.82191">
        <ele>1011.44</ele>
        <time>2014-09-06T08:23:15Z</time>
      </trkpt>
      <trkpt lat="45.59517" lon="5.82188">
        <ele>1014.33</ele>
        <time>2014-09-06T08:23:27Z</time>
      </trkpt>
      <trkpt lat="45.59544" lon="5.82184">
        <ele>1017.69</ele>
        <time>2014-09-06T08:23:41Z</time>
      </trkpt>
      <trkpt lat="45.59584" lon="5.82177">
        <ele>1021.06</ele>
        <time>2014-09-06T08:23:58Z</time>
      </trkpt>
      <trkpt lat="45.59611" lon="5.82174">
        <ele>1023.46</ele>
        <time>2014-09-06T08:24:12Z</time>
      </trkpt>
      <trkpt lat="45.5964" lon="5.82171">
        <ele>1026.34</ele>
        <time>2014-09-06T08:24:28Z</time>
      </trkpt>
      <trkpt lat="45.59664" lon="5.82165">
        <ele>1029.23</ele>
        <time>2014-09-06T08:24:41Z</time>
      </trkpt>
      <trkpt lat="45.59692" lon="5.8216">
        <ele>1031.63</ele>
        <time>2014-09-06T08:24:55Z</time>
      </trkpt>
      <trkpt lat="45.59718" lon="5.82166">
        <ele>1034.52</ele>
        <time>2014-09-06T08:25:10Z</time>
      </trkpt>
      <trkpt lat="45.59743" lon="5.82169">
        <ele>1036.92</ele>
        <time>2014-09-06T08:25:23Z</time>
      </trkpt>
      <trkpt lat="45.59744" lon="5.82168">
        <ele>1037.4</ele>
        <time>2014-09-06T08:25:24Z</time>
      </trkpt>
      <trkpt lat="45.59775" lon="5.82173">
        <ele>1040.28</ele>
        <time>2014-09-06T08:25:41Z</time>
      </trkpt>
      <trkpt lat="45.59792" lon="5.82203">
        <ele>1042.69</ele>
        <time>2014-09-06T08:25:55Z</time>
      </trkpt>
      <trkpt lat="45.59812" lon="5.82222">
        <ele>1046.05</ele>
        <time>2014-09-06T08:26:08Z</time>
      </trkpt>
      <trkpt lat="45.59838" lon="5.82238">
        <ele>1048.45</ele>
        <time>2014-09-06T08:26:23Z</time>
      </trkpt>
      <trkpt lat="45.59842" lon="5.8224">
        <ele>1048.94</ele>
        <time>2014-09-06T08:26:25Z</time>
      </trkpt>
      <trkpt lat="45.59844" lon="5.8224">
        <ele>1049.42</ele>
        <time>2014-09-06T08:26:26Z</time>
      </trkpt>
      <trkpt lat="45.59846" lon="5.8224">
        <ele>1049.42</ele>
        <time>2014-09-06T08:26:27Z</time>
      </trkpt>
      <trkpt lat="45.59848" lon="5.8224">
        <ele>1049.42</ele>
        <time>2014-09-06T08:26:28Z</time>
      </trkpt>
      <trkpt lat="45.59849" lon="5.8224">
        <ele>1049.9</ele>
        <time>2014-09-06T08:26:29Z</time>
      </trkpt>
      <trkpt lat="45.59851" lon="5.82241">
        <ele>1049.9</ele>
        <time>2014-09-06T08:26:30Z</time>
      </trkpt>
      <trkpt lat="45.59853" lon="5.82241">
        <ele>1049.9</ele>
        <time>2014-09-06T08:26:31Z</time>
      </trkpt>
      <trkpt lat="45.5988" lon="5.82244">
        <ele>1052.3</ele>
        <time>2014-09-06T08:26:46Z</time>
      </trkpt>
      <trkpt lat="45.59888" lon="5.82247">
        <ele>1052.78</ele>
        <time>2014-09-06T08:26:50Z</time>
      </trkpt>
      <trkpt lat="45.5989" lon="5.82248">
        <ele>1052.78</ele>
        <time>2014-09-06T08:26:51Z</time>
      </trkpt>
      <trkpt lat="45.59892" lon="5.82249">
        <ele>1053.26</ele>
        <time>2014-09-06T08:26:52Z</time>
      </trkpt>
      <trkpt lat="45.59921" lon="5.82262">
        <ele>1054.7</ele>
        <time>2014-09-06T08:27:07Z</time>
      </trkpt>
      <trkpt lat="45.59955" lon="5.82272">
        <ele>1057.59</ele>
        <time>2014-09-06T08:27:24Z</time>
      </trkpt>
      <trkpt lat="45.59987" lon="5.82269">
        <ele>1059.03</ele>
        <time>2014-09-06T08:27:38Z</time>
      </trkpt>
      <trkpt lat="45.60012" lon="5.8226">
        <ele>1060.95</ele>
        <time>2014-09-06T08:27:51Z</time>
      </trkpt>
      <trkpt lat="45.60039" lon="5.82248">
        <ele>1062.87</ele>
        <time>2014-09-06T08:28:04Z</time>
      </trkpt>
      <trkpt lat="45.60064" lon="5.82245">
        <ele>1065.76</ele>
        <time>2014-09-06T08:28:17Z</time>
      </trkpt>
      <trkpt lat="45.60087" lon="5.82243">
        <ele>1068.64</ele>
        <time>2014-09-06T08:28:30Z</time>
      </trkpt>
      <trkpt lat="45.60116" lon="5.8223">
        <ele>1071.53</ele>
        <time>2014-09-06T08:28:47Z</time>
      </trkpt>
      <trkpt lat="45.60141" lon="5.82214">
        <ele>1073.45</ele>
        <time>2014-09-06T08:29:01Z</time>
      </trkpt>
      <trkpt lat="45.60146" lon="5.82214">
        <ele>1073.93</ele>
        <time>2014-09-06T08:29:08Z</time>
      </trkpt>
      <trkpt lat="45.60146" lon="5.82216">
        <ele>1073.93</ele>
        <time>2014-09-06T08:29:09Z</time>
      </trkpt>
      <trkpt lat="45.60147" lon="5.82217">
        <ele>1073.93</ele>
        <time>2014-09-06T08:29:10Z</time>
      </trkpt>
      <trkpt lat="45.60154" lon="5.82217">
        <ele>1073.93</ele>
        <time>2014-09-06T08:29:15Z</time>
      </trkpt>
      <trkpt lat="45.60157" lon="5.82216">
        <ele>1073.93</ele>
        <time>2014-09-06T08:29:16Z</time>
      </trkpt>
      <trkpt lat="45.6016" lon="5.82217">
        <ele>1072.97</ele>
        <time>2014-09-06T08:29:17Z</time>
      </trkpt>
      <trkpt lat="45.60164" lon="5.82219">
        <ele>1072.97</ele>
        <time>2014-09-06T08:29:18Z</time>
      </trkpt>
      <trkpt lat="45.60167" lon="5.82222">
        <ele>1072.49</ele>
        <time>2014-09-06T08:29:19Z</time>
      </trkpt>
      <trkpt lat="45.60184" lon="5.82234">
        <ele>1071.53</ele>
        <time>2014-09-06T08:29:25Z</time>
      </trkpt>
      <trkpt lat="45.60187" lon="5.82234">
        <ele>1071.53</ele>
        <time>2014-09-06T08:29:26Z</time>
      </trkpt>
      <trkpt lat="45.6019" lon="5.82236">
        <ele>1071.53</ele>
        <time>2014-09-06T08:29:27Z</time>
      </trkpt>
      <trkpt lat="45.60192" lon="5.82238">
        <ele>1071.53</ele>
        <time>2014-09-06T08:29:28Z</time>
      </trkpt>
      <trkpt lat="45.60194" lon="5.82239">
        <ele>1071.53</ele>
        <time>2014-09-06T08:29:29Z</time>
      </trkpt>
      <trkpt lat="45.60196" lon="5.82241">
        <ele>1071.53</ele>
        <time>2014-09-06T08:29:30Z</time>
      </trkpt>
      <trkpt lat="45.60199" lon="5.82242">
        <ele>1071.53</ele>
        <time>2014-09-06T08:29:31Z</time>
      </trkpt>
      <trkpt lat="45.60225" lon="5.82257">
        <ele>1071.53</ele>
        <time>2014-09-06T08:29:43Z</time>
      </trkpt>
      <trkpt lat="45.60256" lon="5.82278">
        <ele>1071.53</ele>
        <time>2014-09-06T08:29:55Z</time>
      </trkpt>
      <trkpt lat="45.60267" lon="5.82277">
        <ele>1074.41</ele>
        <time>2014-09-06T08:30:06Z</time>
      </trkpt>
      <trkpt lat="45.6027" lon="5.82278">
        <ele>1074.89</ele>
        <time>2014-09-06T08:30:09Z</time>
      </trkpt>
      <trkpt lat="45.60283" lon="5.82276">
        <ele>1078.26</ele>
        <time>2014-09-06T08:30:16Z</time>
      </trkpt>
      <trkpt lat="45.60297" lon="5.82278">
        <ele>1080.66</ele>
        <time>2014-09-06T08:30:28Z</time>
      </trkpt>
      <trkpt lat="45.60309" lon="5.82274">
        <ele>1084.02</ele>
        <time>2014-09-06T08:30:44Z</time>
      </trkpt>
      <trkpt lat="45.60322" lon="5.8227">
        <ele>1086.91</ele>
        <time>2014-09-06T08:31:00Z</time>
      </trkpt>
      <trkpt lat="45.60328" lon="5.8227">
        <ele>1087.39</ele>
        <time>2014-09-06T08:31:17Z</time>
      </trkpt>
      <trkpt lat="45.60334" lon="5.8227">
        <ele>1087.87</ele>
        <time>2014-09-06T08:31:22Z</time>
      </trkpt>
      <trkpt lat="45.60353" lon="5.82275">
        <ele>1090.27</ele>
        <time>2014-09-06T08:31:36Z</time>
      </trkpt>
      <trkpt lat="45.60366" lon="5.82275">
        <ele>1093.16</ele>
        <time>2014-09-06T08:31:45Z</time>
      </trkpt>
      <trkpt lat="45.6038" lon="5.82272">
        <ele>1097</ele>
        <time>2014-09-06T08:31:57Z</time>
      </trkpt>
      <trkpt lat="45.6039" lon="5.8227">
        <ele>1099.4</ele>
        <time>2014-09-06T08:32:08Z</time>
      </trkpt>
      <trkpt lat="45.60394" lon="5.82271">
        <ele>1099.89</ele>
        <time>2014-09-06T08:32:11Z</time>
      </trkpt>
      <trkpt lat="45.60418" lon="5.82276">
        <ele>1101.33</ele>
        <time>2014-09-06T08:32:27Z</time>
      </trkpt>
      <trkpt lat="45.60447" lon="5.82279">
        <ele>1101.81</ele>
        <time>2014-09-06T08:32:42Z</time>
      </trkpt>
      <trkpt lat="45.60467" lon="5.82282">
        <ele>1101.81</ele>
        <time>2014-09-06T08:32:55Z</time>
      </trkpt>
      <trkpt lat="45.60485" lon="5.82291">
        <ele>1104.21</ele>
        <time>2014-09-06T08:33:09Z</time>
      </trkpt>
      <trkpt lat="45.60507" lon="5.82293">
        <ele>1106.13</ele>
        <time>2014-09-06T08:33:22Z</time>
      </trkpt>
      <trkpt lat="45.60528" lon="5.82296">
        <ele>1109.02</ele>
        <time>2014-09-06T08:33:36Z</time>
      </trkpt>
      <trkpt lat="45.60544" lon="5.82294">
        <ele>1111.9</ele>
        <time>2014-09-06T08:33:49Z</time>
      </trkpt>
      <trkpt lat="45.60547" lon="5.82294">
        <ele>1112.38</ele>
        <time>2014-09-06T08:33:52Z</time>
      </trkpt>
      <trkpt lat="45.60555" lon="5.82292">
        <ele>1113.34</ele>
        <time>2014-09-06T08:33:58Z</time>
      </trkpt>
      <trkpt lat="45.6057" lon="5.82292">
        <ele>1115.75</ele>
        <time>2014-09-06T08:34:11Z</time>
      </trkpt>
      <trkpt lat="45.60579" lon="5.82287">
        <ele>1117.19</ele>
        <time>2014-09-06T08:34:18Z</time>
      </trkpt>
      <trkpt lat="45.60581" lon="5.82286">
        <ele>1117.19</ele>
        <time>2014-09-06T08:34:19Z</time>
      </trkpt>
      <trkpt lat="45.60582" lon="5.82284">
        <ele>1117.67</ele>
        <time>2014-09-06T08:34:20Z</time>
      </trkpt>
      <trkpt lat="45.60582" lon="5.82275">
        <ele>1118.63</ele>
        <time>2014-09-06T08:34:26Z</time>
      </trkpt>
      <trkpt lat="45.60582" lon="5.82273">
        <ele>1118.63</ele>
        <time>2014-09-06T08:34:27Z</time>
      </trkpt>
      <trkpt lat="45.60582" lon="5.82271">
        <ele>1119.11</ele>
        <time>2014-09-06T08:34:28Z</time>
      </trkpt>
      <trkpt lat="45.60581" lon="5.8227">
        <ele>1119.11</ele>
        <time>2014-09-06T08:34:29Z</time>
      </trkpt>
      <trkpt lat="45.60581" lon="5.82269">
        <ele>1119.11</ele>
        <time>2014-09-06T08:34:30Z</time>
      </trkpt>
      <trkpt lat="45.6058" lon="5.82268">
        <ele>1119.11</ele>
        <time>2014-09-06T08:34:31Z</time>
      </trkpt>
      <trkpt lat="45.60569" lon="5.82245">
        <ele>1121.52</ele>
        <time>2014-09-06T08:34:46Z</time>
      </trkpt>
      <trkpt lat="45.6056" lon="5.82222">
        <ele>1123.92</ele>
        <time>2014-09-06T08:35:02Z</time>
      </trkpt>
      <trkpt lat="45.60558" lon="5.82216">
        <ele>1124.4</ele>
        <time>2014-09-06T08:35:06Z</time>
      </trkpt>
      <trkpt lat="45.60559" lon="5.82209">
        <ele>1124.88</ele>
        <time>2014-09-06T08:35:11Z</time>
      </trkpt>
      <trkpt lat="45.6056" lon="5.82208">
        <ele>1125.36</ele>
        <time>2014-09-06T08:35:12Z</time>
      </trkpt>
      <trkpt lat="45.60563" lon="5.82204">
        <ele>1125.84</ele>
        <time>2014-09-06T08:35:16Z</time>
      </trkpt>
      <trkpt lat="45.60564" lon="5.82204">
        <ele>1126.8</ele>
        <time>2014-09-06T08:35:17Z</time>
      </trkpt>
      <trkpt lat="45.60565" lon="5.82202">
        <ele>1126.8</ele>
        <time>2014-09-06T08:35:18Z</time>
      </trkpt>
      <trkpt lat="45.60567" lon="5.82202">
        <ele>1127.28</ele>
        <time>2014-09-06T08:35:19Z</time>
      </trkpt>
      <trkpt lat="45.6058" lon="5.82193">
        <ele>1129.21</ele>
        <time>2014-09-06T08:35:33Z</time>
      </trkpt>
      <trkpt lat="45.60581" lon="5.82192">
        <ele>1129.21</ele>
        <time>2014-09-06T08:35:34Z</time>
      </trkpt>
      <trkpt lat="45.60587" lon="5.82194">
        <ele>1130.17</ele>
        <time>2014-09-06T08:35:39Z</time>
      </trkpt>
      <trkpt lat="45.60588" lon="5.82194">
        <ele>1130.17</ele>
        <time>2014-09-06T08:35:40Z</time>
      </trkpt>
      <trkpt lat="45.60589" lon="5.82195">
        <ele>1130.65</ele>
        <time>2014-09-06T08:35:41Z</time>
      </trkpt>
      <trkpt lat="45.60592" lon="5.82197">
        <ele>1131.13</ele>
        <time>2014-09-06T08:35:44Z</time>
      </trkpt>
      <trkpt lat="45.60593" lon="5.82198">
        <ele>1131.13</ele>
        <time>2014-09-06T08:35:45Z</time>
      </trkpt>
      <trkpt lat="45.60595" lon="5.82198">
        <ele>1131.13</ele>
        <time>2014-09-06T08:35:46Z</time>
      </trkpt>
      <trkpt lat="45.60596" lon="5.82198">
        <ele>1131.61</ele>
        <time>2014-09-06T08:35:47Z</time>
      </trkpt>
      <trkpt lat="45.60597" lon="5.82199">
        <ele>1131.61</ele>
        <time>2014-09-06T08:35:48Z</time>
      </trkpt>
      <trkpt lat="45.60598" lon="5.822">
        <ele>1131.61</ele>
        <time>2014-09-06T08:35:49Z</time>
      </trkpt>
      <trkpt lat="45.60602" lon="5.82201">
        <ele>1132.09</ele>
        <time>2014-09-06T08:35:53Z</time>
      </trkpt>
      <trkpt lat="45.60603" lon="5.82201">
        <ele>1133.05</ele>
        <time>2014-09-06T08:35:54Z</time>
      </trkpt>
      <trkpt lat="45.60605" lon="5.82201">
        <ele>1132.57</ele>
        <time>2014-09-06T08:35:55Z</time>
      </trkpt>
      <trkpt lat="45.60617" lon="5.82208">
        <ele>1134.01</ele>
        <time>2014-09-06T08:36:05Z</time>
      </trkpt>
      <trkpt lat="45.60618" lon="5.82209">
        <ele>1134.49</ele>
        <time>2014-09-06T08:36:06Z</time>
      </trkpt>
      <trkpt lat="45.6062" lon="5.82209">
        <ele>1134.49</ele>
        <time>2014-09-06T08:36:07Z</time>
      </trkpt>
      <trkpt lat="45.60621" lon="5.82211">
        <ele>1134.49</ele>
        <time>2014-09-06T08:36:08Z</time>
      </trkpt>
      <trkpt lat="45.60622" lon="5.82211">
        <ele>1134.97</ele>
        <time>2014-09-06T08:36:09Z</time>
      </trkpt>
      <trkpt lat="45.60624" lon="5.82212">
        <ele>1134.97</ele>
        <time>2014-09-06T08:36:10Z</time>
      </trkpt>
      <trkpt lat="45.60634" lon="5.82218">
        <ele>1136.42</ele>
        <time>2014-09-06T08:36:19Z</time>
      </trkpt>
      <trkpt lat="45.60635" lon="5.82218">
        <ele>1136.42</ele>
        <time>2014-09-06T08:36:20Z</time>
      </trkpt>
      <trkpt lat="45.60651" lon="5.8222">
        <ele>1138.82</ele>
        <time>2014-09-06T08:36:33Z</time>
      </trkpt>
      <trkpt lat="45.60655" lon="5.82223">
        <ele>1139.3</ele>
        <time>2014-09-06T08:36:38Z</time>
      </trkpt>
      <trkpt lat="45.60673" lon="5.82227">
        <ele>1142.18</ele>
        <time>2014-09-06T08:36:52Z</time>
      </trkpt>
      <trkpt lat="45.60677" lon="5.8223">
        <ele>1142.66</ele>
        <time>2014-09-06T08:36:55Z</time>
      </trkpt>
      <trkpt lat="45.60678" lon="5.82231">
        <ele>1143.14</ele>
        <time>2014-09-06T08:36:56Z</time>
      </trkpt>
      <trkpt lat="45.6068" lon="5.82231">
        <ele>1143.14</ele>
        <time>2014-09-06T08:36:57Z</time>
      </trkpt>
      <trkpt lat="45.60681" lon="5.82232">
        <ele>1143.14</ele>
        <time>2014-09-06T08:36:58Z</time>
      </trkpt>
      <trkpt lat="45.60683" lon="5.82233">
        <ele>1143.14</ele>
        <time>2014-09-06T08:36:59Z</time>
      </trkpt>
      <trkpt lat="45.60705" lon="5.82245">
        <ele>1145.55</ele>
        <time>2014-09-06T08:37:15Z</time>
      </trkpt>
      <trkpt lat="45.60715" lon="5.82257">
        <ele>1146.99</ele>
        <time>2014-09-06T08:37:24Z</time>
      </trkpt>
      <trkpt lat="45.60716" lon="5.82258">
        <ele>1146.99</ele>
        <time>2014-09-06T08:37:25Z</time>
      </trkpt>
      <trkpt lat="45.60721" lon="5.82263">
        <ele>1147.47</ele>
        <time>2014-09-06T08:37:29Z</time>
      </trkpt>
      <trkpt lat="45.60722" lon="5.82264">
        <ele>1147.95</ele>
        <time>2014-09-06T08:37:30Z</time>
      </trkpt>
      <trkpt lat="45.60723" lon="5.82265">
        <ele>1147.95</ele>
        <time>2014-09-06T08:37:31Z</time>
      </trkpt>
      <trkpt lat="45.60725" lon="5.82268">
        <ele>1148.43</ele>
        <time>2014-09-06T08:37:33Z</time>
      </trkpt>
      <trkpt lat="45.60726" lon="5.82269">
        <ele>1148.43</ele>
        <time>2014-09-06T08:37:34Z</time>
      </trkpt>
      <trkpt lat="45.60726" lon="5.8227">
        <ele>1148.43</ele>
        <time>2014-09-06T08:37:35Z</time>
      </trkpt>
      <trkpt lat="45.60728" lon="5.82271">
        <ele>1148.43</ele>
        <time>2014-09-06T08:37:36Z</time>
      </trkpt>
      <trkpt lat="45.60729" lon="5.82272">
        <ele>1148.43</ele>
        <time>2014-09-06T08:37:37Z</time>
      </trkpt>
      <trkpt lat="45.6075" lon="5.82289">
        <ele>1150.35</ele>
        <time>2014-09-06T08:37:54Z</time>
      </trkpt>
      <trkpt lat="45.60753" lon="5.82291">
        <ele>1150.84</ele>
        <time>2014-09-06T08:37:57Z</time>
      </trkpt>
      <trkpt lat="45.60756" lon="5.82292">
        <ele>1151.8</ele>
        <time>2014-09-06T08:38:00Z</time>
      </trkpt>
      <trkpt lat="45.60758" lon="5.82293">
        <ele>1152.28</ele>
        <time>2014-09-06T08:38:02Z</time>
      </trkpt>
      <trkpt lat="45.60771" lon="5.82295">
        <ele>1153.72</ele>
        <time>2014-09-06T08:38:14Z</time>
      </trkpt>
      <trkpt lat="45.60784" lon="5.82296">
        <ele>1155.16</ele>
        <time>2014-09-06T08:38:25Z</time>
      </trkpt>
      <trkpt lat="45.60786" lon="5.82296">
        <ele>1155.16</ele>
        <time>2014-09-06T08:38:26Z</time>
      </trkpt>
      <trkpt lat="45.60787" lon="5.82296">
        <ele>1155.64</ele>
        <time>2014-09-06T08:38:27Z</time>
      </trkpt>
      <trkpt lat="45.6081" lon="5.823">
        <ele>1158.05</ele>
        <time>2014-09-06T08:38:43Z</time>
      </trkpt>
      <trkpt lat="45.6082" lon="5.82304">
        <ele>1159.01</ele>
        <time>2014-09-06T08:38:51Z</time>
      </trkpt>
      <trkpt lat="45.60823" lon="5.82305">
        <ele>1159.97</ele>
        <time>2014-09-06T08:38:54Z</time>
      </trkpt>
      <trkpt lat="45.60841" lon="5.82304">
        <ele>1162.85</ele>
        <time>2014-09-06T08:39:09Z</time>
      </trkpt>
      <trkpt lat="45.60852" lon="5.82291">
        <ele>1164.29</ele>
        <time>2014-09-06T08:39:24Z</time>
      </trkpt>
      <trkpt lat="45.60853" lon="5.82292">
        <ele>1165.26</ele>
        <time>2014-09-06T08:39:40Z</time>
      </trkpt>
      <trkpt lat="45.60854" lon="5.82287">
        <ele>1165.26</ele>
        <time>2014-09-06T08:40:02Z</time>
      </trkpt>
      <trkpt lat="45.60859" lon="5.82277">
        <ele>1165.74</ele>
        <time>2014-09-06T08:40:25Z</time>
      </trkpt>
      <trkpt lat="45.60865" lon="5.82277">
        <ele>1165.74</ele>
        <time>2014-09-06T08:40:53Z</time>
      </trkpt>
      <trkpt lat="45.60862" lon="5.82278">
        <ele>1165.74</ele>
        <time>2014-09-06T08:41:15Z</time>
      </trkpt>
      <trkpt lat="45.60864" lon="5.82279">
        <ele>1165.74</ele>
        <time>2014-09-06T08:41:48Z</time>
      </trkpt>
      <trkpt lat="45.60864" lon="5.82281">
        <ele>1165.74</ele>
        <time>2014-09-06T08:42:24Z</time>
      </trkpt>
      <trkpt lat="45.60864" lon="5.8228">
        <ele>1165.74</ele>
        <time>2014-09-06T08:42:59Z</time>
      </trkpt>
      <trkpt lat="45.60865" lon="5.82279">
        <ele>1165.74</ele>
        <time>2014-09-06T08:43:27Z</time>
      </trkpt>
      <trkpt lat="45.60867" lon="5.82278">
        <ele>1166.22</ele>
        <time>2014-09-06T08:43:30Z</time>
      </trkpt>
      <trkpt lat="45.60875" lon="5.82275">
        <ele>1167.18</ele>
        <time>2014-09-06T08:43:35Z</time>
      </trkpt>
      <trkpt lat="45.60892" lon="5.82284">
        <ele>1170.06</ele>
        <time>2014-09-06T08:43:49Z</time>
      </trkpt>
      <trkpt lat="45.60893" lon="5.82285">
        <ele>1170.06</ele>
        <time>2014-09-06T08:43:50Z</time>
      </trkpt>
      <trkpt lat="45.60898" lon="5.82288">
        <ele>1171.02</ele>
        <time>2014-09-06T08:43:54Z</time>
      </trkpt>
      <trkpt lat="45.60912" lon="5.82291">
        <ele>1173.43</ele>
        <time>2014-09-06T08:44:07Z</time>
      </trkpt>
      <trkpt lat="45.60928" lon="5.82297">
        <ele>1175.35</ele>
        <time>2014-09-06T08:44:20Z</time>
      </trkpt>
      <trkpt lat="45.60929" lon="5.82298">
        <ele>1175.83</ele>
        <time>2014-09-06T08:44:21Z</time>
      </trkpt>
      <trkpt lat="45.6093" lon="5.82299">
        <ele>1175.83</ele>
        <time>2014-09-06T08:44:22Z</time>
      </trkpt>
      <trkpt lat="45.60931" lon="5.823">
        <ele>1175.83</ele>
        <time>2014-09-06T08:44:23Z</time>
      </trkpt>
      <trkpt lat="45.60934" lon="5.82301">
        <ele>1176.31</ele>
        <time>2014-09-06T08:44:25Z</time>
      </trkpt>
      <trkpt lat="45.60935" lon="5.82302">
        <ele>1176.31</ele>
        <time>2014-09-06T08:44:26Z</time>
      </trkpt>
      <trkpt lat="45.60936" lon="5.82302">
        <ele>1176.31</ele>
        <time>2014-09-06T08:44:27Z</time>
      </trkpt>
      <trkpt lat="45.60952" lon="5.8231">
        <ele>1178.23</ele>
        <time>2014-09-06T08:44:42Z</time>
      </trkpt>
      <trkpt lat="45.60952" lon="5.82311">
        <ele>1179.67</ele>
        <time>2014-09-06T08:44:45Z</time>
      </trkpt>
      <trkpt lat="45.60951" lon="5.82311">
        <ele>1178.71</ele>
        <time>2014-09-06T08:45:03Z</time>
      </trkpt>
      <trkpt lat="45.60963" lon="5.82309">
        <ele>1179.19</ele>
        <time>2014-09-06T08:45:31Z</time>
      </trkpt>
      <trkpt lat="45.60972" lon="5.82305">
        <ele>1179.67</ele>
        <time>2014-09-06T08:46:07Z</time>
      </trkpt>
      <trkpt lat="45.60972" lon="5.82302">
        <ele>1179.67</ele>
        <time>2014-09-06T08:46:31Z</time>
      </trkpt>
      <trkpt lat="45.60968" lon="5.82298">
        <ele>1179.19</ele>
        <time>2014-09-06T08:47:00Z</time>
      </trkpt>
      <trkpt lat="45.60969" lon="5.823">
        <ele>1179.19</ele>
        <time>2014-09-06T08:47:30Z</time>
      </trkpt>
      <trkpt lat="45.60973" lon="5.82307">
        <ele>1179.19</ele>
        <time>2014-09-06T08:47:52Z</time>
      </trkpt>
      <trkpt lat="45.60974" lon="5.82308">
        <ele>1179.19</ele>
        <time>2014-09-06T08:47:53Z</time>
      </trkpt>
      <trkpt lat="45.60976" lon="5.82309">
        <ele>1179.19</ele>
        <time>2014-09-06T08:47:54Z</time>
      </trkpt>
      <trkpt lat="45.60977" lon="5.8231">
        <ele>1179.19</ele>
        <time>2014-09-06T08:47:55Z</time>
      </trkpt>
      <trkpt lat="45.60978" lon="5.82311">
        <ele>1179.19</ele>
        <time>2014-09-06T08:47:56Z</time>
      </trkpt>
      <trkpt lat="45.60979" lon="5.82312">
        <ele>1180.16</ele>
        <time>2014-09-06T08:47:57Z</time>
      </trkpt>
      <trkpt lat="45.60994" lon="5.82336">
        <ele>1181.6</ele>
        <time>2014-09-06T08:48:11Z</time>
      </trkpt>
      <trkpt lat="45.61008" lon="5.82369">
        <ele>1184</ele>
        <time>2014-09-06T08:48:25Z</time>
      </trkpt>
      <trkpt lat="45.61031" lon="5.8238">
        <ele>1186.88</ele>
        <time>2014-09-06T08:48:38Z</time>
      </trkpt>
      <trkpt lat="45.61056" lon="5.82374">
        <ele>1190.25</ele>
        <time>2014-09-06T08:48:52Z</time>
      </trkpt>
      <trkpt lat="45.61075" lon="5.82372">
        <ele>1192.65</ele>
        <time>2014-09-06T08:49:05Z</time>
      </trkpt>
      <trkpt lat="45.61093" lon="5.82381">
        <ele>1194.58</ele>
        <time>2014-09-06T08:49:21Z</time>
      </trkpt>
      <trkpt lat="45.61115" lon="5.82377">
        <ele>1197.46</ele>
        <time>2014-09-06T08:49:36Z</time>
      </trkpt>
      <trkpt lat="45.61132" lon="5.82377">
        <ele>1200.34</ele>
        <time>2014-09-06T08:49:50Z</time>
      </trkpt>
      <trkpt lat="45.6115" lon="5.82375">
        <ele>1202.27</ele>
        <time>2014-09-06T08:50:04Z</time>
      </trkpt>
      <trkpt lat="45.61165" lon="5.82376">
        <ele>1204.19</ele>
        <time>2014-09-06T08:50:12Z</time>
      </trkpt>
      <trkpt lat="45.6117" lon="5.82376">
        <ele>1204.19</ele>
        <time>2014-09-06T08:50:15Z</time>
      </trkpt>
      <trkpt lat="45.61188" lon="5.82391">
        <ele>1206.59</ele>
        <time>2014-09-06T08:50:28Z</time>
      </trkpt>
      <trkpt lat="45.612" lon="5.82392">
        <ele>1208.03</ele>
        <time>2014-09-06T08:50:33Z</time>
      </trkpt>
      <trkpt lat="45.61201" lon="5.82393">
        <ele>1208.03</ele>
        <time>2014-09-06T08:50:34Z</time>
      </trkpt>
      <trkpt lat="45.61203" lon="5.82393">
        <ele>1208.51</ele>
        <time>2014-09-06T08:50:35Z</time>
      </trkpt>
      <trkpt lat="45.61204" lon="5.82393">
        <ele>1208.51</ele>
        <time>2014-09-06T08:50:36Z</time>
      </trkpt>
      <trkpt lat="45.61206" lon="5.82393">
        <ele>1208.51</ele>
        <time>2014-09-06T08:50:37Z</time>
      </trkpt>
      <trkpt lat="45.61208" lon="5.82394">
        <ele>1208.51</ele>
        <time>2014-09-06T08:50:38Z</time>
      </trkpt>
      <trkpt lat="45.61209" lon="5.82394">
        <ele>1209</ele>
        <time>2014-09-06T08:50:39Z</time>
      </trkpt>
      <trkpt lat="45.6121" lon="5.82396">
        <ele>1209</ele>
        <time>2014-09-06T08:50:40Z</time>
      </trkpt>
      <trkpt lat="45.61211" lon="5.82397">
        <ele>1209.48</ele>
        <time>2014-09-06T08:50:41Z</time>
      </trkpt>
      <trkpt lat="45.61217" lon="5.82404">
        <ele>1209.96</ele>
        <time>2014-09-06T08:50:46Z</time>
      </trkpt>
      <trkpt lat="45.61218" lon="5.82405">
        <ele>1209.96</ele>
        <time>2014-09-06T08:50:47Z</time>
      </trkpt>
      <trkpt lat="45.6122" lon="5.82406">
        <ele>1210.44</ele>
        <time>2014-09-06T08:50:48Z</time>
      </trkpt>
      <trkpt lat="45.61221" lon="5.82406">
        <ele>1210.44</ele>
        <time>2014-09-06T08:50:49Z</time>
      </trkpt>
      <trkpt lat="45.61223" lon="5.82407">
        <ele>1210.92</ele>
        <time>2014-09-06T08:50:50Z</time>
      </trkpt>
      <trkpt lat="45.61224" lon="5.82407">
        <ele>1210.92</ele>
        <time>2014-09-06T08:50:51Z</time>
      </trkpt>
      <trkpt lat="45.61226" lon="5.82406">
        <ele>1210.92</ele>
        <time>2014-09-06T08:50:52Z</time>
      </trkpt>
      <trkpt lat="45.61228" lon="5.82406">
        <ele>1211.4</ele>
        <time>2014-09-06T08:50:53Z</time>
      </trkpt>
      <trkpt lat="45.61229" lon="5.82406">
        <ele>1211.4</ele>
        <time>2014-09-06T08:50:54Z</time>
      </trkpt>
      <trkpt lat="45.61231" lon="5.82406">
        <ele>1211.4</ele>
        <time>2014-09-06T08:50:55Z</time>
      </trkpt>
      <trkpt lat="45.61233" lon="5.82406">
        <ele>1211.88</ele>
        <time>2014-09-06T08:50:56Z</time>
      </trkpt>
      <trkpt lat="45.61235" lon="5.82404">
        <ele>1211.88</ele>
        <time>2014-09-06T08:50:57Z</time>
      </trkpt>
      <trkpt lat="45.61236" lon="5.82404">
        <ele>1211.88</ele>
        <time>2014-09-06T08:50:58Z</time>
      </trkpt>
      <trkpt lat="45.61238" lon="5.82404">
        <ele>1212.36</ele>
        <time>2014-09-06T08:50:59Z</time>
      </trkpt>
      <trkpt lat="45.6125" lon="5.82402">
        <ele>1214.76</ele>
        <time>2014-09-06T08:51:12Z</time>
      </trkpt>
      <trkpt lat="45.61272" lon="5.82397">
        <ele>1217.65</ele>
        <time>2014-09-06T08:51:27Z</time>
      </trkpt>
      <trkpt lat="45.61291" lon="5.82397">
        <ele>1220.53</ele>
        <time>2014-09-06T08:51:42Z</time>
      </trkpt>
      <trkpt lat="45.61293" lon="5.82396">
        <ele>1220.53</ele>
        <time>2014-09-06T08:51:43Z</time>
      </trkpt>
      <trkpt lat="45.61294" lon="5.82396">
        <ele>1220.53</ele>
        <time>2014-09-06T08:51:44Z</time>
      </trkpt>
      <trkpt lat="45.61311" lon="5.82401">
        <ele>1222.93</ele>
        <time>2014-09-06T08:51:59Z</time>
      </trkpt>
      <trkpt lat="45.61334" lon="5.82412">
        <ele>1225.34</ele>
        <time>2014-09-06T08:52:14Z</time>
      </trkpt>
      <trkpt lat="45.61338" lon="5.82414">
        <ele>1226.78</ele>
        <time>2014-09-06T08:52:18Z</time>
      </trkpt>
      <trkpt lat="45.6134" lon="5.82413">
        <ele>1226.78</ele>
        <time>2014-09-06T08:52:19Z</time>
      </trkpt>
      <trkpt lat="45.61342" lon="5.82412">
        <ele>1226.78</ele>
        <time>2014-09-06T08:52:20Z</time>
      </trkpt>
      <trkpt lat="45.61367" lon="5.82406">
        <ele>1229.18</ele>
        <time>2014-09-06T08:52:37Z</time>
      </trkpt>
      <trkpt lat="45.61387" lon="5.82405">
        <ele>1231.11</ele>
        <time>2014-09-06T08:52:51Z</time>
      </trkpt>
      <trkpt lat="45.61398" lon="5.82409">
        <ele>1232.07</ele>
        <time>2014-09-06T08:52:59Z</time>
      </trkpt>
      <trkpt lat="45.6142" lon="5.82404">
        <ele>1234.47</ele>
        <time>2014-09-06T08:53:12Z</time>
      </trkpt>
      <trkpt lat="45.61439" lon="5.82401">
        <ele>1236.87</ele>
        <time>2014-09-06T08:53:26Z</time>
      </trkpt>
      <trkpt lat="45.61442" lon="5.82399">
        <ele>1236.87</ele>
        <time>2014-09-06T08:53:28Z</time>
      </trkpt>
      <trkpt lat="45.61443" lon="5.82399">
        <ele>1237.35</ele>
        <time>2014-09-06T08:53:29Z</time>
      </trkpt>
      <trkpt lat="45.61445" lon="5.82398">
        <ele>1237.35</ele>
        <time>2014-09-06T08:53:30Z</time>
      </trkpt>
      <trkpt lat="45.61459" lon="5.82395">
        <ele>1240.24</ele>
        <time>2014-09-06T08:53:44Z</time>
      </trkpt>
      <trkpt lat="45.61472" lon="5.82392">
        <ele>1242.16</ele>
        <time>2014-09-06T08:53:56Z</time>
      </trkpt>
      <trkpt lat="45.61489" lon="5.82392">
        <ele>1244.56</ele>
        <time>2014-09-06T08:54:08Z</time>
      </trkpt>
      <trkpt lat="45.61504" lon="5.82396">
        <ele>1246.49</ele>
        <time>2014-09-06T08:54:21Z</time>
      </trkpt>
      <trkpt lat="45.61522" lon="5.82394">
        <ele>1248.41</ele>
        <time>2014-09-06T08:54:35Z</time>
      </trkpt>
      <trkpt lat="45.61534" lon="5.82391">
        <ele>1250.33</ele>
        <time>2014-09-06T08:54:50Z</time>
      </trkpt>
      <trkpt lat="45.61542" lon="5.82386">
        <ele>1251.29</ele>
        <time>2014-09-06T08:55:01Z</time>
      </trkpt>
      <trkpt lat="45.61547" lon="5.82383">
        <ele>1250.81</ele>
        <time>2014-09-06T08:55:27Z</time>
      </trkpt>
      <trkpt lat="45.61549" lon="5.82381">
        <ele>1251.29</ele>
        <time>2014-09-06T08:55:51Z</time>
      </trkpt>
      <trkpt lat="45.61563" lon="5.82376">
        <ele>1253.22</ele>
        <time>2014-09-06T08:56:04Z</time>
      </trkpt>
      <trkpt lat="45.6158" lon="5.82377">
        <ele>1255.62</ele>
        <time>2014-09-06T08:56:16Z</time>
      </trkpt>
      <trkpt lat="45.61581" lon="5.82378">
        <ele>1255.14</ele>
        <time>2014-09-06T08:56:17Z</time>
      </trkpt>
      <trkpt lat="45.616" lon="5.82381">
        <ele>1257.06</ele>
        <time>2014-09-06T08:56:32Z</time>
      </trkpt>
      <trkpt lat="45.61621" lon="5.82381">
        <ele>1259.94</ele>
        <time>2014-09-06T08:56:48Z</time>
      </trkpt>
      <trkpt lat="45.61644" lon="5.82377">
        <ele>1262.83</ele>
        <time>2014-09-06T08:57:03Z</time>
      </trkpt>
      <trkpt lat="45.61667" lon="5.8237">
        <ele>1266.19</ele>
        <time>2014-09-06T08:57:20Z</time>
      </trkpt>
      <trkpt lat="45.61684" lon="5.82363">
        <ele>1268.12</ele>
        <time>2014-09-06T08:57:34Z</time>
      </trkpt>
      <trkpt lat="45.61706" lon="5.82349">
        <ele>1269.56</ele>
        <time>2014-09-06T08:57:50Z</time>
      </trkpt>
      <trkpt lat="45.6172" lon="5.82328">
        <ele>1271</ele>
        <time>2014-09-06T08:58:04Z</time>
      </trkpt>
      <trkpt lat="45.61735" lon="5.823">
        <ele>1272.44</ele>
        <time>2014-09-06T08:58:19Z</time>
      </trkpt>
      <trkpt lat="45.61743" lon="5.82285">
        <ele>1274.36</ele>
        <time>2014-09-06T08:58:28Z</time>
      </trkpt>
      <trkpt lat="45.61744" lon="5.82281">
        <ele>1274.85</ele>
        <time>2014-09-06T08:58:30Z</time>
      </trkpt>
      <trkpt lat="45.6176" lon="5.82263">
        <ele>1276.77</ele>
        <time>2014-09-06T08:58:43Z</time>
      </trkpt>
      <trkpt lat="45.61783" lon="5.82254">
        <ele>1279.17</ele>
        <time>2014-09-06T08:58:58Z</time>
      </trkpt>
      <trkpt lat="45.61801" lon="5.82234">
        <ele>1282.06</ele>
        <time>2014-09-06T08:59:14Z</time>
      </trkpt>
      <trkpt lat="45.61805" lon="5.82229">
        <ele>1283.02</ele>
        <time>2014-09-06T08:59:18Z</time>
      </trkpt>
      <trkpt lat="45.61806" lon="5.82228">
        <ele>1283.02</ele>
        <time>2014-09-06T08:59:19Z</time>
      </trkpt>
      <trkpt lat="45.61807" lon="5.82227">
        <ele>1283.5</ele>
        <time>2014-09-06T08:59:20Z</time>
      </trkpt>
      <trkpt lat="45.61808" lon="5.82225">
        <ele>1283.5</ele>
        <time>2014-09-06T08:59:21Z</time>
      </trkpt>
      <trkpt lat="45.6181" lon="5.82224">
        <ele>1283.5</ele>
        <time>2014-09-06T08:59:22Z</time>
      </trkpt>
      <trkpt lat="45.61811" lon="5.82223">
        <ele>1283.98</ele>
        <time>2014-09-06T08:59:23Z</time>
      </trkpt>
      <trkpt lat="45.61812" lon="5.82222">
        <ele>1283.98</ele>
        <time>2014-09-06T08:59:24Z</time>
      </trkpt>
      <trkpt lat="45.61813" lon="5.82222">
        <ele>1283.98</ele>
        <time>2014-09-06T08:59:25Z</time>
      </trkpt>
      <trkpt lat="45.61814" lon="5.82221">
        <ele>1283.98</ele>
        <time>2014-09-06T08:59:26Z</time>
      </trkpt>
      <trkpt lat="45.61816" lon="5.8222">
        <ele>1284.46</ele>
        <time>2014-09-06T08:59:27Z</time>
      </trkpt>
      <trkpt lat="45.61817" lon="5.82219">
        <ele>1284.46</ele>
        <time>2014-09-06T08:59:28Z</time>
      </trkpt>
      <trkpt lat="45.61818" lon="5.82218">
        <ele>1284.94</ele>
        <time>2014-09-06T08:59:29Z</time>
      </trkpt>
      <trkpt lat="45.61819" lon="5.82217">
        <ele>1284.94</ele>
        <time>2014-09-06T08:59:30Z</time>
      </trkpt>
      <trkpt lat="45.6182" lon="5.82216">
        <ele>1284.94</ele>
        <time>2014-09-06T08:59:31Z</time>
      </trkpt>
      <trkpt lat="45.61821" lon="5.82215">
        <ele>1285.42</ele>
        <time>2014-09-06T08:59:32Z</time>
      </trkpt>
      <trkpt lat="45.61831" lon="5.82205">
        <ele>1285.9</ele>
        <time>2014-09-06T08:59:41Z</time>
      </trkpt>
      <trkpt lat="45.61832" lon="5.82204">
        <ele>1285.9</ele>
        <time>2014-09-06T08:59:42Z</time>
      </trkpt>
      <trkpt lat="45.61833" lon="5.82204">
        <ele>1286.38</ele>
        <time>2014-09-06T08:59:43Z</time>
      </trkpt>
      <trkpt lat="45.61835" lon="5.82203">
        <ele>1286.38</ele>
        <time>2014-09-06T08:59:44Z</time>
      </trkpt>
      <trkpt lat="45.61836" lon="5.82202">
        <ele>1286.38</ele>
        <time>2014-09-06T08:59:45Z</time>
      </trkpt>
      <trkpt lat="45.61837" lon="5.82201">
        <ele>1286.38</ele>
        <time>2014-09-06T08:59:46Z</time>
      </trkpt>
      <trkpt lat="45.61839" lon="5.82201">
        <ele>1286.86</ele>
        <time>2014-09-06T08:59:47Z</time>
      </trkpt>
      <trkpt lat="45.61855" lon="5.82189">
        <ele>1289.27</ele>
        <time>2014-09-06T09:00:01Z</time>
      </trkpt>
      <trkpt lat="45.61876" lon="5.8218">
        <ele>1291.19</ele>
        <time>2014-09-06T09:00:17Z</time>
      </trkpt>
      <trkpt lat="45.61896" lon="5.82178">
        <ele>1292.63</ele>
        <time>2014-09-06T09:00:32Z</time>
      </trkpt>
      <trkpt lat="45.61917" lon="5.82189">
        <ele>1293.11</ele>
        <time>2014-09-06T09:00:46Z</time>
      </trkpt>
      <trkpt lat="45.61939" lon="5.82194">
        <ele>1293.11</ele>
        <time>2014-09-06T09:00:58Z</time>
      </trkpt>
      <trkpt lat="45.61941" lon="5.82195">
        <ele>1293.11</ele>
        <time>2014-09-06T09:00:59Z</time>
      </trkpt>
      <trkpt lat="45.61942" lon="5.82195">
        <ele>1293.11</ele>
        <time>2014-09-06T09:01:00Z</time>
      </trkpt>
      <trkpt lat="45.61944" lon="5.82195">
        <ele>1293.11</ele>
        <time>2014-09-06T09:01:01Z</time>
      </trkpt>
      <trkpt lat="45.61946" lon="5.82196">
        <ele>1293.11</ele>
        <time>2014-09-06T09:01:02Z</time>
      </trkpt>
      <trkpt lat="45.61948" lon="5.82196">
        <ele>1293.59</ele>
        <time>2014-09-06T09:01:03Z</time>
      </trkpt>
      <trkpt lat="45.61971" lon="5.82204">
        <ele>1292.15</ele>
        <time>2014-09-06T09:01:13Z</time>
      </trkpt>
      <trkpt lat="45.61972" lon="5.82206">
        <ele>1292.15</ele>
        <time>2014-09-06T09:01:14Z</time>
      </trkpt>
      <trkpt lat="45.62" lon="5.82222">
        <ele>1292.15</ele>
        <time>2014-09-06T09:01:28Z</time>
      </trkpt>
      <trkpt lat="45.62024" lon="5.82237">
        <ele>1292.15</ele>
        <time>2014-09-06T09:01:39Z</time>
      </trkpt>
      <trkpt lat="45.62053" lon="5.82247">
        <ele>1292.15</ele>
        <time>2014-09-06T09:01:54Z</time>
      </trkpt>
      <trkpt lat="45.62088" lon="5.82268">
        <ele>1290.23</ele>
        <time>2014-09-06T09:02:09Z</time>
      </trkpt>
      <trkpt lat="45.62123" lon="5.82265">
        <ele>1292.15</ele>
        <time>2014-09-06T09:02:25Z</time>
      </trkpt>
      <trkpt lat="45.62149" lon="5.82274">
        <ele>1292.15</ele>
        <time>2014-09-06T09:02:38Z</time>
      </trkpt>
      <trkpt lat="45.62185" lon="5.82271">
        <ele>1292.15</ele>
        <time>2014-09-06T09:02:54Z</time>
      </trkpt>
      <trkpt lat="45.62218" lon="5.8226">
        <ele>1292.15</ele>
        <time>2014-09-06T09:03:09Z</time>
      </trkpt>
      <trkpt lat="45.62253" lon="5.82241">
        <ele>1292.15</ele>
        <time>2014-09-06T09:03:23Z</time>
      </trkpt>
      <trkpt lat="45.6227" lon="5.82227">
        <ele>1290.71</ele>
        <time>2014-09-06T09:03:30Z</time>
      </trkpt>
      <trkpt lat="45.62272" lon="5.82226">
        <ele>1290.71</ele>
        <time>2014-09-06T09:03:31Z</time>
      </trkpt>
      <trkpt lat="45.62275" lon="5.82226">
        <ele>1290.71</ele>
        <time>2014-09-06T09:03:32Z</time>
      </trkpt>
      <trkpt lat="45.62277" lon="5.82226">
        <ele>1290.71</ele>
        <time>2014-09-06T09:03:33Z</time>
      </trkpt>
      <trkpt lat="45.62279" lon="5.82226">
        <ele>1290.71</ele>
        <time>2014-09-06T09:03:34Z</time>
      </trkpt>
      <trkpt lat="45.62283" lon="5.82228">
        <ele>1290.71</ele>
        <time>2014-09-06T09:03:36Z</time>
      </trkpt>
      <trkpt lat="45.62285" lon="5.82229">
        <ele>1290.71</ele>
        <time>2014-09-06T09:03:37Z</time>
      </trkpt>
      <trkpt lat="45.62288" lon="5.82231">
        <ele>1290.23</ele>
        <time>2014-09-06T09:03:38Z</time>
      </trkpt>
      <trkpt lat="45.62291" lon="5.82232">
        <ele>1289.75</ele>
        <time>2014-09-06T09:03:39Z</time>
      </trkpt>
      <trkpt lat="45.62294" lon="5.82233">
        <ele>1289.75</ele>
        <time>2014-09-06T09:03:40Z</time>
      </trkpt>
      <trkpt lat="45.62297" lon="5.82234">
        <ele>1289.75</ele>
        <time>2014-09-06T09:03:41Z</time>
      </trkpt>
      <trkpt lat="45.62301" lon="5.82234">
        <ele>1289.27</ele>
        <time>2014-09-06T09:03:42Z</time>
      </trkpt>
      <trkpt lat="45.62305" lon="5.82235">
        <ele>1289.27</ele>
        <time>2014-09-06T09:03:43Z</time>
      </trkpt>
      <trkpt lat="45.62335" lon="5.82227">
        <ele>1288.78</ele>
        <time>2014-09-06T09:03:52Z</time>
      </trkpt>
      <trkpt lat="45.62354" lon="5.82222">
        <ele>1288.78</ele>
        <time>2014-09-06T09:04:00Z</time>
      </trkpt>
      <trkpt lat="45.62374" lon="5.82214">
        <ele>1288.78</ele>
        <time>2014-09-06T09:04:11Z</time>
      </trkpt>
      <trkpt lat="45.62374" lon="5.82209">
        <ele>1288.3</ele>
        <time>2014-09-06T09:04:41Z</time>
      </trkpt>
      <trkpt lat="45.62377" lon="5.82204">
        <ele>1288.3</ele>
        <time>2014-09-06T09:05:06Z</time>
      </trkpt>
      <trkpt lat="45.6238" lon="5.82196">
        <ele>1288.3</ele>
        <time>2014-09-06T09:05:42Z</time>
      </trkpt>
      <trkpt lat="45.6238" lon="5.82204">
        <ele>1288.3</ele>
        <time>2014-09-06T09:06:18Z</time>
      </trkpt>
      <trkpt lat="45.6238" lon="5.82204">
        <ele>1288.3</ele>
        <time>2014-09-06T09:06:46Z</time>
      </trkpt>
      <trkpt lat="45.62377" lon="5.82202">
        <ele>1287.82</ele>
        <time>2014-09-06T09:07:11Z</time>
      </trkpt>
      <trkpt lat="45.62376" lon="5.82201">
        <ele>1287.82</ele>
        <time>2014-09-06T09:07:45Z</time>
      </trkpt>
      <trkpt lat="45.62376" lon="5.82204">
        <ele>1287.34</ele>
        <time>2014-09-06T09:08:13Z</time>
      </trkpt>
      <trkpt lat="45.62375" lon="5.82202">
        <ele>1287.34</ele>
        <time>2014-09-06T09:08:39Z</time>
      </trkpt>
      <trkpt lat="45.6238" lon="5.82203">
        <ele>1287.34</ele>
        <time>2014-09-06T09:09:03Z</time>
      </trkpt>
      <trkpt lat="45.62382" lon="5.82203">
        <ele>1287.34</ele>
        <time>2014-09-06T09:09:04Z</time>
      </trkpt>
      <trkpt lat="45.62384" lon="5.82203">
        <ele>1287.34</ele>
        <time>2014-09-06T09:09:05Z</time>
      </trkpt>
      <trkpt lat="45.62386" lon="5.82201">
        <ele>1287.34</ele>
        <time>2014-09-06T09:09:06Z</time>
      </trkpt>
      <trkpt lat="45.62389" lon="5.822">
        <ele>1287.34</ele>
        <time>2014-09-06T09:09:07Z</time>
      </trkpt>
      <trkpt lat="45.62408" lon="5.82173">
        <ele>1289.27</ele>
        <time>2014-09-06T09:09:17Z</time>
      </trkpt>
      <trkpt lat="45.6241" lon="5.82171">
        <ele>1289.27</ele>
        <time>2014-09-06T09:09:18Z</time>
      </trkpt>
      <trkpt lat="45.62412" lon="5.82169">
        <ele>1289.75</ele>
        <time>2014-09-06T09:09:19Z</time>
      </trkpt>
      <trkpt lat="45.62414" lon="5.82167">
        <ele>1289.27</ele>
        <time>2014-09-06T09:09:20Z</time>
      </trkpt>
      <trkpt lat="45.62416" lon="5.82167">
        <ele>1289.27</ele>
        <time>2014-09-06T09:09:21Z</time>
      </trkpt>
      <trkpt lat="45.62418" lon="5.82167">
        <ele>1289.27</ele>
        <time>2014-09-06T09:09:22Z</time>
      </trkpt>
      <trkpt lat="45.6242" lon="5.82168">
        <ele>1289.27</ele>
        <time>2014-09-06T09:09:23Z</time>
      </trkpt>
      <trkpt lat="45.62421" lon="5.82175">
        <ele>1289.27</ele>
        <time>2014-09-06T09:09:38Z</time>
      </trkpt>
      <trkpt lat="45.62425" lon="5.82173">
        <ele>1289.27</ele>
        <time>2014-09-06T09:09:57Z</time>
      </trkpt>
      <trkpt lat="45.62423" lon="5.82174">
        <ele>1289.27</ele>
        <time>2014-09-06T09:10:27Z</time>
      </trkpt>
      <trkpt lat="45.62433" lon="5.82191">
        <ele>1289.27</ele>
        <time>2014-09-06T09:10:42Z</time>
      </trkpt>
      <trkpt lat="45.62461" lon="5.82212">
        <ele>1287.34</ele>
        <time>2014-09-06T09:10:54Z</time>
      </trkpt>
      <trkpt lat="45.6249" lon="5.82205">
        <ele>1287.34</ele>
        <time>2014-09-06T09:11:07Z</time>
      </trkpt>
      <trkpt lat="45.62494" lon="5.82204">
        <ele>1286.86</ele>
        <time>2014-09-06T09:11:21Z</time>
      </trkpt>
      <trkpt lat="45.62494" lon="5.82201">
        <ele>1286.86</ele>
        <time>2014-09-06T09:11:23Z</time>
      </trkpt>
      <trkpt lat="45.62487" lon="5.82194">
        <ele>1289.27</ele>
        <time>2014-09-06T09:11:36Z</time>
      </trkpt>
      <trkpt lat="45.62483" lon="5.82189">
        <ele>1289.27</ele>
        <time>2014-09-06T09:11:53Z</time>
      </trkpt>
      <trkpt lat="45.62477" lon="5.82182">
        <ele>1290.71</ele>
        <time>2014-09-06T09:12:16Z</time>
      </trkpt>
      <trkpt lat="45.62485" lon="5.82182">
        <ele>1291.67</ele>
        <time>2014-09-06T09:12:46Z</time>
      </trkpt>
      <trkpt lat="45.62477" lon="5.82187">
        <ele>1291.67</ele>
        <time>2014-09-06T09:13:06Z</time>
      </trkpt>
      <trkpt lat="45.62476" lon="5.82186">
        <ele>1290.23</ele>
        <time>2014-09-06T09:13:29Z</time>
      </trkpt>
      <trkpt lat="45.62476" lon="5.82189">
        <ele>1290.23</ele>
        <time>2014-09-06T09:14:00Z</time>
      </trkpt>
      <trkpt lat="45.62475" lon="5.8219">
        <ele>1290.23</ele>
        <time>2014-09-06T09:14:30Z</time>
      </trkpt>
      <trkpt lat="45.62479" lon="5.82186">
        <ele>1289.75</ele>
        <time>2014-09-06T09:14:59Z</time>
      </trkpt>
      <trkpt lat="45.62477" lon="5.82185">
        <ele>1289.75</ele>
        <time>2014-09-06T09:15:20Z</time>
      </trkpt>
      <trkpt lat="45.62478" lon="5.82183">
        <ele>1289.75</ele>
        <time>2014-09-06T09:15:36Z</time>
      </trkpt>
      <trkpt lat="45.62479" lon="5.82181">
        <ele>1289.75</ele>
        <time>2014-09-06T09:15:38Z</time>
      </trkpt>
      <trkpt lat="45.6248" lon="5.8218">
        <ele>1289.75</ele>
        <time>2014-09-06T09:15:39Z</time>
      </trkpt>
      <trkpt lat="45.62482" lon="5.82176">
        <ele>1291.19</ele>
        <time>2014-09-06T09:15:42Z</time>
      </trkpt>
      <trkpt lat="45.62484" lon="5.82172">
        <ele>1291.67</ele>
        <time>2014-09-06T09:15:46Z</time>
      </trkpt>
      <trkpt lat="45.62495" lon="5.82155">
        <ele>1294.55</ele>
        <time>2014-09-06T09:15:59Z</time>
      </trkpt>
      <trkpt lat="45.62496" lon="5.82155">
        <ele>1294.55</ele>
        <time>2014-09-06T09:16:00Z</time>
      </trkpt>
      <trkpt lat="45.625" lon="5.82152">
        <ele>1295.99</ele>
        <time>2014-09-06T09:16:03Z</time>
      </trkpt>
      <trkpt lat="45.62514" lon="5.82144">
        <ele>1298.4</ele>
        <time>2014-09-06T09:16:16Z</time>
      </trkpt>
      <trkpt lat="45.62524" lon="5.82141">
        <ele>1300.32</ele>
        <time>2014-09-06T09:16:28Z</time>
      </trkpt>
      <trkpt lat="45.62533" lon="5.82135">
        <ele>1302.24</ele>
        <time>2014-09-06T09:16:41Z</time>
      </trkpt>
      <trkpt lat="45.62547" lon="5.82129">
        <ele>1303.69</ele>
        <time>2014-09-06T09:16:57Z</time>
      </trkpt>
      <trkpt lat="45.62557" lon="5.82125">
        <ele>1306.09</ele>
        <time>2014-09-06T09:17:13Z</time>
      </trkpt>
      <trkpt lat="45.62574" lon="5.82119">
        <ele>1308.97</ele>
        <time>2014-09-06T09:17:29Z</time>
      </trkpt>
      <trkpt lat="45.62581" lon="5.8212">
        <ele>1309.45</ele>
        <time>2014-09-06T09:17:44Z</time>
      </trkpt>
      <trkpt lat="45.62592" lon="5.82112">
        <ele>1312.34</ele>
        <time>2014-09-06T09:17:54Z</time>
      </trkpt>
      <trkpt lat="45.62605" lon="5.82104">
        <ele>1315.7</ele>
        <time>2014-09-06T09:18:06Z</time>
      </trkpt>
      <trkpt lat="45.62616" lon="5.821">
        <ele>1317.62</ele>
        <time>2014-09-06T09:18:18Z</time>
      </trkpt>
      <trkpt lat="45.62632" lon="5.82093">
        <ele>1320.51</ele>
        <time>2014-09-06T09:18:31Z</time>
      </trkpt>
      <trkpt lat="45.62647" lon="5.82082">
        <ele>1322.91</ele>
        <time>2014-09-06T09:18:45Z</time>
      </trkpt>
      <trkpt lat="45.62659" lon="5.8208">
        <ele>1325.31</ele>
        <time>2014-09-06T09:18:56Z</time>
      </trkpt>
      <trkpt lat="45.6266" lon="5.8208">
        <ele>1325.31</ele>
        <time>2014-09-06T09:18:57Z</time>
      </trkpt>
      <trkpt lat="45.62674" lon="5.82076">
        <ele>1328.68</ele>
        <time>2014-09-06T09:19:12Z</time>
      </trkpt>
      <trkpt lat="45.62672" lon="5.82072">
        <ele>1330.12</ele>
        <time>2014-09-06T09:19:19Z</time>
      </trkpt>
      <trkpt lat="45.62671" lon="5.82067">
        <ele>1331.08</ele>
        <time>2014-09-06T09:19:22Z</time>
      </trkpt>
      <trkpt lat="45.62666" lon="5.82051">
        <ele>1333.01</ele>
        <time>2014-09-06T09:19:35Z</time>
      </trkpt>
      <trkpt lat="45.62671" lon="5.82047">
        <ele>1336.37</ele>
        <time>2014-09-06T09:19:46Z</time>
      </trkpt>
      <trkpt lat="45.62685" lon="5.82044">
        <ele>1338.29</ele>
        <time>2014-09-06T09:20:01Z</time>
      </trkpt>
      <trkpt lat="45.62688" lon="5.82044">
        <ele>1339.25</ele>
        <time>2014-09-06T09:20:04Z</time>
      </trkpt>
      <trkpt lat="45.62701" lon="5.82039">
        <ele>1341.18</ele>
        <time>2014-09-06T09:20:18Z</time>
      </trkpt>
      <trkpt lat="45.62707" lon="5.82037">
        <ele>1341.18</ele>
        <time>2014-09-06T09:20:32Z</time>
      </trkpt>
      <trkpt lat="45.62712" lon="5.82035">
        <ele>1341.66</ele>
        <time>2014-09-06T09:20:56Z</time>
      </trkpt>
      <trkpt lat="45.62719" lon="5.82034">
        <ele>1343.1</ele>
        <time>2014-09-06T09:21:01Z</time>
      </trkpt>
      <trkpt lat="45.62721" lon="5.82036">
        <ele>1343.1</ele>
        <time>2014-09-06T09:21:03Z</time>
      </trkpt>
      <trkpt lat="45.62738" lon="5.82037">
        <ele>1345.98</ele>
        <time>2014-09-06T09:21:18Z</time>
      </trkpt>
      <trkpt lat="45.62753" lon="5.82035">
        <ele>1347.91</ele>
        <time>2014-09-06T09:21:33Z</time>
      </trkpt>
      <trkpt lat="45.62765" lon="5.82034">
        <ele>1350.31</ele>
        <time>2014-09-06T09:21:48Z</time>
      </trkpt>
      <trkpt lat="45.62782" lon="5.8203">
        <ele>1353.19</ele>
        <time>2014-09-06T09:22:06Z</time>
      </trkpt>
      <trkpt lat="45.62797" lon="5.82027">
        <ele>1356.08</ele>
        <time>2014-09-06T09:22:22Z</time>
      </trkpt>
      <trkpt lat="45.62806" lon="5.82026">
        <ele>1357.04</ele>
        <time>2014-09-06T09:22:40Z</time>
      </trkpt>
      <trkpt lat="45.62818" lon="5.82027">
        <ele>1358.96</ele>
        <time>2014-09-06T09:23:01Z</time>
      </trkpt>
      <trkpt lat="45.62834" lon="5.82024">
        <ele>1361.84</ele>
        <time>2014-09-06T09:23:13Z</time>
      </trkpt>
      <trkpt lat="45.62849" lon="5.82022">
        <ele>1365.69</ele>
        <time>2014-09-06T09:23:27Z</time>
      </trkpt>
      <trkpt lat="45.62853" lon="5.82021">
        <ele>1366.17</ele>
        <time>2014-09-06T09:23:29Z</time>
      </trkpt>
      <trkpt lat="45.62869" lon="5.82024">
        <ele>1368.57</ele>
        <time>2014-09-06T09:23:44Z</time>
      </trkpt>
      <trkpt lat="45.62869" lon="5.82018">
        <ele>1370.98</ele>
        <time>2014-09-06T09:23:57Z</time>
      </trkpt>
      <trkpt lat="45.62867" lon="5.8201">
        <ele>1372.9</ele>
        <time>2014-09-06T09:24:10Z</time>
      </trkpt>
      <trkpt lat="45.6286" lon="5.82">
        <ele>1375.3</ele>
        <time>2014-09-06T09:24:25Z</time>
      </trkpt>
      <trkpt lat="45.6285" lon="5.81991">
        <ele>1378.19</ele>
        <time>2014-09-06T09:24:40Z</time>
      </trkpt>
      <trkpt lat="45.62842" lon="5.81985">
        <ele>1379.63</ele>
        <time>2014-09-06T09:24:54Z</time>
      </trkpt>
      <trkpt lat="45.62829" lon="5.81975">
        <ele>1382.03</ele>
        <time>2014-09-06T09:25:11Z</time>
      </trkpt>
      <trkpt lat="45.6282" lon="5.81967">
        <ele>1384.44</ele>
        <time>2014-09-06T09:25:23Z</time>
      </trkpt>
      <trkpt lat="45.62809" lon="5.81959">
        <ele>1386.84</ele>
        <time>2014-09-06T09:25:38Z</time>
      </trkpt>
      <trkpt lat="45.62796" lon="5.81949">
        <ele>1389.24</ele>
        <time>2014-09-06T09:25:54Z</time>
      </trkpt>
      <trkpt lat="45.62786" lon="5.81942">
        <ele>1391.65</ele>
        <time>2014-09-06T09:26:08Z</time>
      </trkpt>
      <trkpt lat="45.62775" lon="5.81932">
        <ele>1393.57</ele>
        <time>2014-09-06T09:26:27Z</time>
      </trkpt>
      <trkpt lat="45.62779" lon="5.81927">
        <ele>1393.57</ele>
        <time>2014-09-06T09:26:45Z</time>
      </trkpt>
      <trkpt lat="45.62784" lon="5.81923">
        <ele>1393.57</ele>
        <time>2014-09-06T09:27:18Z</time>
      </trkpt>
      <trkpt lat="45.62777" lon="5.81925">
        <ele>1393.57</ele>
        <time>2014-09-06T09:27:47Z</time>
      </trkpt>
      <trkpt lat="45.6277" lon="5.81924">
        <ele>1393.57</ele>
        <time>2014-09-06T09:28:26Z</time>
      </trkpt>
      <trkpt lat="45.62771" lon="5.81921">
        <ele>1393.57</ele>
        <time>2014-09-06T09:29:04Z</time>
      </trkpt>
      <trkpt lat="45.62771" lon="5.81922">
        <ele>1393.57</ele>
        <time>2014-09-06T09:29:41Z</time>
      </trkpt>
      <trkpt lat="45.62771" lon="5.81926">
        <ele>1393.57</ele>
        <time>2014-09-06T09:30:17Z</time>
      </trkpt>
      <trkpt lat="45.62773" lon="5.81925">
        <ele>1393.57</ele>
        <time>2014-09-06T09:30:56Z</time>
      </trkpt>
      <trkpt lat="45.62777" lon="5.81923">
        <ele>1393.57</ele>
        <time>2014-09-06T09:31:26Z</time>
      </trkpt>
      <trkpt lat="45.62777" lon="5.81922">
        <ele>1393.57</ele>
        <time>2014-09-06T09:32:01Z</time>
      </trkpt>
      <trkpt lat="45.62773" lon="5.81926">
        <ele>1393.57</ele>
        <time>2014-09-06T09:32:30Z</time>
      </trkpt>
      <trkpt lat="45.62771" lon="5.81927">
        <ele>1393.57</ele>
        <time>2014-09-06T09:32:46Z</time>
      </trkpt>
      <trkpt lat="45.62781" lon="5.81925">
        <ele>1395.49</ele>
        <time>2014-09-06T09:33:00Z</time>
      </trkpt>
      <trkpt lat="45.6279" lon="5.81924">
        <ele>1397.89</ele>
        <time>2014-09-06T09:33:14Z</time>
      </trkpt>
      <trkpt lat="45.62802" lon="5.8192">
        <ele>1400.3</ele>
        <time>2014-09-06T09:33:28Z</time>
      </trkpt>
      <trkpt lat="45.62811" lon="5.8192">
        <ele>1401.74</ele>
        <time>2014-09-06T09:33:36Z</time>
      </trkpt>
      <trkpt lat="45.62827" lon="5.81917">
        <ele>1405.1</ele>
        <time>2014-09-06T09:33:49Z</time>
      </trkpt>
      <trkpt lat="45.62837" lon="5.81916">
        <ele>1407.03</ele>
        <time>2014-09-06T09:34:01Z</time>
      </trkpt>
      <trkpt lat="45.62852" lon="5.81914">
        <ele>1409.43</ele>
        <time>2014-09-06T09:34:14Z</time>
      </trkpt>
      <trkpt lat="45.62861" lon="5.81918">
        <ele>1409.91</ele>
        <time>2014-09-06T09:34:32Z</time>
      </trkpt>
      <trkpt lat="45.62869" lon="5.81918">
        <ele>1411.83</ele>
        <time>2014-09-06T09:34:42Z</time>
      </trkpt>
      <trkpt lat="45.62887" lon="5.81913">
        <ele>1414.72</ele>
        <time>2014-09-06T09:34:57Z</time>
      </trkpt>
      <trkpt lat="45.62888" lon="5.81912">
        <ele>1414.72</ele>
        <time>2014-09-06T09:34:58Z</time>
      </trkpt>
      <trkpt lat="45.62894" lon="5.81911">
        <ele>1415.68</ele>
        <time>2014-09-06T09:35:04Z</time>
      </trkpt>
      <trkpt lat="45.62906" lon="5.81907">
        <ele>1419.04</ele>
        <time>2014-09-06T09:35:16Z</time>
      </trkpt>
      <trkpt lat="45.62921" lon="5.81904">
        <ele>1421.45</ele>
        <time>2014-09-06T09:35:30Z</time>
      </trkpt>
      <trkpt lat="45.62939" lon="5.81907">
        <ele>1424.33</ele>
        <time>2014-09-06T09:35:44Z</time>
      </trkpt>
      <trkpt lat="45.6295" lon="5.81909">
        <ele>1425.77</ele>
        <time>2014-09-06T09:35:56Z</time>
      </trkpt>
      <trkpt lat="45.62959" lon="5.81905">
        <ele>1427.7</ele>
        <time>2014-09-06T09:36:11Z</time>
      </trkpt>
      <trkpt lat="45.62963" lon="5.81908">
        <ele>1428.18</ele>
        <time>2014-09-06T09:36:24Z</time>
      </trkpt>
      <trkpt lat="45.62969" lon="5.81907">
        <ele>1428.66</ele>
        <time>2014-09-06T09:36:37Z</time>
      </trkpt>
      <trkpt lat="45.62969" lon="5.81907">
        <ele>1428.66</ele>
        <time>2014-09-06T09:36:54Z</time>
      </trkpt>
      <trkpt lat="45.62975" lon="5.81909">
        <ele>1430.1</ele>
        <time>2014-09-06T09:36:59Z</time>
      </trkpt>
      <trkpt lat="45.6298" lon="5.81912">
        <ele>1430.58</ele>
        <time>2014-09-06T09:37:03Z</time>
      </trkpt>
      <trkpt lat="45.62982" lon="5.8191">
        <ele>1432.02</ele>
        <time>2014-09-06T09:37:06Z</time>
      </trkpt>
      <trkpt lat="45.6298" lon="5.81901">
        <ele>1432.98</ele>
        <time>2014-09-06T09:37:16Z</time>
      </trkpt>
      <trkpt lat="45.62978" lon="5.81889">
        <ele>1434.91</ele>
        <time>2014-09-06T09:37:24Z</time>
      </trkpt>
      <trkpt lat="45.62971" lon="5.81874">
        <ele>1437.31</ele>
        <time>2014-09-06T09:37:36Z</time>
      </trkpt>
      <trkpt lat="45.62968" lon="5.81869">
        <ele>1438.27</ele>
        <time>2014-09-06T09:37:40Z</time>
      </trkpt>
      <trkpt lat="45.62965" lon="5.81864">
        <ele>1439.23</ele>
        <time>2014-09-06T09:37:44Z</time>
      </trkpt>
      <trkpt lat="45.62953" lon="5.81849">
        <ele>1441.63</ele>
        <time>2014-09-06T09:37:55Z</time>
      </trkpt>
      <trkpt lat="45.62945" lon="5.81831">
        <ele>1443.08</ele>
        <time>2014-09-06T09:38:09Z</time>
      </trkpt>
      <trkpt lat="45.62944" lon="5.81827">
        <ele>1443.08</ele>
        <time>2014-09-06T09:38:23Z</time>
      </trkpt>
      <trkpt lat="45.62944" lon="5.81826">
        <ele>1443.08</ele>
        <time>2014-09-06T09:38:46Z</time>
      </trkpt>
      <trkpt lat="45.62945" lon="5.81821">
        <ele>1443.08</ele>
        <time>2014-09-06T09:39:12Z</time>
      </trkpt>
      <trkpt lat="45.62946" lon="5.81819">
        <ele>1443.08</ele>
        <time>2014-09-06T09:39:31Z</time>
      </trkpt>
      <trkpt lat="45.6296" lon="5.81818">
        <ele>1443.56</ele>
        <time>2014-09-06T09:39:46Z</time>
      </trkpt>
      <trkpt lat="45.62975" lon="5.81818">
        <ele>1444.04</ele>
        <time>2014-09-06T09:39:57Z</time>
      </trkpt>
      <trkpt lat="45.62981" lon="5.81819">
        <ele>1444.04</ele>
        <time>2014-09-06T09:40:00Z</time>
      </trkpt>
      <trkpt lat="45.62984" lon="5.81818">
        <ele>1444.04</ele>
        <time>2014-09-06T09:40:01Z</time>
      </trkpt>
      <trkpt lat="45.62986" lon="5.81817">
        <ele>1444.52</ele>
        <time>2014-09-06T09:40:02Z</time>
      </trkpt>
      <trkpt lat="45.62989" lon="5.81817">
        <ele>1444.52</ele>
        <time>2014-09-06T09:40:03Z</time>
      </trkpt>
      <trkpt lat="45.62991" lon="5.81818">
        <ele>1445</ele>
        <time>2014-09-06T09:40:04Z</time>
      </trkpt>
      <trkpt lat="45.62992" lon="5.81818">
        <ele>1445</ele>
        <time>2014-09-06T09:40:05Z</time>
      </trkpt>
      <trkpt lat="45.62994" lon="5.81818">
        <ele>1445</ele>
        <time>2014-09-06T09:40:06Z</time>
      </trkpt>
      <trkpt lat="45.62996" lon="5.81818">
        <ele>1445</ele>
        <time>2014-09-06T09:40:07Z</time>
      </trkpt>
      <trkpt lat="45.62998" lon="5.81817">
        <ele>1445</ele>
        <time>2014-09-06T09:40:08Z</time>
      </trkpt>
      <trkpt lat="45.6303" lon="5.81811">
        <ele>1445.96</ele>
        <time>2014-09-06T09:40:20Z</time>
      </trkpt>
      <trkpt lat="45.63069" lon="5.81821">
        <ele>1446.92</ele>
        <time>2014-09-06T09:40:34Z</time>
      </trkpt>
      <trkpt lat="45.63105" lon="5.81827">
        <ele>1447.88</ele>
        <time>2014-09-06T09:40:47Z</time>
      </trkpt>
      <trkpt lat="45.6314" lon="5.81829">
        <ele>1448.84</ele>
        <time>2014-09-06T09:41:00Z</time>
      </trkpt>
      <trkpt lat="45.63167" lon="5.8183">
        <ele>1449.32</ele>
        <time>2014-09-06T09:41:10Z</time>
      </trkpt>
      <trkpt lat="45.6317" lon="5.81829">
        <ele>1449.32</ele>
        <time>2014-09-06T09:41:11Z</time>
      </trkpt>
      <trkpt lat="45.63173" lon="5.81829">
        <ele>1449.32</ele>
        <time>2014-09-06T09:41:12Z</time>
      </trkpt>
      <trkpt lat="45.63176" lon="5.81828">
        <ele>1449.32</ele>
        <time>2014-09-06T09:41:13Z</time>
      </trkpt>
      <trkpt lat="45.63179" lon="5.81828">
        <ele>1449.32</ele>
        <time>2014-09-06T09:41:14Z</time>
      </trkpt>
      <trkpt lat="45.63182" lon="5.81827">
        <ele>1449.32</ele>
        <time>2014-09-06T09:41:15Z</time>
      </trkpt>
      <trkpt lat="45.63222" lon="5.81817">
        <ele>1449.32</ele>
        <time>2014-09-06T09:41:29Z</time>
      </trkpt>
      <trkpt lat="45.6326" lon="5.81813">
        <ele>1449.32</ele>
        <time>2014-09-06T09:41:42Z</time>
      </trkpt>
      <trkpt lat="45.63283" lon="5.81806">
        <ele>1447.88</ele>
        <time>2014-09-06T09:41:49Z</time>
      </trkpt>
      <trkpt lat="45.63312" lon="5.81803">
        <ele>1446.92</ele>
        <time>2014-09-06T09:41:58Z</time>
      </trkpt>
      <trkpt lat="45.63337" lon="5.81793">
        <ele>1444.52</ele>
        <time>2014-09-06T09:42:06Z</time>
      </trkpt>
      <trkpt lat="45.63343" lon="5.8179">
        <ele>1443.56</ele>
        <time>2014-09-06T09:42:07Z</time>
      </trkpt>
      <trkpt lat="45.63366" lon="5.81778">
        <ele>1440.19</ele>
        <time>2014-09-06T09:42:11Z</time>
      </trkpt>
      <trkpt lat="45.63381" lon="5.81771">
        <ele>1438.75</ele>
        <time>2014-09-06T09:42:13Z</time>
      </trkpt>
      <trkpt lat="45.63388" lon="5.81769">
        <ele>1438.75</ele>
        <time>2014-09-06T09:42:14Z</time>
      </trkpt>
      <trkpt lat="45.63433" lon="5.81759">
        <ele>1440.19</ele>
        <time>2014-09-06T09:42:23Z</time>
      </trkpt>
      <trkpt lat="45.63466" lon="5.81754">
        <ele>1441.63</ele>
        <time>2014-09-06T09:42:35Z</time>
      </trkpt>
      <trkpt lat="45.6347" lon="5.81754">
        <ele>1442.11</ele>
        <time>2014-09-06T09:42:58Z</time>
      </trkpt>
      <trkpt lat="45.63484" lon="5.81755">
        <ele>1441.63</ele>
        <time>2014-09-06T09:43:12Z</time>
      </trkpt>
      <trkpt lat="45.63523" lon="5.81756">
        <ele>1442.11</ele>
        <time>2014-09-06T09:43:24Z</time>
      </trkpt>
      <trkpt lat="45.63569" lon="5.8176">
        <ele>1443.56</ele>
        <time>2014-09-06T09:43:39Z</time>
      </trkpt>
      <trkpt lat="45.63586" lon="5.8176">
        <ele>1441.15</ele>
        <time>2014-09-06T09:43:43Z</time>
      </trkpt>
      <trkpt lat="45.63591" lon="5.81761">
        <ele>1440.19</ele>
        <time>2014-09-06T09:43:44Z</time>
      </trkpt>
      <trkpt lat="45.63596" lon="5.81761">
        <ele>1440.19</ele>
        <time>2014-09-06T09:43:45Z</time>
      </trkpt>
      <trkpt lat="45.6362" lon="5.81766">
        <ele>1441.15</ele>
        <time>2014-09-06T09:43:51Z</time>
      </trkpt>
      <trkpt lat="45.63651" lon="5.81776">
        <ele>1444.04</ele>
        <time>2014-09-06T09:44:04Z</time>
      </trkpt>
      <trkpt lat="45.63679" lon="5.81781">
        <ele>1445.96</ele>
        <time>2014-09-06T09:44:17Z</time>
      </trkpt>
      <trkpt lat="45.6371" lon="5.81786">
        <ele>1448.84</ele>
        <time>2014-09-06T09:44:30Z</time>
      </trkpt>
      <trkpt lat="45.63733" lon="5.81792">
        <ele>1450.77</ele>
        <time>2014-09-06T09:44:43Z</time>
      </trkpt>
      <trkpt lat="45.63761" lon="5.81799">
        <ele>1452.21</ele>
        <time>2014-09-06T09:44:56Z</time>
      </trkpt>
      <trkpt lat="45.63783" lon="5.81802">
        <ele>1453.17</ele>
        <time>2014-09-06T09:45:06Z</time>
      </trkpt>
      <trkpt lat="45.63809" lon="5.81805">
        <ele>1455.57</ele>
        <time>2014-09-06T09:45:21Z</time>
      </trkpt>
      <trkpt lat="45.63835" lon="5.81806">
        <ele>1458.46</ele>
        <time>2014-09-06T09:45:34Z</time>
      </trkpt>
      <trkpt lat="45.63862" lon="5.81795">
        <ele>1459.42</ele>
        <time>2014-09-06T09:45:48Z</time>
      </trkpt>
      <trkpt lat="45.63895" lon="5.81785">
        <ele>1459.42</ele>
        <time>2014-09-06T09:46:00Z</time>
      </trkpt>
      <trkpt lat="45.63934" lon="5.81779">
        <ele>1460.38</ele>
        <time>2014-09-06T09:46:13Z</time>
      </trkpt>
      <trkpt lat="45.63959" lon="5.81779">
        <ele>1463.26</ele>
        <time>2014-09-06T09:46:25Z</time>
      </trkpt>
      <trkpt lat="45.6397" lon="5.81777">
        <ele>1464.71</ele>
        <time>2014-09-06T09:46:33Z</time>
      </trkpt>
      <trkpt lat="45.63972" lon="5.81778">
        <ele>1464.71</ele>
        <time>2014-09-06T09:46:34Z</time>
      </trkpt>
      <trkpt lat="45.63974" lon="5.81777">
        <ele>1464.71</ele>
        <time>2014-09-06T09:46:35Z</time>
      </trkpt>
      <trkpt lat="45.63976" lon="5.81777">
        <ele>1465.19</ele>
        <time>2014-09-06T09:46:36Z</time>
      </trkpt>
      <trkpt lat="45.63979" lon="5.81777">
        <ele>1465.19</ele>
        <time>2014-09-06T09:46:37Z</time>
      </trkpt>
      <trkpt lat="45.64002" lon="5.81776">
        <ele>1467.59</ele>
        <time>2014-09-06T09:46:50Z</time>
      </trkpt>
      <trkpt lat="45.64024" lon="5.81774">
        <ele>1469.51</ele>
        <time>2014-09-06T09:47:02Z</time>
      </trkpt>
      <trkpt lat="45.64049" lon="5.81772">
        <ele>1470.95</ele>
        <time>2014-09-06T09:47:15Z</time>
      </trkpt>
      <trkpt lat="45.64077" lon="5.81771">
        <ele>1473.36</ele>
        <time>2014-09-06T09:47:29Z</time>
      </trkpt>
      <trkpt lat="45.64105" lon="5.81772">
        <ele>1474.8</ele>
        <time>2014-09-06T09:47:41Z</time>
      </trkpt>
      <trkpt lat="45.64135" lon="5.81773">
        <ele>1476.72</ele>
        <time>2014-09-06T09:47:55Z</time>
      </trkpt>
      <trkpt lat="45.64159" lon="5.81772">
        <ele>1478.16</ele>
        <time>2014-09-06T09:48:07Z</time>
      </trkpt>
      <trkpt lat="45.64168" lon="5.81772">
        <ele>1478.65</ele>
        <time>2014-09-06T09:48:11Z</time>
      </trkpt>
      <trkpt lat="45.64169" lon="5.81772">
        <ele>1478.65</ele>
        <time>2014-09-06T09:48:12Z</time>
      </trkpt>
      <trkpt lat="45.64194" lon="5.81764">
        <ele>1479.61</ele>
        <time>2014-09-06T09:48:24Z</time>
      </trkpt>
      <trkpt lat="45.64222" lon="5.81757">
        <ele>1479.61</ele>
        <time>2014-09-06T09:48:34Z</time>
      </trkpt>
      <trkpt lat="45.6426" lon="5.81748">
        <ele>1480.57</ele>
        <time>2014-09-06T09:48:45Z</time>
      </trkpt>
      <trkpt lat="45.64303" lon="5.81745">
        <ele>1482.49</ele>
        <time>2014-09-06T09:48:58Z</time>
      </trkpt>
      <trkpt lat="45.64338" lon="5.8174">
        <ele>1482.49</ele>
        <time>2014-09-06T09:49:10Z</time>
      </trkpt>
      <trkpt lat="45.6437" lon="5.81734">
        <ele>1483.93</ele>
        <time>2014-09-06T09:49:20Z</time>
      </trkpt>
      <trkpt lat="45.64403" lon="5.81731">
        <ele>1485.37</ele>
        <time>2014-09-06T09:49:32Z</time>
      </trkpt>
      <trkpt lat="45.64437" lon="5.81733">
        <ele>1487.3</ele>
        <time>2014-09-06T09:49:46Z</time>
      </trkpt>
      <trkpt lat="45.64467" lon="5.81737">
        <ele>1485.85</ele>
        <time>2014-09-06T09:49:57Z</time>
      </trkpt>
      <trkpt lat="45.64471" lon="5.81736">
        <ele>1485.85</ele>
        <time>2014-09-06T09:49:58Z</time>
      </trkpt>
      <trkpt lat="45.64503" lon="5.81739">
        <ele>1485.37</ele>
        <time>2014-09-06T09:50:07Z</time>
      </trkpt>
      <trkpt lat="45.64535" lon="5.81744">
        <ele>1484.41</ele>
        <time>2014-09-06T09:50:16Z</time>
      </trkpt>
      <trkpt lat="45.64538" lon="5.81745">
        <ele>1484.41</ele>
        <time>2014-09-06T09:50:17Z</time>
      </trkpt>
      <trkpt lat="45.64541" lon="5.81746">
        <ele>1484.41</ele>
        <time>2014-09-06T09:50:18Z</time>
      </trkpt>
      <trkpt lat="45.64581" lon="5.81758">
        <ele>1486.34</ele>
        <time>2014-09-06T09:50:31Z</time>
      </trkpt>
      <trkpt lat="45.64609" lon="5.81757">
        <ele>1489.22</ele>
        <time>2014-09-06T09:50:42Z</time>
      </trkpt>
      <trkpt lat="45.64634" lon="5.81755">
        <ele>1491.62</ele>
        <time>2014-09-06T09:50:53Z</time>
      </trkpt>
      <trkpt lat="45.64647" lon="5.81754">
        <ele>1492.1</ele>
        <time>2014-09-06T09:51:01Z</time>
      </trkpt>
      <trkpt lat="45.64653" lon="5.81755">
        <ele>1492.1</ele>
        <time>2014-09-06T09:51:05Z</time>
      </trkpt>
      <trkpt lat="45.64655" lon="5.81755">
        <ele>1492.1</ele>
        <time>2014-09-06T09:51:06Z</time>
      </trkpt>
      <trkpt lat="45.64656" lon="5.81755">
        <ele>1492.1</ele>
        <time>2014-09-06T09:51:07Z</time>
      </trkpt>
      <trkpt lat="45.64658" lon="5.81755">
        <ele>1492.1</ele>
        <time>2014-09-06T09:51:08Z</time>
      </trkpt>
      <trkpt lat="45.6466" lon="5.81755">
        <ele>1492.1</ele>
        <time>2014-09-06T09:51:09Z</time>
      </trkpt>
      <trkpt lat="45.64662" lon="5.81756">
        <ele>1492.1</ele>
        <time>2014-09-06T09:51:10Z</time>
      </trkpt>
      <trkpt lat="45.64692" lon="5.81759">
        <ele>1492.1</ele>
        <time>2014-09-06T09:51:20Z</time>
      </trkpt>
      <trkpt lat="45.64735" lon="5.81761">
        <ele>1490.66</ele>
        <time>2014-09-06T09:51:31Z</time>
      </trkpt>
      <trkpt lat="45.64775" lon="5.81786">
        <ele>1487.3</ele>
        <time>2014-09-06T09:51:40Z</time>
      </trkpt>
      <trkpt lat="45.64787" lon="5.81795">
        <ele>1485.37</ele>
        <time>2014-09-06T09:51:43Z</time>
      </trkpt>
      <trkpt lat="45.64792" lon="5.81796">
        <ele>1484.89</ele>
        <time>2014-09-06T09:51:44Z</time>
      </trkpt>
      <trkpt lat="45.64796" lon="5.81798">
        <ele>1483.93</ele>
        <time>2014-09-06T09:51:45Z</time>
      </trkpt>
      <trkpt lat="45.648" lon="5.81799">
        <ele>1483.45</ele>
        <time>2014-09-06T09:51:46Z</time>
      </trkpt>
      <trkpt lat="45.64805" lon="5.818">
        <ele>1483.45</ele>
        <time>2014-09-06T09:51:47Z</time>
      </trkpt>
      <trkpt lat="45.6481" lon="5.81801">
        <ele>1482.49</ele>
        <time>2014-09-06T09:51:48Z</time>
      </trkpt>
      <trkpt lat="45.64821" lon="5.81803">
        <ele>1482.01</ele>
        <time>2014-09-06T09:51:50Z</time>
      </trkpt>
      <trkpt lat="45.64827" lon="5.81804">
        <ele>1481.53</ele>
        <time>2014-09-06T09:51:51Z</time>
      </trkpt>
      <trkpt lat="45.64833" lon="5.81806">
        <ele>1480.57</ele>
        <time>2014-09-06T09:51:52Z</time>
      </trkpt>
      <trkpt lat="45.6486" lon="5.81815">
        <ele>1479.13</ele>
        <time>2014-09-06T09:51:57Z</time>
      </trkpt>
      <trkpt lat="45.64883" lon="5.81825">
        <ele>1477.2</ele>
        <time>2014-09-06T09:52:01Z</time>
      </trkpt>
      <trkpt lat="45.64889" lon="5.81825">
        <ele>1476.24</ele>
        <time>2014-09-06T09:52:07Z</time>
      </trkpt>
      <trkpt lat="45.64911" lon="5.8183">
        <ele>1473.84</ele>
        <time>2014-09-06T09:52:13Z</time>
      </trkpt>
      <trkpt lat="45.64917" lon="5.81831">
        <ele>1473.36</ele>
        <time>2014-09-06T09:52:14Z</time>
      </trkpt>
      <trkpt lat="45.64923" lon="5.81832">
        <ele>1471.92</ele>
        <time>2014-09-06T09:52:15Z</time>
      </trkpt>
      <trkpt lat="45.64929" lon="5.81834">
        <ele>1471.44</ele>
        <time>2014-09-06T09:52:16Z</time>
      </trkpt>
      <trkpt lat="45.64935" lon="5.81835">
        <ele>1470.47</ele>
        <time>2014-09-06T09:52:17Z</time>
      </trkpt>
      <trkpt lat="45.6494" lon="5.81836">
        <ele>1469.51</ele>
        <time>2014-09-06T09:52:18Z</time>
      </trkpt>
      <trkpt lat="45.64949" lon="5.8184">
        <ele>1468.07</ele>
        <time>2014-09-06T09:52:20Z</time>
      </trkpt>
      <trkpt lat="45.64954" lon="5.81842">
        <ele>1467.59</ele>
        <time>2014-09-06T09:52:21Z</time>
      </trkpt>
      <trkpt lat="45.64959" lon="5.81844">
        <ele>1467.11</ele>
        <time>2014-09-06T09:52:22Z</time>
      </trkpt>
      <trkpt lat="45.6497" lon="5.81848">
        <ele>1465.67</ele>
        <time>2014-09-06T09:52:24Z</time>
      </trkpt>
      <trkpt lat="45.64982" lon="5.8185">
        <ele>1464.71</ele>
        <time>2014-09-06T09:52:26Z</time>
      </trkpt>
      <trkpt lat="45.64994" lon="5.81851">
        <ele>1463.74</ele>
        <time>2014-09-06T09:52:28Z</time>
      </trkpt>
      <trkpt lat="45.65" lon="5.81853">
        <ele>1463.74</ele>
        <time>2014-09-06T09:52:29Z</time>
      </trkpt>
      <trkpt lat="45.65005" lon="5.81856">
        <ele>1463.74</ele>
        <time>2014-09-06T09:52:30Z</time>
      </trkpt>
      <trkpt lat="45.6501" lon="5.81858">
        <ele>1463.74</ele>
        <time>2014-09-06T09:52:31Z</time>
      </trkpt>
      <trkpt lat="45.65015" lon="5.8186">
        <ele>1463.74</ele>
        <time>2014-09-06T09:52:32Z</time>
      </trkpt>
      <trkpt lat="45.65039" lon="5.81869">
        <ele>1465.19</ele>
        <time>2014-09-06T09:52:40Z</time>
      </trkpt>
      <trkpt lat="45.6505" lon="5.81875">
        <ele>1466.63</ele>
        <time>2014-09-06T09:52:47Z</time>
      </trkpt>
      <trkpt lat="45.65052" lon="5.81876">
        <ele>1466.63</ele>
        <time>2014-09-06T09:52:48Z</time>
      </trkpt>
      <trkpt lat="45.65053" lon="5.81877">
        <ele>1467.11</ele>
        <time>2014-09-06T09:52:49Z</time>
      </trkpt>
      <trkpt lat="45.65078" lon="5.81888">
        <ele>1469.99</ele>
        <time>2014-09-06T09:53:04Z</time>
      </trkpt>
      <trkpt lat="45.65095" lon="5.81896">
        <ele>1472.4</ele>
        <time>2014-09-06T09:53:18Z</time>
      </trkpt>
      <trkpt lat="45.65117" lon="5.81898">
        <ele>1474.8</ele>
        <time>2014-09-06T09:53:33Z</time>
      </trkpt>
      <trkpt lat="45.6512" lon="5.81899">
        <ele>1474.8</ele>
        <time>2014-09-06T09:53:35Z</time>
      </trkpt>
      <trkpt lat="45.65121" lon="5.819">
        <ele>1475.28</ele>
        <time>2014-09-06T09:53:36Z</time>
      </trkpt>
      <trkpt lat="45.65123" lon="5.819">
        <ele>1475.28</ele>
        <time>2014-09-06T09:53:37Z</time>
      </trkpt>
      <trkpt lat="45.65124" lon="5.819">
        <ele>1475.28</ele>
        <time>2014-09-06T09:53:38Z</time>
      </trkpt>
      <trkpt lat="45.65126" lon="5.819">
        <ele>1475.76</ele>
        <time>2014-09-06T09:53:39Z</time>
      </trkpt>
      <trkpt lat="45.65147" lon="5.819">
        <ele>1477.2</ele>
        <time>2014-09-06T09:53:52Z</time>
      </trkpt>
      <trkpt lat="45.65179" lon="5.81911">
        <ele>1479.13</ele>
        <time>2014-09-06T09:54:06Z</time>
      </trkpt>
      <trkpt lat="45.65187" lon="5.81912">
        <ele>1479.61</ele>
        <time>2014-09-06T09:54:11Z</time>
      </trkpt>
      <trkpt lat="45.65189" lon="5.81913">
        <ele>1479.61</ele>
        <time>2014-09-06T09:54:12Z</time>
      </trkpt>
      <trkpt lat="45.65191" lon="5.81914">
        <ele>1479.61</ele>
        <time>2014-09-06T09:54:13Z</time>
      </trkpt>
      <trkpt lat="45.65192" lon="5.81915">
        <ele>1479.61</ele>
        <time>2014-09-06T09:54:14Z</time>
      </trkpt>
      <trkpt lat="45.65193" lon="5.81917">
        <ele>1479.61</ele>
        <time>2014-09-06T09:54:15Z</time>
      </trkpt>
      <trkpt lat="45.65195" lon="5.81917">
        <ele>1479.61</ele>
        <time>2014-09-06T09:54:16Z</time>
      </trkpt>
      <trkpt lat="45.65197" lon="5.81918">
        <ele>1479.61</ele>
        <time>2014-09-06T09:54:17Z</time>
      </trkpt>
      <trkpt lat="45.65198" lon="5.81919">
        <ele>1479.61</ele>
        <time>2014-09-06T09:54:18Z</time>
      </trkpt>
      <trkpt lat="45.652" lon="5.81919">
        <ele>1479.61</ele>
        <time>2014-09-06T09:54:19Z</time>
      </trkpt>
      <trkpt lat="45.65202" lon="5.8192">
        <ele>1479.61</ele>
        <time>2014-09-06T09:54:20Z</time>
      </trkpt>
      <trkpt lat="45.65204" lon="5.81921">
        <ele>1479.61</ele>
        <time>2014-09-06T09:54:21Z</time>
      </trkpt>
      <trkpt lat="45.65207" lon="5.81922">
        <ele>1479.61</ele>
        <time>2014-09-06T09:54:22Z</time>
      </trkpt>
      <trkpt lat="45.6523" lon="5.81937">
        <ele>1476.24</ele>
        <time>2014-09-06T09:54:28Z</time>
      </trkpt>
      <trkpt lat="45.6524" lon="5.81943">
        <ele>1474.8</ele>
        <time>2014-09-06T09:54:30Z</time>
      </trkpt>
      <trkpt lat="45.65258" lon="5.8195">
        <ele>1472.4</ele>
        <time>2014-09-06T09:54:34Z</time>
      </trkpt>
      <trkpt lat="45.6527" lon="5.81953">
        <ele>1471.44</ele>
        <time>2014-09-06T09:54:36Z</time>
      </trkpt>
      <trkpt lat="45.65274" lon="5.81955">
        <ele>1471.92</ele>
        <time>2014-09-06T09:54:37Z</time>
      </trkpt>
      <trkpt lat="45.65283" lon="5.8196">
        <ele>1471.44</ele>
        <time>2014-09-06T09:54:39Z</time>
      </trkpt>
      <trkpt lat="45.65288" lon="5.81963">
        <ele>1471.44</ele>
        <time>2014-09-06T09:54:40Z</time>
      </trkpt>
      <trkpt lat="45.65293" lon="5.81964">
        <ele>1471.44</ele>
        <time>2014-09-06T09:54:41Z</time>
      </trkpt>
      <trkpt lat="45.65298" lon="5.81964">
        <ele>1471.92</ele>
        <time>2014-09-06T09:54:42Z</time>
      </trkpt>
      <trkpt lat="45.65301" lon="5.81963">
        <ele>1471.92</ele>
        <time>2014-09-06T09:54:43Z</time>
      </trkpt>
      <trkpt lat="45.65304" lon="5.81962">
        <ele>1473.36</ele>
        <time>2014-09-06T09:54:44Z</time>
      </trkpt>
      <trkpt lat="45.65305" lon="5.81961">
        <ele>1473.36</ele>
        <time>2014-09-06T09:54:45Z</time>
      </trkpt>
      <trkpt lat="45.65315" lon="5.81966">
        <ele>1473.84</ele>
        <time>2014-09-06T09:54:57Z</time>
      </trkpt>
      <trkpt lat="45.65322" lon="5.81962">
        <ele>1473.84</ele>
        <time>2014-09-06T09:55:05Z</time>
      </trkpt>
      <trkpt lat="45.6533" lon="5.81952">
        <ele>1475.28</ele>
        <time>2014-09-06T09:55:10Z</time>
      </trkpt>
      <trkpt lat="45.65331" lon="5.81951">
        <ele>1475.28</ele>
        <time>2014-09-06T09:55:11Z</time>
      </trkpt>
      <trkpt lat="45.65349" lon="5.81934">
        <ele>1478.16</ele>
        <time>2014-09-06T09:55:22Z</time>
      </trkpt>
      <trkpt lat="45.6535" lon="5.81931">
        <ele>1478.16</ele>
        <time>2014-09-06T09:55:23Z</time>
      </trkpt>
      <trkpt lat="45.65351" lon="5.81928">
        <ele>1478.16</ele>
        <time>2014-09-06T09:55:24Z</time>
      </trkpt>
      <trkpt lat="45.65352" lon="5.81926">
        <ele>1478.16</ele>
        <time>2014-09-06T09:55:25Z</time>
      </trkpt>
      <trkpt lat="45.65353" lon="5.81924">
        <ele>1478.16</ele>
        <time>2014-09-06T09:55:26Z</time>
      </trkpt>
      <trkpt lat="45.6536" lon="5.81911">
        <ele>1478.65</ele>
        <time>2014-09-06T09:55:33Z</time>
      </trkpt>
      <trkpt lat="45.65373" lon="5.81887">
        <ele>1480.57</ele>
        <time>2014-09-06T09:55:45Z</time>
      </trkpt>
      <trkpt lat="45.65386" lon="5.81858">
        <ele>1480.57</ele>
        <time>2014-09-06T09:55:55Z</time>
      </trkpt>
      <trkpt lat="45.65389" lon="5.81851">
        <ele>1480.57</ele>
        <time>2014-09-06T09:55:58Z</time>
      </trkpt>
      <trkpt lat="45.65401" lon="5.81848">
        <ele>1480.57</ele>
        <time>2014-09-06T09:56:05Z</time>
      </trkpt>
      <trkpt lat="45.65403" lon="5.81849">
        <ele>1480.57</ele>
        <time>2014-09-06T09:56:06Z</time>
      </trkpt>
      <trkpt lat="45.65409" lon="5.81856">
        <ele>1479.61</ele>
        <time>2014-09-06T09:56:10Z</time>
      </trkpt>
      <trkpt lat="45.65411" lon="5.81858">
        <ele>1479.61</ele>
        <time>2014-09-06T09:56:11Z</time>
      </trkpt>
      <trkpt lat="45.65413" lon="5.8186">
        <ele>1479.61</ele>
        <time>2014-09-06T09:56:12Z</time>
      </trkpt>
      <trkpt lat="45.65423" lon="5.81884">
        <ele>1479.61</ele>
        <time>2014-09-06T09:56:23Z</time>
      </trkpt>
      <trkpt lat="45.65423" lon="5.81896">
        <ele>1478.16</ele>
        <time>2014-09-06T09:56:26Z</time>
      </trkpt>
      <trkpt lat="45.6542" lon="5.81919">
        <ele>1477.68</ele>
        <time>2014-09-06T09:56:33Z</time>
      </trkpt>
      <trkpt lat="45.65419" lon="5.81922">
        <ele>1477.68</ele>
        <time>2014-09-06T09:56:34Z</time>
      </trkpt>
      <trkpt lat="45.65417" lon="5.81925">
        <ele>1477.2</ele>
        <time>2014-09-06T09:56:35Z</time>
      </trkpt>
      <trkpt lat="45.65415" lon="5.81927">
        <ele>1476.72</ele>
        <time>2014-09-06T09:56:36Z</time>
      </trkpt>
      <trkpt lat="45.65412" lon="5.81929">
        <ele>1475.28</ele>
        <time>2014-09-06T09:56:37Z</time>
      </trkpt>
      <trkpt lat="45.6541" lon="5.81931">
        <ele>1475.28</ele>
        <time>2014-09-06T09:56:38Z</time>
      </trkpt>
      <trkpt lat="45.65409" lon="5.81935">
        <ele>1474.8</ele>
        <time>2014-09-06T09:56:39Z</time>
      </trkpt>
      <trkpt lat="45.65407" lon="5.81939">
        <ele>1474.8</ele>
        <time>2014-09-06T09:56:40Z</time>
      </trkpt>
      <trkpt lat="45.65406" lon="5.81945">
        <ele>1474.32</ele>
        <time>2014-09-06T09:56:41Z</time>
      </trkpt>
      <trkpt lat="45.65404" lon="5.8195">
        <ele>1473.36</ele>
        <time>2014-09-06T09:56:42Z</time>
      </trkpt>
      <trkpt lat="45.65404" lon="5.81955">
        <ele>1473.36</ele>
        <time>2014-09-06T09:56:43Z</time>
      </trkpt>
      <trkpt lat="45.65411" lon="5.81984">
        <ele>1470.95</ele>
        <time>2014-09-06T09:56:52Z</time>
      </trkpt>
      <trkpt lat="45.65416" lon="5.8199">
        <ele>1470.95</ele>
        <time>2014-09-06T09:56:54Z</time>
      </trkpt>
      <trkpt lat="45.65419" lon="5.8199">
        <ele>1470.47</ele>
        <time>2014-09-06T09:56:55Z</time>
      </trkpt>
      <trkpt lat="45.65422" lon="5.8199">
        <ele>1470.47</ele>
        <time>2014-09-06T09:56:56Z</time>
      </trkpt>
      <trkpt lat="45.65425" lon="5.8199">
        <ele>1470.47</ele>
        <time>2014-09-06T09:56:57Z</time>
      </trkpt>
      <trkpt lat="45.65428" lon="5.81991">
        <ele>1470.47</ele>
        <time>2014-09-06T09:56:58Z</time>
      </trkpt>
      <trkpt lat="45.65431" lon="5.81991">
        <ele>1470.47</ele>
        <time>2014-09-06T09:56:59Z</time>
      </trkpt>
      <trkpt lat="45.65439" lon="5.81986">
        <ele>1470.95</ele>
        <time>2014-09-06T09:57:02Z</time>
      </trkpt>
      <trkpt lat="45.6544" lon="5.81984">
        <ele>1470.95</ele>
        <time>2014-09-06T09:57:03Z</time>
      </trkpt>
      <trkpt lat="45.65441" lon="5.81981">
        <ele>1470.95</ele>
        <time>2014-09-06T09:57:04Z</time>
      </trkpt>
      <trkpt lat="45.65442" lon="5.81979">
        <ele>1470.95</ele>
        <time>2014-09-06T09:57:05Z</time>
      </trkpt>
      <trkpt lat="45.65444" lon="5.81978">
        <ele>1470.95</ele>
        <time>2014-09-06T09:57:06Z</time>
      </trkpt>
      <trkpt lat="45.65447" lon="5.8198">
        <ele>1470.95</ele>
        <time>2014-09-06T09:57:07Z</time>
      </trkpt>
      <trkpt lat="45.6545" lon="5.81981">
        <ele>1470.95</ele>
        <time>2014-09-06T09:57:08Z</time>
      </trkpt>
      <trkpt lat="45.65452" lon="5.81983">
        <ele>1470.95</ele>
        <time>2014-09-06T09:57:09Z</time>
      </trkpt>
      <trkpt lat="45.65455" lon="5.81984">
        <ele>1470.95</ele>
        <time>2014-09-06T09:57:10Z</time>
      </trkpt>
      <trkpt lat="45.65458" lon="5.81985">
        <ele>1470.95</ele>
        <time>2014-09-06T09:57:11Z</time>
      </trkpt>
      <trkpt lat="45.65469" lon="5.81987">
        <ele>1471.92</ele>
        <time>2014-09-06T09:57:14Z</time>
      </trkpt>
      <trkpt lat="45.65489" lon="5.81996">
        <ele>1473.36</ele>
        <time>2014-09-06T09:57:23Z</time>
      </trkpt>
      <trkpt lat="45.65496" lon="5.82">
        <ele>1474.32</ele>
        <time>2014-09-06T09:57:27Z</time>
      </trkpt>
      <trkpt lat="45.65498" lon="5.82002">
        <ele>1474.32</ele>
        <time>2014-09-06T09:57:28Z</time>
      </trkpt>
      <trkpt lat="45.65499" lon="5.82003">
        <ele>1474.8</ele>
        <time>2014-09-06T09:57:29Z</time>
      </trkpt>
      <trkpt lat="45.65501" lon="5.82005">
        <ele>1474.8</ele>
        <time>2014-09-06T09:57:30Z</time>
      </trkpt>
      <trkpt lat="45.65502" lon="5.82005">
        <ele>1475.28</ele>
        <time>2014-09-06T09:57:31Z</time>
      </trkpt>
      <trkpt lat="45.65504" lon="5.82006">
        <ele>1475.28</ele>
        <time>2014-09-06T09:57:32Z</time>
      </trkpt>
      <trkpt lat="45.65514" lon="5.82015">
        <ele>1477.68</ele>
        <time>2014-09-06T09:57:43Z</time>
      </trkpt>
      <trkpt lat="45.65521" lon="5.82029">
        <ele>1479.13</ele>
        <time>2014-09-06T09:57:56Z</time>
      </trkpt>
      <trkpt lat="45.65531" lon="5.82037">
        <ele>1480.09</ele>
        <time>2014-09-06T09:58:12Z</time>
      </trkpt>
      <trkpt lat="45.65539" lon="5.82035">
        <ele>1480.57</ele>
        <time>2014-09-06T09:58:25Z</time>
      </trkpt>
      <trkpt lat="45.65541" lon="5.82035">
        <ele>1480.57</ele>
        <time>2014-09-06T09:58:27Z</time>
      </trkpt>
      <trkpt lat="45.65543" lon="5.82036">
        <ele>1480.57</ele>
        <time>2014-09-06T09:58:29Z</time>
      </trkpt>
      <trkpt lat="45.65545" lon="5.82036">
        <ele>1481.05</ele>
        <time>2014-09-06T09:58:30Z</time>
      </trkpt>
      <trkpt lat="45.65546" lon="5.82037">
        <ele>1480.57</ele>
        <time>2014-09-06T09:58:31Z</time>
      </trkpt>
      <trkpt lat="45.65551" lon="5.82039">
        <ele>1481.53</ele>
        <time>2014-09-06T09:58:36Z</time>
      </trkpt>
      <trkpt lat="45.65552" lon="5.8204">
        <ele>1481.53</ele>
        <time>2014-09-06T09:58:37Z</time>
      </trkpt>
      <trkpt lat="45.6558" lon="5.82047">
        <ele>1482.49</ele>
        <time>2014-09-06T09:58:50Z</time>
      </trkpt>
      <trkpt lat="45.65589" lon="5.82052">
        <ele>1482.49</ele>
        <time>2014-09-06T09:58:55Z</time>
      </trkpt>
      <trkpt lat="45.65591" lon="5.82052">
        <ele>1482.49</ele>
        <time>2014-09-06T09:58:56Z</time>
      </trkpt>
      <trkpt lat="45.65593" lon="5.82051">
        <ele>1482.49</ele>
        <time>2014-09-06T09:58:57Z</time>
      </trkpt>
      <trkpt lat="45.65595" lon="5.8205">
        <ele>1482.49</ele>
        <time>2014-09-06T09:58:58Z</time>
      </trkpt>
      <trkpt lat="45.65597" lon="5.82051">
        <ele>1482.49</ele>
        <time>2014-09-06T09:58:59Z</time>
      </trkpt>
      <trkpt lat="45.65599" lon="5.82052">
        <ele>1482.49</ele>
        <time>2014-09-06T09:59:00Z</time>
      </trkpt>
      <trkpt lat="45.65601" lon="5.82053">
        <ele>1482.49</ele>
        <time>2014-09-06T09:59:01Z</time>
      </trkpt>
      <trkpt lat="45.65608" lon="5.82056">
        <ele>1482.97</ele>
        <time>2014-09-06T09:59:05Z</time>
      </trkpt>
      <trkpt lat="45.65609" lon="5.82056">
        <ele>1482.97</ele>
        <time>2014-09-06T09:59:06Z</time>
      </trkpt>
      <trkpt lat="45.65611" lon="5.82056">
        <ele>1482.97</ele>
        <time>2014-09-06T09:59:07Z</time>
      </trkpt>
      <trkpt lat="45.65613" lon="5.82057">
        <ele>1482.97</ele>
        <time>2014-09-06T09:59:08Z</time>
      </trkpt>
      <trkpt lat="45.65615" lon="5.82057">
        <ele>1483.45</ele>
        <time>2014-09-06T09:59:09Z</time>
      </trkpt>
      <trkpt lat="45.65617" lon="5.82057">
        <ele>1483.45</ele>
        <time>2014-09-06T09:59:10Z</time>
      </trkpt>
      <trkpt lat="45.65619" lon="5.82058">
        <ele>1483.45</ele>
        <time>2014-09-06T09:59:11Z</time>
      </trkpt>
      <trkpt lat="45.6562" lon="5.82059">
        <ele>1483.93</ele>
        <time>2014-09-06T09:59:12Z</time>
      </trkpt>
      <trkpt lat="45.65622" lon="5.8206">
        <ele>1483.93</ele>
        <time>2014-09-06T09:59:13Z</time>
      </trkpt>
      <trkpt lat="45.65624" lon="5.8206">
        <ele>1483.93</ele>
        <time>2014-09-06T09:59:15Z</time>
      </trkpt>
      <trkpt lat="45.65626" lon="5.82059">
        <ele>1483.93</ele>
        <time>2014-09-06T09:59:16Z</time>
      </trkpt>
      <trkpt lat="45.65646" lon="5.82054">
        <ele>1485.37</ele>
        <time>2014-09-06T09:59:27Z</time>
      </trkpt>
      <trkpt lat="45.65651" lon="5.82053">
        <ele>1485.85</ele>
        <time>2014-09-06T09:59:30Z</time>
      </trkpt>
      <trkpt lat="45.65653" lon="5.82053">
        <ele>1485.85</ele>
        <time>2014-09-06T09:59:31Z</time>
      </trkpt>
      <trkpt lat="45.6566" lon="5.82051">
        <ele>1485.85</ele>
        <time>2014-09-06T09:59:35Z</time>
      </trkpt>
      <trkpt lat="45.65686" lon="5.82056">
        <ele>1487.78</ele>
        <time>2014-09-06T09:59:48Z</time>
      </trkpt>
      <trkpt lat="45.65716" lon="5.82074">
        <ele>1488.74</ele>
        <time>2014-09-06T10:00:01Z</time>
      </trkpt>
      <trkpt lat="45.65749" lon="5.82096">
        <ele>1487.78</ele>
        <time>2014-09-06T10:00:13Z</time>
      </trkpt>
      <trkpt lat="45.65765" lon="5.82107">
        <ele>1487.78</ele>
        <time>2014-09-06T10:00:19Z</time>
      </trkpt>
      <trkpt lat="45.6579" lon="5.82114">
        <ele>1487.3</ele>
        <time>2014-09-06T10:00:28Z</time>
      </trkpt>
      <trkpt lat="45.65816" lon="5.82121">
        <ele>1485.85</ele>
        <time>2014-09-06T10:00:37Z</time>
      </trkpt>
      <trkpt lat="45.65828" lon="5.82132">
        <ele>1486.34</ele>
        <time>2014-09-06T10:00:54Z</time>
      </trkpt>
      <trkpt lat="45.65834" lon="5.82137">
        <ele>1486.34</ele>
        <time>2014-09-06T10:01:10Z</time>
      </trkpt>
      <trkpt lat="45.65848" lon="5.82123">
        <ele>1484.89</ele>
        <time>2014-09-06T10:01:20Z</time>
      </trkpt>
      <trkpt lat="45.65852" lon="5.82121">
        <ele>1484.41</ele>
        <time>2014-09-06T10:01:21Z</time>
      </trkpt>
      <trkpt lat="45.65857" lon="5.8212">
        <ele>1484.41</ele>
        <time>2014-09-06T10:01:22Z</time>
      </trkpt>
      <trkpt lat="45.65862" lon="5.8212">
        <ele>1483.93</ele>
        <time>2014-09-06T10:01:23Z</time>
      </trkpt>
      <trkpt lat="45.65868" lon="5.82122">
        <ele>1483.93</ele>
        <time>2014-09-06T10:01:24Z</time>
      </trkpt>
      <trkpt lat="45.65872" lon="5.82125">
        <ele>1483.45</ele>
        <time>2014-09-06T10:01:25Z</time>
      </trkpt>
      <trkpt lat="45.6588" lon="5.82129">
        <ele>1484.89</ele>
        <time>2014-09-06T10:01:28Z</time>
      </trkpt>
      <trkpt lat="45.65897" lon="5.82126">
        <ele>1487.3</ele>
        <time>2014-09-06T10:01:34Z</time>
      </trkpt>
      <trkpt lat="45.65917" lon="5.82106">
        <ele>1488.74</ele>
        <time>2014-09-06T10:01:44Z</time>
      </trkpt>
      <trkpt lat="45.65949" lon="5.82077">
        <ele>1491.14</ele>
        <time>2014-09-06T10:01:58Z</time>
      </trkpt>
      <trkpt lat="45.65978" lon="5.82062">
        <ele>1492.1</ele>
        <time>2014-09-06T10:02:09Z</time>
      </trkpt>
      <trkpt lat="45.66013" lon="5.82078">
        <ele>1493.55</ele>
        <time>2014-09-06T10:02:21Z</time>
      </trkpt>
      <trkpt lat="45.6604" lon="5.82111">
        <ele>1494.99</ele>
        <time>2014-09-06T10:02:34Z</time>
      </trkpt>
      <trkpt lat="45.66069" lon="5.82138">
        <ele>1496.91</ele>
        <time>2014-09-06T10:02:47Z</time>
      </trkpt>
      <trkpt lat="45.66083" lon="5.82153">
        <ele>1497.39</ele>
        <time>2014-09-06T10:02:55Z</time>
      </trkpt>
      <trkpt lat="45.66085" lon="5.82157">
        <ele>1497.39</ele>
        <time>2014-09-06T10:02:58Z</time>
      </trkpt>
      <trkpt lat="45.66085" lon="5.82159">
        <ele>1497.39</ele>
        <time>2014-09-06T10:02:59Z</time>
      </trkpt>
      <trkpt lat="45.66085" lon="5.82163">
        <ele>1497.39</ele>
        <time>2014-09-06T10:03:02Z</time>
      </trkpt>
      <trkpt lat="45.66085" lon="5.82165">
        <ele>1497.39</ele>
        <time>2014-09-06T10:03:03Z</time>
      </trkpt>
      <trkpt lat="45.66086" lon="5.82166">
        <ele>1497.39</ele>
        <time>2014-09-06T10:03:18Z</time>
      </trkpt>
      <trkpt lat="45.66088" lon="5.82166">
        <ele>1497.39</ele>
        <time>2014-09-06T10:03:41Z</time>
      </trkpt>
      <trkpt lat="45.6609" lon="5.82164">
        <ele>1497.39</ele>
        <time>2014-09-06T10:03:44Z</time>
      </trkpt>
      <trkpt lat="45.66095" lon="5.8216">
        <ele>1497.39</ele>
        <time>2014-09-06T10:03:47Z</time>
      </trkpt>
      <trkpt lat="45.66097" lon="5.82159">
        <ele>1497.39</ele>
        <time>2014-09-06T10:03:48Z</time>
      </trkpt>
      <trkpt lat="45.66098" lon="5.8216">
        <ele>1497.39</ele>
        <time>2014-09-06T10:03:49Z</time>
      </trkpt>
      <trkpt lat="45.661" lon="5.8216">
        <ele>1497.39</ele>
        <time>2014-09-06T10:03:50Z</time>
      </trkpt>
      <trkpt lat="45.66101" lon="5.82161">
        <ele>1497.87</ele>
        <time>2014-09-06T10:03:51Z</time>
      </trkpt>
      <trkpt lat="45.66103" lon="5.82161">
        <ele>1497.87</ele>
        <time>2014-09-06T10:03:52Z</time>
      </trkpt>
      <trkpt lat="45.66104" lon="5.82161">
        <ele>1497.87</ele>
        <time>2014-09-06T10:03:53Z</time>
      </trkpt>
      <trkpt lat="45.66105" lon="5.8216">
        <ele>1497.87</ele>
        <time>2014-09-06T10:03:54Z</time>
      </trkpt>
      <trkpt lat="45.66108" lon="5.82157">
        <ele>1497.87</ele>
        <time>2014-09-06T10:04:06Z</time>
      </trkpt>
      <trkpt lat="45.66109" lon="5.82154">
        <ele>1497.87</ele>
        <time>2014-09-06T10:04:33Z</time>
      </trkpt>
      <trkpt lat="45.66107" lon="5.82156">
        <ele>1497.87</ele>
        <time>2014-09-06T10:05:05Z</time>
      </trkpt>
      <trkpt lat="45.66107" lon="5.82156">
        <ele>1497.87</ele>
        <time>2014-09-06T10:05:30Z</time>
      </trkpt>
      <trkpt lat="45.66109" lon="5.82156">
        <ele>1497.39</ele>
        <time>2014-09-06T10:05:49Z</time>
      </trkpt>
      <trkpt lat="45.66109" lon="5.82158">
        <ele>1497.87</ele>
        <time>2014-09-06T10:06:10Z</time>
      </trkpt>
      <trkpt lat="45.66109" lon="5.82153">
        <ele>1497.87</ele>
        <time>2014-09-06T10:06:33Z</time>
      </trkpt>
      <trkpt lat="45.66109" lon="5.82153">
        <ele>1497.39</ele>
        <time>2014-09-06T10:06:55Z</time>
      </trkpt>
      <trkpt lat="45.66105" lon="5.82159">
        <ele>1497.87</ele>
        <time>2014-09-06T10:07:16Z</time>
      </trkpt>
      <trkpt lat="45.66107" lon="5.82159">
        <ele>1497.87</ele>
        <time>2014-09-06T10:07:37Z</time>
      </trkpt>
      <trkpt lat="45.66109" lon="5.8216">
        <ele>1497.87</ele>
        <time>2014-09-06T10:07:58Z</time>
      </trkpt>
      <trkpt lat="45.6611" lon="5.82156">
        <ele>1497.39</ele>
        <time>2014-09-06T10:08:23Z</time>
      </trkpt>
      <trkpt lat="45.66109" lon="5.82157">
        <ele>1497.39</ele>
        <time>2014-09-06T10:08:46Z</time>
      </trkpt>
      <trkpt lat="45.6611" lon="5.82156">
        <ele>1497.39</ele>
        <time>2014-09-06T10:09:08Z</time>
      </trkpt>
      <trkpt lat="45.66108" lon="5.82158">
        <ele>1497.39</ele>
        <time>2014-09-06T10:09:30Z</time>
      </trkpt>
      <trkpt lat="45.66109" lon="5.82157">
        <ele>1497.39</ele>
        <time>2014-09-06T10:09:57Z</time>
      </trkpt>
      <trkpt lat="45.66108" lon="5.82159">
        <ele>1497.39</ele>
        <time>2014-09-06T10:10:21Z</time>
      </trkpt>
      <trkpt lat="45.66108" lon="5.82159">
        <ele>1497.39</ele>
        <time>2014-09-06T10:10:49Z</time>
      </trkpt>
      <trkpt lat="45.66109" lon="5.82159">
        <ele>1496.91</ele>
        <time>2014-09-06T10:11:14Z</time>
      </trkpt>
      <trkpt lat="45.66108" lon="5.82161">
        <ele>1496.91</ele>
        <time>2014-09-06T10:11:39Z</time>
      </trkpt>
      <trkpt lat="45.66109" lon="5.82161">
        <ele>1496.91</ele>
        <time>2014-09-06T10:12:05Z</time>
      </trkpt>
      <trkpt lat="45.66109" lon="5.82158">
        <ele>1496.91</ele>
        <time>2014-09-06T10:12:32Z</time>
      </trkpt>
      <trkpt lat="45.6611" lon="5.82163">
        <ele>1496.91</ele>
        <time>2014-09-06T10:12:58Z</time>
      </trkpt>
      <trkpt lat="45.6611" lon="5.8216">
        <ele>1496.91</ele>
        <time>2014-09-06T10:13:30Z</time>
      </trkpt>
      <trkpt lat="45.66111" lon="5.82161">
        <ele>1496.43</ele>
        <time>2014-09-06T10:14:02Z</time>
      </trkpt>
      <trkpt lat="45.6611" lon="5.82158">
        <ele>1496.43</ele>
        <time>2014-09-06T10:14:36Z</time>
      </trkpt>
      <trkpt lat="45.6611" lon="5.82159">
        <ele>1496.43</ele>
        <time>2014-09-06T10:15:06Z</time>
      </trkpt>
      <trkpt lat="45.66109" lon="5.82156">
        <ele>1496.43</ele>
        <time>2014-09-06T10:15:37Z</time>
      </trkpt>
      <trkpt lat="45.66107" lon="5.82159">
        <ele>1496.43</ele>
        <time>2014-09-06T10:16:10Z</time>
      </trkpt>
      <trkpt lat="45.6611" lon="5.82156">
        <ele>1496.43</ele>
        <time>2014-09-06T10:16:52Z</time>
      </trkpt>
      <trkpt lat="45.66109" lon="5.82159">
        <ele>1495.95</ele>
        <time>2014-09-06T10:17:29Z</time>
      </trkpt>
      <trkpt lat="45.66113" lon="5.82156">
        <ele>1495.95</ele>
        <time>2014-09-06T10:18:05Z</time>
      </trkpt>
      <trkpt lat="45.66107" lon="5.82155">
        <ele>1495.95</ele>
        <time>2014-09-06T10:18:35Z</time>
      </trkpt>
      <trkpt lat="45.66108" lon="5.82158">
        <ele>1494.51</ele>
        <time>2014-09-06T10:19:10Z</time>
      </trkpt>
      <trkpt lat="45.66109" lon="5.82156">
        <ele>1494.51</ele>
        <time>2014-09-06T10:19:41Z</time>
      </trkpt>
      <trkpt lat="45.66108" lon="5.82155">
        <ele>1494.51</ele>
        <time>2014-09-06T10:20:16Z</time>
      </trkpt>
      <trkpt lat="45.66107" lon="5.82156">
        <ele>1494.51</ele>
        <time>2014-09-06T10:20:45Z</time>
      </trkpt>
      <trkpt lat="45.66109" lon="5.82158">
        <ele>1494.51</ele>
        <time>2014-09-06T10:21:17Z</time>
      </trkpt>
      <trkpt lat="45.6611" lon="5.82156">
        <ele>1494.03</ele>
        <time>2014-09-06T10:21:51Z</time>
      </trkpt>
      <trkpt lat="45.66106" lon="5.82161">
        <ele>1494.03</ele>
        <time>2014-09-06T10:22:25Z</time>
      </trkpt>
      <trkpt lat="45.66109" lon="5.8216">
        <ele>1494.03</ele>
        <time>2014-09-06T10:23:01Z</time>
      </trkpt>
      <trkpt lat="45.6611" lon="5.82162">
        <ele>1494.03</ele>
        <time>2014-09-06T10:23:30Z</time>
      </trkpt>
      <trkpt lat="45.66111" lon="5.82159">
        <ele>1494.03</ele>
        <time>2014-09-06T10:24:06Z</time>
      </trkpt>
      <trkpt lat="45.66108" lon="5.82162">
        <ele>1493.55</ele>
        <time>2014-09-06T10:24:41Z</time>
      </trkpt>
      <trkpt lat="45.6611" lon="5.82158">
        <ele>1493.55</ele>
        <time>2014-09-06T10:25:31Z</time>
      </trkpt>
      <trkpt lat="45.66108" lon="5.82158">
        <ele>1493.55</ele>
        <time>2014-09-06T10:26:12Z</time>
      </trkpt>
      <trkpt lat="45.6611" lon="5.82159">
        <ele>1493.55</ele>
        <time>2014-09-06T10:26:51Z</time>
      </trkpt>
      <trkpt lat="45.66111" lon="5.82159">
        <ele>1493.55</ele>
        <time>2014-09-06T10:27:21Z</time>
      </trkpt>
      <trkpt lat="45.6611" lon="5.82158">
        <ele>1493.55</ele>
        <time>2014-09-06T10:27:49Z</time>
      </trkpt>
      <trkpt lat="45.66109" lon="5.82156">
        <ele>1493.55</ele>
        <time>2014-09-06T10:28:15Z</time>
      </trkpt>
      <trkpt lat="45.6611" lon="5.82156">
        <ele>1493.55</ele>
        <time>2014-09-06T10:28:42Z</time>
      </trkpt>
      <trkpt lat="45.6611" lon="5.82157">
        <ele>1493.06</ele>
        <time>2014-09-06T10:29:09Z</time>
      </trkpt>
      <trkpt lat="45.66109" lon="5.82158">
        <ele>1493.06</ele>
        <time>2014-09-06T10:29:35Z</time>
      </trkpt>
      <trkpt lat="45.66109" lon="5.82155">
        <ele>1493.06</ele>
        <time>2014-09-06T10:30:08Z</time>
      </trkpt>
      <trkpt lat="45.66111" lon="5.82156">
        <ele>1493.06</ele>
        <time>2014-09-06T10:30:31Z</time>
      </trkpt>
      <trkpt lat="45.66106" lon="5.82161">
        <ele>1493.06</ele>
        <time>2014-09-06T10:30:54Z</time>
      </trkpt>
      <trkpt lat="45.66107" lon="5.82163">
        <ele>1493.06</ele>
        <time>2014-09-06T10:31:14Z</time>
      </trkpt>
      <trkpt lat="45.6611" lon="5.8216">
        <ele>1493.06</ele>
        <time>2014-09-06T10:31:41Z</time>
      </trkpt>
      <trkpt lat="45.66108" lon="5.82162">
        <ele>1493.06</ele>
        <time>2014-09-06T10:32:12Z</time>
      </trkpt>
      <trkpt lat="45.66107" lon="5.82161">
        <ele>1493.06</ele>
        <time>2014-09-06T10:32:39Z</time>
      </trkpt>
      <trkpt lat="45.66108" lon="5.8216">
        <ele>1493.06</ele>
        <time>2014-09-06T10:33:19Z</time>
      </trkpt>
      <trkpt lat="45.66108" lon="5.8216">
        <ele>1493.06</ele>
        <time>2014-09-06T10:33:50Z</time>
      </trkpt>
      <trkpt lat="45.66108" lon="5.82161">
        <ele>1493.06</ele>
        <time>2014-09-06T10:34:23Z</time>
      </trkpt>
      <trkpt lat="45.66107" lon="5.82164">
        <ele>1493.06</ele>
        <time>2014-09-06T10:34:49Z</time>
      </trkpt>
      <trkpt lat="45.66107" lon="5.82162">
        <ele>1493.06</ele>
        <time>2014-09-06T10:35:21Z</time>
      </trkpt>
      <trkpt lat="45.6611" lon="5.8216">
        <ele>1493.06</ele>
        <time>2014-09-06T10:35:53Z</time>
      </trkpt>
      <trkpt lat="45.66109" lon="5.82163">
        <ele>1493.06</ele>
        <time>2014-09-06T10:36:30Z</time>
      </trkpt>
      <trkpt lat="45.6611" lon="5.82161">
        <ele>1493.06</ele>
        <time>2014-09-06T10:36:55Z</time>
      </trkpt>
      <trkpt lat="45.66109" lon="5.82161">
        <ele>1493.06</ele>
        <time>2014-09-06T10:37:27Z</time>
      </trkpt>
      <trkpt lat="45.6611" lon="5.82162">
        <ele>1493.06</ele>
        <time>2014-09-06T10:37:58Z</time>
      </trkpt>
      <trkpt lat="45.66108" lon="5.8216">
        <ele>1493.06</ele>
        <time>2014-09-06T10:38:36Z</time>
      </trkpt>
      <trkpt lat="45.66108" lon="5.82158">
        <ele>1493.06</ele>
        <time>2014-09-06T10:39:00Z</time>
      </trkpt>
      <trkpt lat="45.66108" lon="5.8216">
        <ele>1493.06</ele>
        <time>2014-09-06T10:39:35Z</time>
      </trkpt>
      <trkpt lat="45.66108" lon="5.8216">
        <ele>1493.06</ele>
        <time>2014-09-06T10:40:10Z</time>
      </trkpt>
      <trkpt lat="45.66108" lon="5.82161">
        <ele>1493.06</ele>
        <time>2014-09-06T10:40:44Z</time>
      </trkpt>
      <trkpt lat="45.66108" lon="5.82162">
        <ele>1493.06</ele>
        <time>2014-09-06T10:41:25Z</time>
      </trkpt>
      <trkpt lat="45.6611" lon="5.82161">
        <ele>1493.06</ele>
        <time>2014-09-06T10:41:59Z</time>
      </trkpt>
      <trkpt lat="45.66109" lon="5.82161">
        <ele>1493.06</ele>
        <time>2014-09-06T10:42:39Z</time>
      </trkpt>
      <trkpt lat="45.6611" lon="5.82155">
        <ele>1493.06</ele>
        <time>2014-09-06T10:43:23Z</time>
      </trkpt>
      <trkpt lat="45.6611" lon="5.82158">
        <ele>1493.06</ele>
        <time>2014-09-06T10:44:05Z</time>
      </trkpt>
      <trkpt lat="45.66111" lon="5.82155">
        <ele>1493.06</ele>
        <time>2014-09-06T10:44:45Z</time>
      </trkpt>
      <trkpt lat="45.66108" lon="5.82158">
        <ele>1493.06</ele>
        <time>2014-09-06T10:45:23Z</time>
      </trkpt>
      <trkpt lat="45.66111" lon="5.82154">
        <ele>1493.06</ele>
        <time>2014-09-06T10:45:58Z</time>
      </trkpt>
      <trkpt lat="45.6611" lon="5.82157">
        <ele>1493.06</ele>
        <time>2014-09-06T10:46:43Z</time>
      </trkpt>
      <trkpt lat="45.66109" lon="5.82158">
        <ele>1493.06</ele>
        <time>2014-09-06T10:47:14Z</time>
      </trkpt>
      <trkpt lat="45.66109" lon="5.82157">
        <ele>1493.06</ele>
        <time>2014-09-06T10:47:49Z</time>
      </trkpt>
      <trkpt lat="45.66109" lon="5.82159">
        <ele>1493.06</ele>
        <time>2014-09-06T10:48:21Z</time>
      </trkpt>
      <trkpt lat="45.66111" lon="5.82154">
        <ele>1493.06</ele>
        <time>2014-09-06T10:48:59Z</time>
      </trkpt>
      <trkpt lat="45.66107" lon="5.8216">
        <ele>1492.58</ele>
        <time>2014-09-06T10:49:39Z</time>
      </trkpt>
      <trkpt lat="45.6611" lon="5.82156">
        <ele>1492.58</ele>
        <time>2014-09-06T10:50:26Z</time>
      </trkpt>
      <trkpt lat="45.6611" lon="5.82156">
        <ele>1492.58</ele>
        <time>2014-09-06T10:50:57Z</time>
      </trkpt>
      <trkpt lat="45.66108" lon="5.82159">
        <ele>1492.58</ele>
        <time>2014-09-06T10:51:37Z</time>
      </trkpt>
      <trkpt lat="45.66109" lon="5.82158">
        <ele>1492.58</ele>
        <time>2014-09-06T10:52:13Z</time>
      </trkpt>
      <trkpt lat="45.6611" lon="5.82157">
        <ele>1492.58</ele>
        <time>2014-09-06T10:52:49Z</time>
      </trkpt>
      <trkpt lat="45.66109" lon="5.82157">
        <ele>1492.58</ele>
        <time>2014-09-06T10:53:22Z</time>
      </trkpt>
      <trkpt lat="45.66108" lon="5.82159">
        <ele>1492.58</ele>
        <time>2014-09-06T10:54:00Z</time>
      </trkpt>
      <trkpt lat="45.66107" lon="5.8216">
        <ele>1492.58</ele>
        <time>2014-09-06T10:54:30Z</time>
      </trkpt>
      <trkpt lat="45.66107" lon="5.8216">
        <ele>1492.58</ele>
        <time>2014-09-06T10:55:06Z</time>
      </trkpt>
      <trkpt lat="45.66107" lon="5.82159">
        <ele>1492.58</ele>
        <time>2014-09-06T10:55:41Z</time>
      </trkpt>
      <trkpt lat="45.6611" lon="5.82157">
        <ele>1492.58</ele>
        <time>2014-09-06T10:56:07Z</time>
      </trkpt>
      <trkpt lat="45.66107" lon="5.82156">
        <ele>1492.58</ele>
        <time>2014-09-06T10:56:41Z</time>
      </trkpt>
      <trkpt lat="45.66106" lon="5.82157">
        <ele>1492.58</ele>
        <time>2014-09-06T10:57:21Z</time>
      </trkpt>
      <trkpt lat="45.66107" lon="5.82159">
        <ele>1492.1</ele>
        <time>2014-09-06T10:57:53Z</time>
      </trkpt>
      <trkpt lat="45.66108" lon="5.82158">
        <ele>1492.1</ele>
        <time>2014-09-06T10:58:30Z</time>
      </trkpt>
      <trkpt lat="45.66106" lon="5.82158">
        <ele>1492.1</ele>
        <time>2014-09-06T10:58:57Z</time>
      </trkpt>
      <trkpt lat="45.66108" lon="5.82157">
        <ele>1492.1</ele>
        <time>2014-09-06T10:59:41Z</time>
      </trkpt>
      <trkpt lat="45.66108" lon="5.8216">
        <ele>1492.1</ele>
        <time>2014-09-06T11:00:14Z</time>
      </trkpt>
      <trkpt lat="45.66106" lon="5.82163">
        <ele>1492.1</ele>
        <time>2014-09-06T11:00:51Z</time>
      </trkpt>
      <trkpt lat="45.66106" lon="5.8216">
        <ele>1492.1</ele>
        <time>2014-09-06T11:01:27Z</time>
      </trkpt>
      <trkpt lat="45.66107" lon="5.82157">
        <ele>1492.1</ele>
        <time>2014-09-06T11:01:55Z</time>
      </trkpt>
      <trkpt lat="45.66106" lon="5.82162">
        <ele>1491.62</ele>
        <time>2014-09-06T11:02:36Z</time>
      </trkpt>
      <trkpt lat="45.66104" lon="5.82162">
        <ele>1491.62</ele>
        <time>2014-09-06T11:03:11Z</time>
      </trkpt>
      <trkpt lat="45.66106" lon="5.8216">
        <ele>1491.62</ele>
        <time>2014-09-06T11:03:39Z</time>
      </trkpt>
      <trkpt lat="45.66106" lon="5.8216">
        <ele>1491.62</ele>
        <time>2014-09-06T11:04:07Z</time>
      </trkpt>
      <trkpt lat="45.66106" lon="5.82161">
        <ele>1491.62</ele>
        <time>2014-09-06T11:04:39Z</time>
      </trkpt>
      <trkpt lat="45.66104" lon="5.82162">
        <ele>1491.62</ele>
        <time>2014-09-06T11:05:31Z</time>
      </trkpt>
      <trkpt lat="45.66105" lon="5.8216">
        <ele>1491.62</ele>
        <time>2014-09-06T11:06:09Z</time>
      </trkpt>
      <trkpt lat="45.66108" lon="5.82157">
        <ele>1491.62</ele>
        <time>2014-09-06T11:06:39Z</time>
      </trkpt>
      <trkpt lat="45.66109" lon="5.82157">
        <ele>1491.62</ele>
        <time>2014-09-06T11:07:11Z</time>
      </trkpt>
      <trkpt lat="45.66107" lon="5.82159">
        <ele>1491.62</ele>
        <time>2014-09-06T11:07:44Z</time>
      </trkpt>
      <trkpt lat="45.66108" lon="5.82157">
        <ele>1492.58</ele>
        <time>2014-09-06T11:08:29Z</time>
      </trkpt>
      <trkpt lat="45.66108" lon="5.82161">
        <ele>1492.58</ele>
        <time>2014-09-06T11:08:43Z</time>
      </trkpt>
      <trkpt lat="45.66108" lon="5.82161">
        <ele>1492.58</ele>
        <time>2014-09-06T11:08:58Z</time>
      </trkpt>
      <trkpt lat="45.66109" lon="5.82161">
        <ele>1492.58</ele>
        <time>2014-09-06T11:09:25Z</time>
      </trkpt>
      <trkpt lat="45.66105" lon="5.82156">
        <ele>1492.1</ele>
        <time>2014-09-06T11:09:52Z</time>
      </trkpt>
      <trkpt lat="45.66107" lon="5.82157">
        <ele>1492.1</ele>
        <time>2014-09-06T11:10:09Z</time>
      </trkpt>
      <trkpt lat="45.66108" lon="5.82161">
        <ele>1492.1</ele>
        <time>2014-09-06T11:10:20Z</time>
      </trkpt>
      <trkpt lat="45.66108" lon="5.82164">
        <ele>1492.1</ele>
        <time>2014-09-06T11:10:21Z</time>
      </trkpt>
      <trkpt lat="45.6611" lon="5.82166">
        <ele>1492.1</ele>
        <time>2014-09-06T11:10:22Z</time>
      </trkpt>
      <trkpt lat="45.66113" lon="5.82167">
        <ele>1492.1</ele>
        <time>2014-09-06T11:10:23Z</time>
      </trkpt>
      <trkpt lat="45.66118" lon="5.82169">
        <ele>1493.55</ele>
        <time>2014-09-06T11:10:24Z</time>
      </trkpt>
      <trkpt lat="45.66123" lon="5.82171">
        <ele>1493.55</ele>
        <time>2014-09-06T11:10:25Z</time>
      </trkpt>
      <trkpt lat="45.66128" lon="5.82174">
        <ele>1493.55</ele>
        <time>2014-09-06T11:10:26Z</time>
      </trkpt>
      <trkpt lat="45.66134" lon="5.82176">
        <ele>1493.55</ele>
        <time>2014-09-06T11:10:27Z</time>
      </trkpt>
      <trkpt lat="45.66163" lon="5.82185">
        <ele>1492.1</ele>
        <time>2014-09-06T11:10:32Z</time>
      </trkpt>
      <trkpt lat="45.66215" lon="5.82205">
        <ele>1488.26</ele>
        <time>2014-09-06T11:10:39Z</time>
      </trkpt>
      <trkpt lat="45.66242" lon="5.82222">
        <ele>1484.89</ele>
        <time>2014-09-06T11:10:43Z</time>
      </trkpt>
      <trkpt lat="45.66268" lon="5.82238">
        <ele>1481.53</ele>
        <time>2014-09-06T11:10:47Z</time>
      </trkpt>
      <trkpt lat="45.66294" lon="5.8225">
        <ele>1478.16</ele>
        <time>2014-09-06T11:10:51Z</time>
      </trkpt>
      <trkpt lat="45.66301" lon="5.82253">
        <ele>1478.16</ele>
        <time>2014-09-06T11:10:52Z</time>
      </trkpt>
      <trkpt lat="45.66316" lon="5.82262">
        <ele>1474.8</ele>
        <time>2014-09-06T11:10:55Z</time>
      </trkpt>
      <trkpt lat="45.66332" lon="5.82277">
        <ele>1473.36</ele>
        <time>2014-09-06T11:10:59Z</time>
      </trkpt>
      <trkpt lat="45.6636" lon="5.82304">
        <ele>1469.51</ele>
        <time>2014-09-06T11:11:05Z</time>
      </trkpt>
      <trkpt lat="45.66379" lon="5.82321">
        <ele>1466.15</ele>
        <time>2014-09-06T11:11:10Z</time>
      </trkpt>
      <trkpt lat="45.66387" lon="5.82333">
        <ele>1465.67</ele>
        <time>2014-09-06T11:11:14Z</time>
      </trkpt>
      <trkpt lat="45.66389" lon="5.82339">
        <ele>1465.19</ele>
        <time>2014-09-06T11:11:15Z</time>
      </trkpt>
      <trkpt lat="45.66404" lon="5.82372">
        <ele>1461.82</ele>
        <time>2014-09-06T11:11:21Z</time>
      </trkpt>
      <trkpt lat="45.66407" lon="5.82379">
        <ele>1460.38</ele>
        <time>2014-09-06T11:11:25Z</time>
      </trkpt>
      <trkpt lat="45.66407" lon="5.82381">
        <ele>1460.38</ele>
        <time>2014-09-06T11:11:26Z</time>
      </trkpt>
      <trkpt lat="45.66404" lon="5.82394">
        <ele>1457.02</ele>
        <time>2014-09-06T11:11:31Z</time>
      </trkpt>
      <trkpt lat="45.66405" lon="5.82397">
        <ele>1456.53</ele>
        <time>2014-09-06T11:11:32Z</time>
      </trkpt>
      <trkpt lat="45.66405" lon="5.824">
        <ele>1455.57</ele>
        <time>2014-09-06T11:11:34Z</time>
      </trkpt>
      <trkpt lat="45.66404" lon="5.82405">
        <ele>1454.13</ele>
        <time>2014-09-06T11:11:39Z</time>
      </trkpt>
      <trkpt lat="45.66406" lon="5.82408">
        <ele>1453.17</ele>
        <time>2014-09-06T11:11:40Z</time>
      </trkpt>
      <trkpt lat="45.66408" lon="5.82412">
        <ele>1452.21</ele>
        <time>2014-09-06T11:11:41Z</time>
      </trkpt>
      <trkpt lat="45.66417" lon="5.82426">
        <ele>1447.88</ele>
        <time>2014-09-06T11:11:44Z</time>
      </trkpt>
      <trkpt lat="45.66419" lon="5.82433">
        <ele>1446.44</ele>
        <time>2014-09-06T11:11:46Z</time>
      </trkpt>
      <trkpt lat="45.66418" lon="5.82435">
        <ele>1445.96</ele>
        <time>2014-09-06T11:11:47Z</time>
      </trkpt>
      <trkpt lat="45.66415" lon="5.82436">
        <ele>1445.96</ele>
        <time>2014-09-06T11:11:48Z</time>
      </trkpt>
      <trkpt lat="45.66413" lon="5.82436">
        <ele>1445</ele>
        <time>2014-09-06T11:11:49Z</time>
      </trkpt>
      <trkpt lat="45.66411" lon="5.82438">
        <ele>1444.52</ele>
        <time>2014-09-06T11:11:50Z</time>
      </trkpt>
      <trkpt lat="45.6641" lon="5.82441">
        <ele>1443.56</ele>
        <time>2014-09-06T11:11:51Z</time>
      </trkpt>
      <trkpt lat="45.66411" lon="5.82444">
        <ele>1443.56</ele>
        <time>2014-09-06T11:11:52Z</time>
      </trkpt>
      <trkpt lat="45.66413" lon="5.82446">
        <ele>1443.08</ele>
        <time>2014-09-06T11:11:53Z</time>
      </trkpt>
      <trkpt lat="45.66415" lon="5.82449">
        <ele>1442.6</ele>
        <time>2014-09-06T11:11:54Z</time>
      </trkpt>
      <trkpt lat="45.6642" lon="5.82456">
        <ele>1441.63</ele>
        <time>2014-09-06T11:11:57Z</time>
      </trkpt>
      <trkpt lat="45.66419" lon="5.8246">
        <ele>1440.19</ele>
        <time>2014-09-06T11:11:59Z</time>
      </trkpt>
      <trkpt lat="45.66417" lon="5.82462">
        <ele>1439.71</ele>
        <time>2014-09-06T11:12:00Z</time>
      </trkpt>
      <trkpt lat="45.66413" lon="5.82464">
        <ele>1439.71</ele>
        <time>2014-09-06T11:12:01Z</time>
      </trkpt>
      <trkpt lat="45.66409" lon="5.82466">
        <ele>1438.75</ele>
        <time>2014-09-06T11:12:02Z</time>
      </trkpt>
      <trkpt lat="45.66405" lon="5.82467">
        <ele>1437.79</ele>
        <time>2014-09-06T11:12:03Z</time>
      </trkpt>
      <trkpt lat="45.66402" lon="5.82469">
        <ele>1436.83</ele>
        <time>2014-09-06T11:12:04Z</time>
      </trkpt>
      <trkpt lat="45.66401" lon="5.82473">
        <ele>1435.87</ele>
        <time>2014-09-06T11:12:06Z</time>
      </trkpt>
      <trkpt lat="45.66402" lon="5.82476">
        <ele>1435.39</ele>
        <time>2014-09-06T11:12:07Z</time>
      </trkpt>
      <trkpt lat="45.66404" lon="5.8248">
        <ele>1434.42</ele>
        <time>2014-09-06T11:12:08Z</time>
      </trkpt>
      <trkpt lat="45.66405" lon="5.82482">
        <ele>1433.46</ele>
        <time>2014-09-06T11:12:09Z</time>
      </trkpt>
      <trkpt lat="45.66406" lon="5.82485">
        <ele>1433.46</ele>
        <time>2014-09-06T11:12:10Z</time>
      </trkpt>
      <trkpt lat="45.66406" lon="5.82487">
        <ele>1433.46</ele>
        <time>2014-09-06T11:12:11Z</time>
      </trkpt>
      <trkpt lat="45.66407" lon="5.82489">
        <ele>1432.98</ele>
        <time>2014-09-06T11:12:12Z</time>
      </trkpt>
      <trkpt lat="45.66405" lon="5.82492">
        <ele>1431.54</ele>
        <time>2014-09-06T11:12:15Z</time>
      </trkpt>
      <trkpt lat="45.66403" lon="5.82491">
        <ele>1431.54</ele>
        <time>2014-09-06T11:12:16Z</time>
      </trkpt>
      <trkpt lat="45.66401" lon="5.82491">
        <ele>1431.06</ele>
        <time>2014-09-06T11:12:17Z</time>
      </trkpt>
      <trkpt lat="45.664" lon="5.82492">
        <ele>1430.58</ele>
        <time>2014-09-06T11:12:18Z</time>
      </trkpt>
      <trkpt lat="45.66399" lon="5.82493">
        <ele>1429.62</ele>
        <time>2014-09-06T11:12:19Z</time>
      </trkpt>
      <trkpt lat="45.66399" lon="5.82495">
        <ele>1429.62</ele>
        <time>2014-09-06T11:12:20Z</time>
      </trkpt>
      <trkpt lat="45.664" lon="5.82498">
        <ele>1429.14</ele>
        <time>2014-09-06T11:12:21Z</time>
      </trkpt>
      <trkpt lat="45.66401" lon="5.82501">
        <ele>1428.66</ele>
        <time>2014-09-06T11:12:22Z</time>
      </trkpt>
      <trkpt lat="45.66402" lon="5.82504">
        <ele>1427.7</ele>
        <time>2014-09-06T11:12:23Z</time>
      </trkpt>
      <trkpt lat="45.66402" lon="5.82506">
        <ele>1427.7</ele>
        <time>2014-09-06T11:12:24Z</time>
      </trkpt>
      <trkpt lat="45.66401" lon="5.82507">
        <ele>1426.73</ele>
        <time>2014-09-06T11:12:25Z</time>
      </trkpt>
      <trkpt lat="45.664" lon="5.82507">
        <ele>1426.25</ele>
        <time>2014-09-06T11:12:26Z</time>
      </trkpt>
      <trkpt lat="45.6639" lon="5.82511">
        <ele>1423.37</ele>
        <time>2014-09-06T11:12:35Z</time>
      </trkpt>
      <trkpt lat="45.66384" lon="5.82516">
        <ele>1420.97</ele>
        <time>2014-09-06T11:12:41Z</time>
      </trkpt>
      <trkpt lat="45.6637" lon="5.8251">
        <ele>1417.6</ele>
        <time>2014-09-06T11:12:44Z</time>
      </trkpt>
      <trkpt lat="45.66366" lon="5.8251">
        <ele>1416.64</ele>
        <time>2014-09-06T11:12:46Z</time>
      </trkpt>
      <trkpt lat="45.66363" lon="5.82513">
        <ele>1415.68</ele>
        <time>2014-09-06T11:12:55Z</time>
      </trkpt>
      <trkpt lat="45.66364" lon="5.82514">
        <ele>1415.68</ele>
        <time>2014-09-06T11:12:56Z</time>
      </trkpt>
      <trkpt lat="45.66365" lon="5.82515">
        <ele>1415.2</ele>
        <time>2014-09-06T11:12:57Z</time>
      </trkpt>
      <trkpt lat="45.66366" lon="5.82517">
        <ele>1414.72</ele>
        <time>2014-09-06T11:12:58Z</time>
      </trkpt>
      <trkpt lat="45.66367" lon="5.8252">
        <ele>1414.24</ele>
        <time>2014-09-06T11:12:59Z</time>
      </trkpt>
      <trkpt lat="45.66368" lon="5.82522">
        <ele>1413.76</ele>
        <time>2014-09-06T11:13:00Z</time>
      </trkpt>
      <trkpt lat="45.66368" lon="5.82524">
        <ele>1413.28</ele>
        <time>2014-09-06T11:13:01Z</time>
      </trkpt>
      <trkpt lat="45.66367" lon="5.82524">
        <ele>1413.28</ele>
        <time>2014-09-06T11:13:02Z</time>
      </trkpt>
      <trkpt lat="45.66366" lon="5.82523">
        <ele>1412.79</ele>
        <time>2014-09-06T11:13:03Z</time>
      </trkpt>
      <trkpt lat="45.66364" lon="5.82523">
        <ele>1412.31</ele>
        <time>2014-09-06T11:13:08Z</time>
      </trkpt>
      <trkpt lat="45.66363" lon="5.82522">
        <ele>1412.31</ele>
        <time>2014-09-06T11:13:09Z</time>
      </trkpt>
      <trkpt lat="45.66349" lon="5.82516">
        <ele>1410.87</ele>
        <time>2014-09-06T11:13:17Z</time>
      </trkpt>
      <trkpt lat="45.66348" lon="5.82516">
        <ele>1410.87</ele>
        <time>2014-09-06T11:13:18Z</time>
      </trkpt>
      <trkpt lat="45.66347" lon="5.82517">
        <ele>1410.39</ele>
        <time>2014-09-06T11:13:19Z</time>
      </trkpt>
      <trkpt lat="45.66347" lon="5.82517">
        <ele>1409.91</ele>
        <time>2014-09-06T11:13:21Z</time>
      </trkpt>
      <trkpt lat="45.66348" lon="5.82519">
        <ele>1409.91</ele>
        <time>2014-09-06T11:13:22Z</time>
      </trkpt>
      <trkpt lat="45.66358" lon="5.82535">
        <ele>1406.55</ele>
        <time>2014-09-06T11:13:27Z</time>
      </trkpt>
      <trkpt lat="45.6636" lon="5.82539">
        <ele>1404.62</ele>
        <time>2014-09-06T11:13:33Z</time>
      </trkpt>
      <trkpt lat="45.66359" lon="5.82538">
        <ele>1404.14</ele>
        <time>2014-09-06T11:13:34Z</time>
      </trkpt>
      <trkpt lat="45.66356" lon="5.82541">
        <ele>1402.7</ele>
        <time>2014-09-06T11:13:39Z</time>
      </trkpt>
      <trkpt lat="45.66362" lon="5.82551">
        <ele>1401.74</ele>
        <time>2014-09-06T11:13:42Z</time>
      </trkpt>
      <trkpt lat="45.66368" lon="5.82562">
        <ele>1399.34</ele>
        <time>2014-09-06T11:13:44Z</time>
      </trkpt>
      <trkpt lat="45.66371" lon="5.82566">
        <ele>1397.89</ele>
        <time>2014-09-06T11:13:45Z</time>
      </trkpt>
      <trkpt lat="45.66373" lon="5.8257">
        <ele>1397.41</ele>
        <time>2014-09-06T11:13:46Z</time>
      </trkpt>
      <trkpt lat="45.66382" lon="5.82582">
        <ele>1394.05</ele>
        <time>2014-09-06T11:13:50Z</time>
      </trkpt>
      <trkpt lat="45.66384" lon="5.82584">
        <ele>1393.09</ele>
        <time>2014-09-06T11:13:52Z</time>
      </trkpt>
      <trkpt lat="45.66382" lon="5.82584">
        <ele>1391.65</ele>
        <time>2014-09-06T11:13:56Z</time>
      </trkpt>
      <trkpt lat="45.66379" lon="5.82582">
        <ele>1391.65</ele>
        <time>2014-09-06T11:13:57Z</time>
      </trkpt>
      <trkpt lat="45.66375" lon="5.8258">
        <ele>1391.65</ele>
        <time>2014-09-06T11:13:58Z</time>
      </trkpt>
      <trkpt lat="45.66363" lon="5.82574">
        <ele>1388.76</ele>
        <time>2014-09-06T11:14:02Z</time>
      </trkpt>
      <trkpt lat="45.66362" lon="5.82578">
        <ele>1388.28</ele>
        <time>2014-09-06T11:14:07Z</time>
      </trkpt>
      <trkpt lat="45.66364" lon="5.82579">
        <ele>1388.28</ele>
        <time>2014-09-06T11:14:08Z</time>
      </trkpt>
      <trkpt lat="45.66369" lon="5.82587">
        <ele>1386.36</ele>
        <time>2014-09-06T11:14:10Z</time>
      </trkpt>
      <trkpt lat="45.66372" lon="5.82591">
        <ele>1385.4</ele>
        <time>2014-09-06T11:14:11Z</time>
      </trkpt>
      <trkpt lat="45.66374" lon="5.82594">
        <ele>1384.92</ele>
        <time>2014-09-06T11:14:12Z</time>
      </trkpt>
      <trkpt lat="45.66373" lon="5.82599">
        <ele>1382.99</ele>
        <time>2014-09-06T11:14:18Z</time>
      </trkpt>
      <trkpt lat="45.66371" lon="5.82599">
        <ele>1382.99</ele>
        <time>2014-09-06T11:14:19Z</time>
      </trkpt>
      <trkpt lat="45.66369" lon="5.82598">
        <ele>1382.03</ele>
        <time>2014-09-06T11:14:20Z</time>
      </trkpt>
      <trkpt lat="45.66366" lon="5.826">
        <ele>1380.11</ele>
        <time>2014-09-06T11:14:23Z</time>
      </trkpt>
      <trkpt lat="45.66366" lon="5.82602">
        <ele>1379.63</ele>
        <time>2014-09-06T11:14:24Z</time>
      </trkpt>
      <trkpt lat="45.66364" lon="5.82604">
        <ele>1378.67</ele>
        <time>2014-09-06T11:14:27Z</time>
      </trkpt>
      <trkpt lat="45.66362" lon="5.82604">
        <ele>1378.19</ele>
        <time>2014-09-06T11:14:28Z</time>
      </trkpt>
      <trkpt lat="45.66357" lon="5.82603">
        <ele>1376.26</ele>
        <time>2014-09-06T11:14:31Z</time>
      </trkpt>
      <trkpt lat="45.66358" lon="5.82604">
        <ele>1376.75</ele>
        <time>2014-09-06T11:14:32Z</time>
      </trkpt>
      <trkpt lat="45.66356" lon="5.82609">
        <ele>1375.78</ele>
        <time>2014-09-06T11:14:46Z</time>
      </trkpt>
      <trkpt lat="45.66359" lon="5.82623">
        <ele>1374.82</ele>
        <time>2014-09-06T11:14:52Z</time>
      </trkpt>
      <trkpt lat="45.66359" lon="5.82627">
        <ele>1374.34</ele>
        <time>2014-09-06T11:14:54Z</time>
      </trkpt>
      <trkpt lat="45.66358" lon="5.82629">
        <ele>1374.34</ele>
        <time>2014-09-06T11:14:55Z</time>
      </trkpt>
      <trkpt lat="45.66355" lon="5.8263">
        <ele>1373.38</ele>
        <time>2014-09-06T11:14:56Z</time>
      </trkpt>
      <trkpt lat="45.66341" lon="5.82627">
        <ele>1371.94</ele>
        <time>2014-09-06T11:14:59Z</time>
      </trkpt>
      <trkpt lat="45.66336" lon="5.82627">
        <ele>1370.5</ele>
        <time>2014-09-06T11:15:00Z</time>
      </trkpt>
      <trkpt lat="45.66331" lon="5.82628">
        <ele>1370.02</ele>
        <time>2014-09-06T11:15:02Z</time>
      </trkpt>
      <trkpt lat="45.66321" lon="5.82618">
        <ele>1366.65</ele>
        <time>2014-09-06T11:15:07Z</time>
      </trkpt>
      <trkpt lat="45.66319" lon="5.82617">
        <ele>1366.17</ele>
        <time>2014-09-06T11:15:08Z</time>
      </trkpt>
      <trkpt lat="45.66308" lon="5.82629">
        <ele>1362.81</ele>
        <time>2014-09-06T11:15:13Z</time>
      </trkpt>
      <trkpt lat="45.66297" lon="5.82638">
        <ele>1358.96</ele>
        <time>2014-09-06T11:15:16Z</time>
      </trkpt>
      <trkpt lat="45.66296" lon="5.82647">
        <ele>1356.56</ele>
        <time>2014-09-06T11:15:19Z</time>
      </trkpt>
      <trkpt lat="45.66298" lon="5.82647">
        <ele>1356.08</ele>
        <time>2014-09-06T11:15:30Z</time>
      </trkpt>
      <trkpt lat="45.66295" lon="5.82643">
        <ele>1356.56</ele>
        <time>2014-09-06T11:16:03Z</time>
      </trkpt>
      <trkpt lat="45.66294" lon="5.82646">
        <ele>1356.56</ele>
        <time>2014-09-06T11:16:18Z</time>
      </trkpt>
      <trkpt lat="45.66289" lon="5.82659">
        <ele>1353.67</ele>
        <time>2014-09-06T11:16:25Z</time>
      </trkpt>
      <trkpt lat="45.66289" lon="5.82676">
        <ele>1350.31</ele>
        <time>2014-09-06T11:16:30Z</time>
      </trkpt>
      <trkpt lat="45.6629" lon="5.82694">
        <ele>1346.94</ele>
        <time>2014-09-06T11:16:34Z</time>
      </trkpt>
      <trkpt lat="45.66292" lon="5.82706">
        <ele>1344.06</ele>
        <time>2014-09-06T11:16:37Z</time>
      </trkpt>
      <trkpt lat="45.66294" lon="5.82718">
        <ele>1341.66</ele>
        <time>2014-09-06T11:16:43Z</time>
      </trkpt>
      <trkpt lat="45.66293" lon="5.82719">
        <ele>1341.18</ele>
        <time>2014-09-06T11:16:44Z</time>
      </trkpt>
      <trkpt lat="45.66291" lon="5.82718">
        <ele>1341.18</ele>
        <time>2014-09-06T11:16:45Z</time>
      </trkpt>
      <trkpt lat="45.66284" lon="5.82716">
        <ele>1338.77</ele>
        <time>2014-09-06T11:16:49Z</time>
      </trkpt>
      <trkpt lat="45.66284" lon="5.82718">
        <ele>1338.77</ele>
        <time>2014-09-06T11:16:50Z</time>
      </trkpt>
      <trkpt lat="45.66285" lon="5.8272">
        <ele>1338.29</ele>
        <time>2014-09-06T11:16:51Z</time>
      </trkpt>
      <trkpt lat="45.66299" lon="5.82748">
        <ele>1335.89</ele>
        <time>2014-09-06T11:16:57Z</time>
      </trkpt>
      <trkpt lat="45.66302" lon="5.82752">
        <ele>1334.93</ele>
        <time>2014-09-06T11:16:58Z</time>
      </trkpt>
      <trkpt lat="45.66309" lon="5.82762">
        <ele>1333.49</ele>
        <time>2014-09-06T11:17:00Z</time>
      </trkpt>
      <trkpt lat="45.66312" lon="5.82766">
        <ele>1332.04</ele>
        <time>2014-09-06T11:17:01Z</time>
      </trkpt>
      <trkpt lat="45.66321" lon="5.82779">
        <ele>1328.68</ele>
        <time>2014-09-06T11:17:05Z</time>
      </trkpt>
      <trkpt lat="45.66329" lon="5.82789">
        <ele>1326.76</ele>
        <time>2014-09-06T11:17:09Z</time>
      </trkpt>
      <trkpt lat="45.6633" lon="5.82795">
        <ele>1324.83</ele>
        <time>2014-09-06T11:17:13Z</time>
      </trkpt>
      <trkpt lat="45.66329" lon="5.82799">
        <ele>1323.87</ele>
        <time>2014-09-06T11:17:19Z</time>
      </trkpt>
      <trkpt lat="45.66328" lon="5.82802">
        <ele>1322.91</ele>
        <time>2014-09-06T11:17:23Z</time>
      </trkpt>
      <trkpt lat="45.66327" lon="5.82803">
        <ele>1322.43</ele>
        <time>2014-09-06T11:17:24Z</time>
      </trkpt>
      <trkpt lat="45.66308" lon="5.82807">
        <ele>1320.51</ele>
        <time>2014-09-06T11:17:33Z</time>
      </trkpt>
      <trkpt lat="45.66294" lon="5.82814">
        <ele>1316.66</ele>
        <time>2014-09-06T11:17:40Z</time>
      </trkpt>
      <trkpt lat="45.6629" lon="5.82815">
        <ele>1316.18</ele>
        <time>2014-09-06T11:17:42Z</time>
      </trkpt>
      <trkpt lat="45.66285" lon="5.82819">
        <ele>1313.78</ele>
        <time>2014-09-06T11:17:45Z</time>
      </trkpt>
      <trkpt lat="45.66284" lon="5.82822">
        <ele>1313.3</ele>
        <time>2014-09-06T11:17:47Z</time>
      </trkpt>
      <trkpt lat="45.66275" lon="5.82832">
        <ele>1309.45</ele>
        <time>2014-09-06T11:17:51Z</time>
      </trkpt>
      <trkpt lat="45.66273" lon="5.82837">
        <ele>1307.05</ele>
        <time>2014-09-06T11:17:53Z</time>
      </trkpt>
      <trkpt lat="45.66269" lon="5.82845">
        <ele>1304.65</ele>
        <time>2014-09-06T11:17:57Z</time>
      </trkpt>
      <trkpt lat="45.66264" lon="5.82847">
        <ele>1302.72</ele>
        <time>2014-09-06T11:18:00Z</time>
      </trkpt>
      <trkpt lat="45.66253" lon="5.8284">
        <ele>1298.4</ele>
        <time>2014-09-06T11:18:05Z</time>
      </trkpt>
      <trkpt lat="45.66252" lon="5.8284">
        <ele>1297.92</ele>
        <time>2014-09-06T11:18:14Z</time>
      </trkpt>
      <trkpt lat="45.66256" lon="5.82844">
        <ele>1297.92</ele>
        <time>2014-09-06T11:18:50Z</time>
      </trkpt>
      <trkpt lat="45.66258" lon="5.82843">
        <ele>1297.92</ele>
        <time>2014-09-06T11:19:19Z</time>
      </trkpt>
      <trkpt lat="45.66256" lon="5.82842">
        <ele>1297.44</ele>
        <time>2014-09-06T11:19:54Z</time>
      </trkpt>
      <trkpt lat="45.66255" lon="5.82842">
        <ele>1297.44</ele>
        <time>2014-09-06T11:19:55Z</time>
      </trkpt>
      <trkpt lat="45.66254" lon="5.82854">
        <ele>1296.48</ele>
        <time>2014-09-06T11:20:00Z</time>
      </trkpt>
      <trkpt lat="45.66251" lon="5.82867">
        <ele>1292.15</ele>
        <time>2014-09-06T11:20:12Z</time>
      </trkpt>
      <trkpt lat="45.6625" lon="5.82866">
        <ele>1292.15</ele>
        <time>2014-09-06T11:20:13Z</time>
      </trkpt>
      <trkpt lat="45.6625" lon="5.82867">
        <ele>1292.15</ele>
        <time>2014-09-06T11:20:14Z</time>
      </trkpt>
      <trkpt lat="45.66249" lon="5.82869">
        <ele>1291.67</ele>
        <time>2014-09-06T11:20:16Z</time>
      </trkpt>
      <trkpt lat="45.66245" lon="5.82883">
        <ele>1287.82</ele>
        <time>2014-09-06T11:20:23Z</time>
      </trkpt>
      <trkpt lat="45.66241" lon="5.82886">
        <ele>1284.94</ele>
        <time>2014-09-06T11:20:31Z</time>
      </trkpt>
      <trkpt lat="45.66241" lon="5.8289">
        <ele>1283.98</ele>
        <time>2014-09-06T11:20:35Z</time>
      </trkpt>
      <trkpt lat="45.66244" lon="5.82907">
        <ele>1281.09</ele>
        <time>2014-09-06T11:20:41Z</time>
      </trkpt>
      <trkpt lat="45.66244" lon="5.8291">
        <ele>1280.13</ele>
        <time>2014-09-06T11:20:43Z</time>
      </trkpt>
      <trkpt lat="45.66234" lon="5.82906">
        <ele>1277.25</ele>
        <time>2014-09-06T11:20:52Z</time>
      </trkpt>
      <trkpt lat="45.66234" lon="5.82907">
        <ele>1277.25</ele>
        <time>2014-09-06T11:20:54Z</time>
      </trkpt>
      <trkpt lat="45.66241" lon="5.82926">
        <ele>1275.33</ele>
        <time>2014-09-06T11:21:01Z</time>
      </trkpt>
      <trkpt lat="45.6624" lon="5.82931">
        <ele>1272.92</ele>
        <time>2014-09-06T11:21:06Z</time>
      </trkpt>
      <trkpt lat="45.6623" lon="5.82929">
        <ele>1270.04</ele>
        <time>2014-09-06T11:21:16Z</time>
      </trkpt>
      <trkpt lat="45.66229" lon="5.82931">
        <ele>1268.12</ele>
        <time>2014-09-06T11:21:25Z</time>
      </trkpt>
      <trkpt lat="45.66224" lon="5.82927">
        <ele>1266.19</ele>
        <time>2014-09-06T11:21:33Z</time>
      </trkpt>
      <trkpt lat="45.6623" lon="5.82949">
        <ele>1262.35</ele>
        <time>2014-09-06T11:21:40Z</time>
      </trkpt>
      <trkpt lat="45.6623" lon="5.82957">
        <ele>1260.43</ele>
        <time>2014-09-06T11:21:45Z</time>
      </trkpt>
      <trkpt lat="45.66216" lon="5.82946">
        <ele>1256.1</ele>
        <time>2014-09-06T11:21:51Z</time>
      </trkpt>
      <trkpt lat="45.66213" lon="5.82945">
        <ele>1255.14</ele>
        <time>2014-09-06T11:21:53Z</time>
      </trkpt>
      <trkpt lat="45.66212" lon="5.82945">
        <ele>1254.18</ele>
        <time>2014-09-06T11:21:56Z</time>
      </trkpt>
      <trkpt lat="45.66221" lon="5.82962">
        <ele>1250.81</ele>
        <time>2014-09-06T11:22:02Z</time>
      </trkpt>
      <trkpt lat="45.66223" lon="5.82972">
        <ele>1248.89</ele>
        <time>2014-09-06T11:22:08Z</time>
      </trkpt>
      <trkpt lat="45.66207" lon="5.8297">
        <ele>1245.04</ele>
        <time>2014-09-06T11:22:14Z</time>
      </trkpt>
      <trkpt lat="45.66201" lon="5.82969">
        <ele>1242.64</ele>
        <time>2014-09-06T11:22:18Z</time>
      </trkpt>
      <trkpt lat="45.66204" lon="5.82978">
        <ele>1242.16</ele>
        <time>2014-09-06T11:22:22Z</time>
      </trkpt>
      <trkpt lat="45.66213" lon="5.82996">
        <ele>1236.87</ele>
        <time>2014-09-06T11:22:27Z</time>
      </trkpt>
      <trkpt lat="45.66217" lon="5.83007">
        <ele>1234.47</ele>
        <time>2014-09-06T11:22:36Z</time>
      </trkpt>
      <trkpt lat="45.66215" lon="5.83012">
        <ele>1233.99</ele>
        <time>2014-09-06T11:22:47Z</time>
      </trkpt>
      <trkpt lat="45.66209" lon="5.83012">
        <ele>1231.11</ele>
        <time>2014-09-06T11:22:58Z</time>
      </trkpt>
      <trkpt lat="45.66206" lon="5.83017">
        <ele>1227.74</ele>
        <time>2014-09-06T11:23:10Z</time>
      </trkpt>
      <trkpt lat="45.66201" lon="5.83024">
        <ele>1224.86</ele>
        <time>2014-09-06T11:23:23Z</time>
      </trkpt>
      <trkpt lat="45.66188" lon="5.83022">
        <ele>1221.49</ele>
        <time>2014-09-06T11:23:28Z</time>
      </trkpt>
      <trkpt lat="45.66184" lon="5.83021">
        <ele>1221.01</ele>
        <time>2014-09-06T11:23:30Z</time>
      </trkpt>
      <trkpt lat="45.66178" lon="5.83021">
        <ele>1218.61</ele>
        <time>2014-09-06T11:23:36Z</time>
      </trkpt>
      <trkpt lat="45.6618" lon="5.83027">
        <ele>1217.17</ele>
        <time>2014-09-06T11:23:40Z</time>
      </trkpt>
      <trkpt lat="45.66187" lon="5.83043">
        <ele>1214.28</ele>
        <time>2014-09-06T11:23:47Z</time>
      </trkpt>
      <trkpt lat="45.66188" lon="5.83047">
        <ele>1212.84</ele>
        <time>2014-09-06T11:23:50Z</time>
      </trkpt>
      <trkpt lat="45.66171" lon="5.83043">
        <ele>1209.48</ele>
        <time>2014-09-06T11:23:57Z</time>
      </trkpt>
      <trkpt lat="45.66167" lon="5.83042">
        <ele>1208.51</ele>
        <time>2014-09-06T11:23:59Z</time>
      </trkpt>
      <trkpt lat="45.66161" lon="5.83041">
        <ele>1207.07</ele>
        <time>2014-09-06T11:24:02Z</time>
      </trkpt>
      <trkpt lat="45.66158" lon="5.8304">
        <ele>1205.15</ele>
        <time>2014-09-06T11:24:06Z</time>
      </trkpt>
      <trkpt lat="45.66161" lon="5.83049">
        <ele>1203.71</ele>
        <time>2014-09-06T11:24:10Z</time>
      </trkpt>
      <trkpt lat="45.6617" lon="5.83067">
        <ele>1200.82</ele>
        <time>2014-09-06T11:24:15Z</time>
      </trkpt>
      <trkpt lat="45.66173" lon="5.83072">
        <ele>1198.9</ele>
        <time>2014-09-06T11:24:18Z</time>
      </trkpt>
      <trkpt lat="45.66174" lon="5.83073">
        <ele>1198.42</ele>
        <time>2014-09-06T11:24:19Z</time>
      </trkpt>
      <trkpt lat="45.66161" lon="5.83072">
        <ele>1195.06</ele>
        <time>2014-09-06T11:24:25Z</time>
      </trkpt>
      <trkpt lat="45.66158" lon="5.83073">
        <ele>1194.09</ele>
        <time>2014-09-06T11:24:27Z</time>
      </trkpt>
      <trkpt lat="45.66158" lon="5.83075">
        <ele>1193.13</ele>
        <time>2014-09-06T11:24:29Z</time>
      </trkpt>
      <trkpt lat="45.6616" lon="5.83082">
        <ele>1191.69</ele>
        <time>2014-09-06T11:24:33Z</time>
      </trkpt>
      <trkpt lat="45.66159" lon="5.83083">
        <ele>1190.73</ele>
        <time>2014-09-06T11:24:34Z</time>
      </trkpt>
      <trkpt lat="45.66151" lon="5.83082">
        <ele>1188.33</ele>
        <time>2014-09-06T11:24:40Z</time>
      </trkpt>
      <trkpt lat="45.6614" lon="5.83084">
        <ele>1184.96</ele>
        <time>2014-09-06T11:24:48Z</time>
      </trkpt>
      <trkpt lat="45.66152" lon="5.83101">
        <ele>1182.08</ele>
        <time>2014-09-06T11:24:56Z</time>
      </trkpt>
      <trkpt lat="45.66153" lon="5.83106">
        <ele>1179.67</ele>
        <time>2014-09-06T11:24:59Z</time>
      </trkpt>
      <trkpt lat="45.6615" lon="5.83107">
        <ele>1178.71</ele>
        <time>2014-09-06T11:25:08Z</time>
      </trkpt>
      <trkpt lat="45.66144" lon="5.83108">
        <ele>1176.79</ele>
        <time>2014-09-06T11:25:12Z</time>
      </trkpt>
      <trkpt lat="45.66134" lon="5.83109">
        <ele>1172.95</ele>
        <time>2014-09-06T11:25:17Z</time>
      </trkpt>
      <trkpt lat="45.66133" lon="5.83109">
        <ele>1172.47</ele>
        <time>2014-09-06T11:25:19Z</time>
      </trkpt>
      <trkpt lat="45.6613" lon="5.83114">
        <ele>1170.06</ele>
        <time>2014-09-06T11:25:32Z</time>
      </trkpt>
      <trkpt lat="45.66126" lon="5.8312">
        <ele>1166.7</ele>
        <time>2014-09-06T11:25:44Z</time>
      </trkpt>
      <trkpt lat="45.66125" lon="5.83123">
        <ele>1165.74</ele>
        <time>2014-09-06T11:25:56Z</time>
      </trkpt>
      <trkpt lat="45.66129" lon="5.8313">
        <ele>1164.29</ele>
        <time>2014-09-06T11:26:13Z</time>
      </trkpt>
      <trkpt lat="45.66135" lon="5.8314">
        <ele>1161.41</ele>
        <time>2014-09-06T11:26:25Z</time>
      </trkpt>
      <trkpt lat="45.66138" lon="5.83149">
        <ele>1157.56</ele>
        <time>2014-09-06T11:26:36Z</time>
      </trkpt>
      <trkpt lat="45.66137" lon="5.8315">
        <ele>1158.53</ele>
        <time>2014-09-06T11:26:38Z</time>
      </trkpt>
      <trkpt lat="45.66139" lon="5.83151">
        <ele>1157.08</ele>
        <time>2014-09-06T11:26:42Z</time>
      </trkpt>
      <trkpt lat="45.66145" lon="5.83157">
        <ele>1156.6</ele>
        <time>2014-09-06T11:26:58Z</time>
      </trkpt>
      <trkpt lat="45.66146" lon="5.83158">
        <ele>1156.6</ele>
        <time>2014-09-06T11:27:14Z</time>
      </trkpt>
      <trkpt lat="45.66146" lon="5.83158">
        <ele>1156.6</ele>
        <time>2014-09-06T11:27:22Z</time>
      </trkpt>
      <trkpt lat="45.66135" lon="5.83161">
        <ele>1153.24</ele>
        <time>2014-09-06T11:27:29Z</time>
      </trkpt>
      <trkpt lat="45.66123" lon="5.83161">
        <ele>1149.87</ele>
        <time>2014-09-06T11:27:33Z</time>
      </trkpt>
      <trkpt lat="45.66112" lon="5.8316">
        <ele>1146.51</ele>
        <time>2014-09-06T11:27:37Z</time>
      </trkpt>
      <trkpt lat="45.66108" lon="5.83159">
        <ele>1145.07</ele>
        <time>2014-09-06T11:27:39Z</time>
      </trkpt>
      <trkpt lat="45.66106" lon="5.83158">
        <ele>1145.07</ele>
        <time>2014-09-06T11:27:40Z</time>
      </trkpt>
      <trkpt lat="45.66102" lon="5.83159">
        <ele>1143.63</ele>
        <time>2014-09-06T11:27:44Z</time>
      </trkpt>
      <trkpt lat="45.66123" lon="5.83188">
        <ele>1139.78</ele>
        <time>2014-09-06T11:27:55Z</time>
      </trkpt>
      <trkpt lat="45.66124" lon="5.8319">
        <ele>1139.78</ele>
        <time>2014-09-06T11:27:56Z</time>
      </trkpt>
      <trkpt lat="45.6613" lon="5.83199">
        <ele>1137.38</ele>
        <time>2014-09-06T11:28:09Z</time>
      </trkpt>
      <trkpt lat="45.66132" lon="5.83212">
        <ele>1135.45</ele>
        <time>2014-09-06T11:28:20Z</time>
      </trkpt>
      <trkpt lat="45.66145" lon="5.83216">
        <ele>1133.05</ele>
        <time>2014-09-06T11:28:24Z</time>
      </trkpt>
      <trkpt lat="45.66158" lon="5.83216">
        <ele>1129.69</ele>
        <time>2014-09-06T11:28:27Z</time>
      </trkpt>
      <trkpt lat="45.66162" lon="5.83215">
        <ele>1128.73</ele>
        <time>2014-09-06T11:28:28Z</time>
      </trkpt>
      <trkpt lat="45.66167" lon="5.83215">
        <ele>1127.76</ele>
        <time>2014-09-06T11:28:29Z</time>
      </trkpt>
      <trkpt lat="45.66171" lon="5.83215">
        <ele>1126.32</ele>
        <time>2014-09-06T11:28:30Z</time>
      </trkpt>
      <trkpt lat="45.66185" lon="5.83215">
        <ele>1122.96</ele>
        <time>2014-09-06T11:28:34Z</time>
      </trkpt>
      <trkpt lat="45.66202" lon="5.83222">
        <ele>1119.11</ele>
        <time>2014-09-06T11:28:40Z</time>
      </trkpt>
      <trkpt lat="45.66215" lon="5.83229">
        <ele>1116.71</ele>
        <time>2014-09-06T11:28:44Z</time>
      </trkpt>
      <trkpt lat="45.66229" lon="5.83238">
        <ele>1113.34</ele>
        <time>2014-09-06T11:28:49Z</time>
      </trkpt>
      <trkpt lat="45.66233" lon="5.8324">
        <ele>1112.38</ele>
        <time>2014-09-06T11:28:51Z</time>
      </trkpt>
      <trkpt lat="45.66235" lon="5.83243">
        <ele>1111.42</ele>
        <time>2014-09-06T11:28:53Z</time>
      </trkpt>
      <trkpt lat="45.66237" lon="5.83244">
        <ele>1111.42</ele>
        <time>2014-09-06T11:28:54Z</time>
      </trkpt>
      <trkpt lat="45.66239" lon="5.83245">
        <ele>1110.46</ele>
        <time>2014-09-06T11:28:55Z</time>
      </trkpt>
      <trkpt lat="45.66241" lon="5.83246">
        <ele>1109.98</ele>
        <time>2014-09-06T11:28:56Z</time>
      </trkpt>
      <trkpt lat="45.66242" lon="5.83247">
        <ele>1109.5</ele>
        <time>2014-09-06T11:28:57Z</time>
      </trkpt>
      <trkpt lat="45.66244" lon="5.8325">
        <ele>1109.02</ele>
        <time>2014-09-06T11:28:59Z</time>
      </trkpt>
      <trkpt lat="45.66243" lon="5.83252">
        <ele>1108.06</ele>
        <time>2014-09-06T11:29:00Z</time>
      </trkpt>
      <trkpt lat="45.66234" lon="5.83263">
        <ele>1104.69</ele>
        <time>2014-09-06T11:29:04Z</time>
      </trkpt>
      <trkpt lat="45.66223" lon="5.83268">
        <ele>1101.33</ele>
        <time>2014-09-06T11:29:09Z</time>
      </trkpt>
      <trkpt lat="45.66221" lon="5.83272">
        <ele>1098.92</ele>
        <time>2014-09-06T11:29:17Z</time>
      </trkpt>
      <trkpt lat="45.66221" lon="5.83272">
        <ele>1098.92</ele>
        <time>2014-09-06T11:29:29Z</time>
      </trkpt>
      <trkpt lat="45.66225" lon="5.83283">
        <ele>1096.52</ele>
        <time>2014-09-06T11:29:33Z</time>
      </trkpt>
      <trkpt lat="45.6623" lon="5.83289">
        <ele>1095.08</ele>
        <time>2014-09-06T11:29:36Z</time>
      </trkpt>
      <trkpt lat="45.66234" lon="5.83293">
        <ele>1093.64</ele>
        <time>2014-09-06T11:29:38Z</time>
      </trkpt>
      <trkpt lat="45.66238" lon="5.83298">
        <ele>1092.2</ele>
        <time>2014-09-06T11:29:41Z</time>
      </trkpt>
      <trkpt lat="45.66241" lon="5.83297">
        <ele>1091.23</ele>
        <time>2014-09-06T11:29:54Z</time>
      </trkpt>
      <trkpt lat="45.66245" lon="5.83297">
        <ele>1091.23</ele>
        <time>2014-09-06T11:30:16Z</time>
      </trkpt>
      <trkpt lat="45.66244" lon="5.83299">
        <ele>1091.23</ele>
        <time>2014-09-06T11:30:24Z</time>
      </trkpt>
      <trkpt lat="45.66239" lon="5.83302">
        <ele>1089.79</ele>
        <time>2014-09-06T11:30:28Z</time>
      </trkpt>
      <trkpt lat="45.66236" lon="5.83302">
        <ele>1088.83</ele>
        <time>2014-09-06T11:30:29Z</time>
      </trkpt>
      <trkpt lat="45.66233" lon="5.83303">
        <ele>1088.83</ele>
        <time>2014-09-06T11:30:30Z</time>
      </trkpt>
      <trkpt lat="45.6622" lon="5.83303">
        <ele>1085.47</ele>
        <time>2014-09-06T11:30:34Z</time>
      </trkpt>
      <trkpt lat="45.66208" lon="5.83306">
        <ele>1082.58</ele>
        <time>2014-09-06T11:30:38Z</time>
      </trkpt>
      <trkpt lat="45.66197" lon="5.83309">
        <ele>1080.66</ele>
        <time>2014-09-06T11:30:43Z</time>
      </trkpt>
      <trkpt lat="45.66169" lon="5.83315">
        <ele>1078.74</ele>
        <time>2014-09-06T11:30:53Z</time>
      </trkpt>
      <trkpt lat="45.66151" lon="5.83323">
        <ele>1075.37</ele>
        <time>2014-09-06T11:30:57Z</time>
      </trkpt>
      <trkpt lat="45.66147" lon="5.83323">
        <ele>1075.85</ele>
        <time>2014-09-06T11:30:58Z</time>
      </trkpt>
      <trkpt lat="45.66125" lon="5.83331">
        <ele>1072.97</ele>
        <time>2014-09-06T11:31:05Z</time>
      </trkpt>
      <trkpt lat="45.661" lon="5.83331">
        <ele>1069.6</ele>
        <time>2014-09-06T11:31:12Z</time>
      </trkpt>
      <trkpt lat="45.66096" lon="5.83329">
        <ele>1069.12</ele>
        <time>2014-09-06T11:31:13Z</time>
      </trkpt>
      <trkpt lat="45.66093" lon="5.83326">
        <ele>1069.12</ele>
        <time>2014-09-06T11:31:14Z</time>
      </trkpt>
      <trkpt lat="45.66075" lon="5.83322">
        <ele>1066.72</ele>
        <time>2014-09-06T11:31:19Z</time>
      </trkpt>
      <trkpt lat="45.66073" lon="5.8332">
        <ele>1066.72</ele>
        <time>2014-09-06T11:31:20Z</time>
      </trkpt>
      <trkpt lat="45.66071" lon="5.83318">
        <ele>1066.72</ele>
        <time>2014-09-06T11:31:21Z</time>
      </trkpt>
      <trkpt lat="45.66069" lon="5.83317">
        <ele>1066.24</ele>
        <time>2014-09-06T11:31:22Z</time>
      </trkpt>
      <trkpt lat="45.66066" lon="5.83315">
        <ele>1065.76</ele>
        <time>2014-09-06T11:31:23Z</time>
      </trkpt>
      <trkpt lat="45.66062" lon="5.83313">
        <ele>1064.8</ele>
        <time>2014-09-06T11:31:24Z</time>
      </trkpt>
      <trkpt lat="45.66059" lon="5.83312">
        <ele>1063.84</ele>
        <time>2014-09-06T11:31:25Z</time>
      </trkpt>
      <trkpt lat="45.66056" lon="5.83311">
        <ele>1063.36</ele>
        <time>2014-09-06T11:31:26Z</time>
      </trkpt>
      <trkpt lat="45.66053" lon="5.8331">
        <ele>1062.39</ele>
        <time>2014-09-06T11:31:28Z</time>
      </trkpt>
      <trkpt lat="45.66041" lon="5.83308">
        <ele>1062.87</ele>
        <time>2014-09-06T11:31:34Z</time>
      </trkpt>
      <trkpt lat="45.66036" lon="5.83308">
        <ele>1062.87</ele>
        <time>2014-09-06T11:31:36Z</time>
      </trkpt>
      <trkpt lat="45.66034" lon="5.83306">
        <ele>1062.87</ele>
        <time>2014-09-06T11:31:37Z</time>
      </trkpt>
      <trkpt lat="45.66032" lon="5.83305">
        <ele>1062.87</ele>
        <time>2014-09-06T11:31:38Z</time>
      </trkpt>
      <trkpt lat="45.66012" lon="5.83293">
        <ele>1061.91</ele>
        <time>2014-09-06T11:31:44Z</time>
      </trkpt>
      <trkpt lat="45.66001" lon="5.83289">
        <ele>1059.99</ele>
        <time>2014-09-06T11:31:46Z</time>
      </trkpt>
      <trkpt lat="45.65997" lon="5.83287">
        <ele>1059.99</ele>
        <time>2014-09-06T11:31:47Z</time>
      </trkpt>
      <trkpt lat="45.65991" lon="5.83285">
        <ele>1059.03</ele>
        <time>2014-09-06T11:31:48Z</time>
      </trkpt>
      <trkpt lat="45.65986" lon="5.83282">
        <ele>1058.55</ele>
        <time>2014-09-06T11:31:49Z</time>
      </trkpt>
      <trkpt lat="45.6598" lon="5.83279">
        <ele>1058.07</ele>
        <time>2014-09-06T11:31:50Z</time>
      </trkpt>
      <trkpt lat="45.65975" lon="5.83277">
        <ele>1057.11</ele>
        <time>2014-09-06T11:31:51Z</time>
      </trkpt>
      <trkpt lat="45.65971" lon="5.83276">
        <ele>1056.63</ele>
        <time>2014-09-06T11:31:52Z</time>
      </trkpt>
      <trkpt lat="45.65961" lon="5.83274">
        <ele>1054.22</ele>
        <time>2014-09-06T11:31:56Z</time>
      </trkpt>
      <trkpt lat="45.65958" lon="5.83275">
        <ele>1054.22</ele>
        <time>2014-09-06T11:31:57Z</time>
      </trkpt>
      <trkpt lat="45.65954" lon="5.83276">
        <ele>1053.74</ele>
        <time>2014-09-06T11:31:58Z</time>
      </trkpt>
      <trkpt lat="45.6595" lon="5.83276">
        <ele>1053.74</ele>
        <time>2014-09-06T11:31:59Z</time>
      </trkpt>
      <trkpt lat="45.65946" lon="5.83275">
        <ele>1053.74</ele>
        <time>2014-09-06T11:32:00Z</time>
      </trkpt>
      <trkpt lat="45.65942" lon="5.83273">
        <ele>1053.26</ele>
        <time>2014-09-06T11:32:01Z</time>
      </trkpt>
      <trkpt lat="45.65938" lon="5.8327">
        <ele>1052.3</ele>
        <time>2014-09-06T11:32:02Z</time>
      </trkpt>
      <trkpt lat="45.65934" lon="5.83268">
        <ele>1051.82</ele>
        <time>2014-09-06T11:32:03Z</time>
      </trkpt>
      <trkpt lat="45.6593" lon="5.83264">
        <ele>1050.86</ele>
        <time>2014-09-06T11:32:04Z</time>
      </trkpt>
      <trkpt lat="45.65918" lon="5.83258">
        <ele>1049.42</ele>
        <time>2014-09-06T11:32:07Z</time>
      </trkpt>
      <trkpt lat="45.65915" lon="5.83258">
        <ele>1048.94</ele>
        <time>2014-09-06T11:32:08Z</time>
      </trkpt>
      <trkpt lat="45.65912" lon="5.83257">
        <ele>1048.45</ele>
        <time>2014-09-06T11:32:09Z</time>
      </trkpt>
      <trkpt lat="45.65909" lon="5.83256">
        <ele>1048.45</ele>
        <time>2014-09-06T11:32:10Z</time>
      </trkpt>
      <trkpt lat="45.65906" lon="5.83254">
        <ele>1047.49</ele>
        <time>2014-09-06T11:32:11Z</time>
      </trkpt>
      <trkpt lat="45.65903" lon="5.83252">
        <ele>1047.97</ele>
        <time>2014-09-06T11:32:12Z</time>
      </trkpt>
      <trkpt lat="45.65901" lon="5.83251">
        <ele>1046.53</ele>
        <time>2014-09-06T11:32:14Z</time>
      </trkpt>
      <trkpt lat="45.65898" lon="5.83251">
        <ele>1045.57</ele>
        <time>2014-09-06T11:32:15Z</time>
      </trkpt>
      <trkpt lat="45.65888" lon="5.83248">
        <ele>1043.65</ele>
        <time>2014-09-06T11:32:18Z</time>
      </trkpt>
      <trkpt lat="45.65878" lon="5.83244">
        <ele>1043.65</ele>
        <time>2014-09-06T11:32:29Z</time>
      </trkpt>
      <trkpt lat="45.65876" lon="5.83244">
        <ele>1043.65</ele>
        <time>2014-09-06T11:32:30Z</time>
      </trkpt>
      <trkpt lat="45.65874" lon="5.83244">
        <ele>1043.17</ele>
        <time>2014-09-06T11:32:31Z</time>
      </trkpt>
      <trkpt lat="45.65872" lon="5.83244">
        <ele>1043.17</ele>
        <time>2014-09-06T11:32:32Z</time>
      </trkpt>
      <trkpt lat="45.65869" lon="5.83245">
        <ele>1043.17</ele>
        <time>2014-09-06T11:32:33Z</time>
      </trkpt>
      <trkpt lat="45.65866" lon="5.83246">
        <ele>1043.17</ele>
        <time>2014-09-06T11:32:34Z</time>
      </trkpt>
      <trkpt lat="45.65863" lon="5.83247">
        <ele>1043.17</ele>
        <time>2014-09-06T11:32:35Z</time>
      </trkpt>
      <trkpt lat="45.65859" lon="5.83249">
        <ele>1043.17</ele>
        <time>2014-09-06T11:32:36Z</time>
      </trkpt>
      <trkpt lat="45.65846" lon="5.83252">
        <ele>1041.73</ele>
        <time>2014-09-06T11:32:40Z</time>
      </trkpt>
      <trkpt lat="45.65843" lon="5.83251">
        <ele>1041.25</ele>
        <time>2014-09-06T11:32:41Z</time>
      </trkpt>
      <trkpt lat="45.6584" lon="5.83249">
        <ele>1040.28</ele>
        <time>2014-09-06T11:32:42Z</time>
      </trkpt>
      <trkpt lat="45.65837" lon="5.83246">
        <ele>1040.28</ele>
        <time>2014-09-06T11:32:43Z</time>
      </trkpt>
      <trkpt lat="45.65834" lon="5.83243">
        <ele>1039.8</ele>
        <time>2014-09-06T11:32:44Z</time>
      </trkpt>
      <trkpt lat="45.6583" lon="5.83242">
        <ele>1039.32</ele>
        <time>2014-09-06T11:32:45Z</time>
      </trkpt>
      <trkpt lat="45.65826" lon="5.8324">
        <ele>1038.84</ele>
        <time>2014-09-06T11:32:46Z</time>
      </trkpt>
      <trkpt lat="45.65801" lon="5.8323">
        <ele>1035.48</ele>
        <time>2014-09-06T11:32:53Z</time>
      </trkpt>
      <trkpt lat="45.65797" lon="5.8323">
        <ele>1035</ele>
        <time>2014-09-06T11:32:54Z</time>
      </trkpt>
      <trkpt lat="45.65792" lon="5.83229">
        <ele>1034.52</ele>
        <time>2014-09-06T11:32:55Z</time>
      </trkpt>
      <trkpt lat="45.65789" lon="5.83228">
        <ele>1034.04</ele>
        <time>2014-09-06T11:32:56Z</time>
      </trkpt>
      <trkpt lat="45.65786" lon="5.83228">
        <ele>1033.55</ele>
        <time>2014-09-06T11:32:57Z</time>
      </trkpt>
      <trkpt lat="45.65785" lon="5.83231">
        <ele>1032.11</ele>
        <time>2014-09-06T11:33:00Z</time>
      </trkpt>
      <trkpt lat="45.65785" lon="5.83231">
        <ele>1031.63</ele>
        <time>2014-09-06T11:33:01Z</time>
      </trkpt>
      <trkpt lat="45.65786" lon="5.83232">
        <ele>1031.15</ele>
        <time>2014-09-06T11:33:02Z</time>
      </trkpt>
      <trkpt lat="45.65789" lon="5.83239">
        <ele>1028.75</ele>
        <time>2014-09-06T11:33:06Z</time>
      </trkpt>
      <trkpt lat="45.65788" lon="5.83241">
        <ele>1027.79</ele>
        <time>2014-09-06T11:33:08Z</time>
      </trkpt>
      <trkpt lat="45.65785" lon="5.83241">
        <ele>1027.79</ele>
        <time>2014-09-06T11:33:09Z</time>
      </trkpt>
      <trkpt lat="45.65782" lon="5.83241">
        <ele>1027.31</ele>
        <time>2014-09-06T11:33:10Z</time>
      </trkpt>
      <trkpt lat="45.65758" lon="5.83236">
        <ele>1025.86</ele>
        <time>2014-09-06T11:33:19Z</time>
      </trkpt>
      <trkpt lat="45.65724" lon="5.83231">
        <ele>1027.79</ele>
        <time>2014-09-06T11:33:31Z</time>
      </trkpt>
      <trkpt lat="45.65694" lon="5.83209">
        <ele>1027.79</ele>
        <time>2014-09-06T11:33:41Z</time>
      </trkpt>
      <trkpt lat="45.65689" lon="5.83206">
        <ele>1026.34</ele>
        <time>2014-09-06T11:33:42Z</time>
      </trkpt>
      <trkpt lat="45.65683" lon="5.83205">
        <ele>1025.86</ele>
        <time>2014-09-06T11:33:43Z</time>
      </trkpt>
      <trkpt lat="45.65677" lon="5.83205">
        <ele>1025.38</ele>
        <time>2014-09-06T11:33:44Z</time>
      </trkpt>
      <trkpt lat="45.65671" lon="5.83205">
        <ele>1024.9</ele>
        <time>2014-09-06T11:33:45Z</time>
      </trkpt>
      <trkpt lat="45.65664" lon="5.83204">
        <ele>1024.42</ele>
        <time>2014-09-06T11:33:46Z</time>
      </trkpt>
      <trkpt lat="45.65634" lon="5.83197">
        <ele>1022.5</ele>
        <time>2014-09-06T11:33:50Z</time>
      </trkpt>
      <trkpt lat="45.65627" lon="5.83197">
        <ele>1021.54</ele>
        <time>2014-09-06T11:33:51Z</time>
      </trkpt>
      <trkpt lat="45.65619" lon="5.83199">
        <ele>1021.54</ele>
        <time>2014-09-06T11:33:52Z</time>
      </trkpt>
      <trkpt lat="45.65613" lon="5.83203">
        <ele>1020.58</ele>
        <time>2014-09-06T11:33:53Z</time>
      </trkpt>
      <trkpt lat="45.65606" lon="5.83208">
        <ele>1019.13</ele>
        <time>2014-09-06T11:33:54Z</time>
      </trkpt>
      <trkpt lat="45.65598" lon="5.83211">
        <ele>1018.65</ele>
        <time>2014-09-06T11:33:55Z</time>
      </trkpt>
      <trkpt lat="45.6559" lon="5.83213">
        <ele>1017.69</ele>
        <time>2014-09-06T11:33:56Z</time>
      </trkpt>
      <trkpt lat="45.65582" lon="5.83214">
        <ele>1016.73</ele>
        <time>2014-09-06T11:33:57Z</time>
      </trkpt>
      <trkpt lat="45.65574" lon="5.83214">
        <ele>1015.77</ele>
        <time>2014-09-06T11:33:58Z</time>
      </trkpt>
      <trkpt lat="45.65567" lon="5.83213">
        <ele>1014.33</ele>
        <time>2014-09-06T11:33:59Z</time>
      </trkpt>
      <trkpt lat="45.65561" lon="5.83209">
        <ele>1013.37</ele>
        <time>2014-09-06T11:34:00Z</time>
      </trkpt>
      <trkpt lat="45.65555" lon="5.83204">
        <ele>1012.89</ele>
        <time>2014-09-06T11:34:01Z</time>
      </trkpt>
      <trkpt lat="45.65549" lon="5.83197">
        <ele>1011.93</ele>
        <time>2014-09-06T11:34:02Z</time>
      </trkpt>
      <trkpt lat="45.65543" lon="5.83191">
        <ele>1011.44</ele>
        <time>2014-09-06T11:34:03Z</time>
      </trkpt>
      <trkpt lat="45.65536" lon="5.83186">
        <ele>1010.96</ele>
        <time>2014-09-06T11:34:04Z</time>
      </trkpt>
      <trkpt lat="45.65529" lon="5.83183">
        <ele>1010</ele>
        <time>2014-09-06T11:34:05Z</time>
      </trkpt>
      <trkpt lat="45.65521" lon="5.83181">
        <ele>1009.52</ele>
        <time>2014-09-06T11:34:06Z</time>
      </trkpt>
      <trkpt lat="45.65495" lon="5.83179">
        <ele>1006.64</ele>
        <time>2014-09-06T11:34:09Z</time>
      </trkpt>
      <trkpt lat="45.65487" lon="5.83181">
        <ele>1005.68</ele>
        <time>2014-09-06T11:34:10Z</time>
      </trkpt>
      <trkpt lat="45.6548" lon="5.83183">
        <ele>1005.2</ele>
        <time>2014-09-06T11:34:11Z</time>
      </trkpt>
      <trkpt lat="45.65474" lon="5.83186">
        <ele>1004.23</ele>
        <time>2014-09-06T11:34:12Z</time>
      </trkpt>
      <trkpt lat="45.65469" lon="5.83186">
        <ele>1003.27</ele>
        <time>2014-09-06T11:34:13Z</time>
      </trkpt>
      <trkpt lat="45.65463" lon="5.83185">
        <ele>1002.79</ele>
        <time>2014-09-06T11:34:14Z</time>
      </trkpt>
      <trkpt lat="45.65457" lon="5.83181">
        <ele>1002.31</ele>
        <time>2014-09-06T11:34:15Z</time>
      </trkpt>
      <trkpt lat="45.6545" lon="5.83177">
        <ele>1001.83</ele>
        <time>2014-09-06T11:34:16Z</time>
      </trkpt>
      <trkpt lat="45.65443" lon="5.83173">
        <ele>1000.87</ele>
        <time>2014-09-06T11:34:17Z</time>
      </trkpt>
      <trkpt lat="45.65436" lon="5.83172">
        <ele>999.91</ele>
        <time>2014-09-06T11:34:18Z</time>
      </trkpt>
      <trkpt lat="45.65428" lon="5.83172">
        <ele>999.43</ele>
        <time>2014-09-06T11:34:19Z</time>
      </trkpt>
      <trkpt lat="45.65421" lon="5.83173">
        <ele>998.47</ele>
        <time>2014-09-06T11:34:20Z</time>
      </trkpt>
      <trkpt lat="45.65414" lon="5.83174">
        <ele>997.99</ele>
        <time>2014-09-06T11:34:21Z</time>
      </trkpt>
      <trkpt lat="45.65408" lon="5.83173">
        <ele>997.02</ele>
        <time>2014-09-06T11:34:22Z</time>
      </trkpt>
      <trkpt lat="45.65401" lon="5.8317">
        <ele>996.54</ele>
        <time>2014-09-06T11:34:23Z</time>
      </trkpt>
      <trkpt lat="45.65394" lon="5.83167">
        <ele>996.06</ele>
        <time>2014-09-06T11:34:24Z</time>
      </trkpt>
      <trkpt lat="45.65387" lon="5.83165">
        <ele>995.1</ele>
        <time>2014-09-06T11:34:25Z</time>
      </trkpt>
      <trkpt lat="45.6538" lon="5.83165">
        <ele>995.1</ele>
        <time>2014-09-06T11:34:26Z</time>
      </trkpt>
      <trkpt lat="45.65373" lon="5.83165">
        <ele>994.14</ele>
        <time>2014-09-06T11:34:27Z</time>
      </trkpt>
      <trkpt lat="45.65365" lon="5.83166">
        <ele>993.66</ele>
        <time>2014-09-06T11:34:28Z</time>
      </trkpt>
      <trkpt lat="45.65352" lon="5.83168">
        <ele>991.26</ele>
        <time>2014-09-06T11:34:30Z</time>
      </trkpt>
      <trkpt lat="45.65346" lon="5.83165">
        <ele>990.78</ele>
        <time>2014-09-06T11:34:31Z</time>
      </trkpt>
      <trkpt lat="45.6534" lon="5.83162">
        <ele>990.3</ele>
        <time>2014-09-06T11:34:32Z</time>
      </trkpt>
      <trkpt lat="45.65334" lon="5.83158">
        <ele>989.81</ele>
        <time>2014-09-06T11:34:33Z</time>
      </trkpt>
      <trkpt lat="45.65327" lon="5.83156">
        <ele>988.85</ele>
        <time>2014-09-06T11:34:34Z</time>
      </trkpt>
      <trkpt lat="45.6532" lon="5.83155">
        <ele>987.89</ele>
        <time>2014-09-06T11:34:35Z</time>
      </trkpt>
      <trkpt lat="45.65313" lon="5.83157">
        <ele>987.89</ele>
        <time>2014-09-06T11:34:36Z</time>
      </trkpt>
      <trkpt lat="45.65306" lon="5.8316">
        <ele>986.45</ele>
        <time>2014-09-06T11:34:37Z</time>
      </trkpt>
      <trkpt lat="45.65299" lon="5.83161">
        <ele>985.49</ele>
        <time>2014-09-06T11:34:38Z</time>
      </trkpt>
      <trkpt lat="45.65293" lon="5.83162">
        <ele>984.53</ele>
        <time>2014-09-06T11:34:39Z</time>
      </trkpt>
      <trkpt lat="45.65288" lon="5.83159">
        <ele>984.05</ele>
        <time>2014-09-06T11:34:40Z</time>
      </trkpt>
      <trkpt lat="45.65283" lon="5.83156">
        <ele>983.57</ele>
        <time>2014-09-06T11:34:41Z</time>
      </trkpt>
      <trkpt lat="45.65278" lon="5.83151">
        <ele>983.09</ele>
        <time>2014-09-06T11:34:42Z</time>
      </trkpt>
      <trkpt lat="45.65273" lon="5.83147">
        <ele>982.6</ele>
        <time>2014-09-06T11:34:43Z</time>
      </trkpt>
      <trkpt lat="45.65267" lon="5.83144">
        <ele>982.6</ele>
        <time>2014-09-06T11:34:44Z</time>
      </trkpt>
      <trkpt lat="45.65262" lon="5.83143">
        <ele>982.6</ele>
        <time>2014-09-06T11:34:45Z</time>
      </trkpt>
      <trkpt lat="45.65256" lon="5.83141">
        <ele>982.12</ele>
        <time>2014-09-06T11:34:46Z</time>
      </trkpt>
      <trkpt lat="45.6525" lon="5.83139">
        <ele>982.12</ele>
        <time>2014-09-06T11:34:47Z</time>
      </trkpt>
      <trkpt lat="45.65245" lon="5.83137">
        <ele>982.6</ele>
        <time>2014-09-06T11:34:48Z</time>
      </trkpt>
      <trkpt lat="45.65239" lon="5.83135">
        <ele>982.12</ele>
        <time>2014-09-06T11:34:49Z</time>
      </trkpt>
      <trkpt lat="45.65228" lon="5.8313">
        <ele>982.12</ele>
        <time>2014-09-06T11:34:51Z</time>
      </trkpt>
      <trkpt lat="45.65213" lon="5.83121">
        <ele>982.12</ele>
        <time>2014-09-06T11:34:54Z</time>
      </trkpt>
      <trkpt lat="45.65207" lon="5.8312">
        <ele>982.12</ele>
        <time>2014-09-06T11:34:55Z</time>
      </trkpt>
      <trkpt lat="45.65202" lon="5.83119">
        <ele>982.12</ele>
        <time>2014-09-06T11:34:56Z</time>
      </trkpt>
      <trkpt lat="45.65183" lon="5.83114">
        <ele>981.64</ele>
        <time>2014-09-06T11:35:00Z</time>
      </trkpt>
      <trkpt lat="45.65179" lon="5.83112">
        <ele>981.64</ele>
        <time>2014-09-06T11:35:01Z</time>
      </trkpt>
      <trkpt lat="45.65162" lon="5.83101">
        <ele>981.64</ele>
        <time>2014-09-06T11:35:05Z</time>
      </trkpt>
      <trkpt lat="45.65157" lon="5.83099">
        <ele>981.64</ele>
        <time>2014-09-06T11:35:06Z</time>
      </trkpt>
      <trkpt lat="45.65152" lon="5.83098">
        <ele>981.64</ele>
        <time>2014-09-06T11:35:07Z</time>
      </trkpt>
      <trkpt lat="45.65148" lon="5.83097">
        <ele>981.64</ele>
        <time>2014-09-06T11:35:08Z</time>
      </trkpt>
      <trkpt lat="45.65144" lon="5.83097">
        <ele>981.64</ele>
        <time>2014-09-06T11:35:09Z</time>
      </trkpt>
      <trkpt lat="45.65094" lon="5.8308">
        <ele>983.09</ele>
        <time>2014-09-06T11:35:22Z</time>
      </trkpt>
      <trkpt lat="45.65056" lon="5.83066">
        <ele>983.57</ele>
        <time>2014-09-06T11:35:33Z</time>
      </trkpt>
      <trkpt lat="45.65037" lon="5.83066">
        <ele>984.05</ele>
        <time>2014-09-06T11:35:38Z</time>
      </trkpt>
      <trkpt lat="45.65033" lon="5.83064">
        <ele>984.05</ele>
        <time>2014-09-06T11:35:39Z</time>
      </trkpt>
      <trkpt lat="45.65029" lon="5.83063">
        <ele>984.05</ele>
        <time>2014-09-06T11:35:40Z</time>
      </trkpt>
      <trkpt lat="45.64991" lon="5.83066">
        <ele>984.05</ele>
        <time>2014-09-06T11:35:51Z</time>
      </trkpt>
      <trkpt lat="45.64983" lon="5.83063">
        <ele>984.05</ele>
        <time>2014-09-06T11:35:53Z</time>
      </trkpt>
      <trkpt lat="45.64966" lon="5.83054">
        <ele>982.6</ele>
        <time>2014-09-06T11:35:58Z</time>
      </trkpt>
      <trkpt lat="45.64961" lon="5.83054">
        <ele>982.12</ele>
        <time>2014-09-06T11:36:08Z</time>
      </trkpt>
      <trkpt lat="45.6496" lon="5.83058">
        <ele>982.12</ele>
        <time>2014-09-06T11:36:20Z</time>
      </trkpt>
      <trkpt lat="45.64965" lon="5.83064">
        <ele>982.12</ele>
        <time>2014-09-06T11:36:51Z</time>
      </trkpt>
      <trkpt lat="45.64964" lon="5.83066">
        <ele>982.12</ele>
        <time>2014-09-06T11:37:07Z</time>
      </trkpt>
      <trkpt lat="45.64949" lon="5.83053">
        <ele>982.12</ele>
        <time>2014-09-06T11:37:35Z</time>
      </trkpt>
      <trkpt lat="45.64954" lon="5.8305">
        <ele>981.64</ele>
        <time>2014-09-06T11:37:48Z</time>
      </trkpt>
      <trkpt lat="45.64957" lon="5.83053">
        <ele>980.68</ele>
        <time>2014-09-06T11:37:50Z</time>
      </trkpt>
      <trkpt lat="45.6496" lon="5.83056">
        <ele>980.2</ele>
        <time>2014-09-06T11:37:51Z</time>
      </trkpt>
      <trkpt lat="45.64962" lon="5.83059">
        <ele>979.72</ele>
        <time>2014-09-06T11:37:52Z</time>
      </trkpt>
      <trkpt lat="45.64965" lon="5.83064">
        <ele>978.76</ele>
        <time>2014-09-06T11:37:53Z</time>
      </trkpt>
      <trkpt lat="45.64968" lon="5.83069">
        <ele>977.8</ele>
        <time>2014-09-06T11:37:54Z</time>
      </trkpt>
      <trkpt lat="45.64971" lon="5.83073">
        <ele>976.84</ele>
        <time>2014-09-06T11:37:55Z</time>
      </trkpt>
      <trkpt lat="45.64974" lon="5.83077">
        <ele>975.39</ele>
        <time>2014-09-06T11:37:56Z</time>
      </trkpt>
      <trkpt lat="45.64977" lon="5.8308">
        <ele>974.43</ele>
        <time>2014-09-06T11:37:57Z</time>
      </trkpt>
      <trkpt lat="45.6498" lon="5.83081">
        <ele>973.47</ele>
        <time>2014-09-06T11:37:58Z</time>
      </trkpt>
      <trkpt lat="45.64981" lon="5.83082">
        <ele>972.99</ele>
        <time>2014-09-06T11:37:59Z</time>
      </trkpt>
      <trkpt lat="45.64983" lon="5.83083">
        <ele>972.51</ele>
        <time>2014-09-06T11:38:00Z</time>
      </trkpt>
      <trkpt lat="45.64985" lon="5.83089">
        <ele>970.59</ele>
        <time>2014-09-06T11:38:04Z</time>
      </trkpt>
      <trkpt lat="45.64983" lon="5.83091">
        <ele>970.11</ele>
        <time>2014-09-06T11:38:05Z</time>
      </trkpt>
      <trkpt lat="45.64977" lon="5.83095">
        <ele>969.63</ele>
        <time>2014-09-06T11:38:07Z</time>
      </trkpt>
      <trkpt lat="45.64973" lon="5.83097">
        <ele>968.67</ele>
        <time>2014-09-06T11:38:08Z</time>
      </trkpt>
      <trkpt lat="45.64969" lon="5.83099">
        <ele>967.22</ele>
        <time>2014-09-06T11:38:09Z</time>
      </trkpt>
      <trkpt lat="45.64964" lon="5.83103">
        <ele>964.34</ele>
        <time>2014-09-06T11:38:11Z</time>
      </trkpt>
      <trkpt lat="45.64955" lon="5.83109">
        <ele>960.98</ele>
        <time>2014-09-06T11:38:17Z</time>
      </trkpt>
      <trkpt lat="45.64946" lon="5.83115">
        <ele>958.09</ele>
        <time>2014-09-06T11:38:21Z</time>
      </trkpt>
      <trkpt lat="45.64944" lon="5.83116">
        <ele>958.09</ele>
        <time>2014-09-06T11:38:22Z</time>
      </trkpt>
      <trkpt lat="45.64931" lon="5.83123">
        <ele>954.25</ele>
        <time>2014-09-06T11:38:26Z</time>
      </trkpt>
      <trkpt lat="45.64921" lon="5.83132">
        <ele>951.36</ele>
        <time>2014-09-06T11:38:32Z</time>
      </trkpt>
      <trkpt lat="45.64912" lon="5.83141">
        <ele>948.48</ele>
        <time>2014-09-06T11:38:41Z</time>
      </trkpt>
      <trkpt lat="45.64912" lon="5.83144">
        <ele>947.04</ele>
        <time>2014-09-06T11:38:46Z</time>
      </trkpt>
      <trkpt lat="45.64919" lon="5.83152">
        <ele>944.15</ele>
        <time>2014-09-06T11:38:51Z</time>
      </trkpt>
      <trkpt lat="45.64918" lon="5.83153">
        <ele>943.19</ele>
        <time>2014-09-06T11:38:57Z</time>
      </trkpt>
      <trkpt lat="45.6492" lon="5.83155">
        <ele>942.71</ele>
        <time>2014-09-06T11:38:58Z</time>
      </trkpt>
      <trkpt lat="45.64923" lon="5.83156">
        <ele>941.75</ele>
        <time>2014-09-06T11:38:59Z</time>
      </trkpt>
      <trkpt lat="45.64925" lon="5.83156">
        <ele>941.27</ele>
        <time>2014-09-06T11:39:00Z</time>
      </trkpt>
      <trkpt lat="45.64928" lon="5.83158">
        <ele>940.31</ele>
        <time>2014-09-06T11:39:01Z</time>
      </trkpt>
      <trkpt lat="45.6493" lon="5.83161">
        <ele>939.35</ele>
        <time>2014-09-06T11:39:02Z</time>
      </trkpt>
      <trkpt lat="45.64931" lon="5.83164">
        <ele>938.38</ele>
        <time>2014-09-06T11:39:03Z</time>
      </trkpt>
      <trkpt lat="45.64932" lon="5.83167">
        <ele>937.9</ele>
        <time>2014-09-06T11:39:04Z</time>
      </trkpt>
      <trkpt lat="45.64934" lon="5.8317">
        <ele>936.94</ele>
        <time>2014-09-06T11:39:05Z</time>
      </trkpt>
      <trkpt lat="45.64937" lon="5.83173">
        <ele>936.94</ele>
        <time>2014-09-06T11:39:06Z</time>
      </trkpt>
      <trkpt lat="45.64949" lon="5.83187">
        <ele>934.06</ele>
        <time>2014-09-06T11:39:10Z</time>
      </trkpt>
      <trkpt lat="45.64953" lon="5.8319">
        <ele>933.1</ele>
        <time>2014-09-06T11:39:11Z</time>
      </trkpt>
      <trkpt lat="45.64957" lon="5.83195">
        <ele>931.65</ele>
        <time>2014-09-06T11:39:12Z</time>
      </trkpt>
      <trkpt lat="45.64961" lon="5.832">
        <ele>929.73</ele>
        <time>2014-09-06T11:39:13Z</time>
      </trkpt>
      <trkpt lat="45.64964" lon="5.83204">
        <ele>928.77</ele>
        <time>2014-09-06T11:39:14Z</time>
      </trkpt>
      <trkpt lat="45.64968" lon="5.83206">
        <ele>927.81</ele>
        <time>2014-09-06T11:39:15Z</time>
      </trkpt>
      <trkpt lat="45.64971" lon="5.83207">
        <ele>927.81</ele>
        <time>2014-09-06T11:39:16Z</time>
      </trkpt>
      <trkpt lat="45.64974" lon="5.83207">
        <ele>927.33</ele>
        <time>2014-09-06T11:39:17Z</time>
      </trkpt>
      <trkpt lat="45.64978" lon="5.83206">
        <ele>926.85</ele>
        <time>2014-09-06T11:39:18Z</time>
      </trkpt>
      <trkpt lat="45.64982" lon="5.83205">
        <ele>925.41</ele>
        <time>2014-09-06T11:39:19Z</time>
      </trkpt>
      <trkpt lat="45.64987" lon="5.83204">
        <ele>924.45</ele>
        <time>2014-09-06T11:39:20Z</time>
      </trkpt>
      <trkpt lat="45.64992" lon="5.83204">
        <ele>923.48</ele>
        <time>2014-09-06T11:39:21Z</time>
      </trkpt>
      <trkpt lat="45.64996" lon="5.83206">
        <ele>922.52</ele>
        <time>2014-09-06T11:39:22Z</time>
      </trkpt>
      <trkpt lat="45.64999" lon="5.8321">
        <ele>921.56</ele>
        <time>2014-09-06T11:39:23Z</time>
      </trkpt>
      <trkpt lat="45.65006" lon="5.8322">
        <ele>918.2</ele>
        <time>2014-09-06T11:39:26Z</time>
      </trkpt>
      <trkpt lat="45.65014" lon="5.83233">
        <ele>914.83</ele>
        <time>2014-09-06T11:39:29Z</time>
      </trkpt>
      <trkpt lat="45.65024" lon="5.83251">
        <ele>912.91</ele>
        <time>2014-09-06T11:39:33Z</time>
      </trkpt>
      <trkpt lat="45.65036" lon="5.8326">
        <ele>909.54</ele>
        <time>2014-09-06T11:39:36Z</time>
      </trkpt>
      <trkpt lat="45.65052" lon="5.83267">
        <ele>905.7</ele>
        <time>2014-09-06T11:39:40Z</time>
      </trkpt>
      <trkpt lat="45.6506" lon="5.83275">
        <ele>903.78</ele>
        <time>2014-09-06T11:39:42Z</time>
      </trkpt>
      <trkpt lat="45.65062" lon="5.8328">
        <ele>902.82</ele>
        <time>2014-09-06T11:39:43Z</time>
      </trkpt>
      <trkpt lat="45.65064" lon="5.83284">
        <ele>901.85</ele>
        <time>2014-09-06T11:39:44Z</time>
      </trkpt>
      <trkpt lat="45.65067" lon="5.83287">
        <ele>901.37</ele>
        <time>2014-09-06T11:39:45Z</time>
      </trkpt>
      <trkpt lat="45.6507" lon="5.83289">
        <ele>900.41</ele>
        <time>2014-09-06T11:39:46Z</time>
      </trkpt>
      <trkpt lat="45.65072" lon="5.8329">
        <ele>900.41</ele>
        <time>2014-09-06T11:39:47Z</time>
      </trkpt>
      <trkpt lat="45.65076" lon="5.83293">
        <ele>899.45</ele>
        <time>2014-09-06T11:39:48Z</time>
      </trkpt>
      <trkpt lat="45.65081" lon="5.83296">
        <ele>898.01</ele>
        <time>2014-09-06T11:39:49Z</time>
      </trkpt>
      <trkpt lat="45.65088" lon="5.83302">
        <ele>895.61</ele>
        <time>2014-09-06T11:39:51Z</time>
      </trkpt>
      <trkpt lat="45.6509" lon="5.83307">
        <ele>894.64</ele>
        <time>2014-09-06T11:39:52Z</time>
      </trkpt>
      <trkpt lat="45.65097" lon="5.83322">
        <ele>891.28</ele>
        <time>2014-09-06T11:39:55Z</time>
      </trkpt>
      <trkpt lat="45.651" lon="5.83329">
        <ele>890.32</ele>
        <time>2014-09-06T11:39:56Z</time>
      </trkpt>
      <trkpt lat="45.65111" lon="5.83347">
        <ele>886.95</ele>
        <time>2014-09-06T11:39:59Z</time>
      </trkpt>
      <trkpt lat="45.6512" lon="5.83359">
        <ele>884.55</ele>
        <time>2014-09-06T11:40:03Z</time>
      </trkpt>
      <trkpt lat="45.65121" lon="5.83363">
        <ele>882.63</ele>
        <time>2014-09-06T11:40:06Z</time>
      </trkpt>
      <trkpt lat="45.65115" lon="5.83366">
        <ele>881.67</ele>
        <time>2014-09-06T11:40:08Z</time>
      </trkpt>
      <trkpt lat="45.65112" lon="5.83367">
        <ele>880.22</ele>
        <time>2014-09-06T11:40:09Z</time>
      </trkpt>
      <trkpt lat="45.65109" lon="5.83369">
        <ele>879.26</ele>
        <time>2014-09-06T11:40:10Z</time>
      </trkpt>
      <trkpt lat="45.65105" lon="5.8337">
        <ele>877.82</ele>
        <time>2014-09-06T11:40:11Z</time>
      </trkpt>
      <trkpt lat="45.65102" lon="5.83371">
        <ele>876.86</ele>
        <time>2014-09-06T11:40:12Z</time>
      </trkpt>
      <trkpt lat="45.65098" lon="5.83372">
        <ele>874.94</ele>
        <time>2014-09-06T11:40:13Z</time>
      </trkpt>
      <trkpt lat="45.65095" lon="5.83375">
        <ele>874.46</ele>
        <time>2014-09-06T11:40:14Z</time>
      </trkpt>
      <trkpt lat="45.65091" lon="5.83379">
        <ele>873.01</ele>
        <time>2014-09-06T11:40:15Z</time>
      </trkpt>
      <trkpt lat="45.65088" lon="5.83383">
        <ele>872.53</ele>
        <time>2014-09-06T11:40:16Z</time>
      </trkpt>
      <trkpt lat="45.65086" lon="5.83386">
        <ele>872.05</ele>
        <time>2014-09-06T11:40:17Z</time>
      </trkpt>
      <trkpt lat="45.65079" lon="5.8338">
        <ele>871.57</ele>
        <time>2014-09-06T11:40:27Z</time>
      </trkpt>
      <trkpt lat="45.65078" lon="5.83381">
        <ele>871.57</ele>
        <time>2014-09-06T11:40:49Z</time>
      </trkpt>
      <trkpt lat="45.65066" lon="5.83397">
        <ele>867.73</ele>
        <time>2014-09-06T11:40:58Z</time>
      </trkpt>
      <trkpt lat="45.65055" lon="5.83401">
        <ele>864.36</ele>
        <time>2014-09-06T11:41:01Z</time>
      </trkpt>
      <trkpt lat="45.65051" lon="5.83402">
        <ele>863.4</ele>
        <time>2014-09-06T11:41:02Z</time>
      </trkpt>
      <trkpt lat="45.65047" lon="5.83401">
        <ele>861.96</ele>
        <time>2014-09-06T11:41:03Z</time>
      </trkpt>
      <trkpt lat="45.65043" lon="5.83401">
        <ele>861</ele>
        <time>2014-09-06T11:41:04Z</time>
      </trkpt>
      <trkpt lat="45.6504" lon="5.83403">
        <ele>860.52</ele>
        <time>2014-09-06T11:41:05Z</time>
      </trkpt>
      <trkpt lat="45.65038" lon="5.83408">
        <ele>859.56</ele>
        <time>2014-09-06T11:41:06Z</time>
      </trkpt>
      <trkpt lat="45.65036" lon="5.83412">
        <ele>858.59</ele>
        <time>2014-09-06T11:41:07Z</time>
      </trkpt>
      <trkpt lat="45.65032" lon="5.83422">
        <ele>855.71</ele>
        <time>2014-09-06T11:41:10Z</time>
      </trkpt>
      <trkpt lat="45.65029" lon="5.83426">
        <ele>854.27</ele>
        <time>2014-09-06T11:41:13Z</time>
      </trkpt>
      <trkpt lat="45.65027" lon="5.83428">
        <ele>854.27</ele>
        <time>2014-09-06T11:41:14Z</time>
      </trkpt>
      <trkpt lat="45.65014" lon="5.83436">
        <ele>851.87</ele>
        <time>2014-09-06T11:41:20Z</time>
      </trkpt>
      <trkpt lat="45.6501" lon="5.83438">
        <ele>849.94</ele>
        <time>2014-09-06T11:41:22Z</time>
      </trkpt>
      <trkpt lat="45.65008" lon="5.83438">
        <ele>848.98</ele>
        <time>2014-09-06T11:41:23Z</time>
      </trkpt>
      <trkpt lat="45.65006" lon="5.83438">
        <ele>848.98</ele>
        <time>2014-09-06T11:41:24Z</time>
      </trkpt>
      <trkpt lat="45.65003" lon="5.8344">
        <ele>848.02</ele>
        <time>2014-09-06T11:41:25Z</time>
      </trkpt>
      <trkpt lat="45.65" lon="5.83444">
        <ele>847.06</ele>
        <time>2014-09-06T11:41:26Z</time>
      </trkpt>
      <trkpt lat="45.64996" lon="5.83449">
        <ele>845.14</ele>
        <time>2014-09-06T11:41:27Z</time>
      </trkpt>
      <trkpt lat="45.64992" lon="5.83455">
        <ele>843.69</ele>
        <time>2014-09-06T11:41:28Z</time>
      </trkpt>
      <trkpt lat="45.64989" lon="5.83459">
        <ele>842.25</ele>
        <time>2014-09-06T11:41:29Z</time>
      </trkpt>
      <trkpt lat="45.64985" lon="5.83463">
        <ele>841.29</ele>
        <time>2014-09-06T11:41:30Z</time>
      </trkpt>
      <trkpt lat="45.64981" lon="5.83464">
        <ele>840.33</ele>
        <time>2014-09-06T11:41:31Z</time>
      </trkpt>
      <trkpt lat="45.64976" lon="5.83465">
        <ele>838.89</ele>
        <time>2014-09-06T11:41:32Z</time>
      </trkpt>
      <trkpt lat="45.64971" lon="5.83466">
        <ele>837.93</ele>
        <time>2014-09-06T11:41:33Z</time>
      </trkpt>
      <trkpt lat="45.64967" lon="5.83467">
        <ele>836.96</ele>
        <time>2014-09-06T11:41:34Z</time>
      </trkpt>
      <trkpt lat="45.64957" lon="5.8347">
        <ele>833.6</ele>
        <time>2014-09-06T11:41:36Z</time>
      </trkpt>
      <trkpt lat="45.64952" lon="5.83471">
        <ele>834.08</ele>
        <time>2014-09-06T11:41:37Z</time>
      </trkpt>
      <trkpt lat="45.64936" lon="5.83476">
        <ele>830.72</ele>
        <time>2014-09-06T11:41:40Z</time>
      </trkpt>
      <trkpt lat="45.64922" lon="5.8348">
        <ele>827.35</ele>
        <time>2014-09-06T11:41:44Z</time>
      </trkpt>
      <trkpt lat="45.64903" lon="5.83483">
        <ele>823.51</ele>
        <time>2014-09-06T11:41:50Z</time>
      </trkpt>
      <trkpt lat="45.64889" lon="5.83483">
        <ele>820.62</ele>
        <time>2014-09-06T11:41:59Z</time>
      </trkpt>
      <trkpt lat="45.64887" lon="5.83483">
        <ele>820.62</ele>
        <time>2014-09-06T11:42:00Z</time>
      </trkpt>
      <trkpt lat="45.64886" lon="5.83482">
        <ele>820.62</ele>
        <time>2014-09-06T11:42:01Z</time>
      </trkpt>
      <trkpt lat="45.64884" lon="5.83482">
        <ele>820.62</ele>
        <time>2014-09-06T11:42:02Z</time>
      </trkpt>
      <trkpt lat="45.64881" lon="5.83481">
        <ele>821.1</ele>
        <time>2014-09-06T11:42:03Z</time>
      </trkpt>
      <trkpt lat="45.64879" lon="5.83481">
        <ele>822.06</ele>
        <time>2014-09-06T11:42:04Z</time>
      </trkpt>
      <trkpt lat="45.64876" lon="5.83481">
        <ele>822.06</ele>
        <time>2014-09-06T11:42:05Z</time>
      </trkpt>
      <trkpt lat="45.64863" lon="5.83481">
        <ele>822.06</ele>
        <time>2014-09-06T11:42:08Z</time>
      </trkpt>
      <trkpt lat="45.64859" lon="5.83481">
        <ele>820.62</ele>
        <time>2014-09-06T11:42:09Z</time>
      </trkpt>
      <trkpt lat="45.64855" lon="5.83481">
        <ele>819.66</ele>
        <time>2014-09-06T11:42:10Z</time>
      </trkpt>
      <trkpt lat="45.64851" lon="5.83481">
        <ele>819.18</ele>
        <time>2014-09-06T11:42:11Z</time>
      </trkpt>
      <trkpt lat="45.64848" lon="5.83481">
        <ele>818.22</ele>
        <time>2014-09-06T11:42:12Z</time>
      </trkpt>
      <trkpt lat="45.64846" lon="5.83481">
        <ele>817.26</ele>
        <time>2014-09-06T11:42:13Z</time>
      </trkpt>
      <trkpt lat="45.64845" lon="5.83481">
        <ele>817.26</ele>
        <time>2014-09-06T11:42:14Z</time>
      </trkpt>
      <trkpt lat="45.64833" lon="5.83482">
        <ele>815.34</ele>
        <time>2014-09-06T11:42:27Z</time>
      </trkpt>
      <trkpt lat="45.64831" lon="5.83483">
        <ele>815.82</ele>
        <time>2014-09-06T11:42:28Z</time>
      </trkpt>
      <trkpt lat="45.64829" lon="5.83484">
        <ele>815.34</ele>
        <time>2014-09-06T11:42:29Z</time>
      </trkpt>
      <trkpt lat="45.64828" lon="5.83485">
        <ele>815.34</ele>
        <time>2014-09-06T11:42:30Z</time>
      </trkpt>
      <trkpt lat="45.64826" lon="5.83486">
        <ele>815.34</ele>
        <time>2014-09-06T11:42:31Z</time>
      </trkpt>
      <trkpt lat="45.64824" lon="5.83487">
        <ele>815.34</ele>
        <time>2014-09-06T11:42:32Z</time>
      </trkpt>
      <trkpt lat="45.64813" lon="5.83492">
        <ele>813.41</ele>
        <time>2014-09-06T11:42:35Z</time>
      </trkpt>
      <trkpt lat="45.64809" lon="5.83495">
        <ele>811.97</ele>
        <time>2014-09-06T11:42:36Z</time>
      </trkpt>
      <trkpt lat="45.64805" lon="5.83498">
        <ele>810.53</ele>
        <time>2014-09-06T11:42:37Z</time>
      </trkpt>
      <trkpt lat="45.64802" lon="5.83499">
        <ele>809.57</ele>
        <time>2014-09-06T11:42:38Z</time>
      </trkpt>
      <trkpt lat="45.64799" lon="5.83499">
        <ele>808.61</ele>
        <time>2014-09-06T11:42:39Z</time>
      </trkpt>
      <trkpt lat="45.64796" lon="5.835">
        <ele>807.64</ele>
        <time>2014-09-06T11:42:40Z</time>
      </trkpt>
      <trkpt lat="45.64793" lon="5.83499">
        <ele>806.2</ele>
        <time>2014-09-06T11:42:41Z</time>
      </trkpt>
      <trkpt lat="45.64789" lon="5.83499">
        <ele>805.24</ele>
        <time>2014-09-06T11:42:42Z</time>
      </trkpt>
      <trkpt lat="45.6478" lon="5.83498">
        <ele>802.36</ele>
        <time>2014-09-06T11:42:45Z</time>
      </trkpt>
      <trkpt lat="45.64778" lon="5.83497">
        <ele>801.88</ele>
        <time>2014-09-06T11:42:46Z</time>
      </trkpt>
      <trkpt lat="45.6477" lon="5.835">
        <ele>798.99</ele>
        <time>2014-09-06T11:42:52Z</time>
      </trkpt>
      <trkpt lat="45.64769" lon="5.83499">
        <ele>798.99</ele>
        <time>2014-09-06T11:42:53Z</time>
      </trkpt>
      <trkpt lat="45.64761" lon="5.83503">
        <ele>797.55</ele>
        <time>2014-09-06T11:42:59Z</time>
      </trkpt>
      <trkpt lat="45.64765" lon="5.83516">
        <ele>794.19</ele>
        <time>2014-09-06T11:43:04Z</time>
      </trkpt>
      <trkpt lat="45.64768" lon="5.83524">
        <ele>791.78</ele>
        <time>2014-09-06T11:43:07Z</time>
      </trkpt>
      <trkpt lat="45.64766" lon="5.83525">
        <ele>791.3</ele>
        <time>2014-09-06T11:43:08Z</time>
      </trkpt>
      <trkpt lat="45.64764" lon="5.83525">
        <ele>791.3</ele>
        <time>2014-09-06T11:43:09Z</time>
      </trkpt>
      <trkpt lat="45.64758" lon="5.83531">
        <ele>790.34</ele>
        <time>2014-09-06T11:43:19Z</time>
      </trkpt>
      <trkpt lat="45.6475" lon="5.83528">
        <ele>790.34</ele>
        <time>2014-09-06T11:43:32Z</time>
      </trkpt>
      <trkpt lat="45.64728" lon="5.83522">
        <ele>789.38</ele>
        <time>2014-09-06T11:43:37Z</time>
      </trkpt>
      <trkpt lat="45.64723" lon="5.83522">
        <ele>789.38</ele>
        <time>2014-09-06T11:43:38Z</time>
      </trkpt>
      <trkpt lat="45.64717" lon="5.83524">
        <ele>788.42</ele>
        <time>2014-09-06T11:43:39Z</time>
      </trkpt>
      <trkpt lat="45.64711" lon="5.83528">
        <ele>788.42</ele>
        <time>2014-09-06T11:43:40Z</time>
      </trkpt>
      <trkpt lat="45.64705" lon="5.83533">
        <ele>787.94</ele>
        <time>2014-09-06T11:43:41Z</time>
      </trkpt>
      <trkpt lat="45.64691" lon="5.83536">
        <ele>786.02</ele>
        <time>2014-09-06T11:43:44Z</time>
      </trkpt>
      <trkpt lat="45.64671" lon="5.8354">
        <ele>782.65</ele>
        <time>2014-09-06T11:43:49Z</time>
      </trkpt>
      <trkpt lat="45.64656" lon="5.83544">
        <ele>778.81</ele>
        <time>2014-09-06T11:43:52Z</time>
      </trkpt>
      <trkpt lat="45.64651" lon="5.83544">
        <ele>778.32</ele>
        <time>2014-09-06T11:43:53Z</time>
      </trkpt>
      <trkpt lat="45.64646" lon="5.83544">
        <ele>778.32</ele>
        <time>2014-09-06T11:43:54Z</time>
      </trkpt>
      <trkpt lat="45.64623" lon="5.83547">
        <ele>776.88</ele>
        <time>2014-09-06T11:44:00Z</time>
      </trkpt>
      <trkpt lat="45.64619" lon="5.83551">
        <ele>775.92</ele>
        <time>2014-09-06T11:44:01Z</time>
      </trkpt>
      <trkpt lat="45.64607" lon="5.83559">
        <ele>772.56</ele>
        <time>2014-09-06T11:44:04Z</time>
      </trkpt>
      <trkpt lat="45.64599" lon="5.83563">
        <ele>770.63</ele>
        <time>2014-09-06T11:44:06Z</time>
      </trkpt>
      <trkpt lat="45.6459" lon="5.83568">
        <ele>768.23</ele>
        <time>2014-09-06T11:44:08Z</time>
      </trkpt>
      <trkpt lat="45.64586" lon="5.83569">
        <ele>767.27</ele>
        <time>2014-09-06T11:44:09Z</time>
      </trkpt>
      <trkpt lat="45.64582" lon="5.83571">
        <ele>766.31</ele>
        <time>2014-09-06T11:44:10Z</time>
      </trkpt>
      <trkpt lat="45.64566" lon="5.83572">
        <ele>762.46</ele>
        <time>2014-09-06T11:44:15Z</time>
      </trkpt>
      <trkpt lat="45.64558" lon="5.83571">
        <ele>761.02</ele>
        <time>2014-09-06T11:44:20Z</time>
      </trkpt>
      <trkpt lat="45.64562" lon="5.83578">
        <ele>759.1</ele>
        <time>2014-09-06T11:44:24Z</time>
      </trkpt>
      <trkpt lat="45.64565" lon="5.83582">
        <ele>758.14</ele>
        <time>2014-09-06T11:44:25Z</time>
      </trkpt>
      <trkpt lat="45.64574" lon="5.8359">
        <ele>754.77</ele>
        <time>2014-09-06T11:44:28Z</time>
      </trkpt>
      <trkpt lat="45.64581" lon="5.83596">
        <ele>752.85</ele>
        <time>2014-09-06T11:44:30Z</time>
      </trkpt>
      <trkpt lat="45.6459" lon="5.83606">
        <ele>749.49</ele>
        <time>2014-09-06T11:44:33Z</time>
      </trkpt>
      <trkpt lat="45.64596" lon="5.8361">
        <ele>749</ele>
        <time>2014-09-06T11:44:35Z</time>
      </trkpt>
      <trkpt lat="45.64606" lon="5.83617">
        <ele>746.12</ele>
        <time>2014-09-06T11:44:38Z</time>
      </trkpt>
      <trkpt lat="45.64609" lon="5.83621">
        <ele>744.68</ele>
        <time>2014-09-06T11:44:39Z</time>
      </trkpt>
      <trkpt lat="45.64613" lon="5.83624">
        <ele>744.2</ele>
        <time>2014-09-06T11:44:40Z</time>
      </trkpt>
      <trkpt lat="45.64623" lon="5.83633">
        <ele>740.83</ele>
        <time>2014-09-06T11:44:43Z</time>
      </trkpt>
      <trkpt lat="45.64626" lon="5.83636">
        <ele>739.87</ele>
        <time>2014-09-06T11:44:44Z</time>
      </trkpt>
      <trkpt lat="45.64629" lon="5.83641">
        <ele>739.39</ele>
        <time>2014-09-06T11:44:45Z</time>
      </trkpt>
      <trkpt lat="45.64631" lon="5.83646">
        <ele>738.91</ele>
        <time>2014-09-06T11:44:46Z</time>
      </trkpt>
      <trkpt lat="45.64634" lon="5.8365">
        <ele>737.95</ele>
        <time>2014-09-06T11:44:47Z</time>
      </trkpt>
      <trkpt lat="45.64637" lon="5.83654">
        <ele>736.99</ele>
        <time>2014-09-06T11:44:48Z</time>
      </trkpt>
      <trkpt lat="45.64641" lon="5.83655">
        <ele>736.03</ele>
        <time>2014-09-06T11:44:49Z</time>
      </trkpt>
      <trkpt lat="45.64644" lon="5.83656">
        <ele>736.03</ele>
        <time>2014-09-06T11:44:50Z</time>
      </trkpt>
      <trkpt lat="45.64652" lon="5.83658">
        <ele>734.1</ele>
        <time>2014-09-06T11:44:53Z</time>
      </trkpt>
      <trkpt lat="45.64654" lon="5.8366">
        <ele>733.62</ele>
        <time>2014-09-06T11:44:54Z</time>
      </trkpt>
      <trkpt lat="45.64656" lon="5.83662">
        <ele>732.66</ele>
        <time>2014-09-06T11:44:55Z</time>
      </trkpt>
      <trkpt lat="45.64657" lon="5.83664">
        <ele>732.66</ele>
        <time>2014-09-06T11:44:56Z</time>
      </trkpt>
      <trkpt lat="45.64659" lon="5.83665">
        <ele>732.18</ele>
        <time>2014-09-06T11:44:57Z</time>
      </trkpt>
      <trkpt lat="45.64661" lon="5.83666">
        <ele>732.66</ele>
        <time>2014-09-06T11:44:58Z</time>
      </trkpt>
      <trkpt lat="45.64664" lon="5.83668">
        <ele>731.7</ele>
        <time>2014-09-06T11:44:59Z</time>
      </trkpt>
      <trkpt lat="45.64667" lon="5.83671">
        <ele>731.22</ele>
        <time>2014-09-06T11:45:00Z</time>
      </trkpt>
      <trkpt lat="45.6467" lon="5.83674">
        <ele>730.26</ele>
        <time>2014-09-06T11:45:01Z</time>
      </trkpt>
      <trkpt lat="45.64673" lon="5.83678">
        <ele>729.3</ele>
        <time>2014-09-06T11:45:02Z</time>
      </trkpt>
      <trkpt lat="45.64675" lon="5.83681">
        <ele>727.86</ele>
        <time>2014-09-06T11:45:03Z</time>
      </trkpt>
      <trkpt lat="45.64677" lon="5.83684">
        <ele>727.37</ele>
        <time>2014-09-06T11:45:04Z</time>
      </trkpt>
      <trkpt lat="45.64679" lon="5.83686">
        <ele>726.89</ele>
        <time>2014-09-06T11:45:05Z</time>
      </trkpt>
      <trkpt lat="45.64682" lon="5.83688">
        <ele>726.41</ele>
        <time>2014-09-06T11:45:06Z</time>
      </trkpt>
      <trkpt lat="45.64684" lon="5.83691">
        <ele>726.41</ele>
        <time>2014-09-06T11:45:07Z</time>
      </trkpt>
      <trkpt lat="45.64687" lon="5.83694">
        <ele>724.97</ele>
        <time>2014-09-06T11:45:08Z</time>
      </trkpt>
      <trkpt lat="45.6469" lon="5.83698">
        <ele>724.01</ele>
        <time>2014-09-06T11:45:09Z</time>
      </trkpt>
      <trkpt lat="45.64699" lon="5.83709">
        <ele>720.65</ele>
        <time>2014-09-06T11:45:12Z</time>
      </trkpt>
      <trkpt lat="45.64712" lon="5.83717">
        <ele>717.76</ele>
        <time>2014-09-06T11:45:17Z</time>
      </trkpt>
      <trkpt lat="45.64713" lon="5.83718">
        <ele>717.28</ele>
        <time>2014-09-06T11:45:18Z</time>
      </trkpt>
      <trkpt lat="45.64714" lon="5.8372">
        <ele>717.28</ele>
        <time>2014-09-06T11:45:19Z</time>
      </trkpt>
      <trkpt lat="45.64714" lon="5.83723">
        <ele>715.36</ele>
        <time>2014-09-06T11:45:24Z</time>
      </trkpt>
      <trkpt lat="45.64713" lon="5.83724">
        <ele>715.36</ele>
        <time>2014-09-06T11:45:25Z</time>
      </trkpt>
      <trkpt lat="45.64712" lon="5.83725">
        <ele>714.88</ele>
        <time>2014-09-06T11:45:26Z</time>
      </trkpt>
      <trkpt lat="45.64706" lon="5.83732">
        <ele>711.03</ele>
        <time>2014-09-06T11:45:31Z</time>
      </trkpt>
      <trkpt lat="45.64704" lon="5.83734">
        <ele>710.55</ele>
        <time>2014-09-06T11:45:32Z</time>
      </trkpt>
      <trkpt lat="45.64702" lon="5.83735">
        <ele>709.59</ele>
        <time>2014-09-06T11:45:33Z</time>
      </trkpt>
      <trkpt lat="45.647" lon="5.83734">
        <ele>709.59</ele>
        <time>2014-09-06T11:45:34Z</time>
      </trkpt>
      <trkpt lat="45.64697" lon="5.83735">
        <ele>709.11</ele>
        <time>2014-09-06T11:45:35Z</time>
      </trkpt>
      <trkpt lat="45.64695" lon="5.83735">
        <ele>709.11</ele>
        <time>2014-09-06T11:45:36Z</time>
      </trkpt>
      <trkpt lat="45.64691" lon="5.83737">
        <ele>708.15</ele>
        <time>2014-09-06T11:45:38Z</time>
      </trkpt>
      <trkpt lat="45.64689" lon="5.83737">
        <ele>707.19</ele>
        <time>2014-09-06T11:45:39Z</time>
      </trkpt>
      <trkpt lat="45.64685" lon="5.83737">
        <ele>706.23</ele>
        <time>2014-09-06T11:45:41Z</time>
      </trkpt>
      <trkpt lat="45.64665" lon="5.83746">
        <ele>702.38</ele>
        <time>2014-09-06T11:45:48Z</time>
      </trkpt>
      <trkpt lat="45.64653" lon="5.83748">
        <ele>698.53</ele>
        <time>2014-09-06T11:45:52Z</time>
      </trkpt>
      <trkpt lat="45.64641" lon="5.8375">
        <ele>695.17</ele>
        <time>2014-09-06T11:45:56Z</time>
      </trkpt>
      <trkpt lat="45.64631" lon="5.83756">
        <ele>691.81</ele>
        <time>2014-09-06T11:45:59Z</time>
      </trkpt>
      <trkpt lat="45.64623" lon="5.83768">
        <ele>689.4</ele>
        <time>2014-09-06T11:46:02Z</time>
      </trkpt>
      <trkpt lat="45.64609" lon="5.83777">
        <ele>685.56</ele>
        <time>2014-09-06T11:46:07Z</time>
      </trkpt>
      <trkpt lat="45.64595" lon="5.83785">
        <ele>682.67</ele>
        <time>2014-09-06T11:46:11Z</time>
      </trkpt>
      <trkpt lat="45.64585" lon="5.83791">
        <ele>679.31</ele>
        <time>2014-09-06T11:46:14Z</time>
      </trkpt>
      <trkpt lat="45.64579" lon="5.83795">
        <ele>677.87</ele>
        <time>2014-09-06T11:46:16Z</time>
      </trkpt>
      <trkpt lat="45.64578" lon="5.83797">
        <ele>676.91</ele>
        <time>2014-09-06T11:46:17Z</time>
      </trkpt>
      <trkpt lat="45.64576" lon="5.83798">
        <ele>676.91</ele>
        <time>2014-09-06T11:46:18Z</time>
      </trkpt>
      <trkpt lat="45.64567" lon="5.83797">
        <ele>675.46</ele>
        <time>2014-09-06T11:46:31Z</time>
      </trkpt>
      <trkpt lat="45.64557" lon="5.83799">
        <ele>675.94</ele>
        <time>2014-09-06T11:46:48Z</time>
      </trkpt>
      <trkpt lat="45.64549" lon="5.83795">
        <ele>675.94</ele>
        <time>2014-09-06T11:47:04Z</time>
      </trkpt>
      <trkpt lat="45.64548" lon="5.83797">
        <ele>675.94</ele>
        <time>2014-09-06T11:47:13Z</time>
      </trkpt>
      <trkpt lat="45.64544" lon="5.83817">
        <ele>672.58</ele>
        <time>2014-09-06T11:47:21Z</time>
      </trkpt>
      <trkpt lat="45.64544" lon="5.83818">
        <ele>672.1</ele>
        <time>2014-09-06T11:47:22Z</time>
      </trkpt>
      <trkpt lat="45.64542" lon="5.83821">
        <ele>671.62</ele>
        <time>2014-09-06T11:47:23Z</time>
      </trkpt>
      <trkpt lat="45.6454" lon="5.83823">
        <ele>671.14</ele>
        <time>2014-09-06T11:47:24Z</time>
      </trkpt>
      <trkpt lat="45.64537" lon="5.83825">
        <ele>670.66</ele>
        <time>2014-09-06T11:47:25Z</time>
      </trkpt>
      <trkpt lat="45.64534" lon="5.83828">
        <ele>669.7</ele>
        <time>2014-09-06T11:47:26Z</time>
      </trkpt>
      <trkpt lat="45.6453" lon="5.8383">
        <ele>668.73</ele>
        <time>2014-09-06T11:47:27Z</time>
      </trkpt>
      <trkpt lat="45.64526" lon="5.83831">
        <ele>666.81</ele>
        <time>2014-09-06T11:47:28Z</time>
      </trkpt>
      <trkpt lat="45.64522" lon="5.83832">
        <ele>665.85</ele>
        <time>2014-09-06T11:47:29Z</time>
      </trkpt>
      <trkpt lat="45.64518" lon="5.83834">
        <ele>664.89</ele>
        <time>2014-09-06T11:47:30Z</time>
      </trkpt>
      <trkpt lat="45.64516" lon="5.83837">
        <ele>664.41</ele>
        <time>2014-09-06T11:47:31Z</time>
      </trkpt>
      <trkpt lat="45.64513" lon="5.8384">
        <ele>663.45</ele>
        <time>2014-09-06T11:47:32Z</time>
      </trkpt>
      <trkpt lat="45.64511" lon="5.83843">
        <ele>662.01</ele>
        <time>2014-09-06T11:47:33Z</time>
      </trkpt>
      <trkpt lat="45.64508" lon="5.83846">
        <ele>661.04</ele>
        <time>2014-09-06T11:47:34Z</time>
      </trkpt>
      <trkpt lat="45.64503" lon="5.83849">
        <ele>660.08</ele>
        <time>2014-09-06T11:47:35Z</time>
      </trkpt>
      <trkpt lat="45.64493" lon="5.83854">
        <ele>657.68</ele>
        <time>2014-09-06T11:47:37Z</time>
      </trkpt>
      <trkpt lat="45.64476" lon="5.83866">
        <ele>655.28</ele>
        <time>2014-09-06T11:47:41Z</time>
      </trkpt>
      <trkpt lat="45.64464" lon="5.83877">
        <ele>651.91</ele>
        <time>2014-09-06T11:47:44Z</time>
      </trkpt>
      <trkpt lat="45.64454" lon="5.83883">
        <ele>650.95</ele>
        <time>2014-09-06T11:47:46Z</time>
      </trkpt>
      <trkpt lat="45.64444" lon="5.83889">
        <ele>647.59</ele>
        <time>2014-09-06T11:47:48Z</time>
      </trkpt>
      <trkpt lat="45.64439" lon="5.83892">
        <ele>646.14</ele>
        <time>2014-09-06T11:47:49Z</time>
      </trkpt>
      <trkpt lat="45.64434" lon="5.83893">
        <ele>645.18</ele>
        <time>2014-09-06T11:47:50Z</time>
      </trkpt>
      <trkpt lat="45.64429" lon="5.83895">
        <ele>644.22</ele>
        <time>2014-09-06T11:47:51Z</time>
      </trkpt>
      <trkpt lat="45.64423" lon="5.83898">
        <ele>643.26</ele>
        <time>2014-09-06T11:47:52Z</time>
      </trkpt>
      <trkpt lat="45.64408" lon="5.83904">
        <ele>639.41</ele>
        <time>2014-09-06T11:47:55Z</time>
      </trkpt>
      <trkpt lat="45.64397" lon="5.83907">
        <ele>637.49</ele>
        <time>2014-09-06T11:47:59Z</time>
      </trkpt>
      <trkpt lat="45.64389" lon="5.83911">
        <ele>634.61</ele>
        <time>2014-09-06T11:48:04Z</time>
      </trkpt>
      <trkpt lat="45.64389" lon="5.83913">
        <ele>634.13</ele>
        <time>2014-09-06T11:48:06Z</time>
      </trkpt>
      <trkpt lat="45.64389" lon="5.83914">
        <ele>634.13</ele>
        <time>2014-09-06T11:48:07Z</time>
      </trkpt>
      <trkpt lat="45.64389" lon="5.83916">
        <ele>634.13</ele>
        <time>2014-09-06T11:48:08Z</time>
      </trkpt>
      <trkpt lat="45.64397" lon="5.83929">
        <ele>630.76</ele>
        <time>2014-09-06T11:48:12Z</time>
      </trkpt>
      <trkpt lat="45.644" lon="5.83932">
        <ele>629.8</ele>
        <time>2014-09-06T11:48:13Z</time>
      </trkpt>
      <trkpt lat="45.64403" lon="5.83936">
        <ele>628.36</ele>
        <time>2014-09-06T11:48:14Z</time>
      </trkpt>
      <trkpt lat="45.64406" lon="5.83939">
        <ele>627.4</ele>
        <time>2014-09-06T11:48:15Z</time>
      </trkpt>
      <trkpt lat="45.64409" lon="5.83942">
        <ele>625.96</ele>
        <time>2014-09-06T11:48:16Z</time>
      </trkpt>
      <trkpt lat="45.64412" lon="5.83945">
        <ele>624.99</ele>
        <time>2014-09-06T11:48:17Z</time>
      </trkpt>
      <trkpt lat="45.64414" lon="5.83948">
        <ele>624.03</ele>
        <time>2014-09-06T11:48:18Z</time>
      </trkpt>
      <trkpt lat="45.64422" lon="5.83957">
        <ele>620.19</ele>
        <time>2014-09-06T11:48:22Z</time>
      </trkpt>
      <trkpt lat="45.64428" lon="5.83966">
        <ele>616.34</ele>
        <time>2014-09-06T11:48:26Z</time>
      </trkpt>
      <trkpt lat="45.64427" lon="5.83968">
        <ele>615.86</ele>
        <time>2014-09-06T11:48:28Z</time>
      </trkpt>
      <trkpt lat="45.64421" lon="5.83972">
        <ele>613.94</ele>
        <time>2014-09-06T11:48:31Z</time>
      </trkpt>
      <trkpt lat="45.64417" lon="5.83975">
        <ele>612.5</ele>
        <time>2014-09-06T11:48:32Z</time>
      </trkpt>
      <trkpt lat="45.64414" lon="5.83979">
        <ele>611.54</ele>
        <time>2014-09-06T11:48:33Z</time>
      </trkpt>
      <trkpt lat="45.64411" lon="5.83983">
        <ele>610.09</ele>
        <time>2014-09-06T11:48:34Z</time>
      </trkpt>
      <trkpt lat="45.64408" lon="5.83986">
        <ele>608.65</ele>
        <time>2014-09-06T11:48:35Z</time>
      </trkpt>
      <trkpt lat="45.64406" lon="5.83988">
        <ele>607.69</ele>
        <time>2014-09-06T11:48:36Z</time>
      </trkpt>
      <trkpt lat="45.64402" lon="5.83992">
        <ele>606.25</ele>
        <time>2014-09-06T11:48:45Z</time>
      </trkpt>
      <trkpt lat="45.64399" lon="5.83997">
        <ele>604.81</ele>
        <time>2014-09-06T11:48:58Z</time>
      </trkpt>
      <trkpt lat="45.64402" lon="5.8401">
        <ele>601.92</ele>
        <time>2014-09-06T11:49:04Z</time>
      </trkpt>
      <trkpt lat="45.64404" lon="5.84016">
        <ele>600</ele>
        <time>2014-09-06T11:49:06Z</time>
      </trkpt>
      <trkpt lat="45.64407" lon="5.84025">
        <ele>597.6</ele>
        <time>2014-09-06T11:49:09Z</time>
      </trkpt>
      <trkpt lat="45.64409" lon="5.84031">
        <ele>596.64</ele>
        <time>2014-09-06T11:49:11Z</time>
      </trkpt>
      <trkpt lat="45.64411" lon="5.84036">
        <ele>595.67</ele>
        <time>2014-09-06T11:49:13Z</time>
      </trkpt>
      <trkpt lat="45.64415" lon="5.84056">
        <ele>591.35</ele>
        <time>2014-09-06T11:49:22Z</time>
      </trkpt>
      <trkpt lat="45.64418" lon="5.84066">
        <ele>589.91</ele>
        <time>2014-09-06T11:49:25Z</time>
      </trkpt>
      <trkpt lat="45.64423" lon="5.84075">
        <ele>587.02</ele>
        <time>2014-09-06T11:49:29Z</time>
      </trkpt>
      <trkpt lat="45.64427" lon="5.84084">
        <ele>585.58</ele>
        <time>2014-09-06T11:49:32Z</time>
      </trkpt>
      <trkpt lat="45.64432" lon="5.84092">
        <ele>583.18</ele>
        <time>2014-09-06T11:49:35Z</time>
      </trkpt>
      <trkpt lat="45.64435" lon="5.84096">
        <ele>581.73</ele>
        <time>2014-09-06T11:49:45Z</time>
      </trkpt>
      <trkpt lat="45.64436" lon="5.84097">
        <ele>581.73</ele>
        <time>2014-09-06T11:49:49Z</time>
      </trkpt>
      <trkpt lat="45.64438" lon="5.84099">
        <ele>581.73</ele>
        <time>2014-09-06T11:49:50Z</time>
      </trkpt>
      <trkpt lat="45.64449" lon="5.8411">
        <ele>578.37</ele>
        <time>2014-09-06T11:49:55Z</time>
      </trkpt>
      <trkpt lat="45.64458" lon="5.84118">
        <ele>575.01</ele>
        <time>2014-09-06T11:49:59Z</time>
      </trkpt>
      <trkpt lat="45.6446" lon="5.84121">
        <ele>575.01</ele>
        <time>2014-09-06T11:50:00Z</time>
      </trkpt>
      <trkpt lat="45.64472" lon="5.84135">
        <ele>571.64</ele>
        <time>2014-09-06T11:50:04Z</time>
      </trkpt>
      <trkpt lat="45.64478" lon="5.84143">
        <ele>569.24</ele>
        <time>2014-09-06T11:50:06Z</time>
      </trkpt>
      <trkpt lat="45.64487" lon="5.84152">
        <ele>567.32</ele>
        <time>2014-09-06T11:50:10Z</time>
      </trkpt>
      <trkpt lat="45.64489" lon="5.84148">
        <ele>566.83</ele>
        <time>2014-09-06T11:50:28Z</time>
      </trkpt>
      <trkpt lat="45.64495" lon="5.84149">
        <ele>566.35</ele>
        <time>2014-09-06T11:50:47Z</time>
      </trkpt>
      <trkpt lat="45.64495" lon="5.84145">
        <ele>566.35</ele>
        <time>2014-09-06T11:51:09Z</time>
      </trkpt>
      <trkpt lat="45.64494" lon="5.84146">
        <ele>566.35</ele>
        <time>2014-09-06T11:51:28Z</time>
      </trkpt>
      <trkpt lat="45.64494" lon="5.84147">
        <ele>566.35</ele>
        <time>2014-09-06T11:51:29Z</time>
      </trkpt>
      <trkpt lat="45.64493" lon="5.84148">
        <ele>566.35</ele>
        <time>2014-09-06T11:51:30Z</time>
      </trkpt>
      <trkpt lat="45.64484" lon="5.84173">
        <ele>562.99</ele>
        <time>2014-09-06T11:51:40Z</time>
      </trkpt>
      <trkpt lat="45.64482" lon="5.84193">
        <ele>560.11</ele>
        <time>2014-09-06T11:51:46Z</time>
      </trkpt>
      <trkpt lat="45.64484" lon="5.84211">
        <ele>556.74</ele>
        <time>2014-09-06T11:51:50Z</time>
      </trkpt>
      <trkpt lat="45.64484" lon="5.8423">
        <ele>553.38</ele>
        <time>2014-09-06T11:51:54Z</time>
      </trkpt>
      <trkpt lat="45.64488" lon="5.84244">
        <ele>550.01</ele>
        <time>2014-09-06T11:51:57Z</time>
      </trkpt>
      <trkpt lat="45.64492" lon="5.84262">
        <ele>545.69</ele>
        <time>2014-09-06T11:52:01Z</time>
      </trkpt>
      <trkpt lat="45.64491" lon="5.84267">
        <ele>544.72</ele>
        <time>2014-09-06T11:52:02Z</time>
      </trkpt>
      <trkpt lat="45.64484" lon="5.84294">
        <ele>540.4</ele>
        <time>2014-09-06T11:52:06Z</time>
      </trkpt>
      <trkpt lat="45.64478" lon="5.84316">
        <ele>537.51</ele>
        <time>2014-09-06T11:52:10Z</time>
      </trkpt>
      <trkpt lat="45.64478" lon="5.84328">
        <ele>536.55</ele>
        <time>2014-09-06T11:52:12Z</time>
      </trkpt>
      <trkpt lat="45.6448" lon="5.84332">
        <ele>535.59</ele>
        <time>2014-09-06T11:52:13Z</time>
      </trkpt>
      <trkpt lat="45.64483" lon="5.84334">
        <ele>535.59</ele>
        <time>2014-09-06T11:52:14Z</time>
      </trkpt>
      <trkpt lat="45.64488" lon="5.84336">
        <ele>535.11</ele>
        <time>2014-09-06T11:52:15Z</time>
      </trkpt>
      <trkpt lat="45.64493" lon="5.84336">
        <ele>534.15</ele>
        <time>2014-09-06T11:52:16Z</time>
      </trkpt>
      <trkpt lat="45.64499" lon="5.84336">
        <ele>533.67</ele>
        <time>2014-09-06T11:52:17Z</time>
      </trkpt>
      <trkpt lat="45.64512" lon="5.84337">
        <ele>532.71</ele>
        <time>2014-09-06T11:52:19Z</time>
      </trkpt>
      <trkpt lat="45.64536" lon="5.8434">
        <ele>528.86</ele>
        <time>2014-09-06T11:52:23Z</time>
      </trkpt>
      <trkpt lat="45.64566" lon="5.84351">
        <ele>524.54</ele>
        <time>2014-09-06T11:52:28Z</time>
      </trkpt>
      <trkpt lat="45.64573" lon="5.84353">
        <ele>523.58</ele>
        <time>2014-09-06T11:52:29Z</time>
      </trkpt>
      <trkpt lat="45.64588" lon="5.84355">
        <ele>521.65</ele>
        <time>2014-09-06T11:52:31Z</time>
      </trkpt>
      <trkpt lat="45.64602" lon="5.84356">
        <ele>518.77</ele>
        <time>2014-09-06T11:52:33Z</time>
      </trkpt>
      <trkpt lat="45.64606" lon="5.84356">
        <ele>517.81</ele>
        <time>2014-09-06T11:52:35Z</time>
      </trkpt>
      <trkpt lat="45.64607" lon="5.84358">
        <ele>516.85</ele>
        <time>2014-09-06T11:52:38Z</time>
      </trkpt>
      <trkpt lat="45.64606" lon="5.8436">
        <ele>516.85</ele>
        <time>2014-09-06T11:52:39Z</time>
      </trkpt>
      <trkpt lat="45.64606" lon="5.84362">
        <ele>516.85</ele>
        <time>2014-09-06T11:52:40Z</time>
      </trkpt>
      <trkpt lat="45.64607" lon="5.84366">
        <ele>515.88</ele>
        <time>2014-09-06T11:52:41Z</time>
      </trkpt>
      <trkpt lat="45.64608" lon="5.84372">
        <ele>515.4</ele>
        <time>2014-09-06T11:52:42Z</time>
      </trkpt>
      <trkpt lat="45.64607" lon="5.84378">
        <ele>515.4</ele>
        <time>2014-09-06T11:52:43Z</time>
      </trkpt>
      <trkpt lat="45.64604" lon="5.84384">
        <ele>514.92</ele>
        <time>2014-09-06T11:52:44Z</time>
      </trkpt>
      <trkpt lat="45.646" lon="5.84389">
        <ele>514.92</ele>
        <time>2014-09-06T11:52:45Z</time>
      </trkpt>
      <trkpt lat="45.64596" lon="5.84395">
        <ele>513.96</ele>
        <time>2014-09-06T11:52:46Z</time>
      </trkpt>
      <trkpt lat="45.6458" lon="5.84424">
        <ele>511.08</ele>
        <time>2014-09-06T11:52:50Z</time>
      </trkpt>
      <trkpt lat="45.64567" lon="5.84445">
        <ele>507.71</ele>
        <time>2014-09-06T11:52:55Z</time>
      </trkpt>
      <trkpt lat="45.64559" lon="5.84452">
        <ele>506.75</ele>
        <time>2014-09-06T11:53:01Z</time>
      </trkpt>
      <trkpt lat="45.6456" lon="5.84455">
        <ele>506.75</ele>
        <time>2014-09-06T11:53:04Z</time>
      </trkpt>
      <trkpt lat="45.64561" lon="5.84456">
        <ele>506.75</ele>
        <time>2014-09-06T11:53:05Z</time>
      </trkpt>
      <trkpt lat="45.64562" lon="5.84459">
        <ele>506.27</ele>
        <time>2014-09-06T11:53:06Z</time>
      </trkpt>
      <trkpt lat="45.64565" lon="5.84463">
        <ele>505.31</ele>
        <time>2014-09-06T11:53:07Z</time>
      </trkpt>
      <trkpt lat="45.64567" lon="5.84466">
        <ele>504.35</ele>
        <time>2014-09-06T11:53:08Z</time>
      </trkpt>
      <trkpt lat="45.64571" lon="5.84469">
        <ele>503.87</ele>
        <time>2014-09-06T11:53:09Z</time>
      </trkpt>
      <trkpt lat="45.64574" lon="5.84471">
        <ele>502.91</ele>
        <time>2014-09-06T11:53:10Z</time>
      </trkpt>
      <trkpt lat="45.64579" lon="5.84473">
        <ele>501.95</ele>
        <time>2014-09-06T11:53:11Z</time>
      </trkpt>
      <trkpt lat="45.64587" lon="5.84475">
        <ele>500.5</ele>
        <time>2014-09-06T11:53:13Z</time>
      </trkpt>
      <trkpt lat="45.64592" lon="5.84478">
        <ele>500.02</ele>
        <time>2014-09-06T11:53:14Z</time>
      </trkpt>
      <trkpt lat="45.64597" lon="5.8448">
        <ele>498.58</ele>
        <time>2014-09-06T11:53:15Z</time>
      </trkpt>
      <trkpt lat="45.64601" lon="5.84484">
        <ele>497.62</ele>
        <time>2014-09-06T11:53:16Z</time>
      </trkpt>
      <trkpt lat="45.64605" lon="5.84489">
        <ele>496.66</ele>
        <time>2014-09-06T11:53:17Z</time>
      </trkpt>
      <trkpt lat="45.6461" lon="5.84492">
        <ele>495.22</ele>
        <time>2014-09-06T11:53:18Z</time>
      </trkpt>
      <trkpt lat="45.64614" lon="5.84493">
        <ele>493.77</ele>
        <time>2014-09-06T11:53:19Z</time>
      </trkpt>
      <trkpt lat="45.64625" lon="5.84499">
        <ele>490.89</ele>
        <time>2014-09-06T11:53:22Z</time>
      </trkpt>
      <trkpt lat="45.64629" lon="5.84501">
        <ele>489.93</ele>
        <time>2014-09-06T11:53:23Z</time>
      </trkpt>
      <trkpt lat="45.64634" lon="5.84502">
        <ele>488.97</ele>
        <time>2014-09-06T11:53:24Z</time>
      </trkpt>
      <trkpt lat="45.64638" lon="5.84504">
        <ele>487.53</ele>
        <time>2014-09-06T11:53:25Z</time>
      </trkpt>
      <trkpt lat="45.64643" lon="5.84505">
        <ele>486.56</ele>
        <time>2014-09-06T11:53:26Z</time>
      </trkpt>
      <trkpt lat="45.64648" lon="5.84507">
        <ele>486.56</ele>
        <time>2014-09-06T11:53:27Z</time>
      </trkpt>
      <trkpt lat="45.64653" lon="5.84508">
        <ele>485.6</ele>
        <time>2014-09-06T11:53:28Z</time>
      </trkpt>
      <trkpt lat="45.64658" lon="5.8451">
        <ele>485.12</ele>
        <time>2014-09-06T11:53:29Z</time>
      </trkpt>
      <trkpt lat="45.64663" lon="5.84512">
        <ele>484.16</ele>
        <time>2014-09-06T11:53:30Z</time>
      </trkpt>
      <trkpt lat="45.64669" lon="5.84515">
        <ele>483.68</ele>
        <time>2014-09-06T11:53:31Z</time>
      </trkpt>
      <trkpt lat="45.64674" lon="5.84519">
        <ele>482.72</ele>
        <time>2014-09-06T11:53:32Z</time>
      </trkpt>
      <trkpt lat="45.64683" lon="5.84525">
        <ele>480.8</ele>
        <time>2014-09-06T11:53:38Z</time>
      </trkpt>
      <trkpt lat="45.64689" lon="5.84529">
        <ele>479.35</ele>
        <time>2014-09-06T11:53:49Z</time>
      </trkpt>
      <trkpt lat="45.6469" lon="5.8453">
        <ele>478.39</ele>
        <time>2014-09-06T11:53:50Z</time>
      </trkpt>
      <trkpt lat="45.64693" lon="5.84532">
        <ele>477.91</ele>
        <time>2014-09-06T11:53:52Z</time>
      </trkpt>
      <trkpt lat="45.64701" lon="5.84536">
        <ele>475.03</ele>
        <time>2014-09-06T11:53:57Z</time>
      </trkpt>
      <trkpt lat="45.64703" lon="5.84539">
        <ele>474.07</ele>
        <time>2014-09-06T11:53:58Z</time>
      </trkpt>
      <trkpt lat="45.64704" lon="5.84542">
        <ele>473.59</ele>
        <time>2014-09-06T11:53:59Z</time>
      </trkpt>
      <trkpt lat="45.64705" lon="5.84545">
        <ele>472.63</ele>
        <time>2014-09-06T11:54:00Z</time>
      </trkpt>
      <trkpt lat="45.64705" lon="5.8455">
        <ele>471.66</ele>
        <time>2014-09-06T11:54:01Z</time>
      </trkpt>
      <trkpt lat="45.64705" lon="5.84555">
        <ele>470.7</ele>
        <time>2014-09-06T11:54:02Z</time>
      </trkpt>
      <trkpt lat="45.64704" lon="5.84557">
        <ele>469.74</ele>
        <time>2014-09-06T11:54:03Z</time>
      </trkpt>
      <trkpt lat="45.64702" lon="5.8456">
        <ele>469.74</ele>
        <time>2014-09-06T11:54:04Z</time>
      </trkpt>
      <trkpt lat="45.647" lon="5.84564">
        <ele>469.26</ele>
        <time>2014-09-06T11:54:05Z</time>
      </trkpt>
      <trkpt lat="45.64698" lon="5.84568">
        <ele>468.78</ele>
        <time>2014-09-06T11:54:06Z</time>
      </trkpt>
      <trkpt lat="45.64699" lon="5.84573">
        <ele>467.82</ele>
        <time>2014-09-06T11:54:07Z</time>
      </trkpt>
      <trkpt lat="45.64702" lon="5.84578">
        <ele>466.86</ele>
        <time>2014-09-06T11:54:08Z</time>
      </trkpt>
      <trkpt lat="45.64706" lon="5.84582">
        <ele>465.9</ele>
        <time>2014-09-06T11:54:09Z</time>
      </trkpt>
      <trkpt lat="45.64711" lon="5.84584">
        <ele>465.42</ele>
        <time>2014-09-06T11:54:10Z</time>
      </trkpt>
      <trkpt lat="45.64715" lon="5.84587">
        <ele>463.97</ele>
        <time>2014-09-06T11:54:11Z</time>
      </trkpt>
      <trkpt lat="45.64733" lon="5.84601">
        <ele>459.17</ele>
        <time>2014-09-06T11:54:14Z</time>
      </trkpt>
      <trkpt lat="45.64739" lon="5.84605">
        <ele>458.21</ele>
        <time>2014-09-06T11:54:15Z</time>
      </trkpt>
      <trkpt lat="45.64755" lon="5.84614">
        <ele>453.88</ele>
        <time>2014-09-06T11:54:18Z</time>
      </trkpt>
      <trkpt lat="45.64769" lon="5.84627">
        <ele>449.55</ele>
        <time>2014-09-06T11:54:21Z</time>
      </trkpt>
      <trkpt lat="45.64778" lon="5.84637">
        <ele>446.67</ele>
        <time>2014-09-06T11:54:23Z</time>
      </trkpt>
      <trkpt lat="45.64781" lon="5.84639">
        <ele>445.71</ele>
        <time>2014-09-06T11:54:24Z</time>
      </trkpt>
      <trkpt lat="45.64784" lon="5.8464">
        <ele>444.27</ele>
        <time>2014-09-06T11:54:26Z</time>
      </trkpt>
      <trkpt lat="45.64784" lon="5.84641">
        <ele>443.79</ele>
        <time>2014-09-06T11:54:33Z</time>
      </trkpt>
      <trkpt lat="45.64783" lon="5.84641">
        <ele>443.31</ele>
        <time>2014-09-06T11:54:34Z</time>
      </trkpt>
      <trkpt lat="45.64774" lon="5.84643">
        <ele>442.34</ele>
        <time>2014-09-06T11:54:41Z</time>
      </trkpt>
      <trkpt lat="45.64772" lon="5.84643">
        <ele>441.38</ele>
        <time>2014-09-06T11:54:42Z</time>
      </trkpt>
      <trkpt lat="45.6477" lon="5.84645">
        <ele>441.38</ele>
        <time>2014-09-06T11:54:43Z</time>
      </trkpt>
      <trkpt lat="45.64768" lon="5.84645">
        <ele>440.42</ele>
        <time>2014-09-06T11:54:44Z</time>
      </trkpt>
      <trkpt lat="45.64765" lon="5.84645">
        <ele>439.94</ele>
        <time>2014-09-06T11:54:45Z</time>
      </trkpt>
      <trkpt lat="45.64763" lon="5.84646">
        <ele>438.98</ele>
        <time>2014-09-06T11:54:46Z</time>
      </trkpt>
      <trkpt lat="45.64761" lon="5.84647">
        <ele>438.5</ele>
        <time>2014-09-06T11:54:47Z</time>
      </trkpt>
      <trkpt lat="45.64757" lon="5.84653">
        <ele>436.1</ele>
        <time>2014-09-06T11:54:50Z</time>
      </trkpt>
      <trkpt lat="45.64755" lon="5.84656">
        <ele>435.61</ele>
        <time>2014-09-06T11:54:51Z</time>
      </trkpt>
      <trkpt lat="45.64753" lon="5.84661">
        <ele>434.65</ele>
        <time>2014-09-06T11:54:52Z</time>
      </trkpt>
      <trkpt lat="45.64751" lon="5.84666">
        <ele>433.69</ele>
        <time>2014-09-06T11:54:53Z</time>
      </trkpt>
      <trkpt lat="45.64748" lon="5.84672">
        <ele>433.21</ele>
        <time>2014-09-06T11:54:54Z</time>
      </trkpt>
      <trkpt lat="45.64746" lon="5.84678">
        <ele>431.77</ele>
        <time>2014-09-06T11:54:55Z</time>
      </trkpt>
      <trkpt lat="45.64745" lon="5.84685">
        <ele>430.81</ele>
        <time>2014-09-06T11:54:56Z</time>
      </trkpt>
      <trkpt lat="45.64744" lon="5.84691">
        <ele>429.85</ele>
        <time>2014-09-06T11:54:57Z</time>
      </trkpt>
      <trkpt lat="45.64743" lon="5.84698">
        <ele>428.4</ele>
        <time>2014-09-06T11:54:58Z</time>
      </trkpt>
      <trkpt lat="45.64742" lon="5.84704">
        <ele>427.44</ele>
        <time>2014-09-06T11:54:59Z</time>
      </trkpt>
      <trkpt lat="45.64739" lon="5.84709">
        <ele>426</ele>
        <time>2014-09-06T11:55:00Z</time>
      </trkpt>
      <trkpt lat="45.64736" lon="5.84714">
        <ele>425.04</ele>
        <time>2014-09-06T11:55:01Z</time>
      </trkpt>
      <trkpt lat="45.64733" lon="5.84719">
        <ele>424.56</ele>
        <time>2014-09-06T11:55:02Z</time>
      </trkpt>
      <trkpt lat="45.64731" lon="5.84726">
        <ele>423.6</ele>
        <time>2014-09-06T11:55:03Z</time>
      </trkpt>
      <trkpt lat="45.64729" lon="5.84735">
        <ele>422.64</ele>
        <time>2014-09-06T11:55:04Z</time>
      </trkpt>
      <trkpt lat="45.64728" lon="5.84742">
        <ele>421.19</ele>
        <time>2014-09-06T11:55:05Z</time>
      </trkpt>
      <trkpt lat="45.64729" lon="5.84748">
        <ele>420.71</ele>
        <time>2014-09-06T11:55:06Z</time>
      </trkpt>
      <trkpt lat="45.64728" lon="5.84754">
        <ele>419.75</ele>
        <time>2014-09-06T11:55:07Z</time>
      </trkpt>
      <trkpt lat="45.64727" lon="5.84761">
        <ele>418.31</ele>
        <time>2014-09-06T11:55:08Z</time>
      </trkpt>
      <trkpt lat="45.64728" lon="5.8479">
        <ele>415.43</ele>
        <time>2014-09-06T11:55:12Z</time>
      </trkpt>
      <trkpt lat="45.64728" lon="5.84798">
        <ele>414.47</ele>
        <time>2014-09-06T11:55:13Z</time>
      </trkpt>
      <trkpt lat="45.64727" lon="5.84806">
        <ele>413.5</ele>
        <time>2014-09-06T11:55:14Z</time>
      </trkpt>
      <trkpt lat="45.64726" lon="5.84814">
        <ele>412.06</ele>
        <time>2014-09-06T11:55:15Z</time>
      </trkpt>
      <trkpt lat="45.64725" lon="5.84822">
        <ele>411.1</ele>
        <time>2014-09-06T11:55:16Z</time>
      </trkpt>
      <trkpt lat="45.64723" lon="5.84832">
        <ele>410.14</ele>
        <time>2014-09-06T11:55:17Z</time>
      </trkpt>
      <trkpt lat="45.64715" lon="5.84867">
        <ele>407.26</ele>
        <time>2014-09-06T11:55:20Z</time>
      </trkpt>
      <trkpt lat="45.64707" lon="5.84909">
        <ele>402.93</ele>
        <time>2014-09-06T11:55:23Z</time>
      </trkpt>
      <trkpt lat="45.64706" lon="5.84922">
        <ele>399.57</ele>
        <time>2014-09-06T11:55:24Z</time>
      </trkpt>
      <trkpt lat="45.64703" lon="5.84946">
        <ele>396.2</ele>
        <time>2014-09-06T11:55:26Z</time>
      </trkpt>
      <trkpt lat="45.647" lon="5.84966">
        <ele>392.36</ele>
        <time>2014-09-06T11:55:28Z</time>
      </trkpt>
      <trkpt lat="45.64698" lon="5.84986">
        <ele>388.99</ele>
        <time>2014-09-06T11:55:31Z</time>
      </trkpt>
      <trkpt lat="45.64696" lon="5.85012">
        <ele>385.63</ele>
        <time>2014-09-06T11:55:39Z</time>
      </trkpt>
      <trkpt lat="45.64691" lon="5.85045">
        <ele>382.26</ele>
        <time>2014-09-06T11:55:45Z</time>
      </trkpt>
      <trkpt lat="45.64685" lon="5.85083">
        <ele>379.86</ele>
        <time>2014-09-06T11:55:50Z</time>
      </trkpt>
      <trkpt lat="45.64683" lon="5.85092">
        <ele>379.38</ele>
        <time>2014-09-06T11:55:51Z</time>
      </trkpt>
      <trkpt lat="45.64678" lon="5.85119">
        <ele>376.97</ele>
        <time>2014-09-06T11:55:54Z</time>
      </trkpt>
      <trkpt lat="45.64678" lon="5.85128">
        <ele>376.49</ele>
        <time>2014-09-06T11:55:55Z</time>
      </trkpt>
      <trkpt lat="45.64679" lon="5.85146">
        <ele>375.05</ele>
        <time>2014-09-06T11:55:57Z</time>
      </trkpt>
      <trkpt lat="45.6468" lon="5.85157">
        <ele>375.05</ele>
        <time>2014-09-06T11:55:58Z</time>
      </trkpt>
      <trkpt lat="45.64683" lon="5.85168">
        <ele>373.61</ele>
        <time>2014-09-06T11:55:59Z</time>
      </trkpt>
      <trkpt lat="45.64689" lon="5.85188">
        <ele>370.73</ele>
        <time>2014-09-06T11:56:01Z</time>
      </trkpt>
      <trkpt lat="45.64691" lon="5.85197">
        <ele>368.8</ele>
        <time>2014-09-06T11:56:02Z</time>
      </trkpt>
      <trkpt lat="45.64693" lon="5.85206">
        <ele>367.84</ele>
        <time>2014-09-06T11:56:03Z</time>
      </trkpt>
      <trkpt lat="45.64693" lon="5.85216">
        <ele>366.4</ele>
        <time>2014-09-06T11:56:04Z</time>
      </trkpt>
      <trkpt lat="45.64691" lon="5.85226">
        <ele>365.44</ele>
        <time>2014-09-06T11:56:05Z</time>
      </trkpt>
      <trkpt lat="45.64688" lon="5.85237">
        <ele>364.48</ele>
        <time>2014-09-06T11:56:06Z</time>
      </trkpt>
      <trkpt lat="45.64685" lon="5.85249">
        <ele>364.48</ele>
        <time>2014-09-06T11:56:07Z</time>
      </trkpt>
      <trkpt lat="45.64682" lon="5.85271">
        <ele>362.07</ele>
        <time>2014-09-06T11:56:09Z</time>
      </trkpt>
      <trkpt lat="45.64682" lon="5.85278">
        <ele>360.63</ele>
        <time>2014-09-06T11:56:10Z</time>
      </trkpt>
      <trkpt lat="45.64684" lon="5.85283">
        <ele>359.67</ele>
        <time>2014-09-06T11:56:11Z</time>
      </trkpt>
      <trkpt lat="45.64686" lon="5.85286">
        <ele>359.19</ele>
        <time>2014-09-06T11:56:12Z</time>
      </trkpt>
      <trkpt lat="45.64687" lon="5.85286">
        <ele>358.71</ele>
        <time>2014-09-06T11:56:13Z</time>
      </trkpt>
      <trkpt lat="45.64688" lon="5.85287">
        <ele>358.71</ele>
        <time>2014-09-06T11:56:14Z</time>
      </trkpt>
      <trkpt lat="45.6469" lon="5.85287">
        <ele>358.71</ele>
        <time>2014-09-06T11:56:15Z</time>
      </trkpt>
      <trkpt lat="45.64693" lon="5.85289">
        <ele>358.23</ele>
        <time>2014-09-06T11:56:16Z</time>
      </trkpt>
      <trkpt lat="45.64696" lon="5.85292">
        <ele>357.75</ele>
        <time>2014-09-06T11:56:17Z</time>
      </trkpt>
      <trkpt lat="45.64699" lon="5.85298">
        <ele>357.27</ele>
        <time>2014-09-06T11:56:18Z</time>
      </trkpt>
      <trkpt lat="45.64702" lon="5.85304">
        <ele>356.31</ele>
        <time>2014-09-06T11:56:19Z</time>
      </trkpt>
      <trkpt lat="45.64704" lon="5.85313">
        <ele>354.86</ele>
        <time>2014-09-06T11:56:20Z</time>
      </trkpt>
      <trkpt lat="45.64705" lon="5.85323">
        <ele>353.9</ele>
        <time>2014-09-06T11:56:21Z</time>
      </trkpt>
      <trkpt lat="45.64706" lon="5.85333">
        <ele>351.98</ele>
        <time>2014-09-06T11:56:22Z</time>
      </trkpt>
      <trkpt lat="45.64706" lon="5.85343">
        <ele>350.54</ele>
        <time>2014-09-06T11:56:23Z</time>
      </trkpt>
      <trkpt lat="45.64706" lon="5.85379">
        <ele>346.21</ele>
        <time>2014-09-06T11:56:26Z</time>
      </trkpt>
      <trkpt lat="45.64706" lon="5.85389">
        <ele>344.29</ele>
        <time>2014-09-06T11:56:27Z</time>
      </trkpt>
      <trkpt lat="45.64708" lon="5.85399">
        <ele>342.85</ele>
        <time>2014-09-06T11:56:28Z</time>
      </trkpt>
      <trkpt lat="45.64711" lon="5.85409">
        <ele>341.41</ele>
        <time>2014-09-06T11:56:29Z</time>
      </trkpt>
      <trkpt lat="45.64715" lon="5.85419">
        <ele>339.96</ele>
        <time>2014-09-06T11:56:30Z</time>
      </trkpt>
      <trkpt lat="45.6472" lon="5.85429">
        <ele>338.52</ele>
        <time>2014-09-06T11:56:31Z</time>
      </trkpt>
      <trkpt lat="45.64726" lon="5.85439">
        <ele>336.6</ele>
        <time>2014-09-06T11:56:32Z</time>
      </trkpt>
      <trkpt lat="45.64732" lon="5.85448">
        <ele>334.68</ele>
        <time>2014-09-06T11:56:33Z</time>
      </trkpt>
      <trkpt lat="45.64736" lon="5.85457">
        <ele>333.23</ele>
        <time>2014-09-06T11:56:34Z</time>
      </trkpt>
      <trkpt lat="45.64739" lon="5.85467">
        <ele>332.75</ele>
        <time>2014-09-06T11:56:35Z</time>
      </trkpt>
      <trkpt lat="45.64741" lon="5.85478">
        <ele>331.79</ele>
        <time>2014-09-06T11:56:36Z</time>
      </trkpt>
      <trkpt lat="45.64746" lon="5.85512">
        <ele>326.02</ele>
        <time>2014-09-06T11:56:39Z</time>
      </trkpt>
      <trkpt lat="45.64749" lon="5.8552">
        <ele>325.06</ele>
        <time>2014-09-06T11:56:40Z</time>
      </trkpt>
      <trkpt lat="45.64759" lon="5.85542">
        <ele>321.7</ele>
        <time>2014-09-06T11:56:43Z</time>
      </trkpt>
      <trkpt lat="45.64763" lon="5.85549">
        <ele>320.74</ele>
        <time>2014-09-06T11:56:44Z</time>
      </trkpt>
      <trkpt lat="45.64767" lon="5.85558">
        <ele>319.78</ele>
        <time>2014-09-06T11:56:45Z</time>
      </trkpt>
      <trkpt lat="45.6477" lon="5.85567">
        <ele>318.33</ele>
        <time>2014-09-06T11:56:46Z</time>
      </trkpt>
      <trkpt lat="45.64774" lon="5.85573">
        <ele>316.41</ele>
        <time>2014-09-06T11:56:47Z</time>
      </trkpt>
      <trkpt lat="45.64776" lon="5.85577">
        <ele>315.45</ele>
        <time>2014-09-06T11:56:48Z</time>
      </trkpt>
      <trkpt lat="45.64778" lon="5.85579">
        <ele>314.97</ele>
        <time>2014-09-06T11:56:49Z</time>
      </trkpt>
      <trkpt lat="45.64781" lon="5.85584">
        <ele>313.53</ele>
        <time>2014-09-06T11:56:56Z</time>
      </trkpt>
      <trkpt lat="45.64782" lon="5.85585">
        <ele>314.01</ele>
        <time>2014-09-06T11:56:57Z</time>
      </trkpt>
      <trkpt lat="45.64782" lon="5.85588">
        <ele>314.01</ele>
        <time>2014-09-06T11:56:58Z</time>
      </trkpt>
      <trkpt lat="45.64783" lon="5.85592">
        <ele>314.01</ele>
        <time>2014-09-06T11:56:59Z</time>
      </trkpt>
      <trkpt lat="45.64784" lon="5.85597">
        <ele>314.01</ele>
        <time>2014-09-06T11:57:00Z</time>
      </trkpt>
      <trkpt lat="45.64785" lon="5.85603">
        <ele>313.53</ele>
        <time>2014-09-06T11:57:01Z</time>
      </trkpt>
      <trkpt lat="45.64786" lon="5.85608">
        <ele>313.53</ele>
        <time>2014-09-06T11:57:02Z</time>
      </trkpt>
      <trkpt lat="45.64788" lon="5.85614">
        <ele>313.05</ele>
        <time>2014-09-06T11:57:03Z</time>
      </trkpt>
      <trkpt lat="45.64817" lon="5.85681">
        <ele>311.12</ele>
        <time>2014-09-06T11:57:11Z</time>
      </trkpt>
      <trkpt lat="45.64819" lon="5.85692">
        <ele>310.64</ele>
        <time>2014-09-06T11:57:12Z</time>
      </trkpt>
      <trkpt lat="45.64822" lon="5.85704">
        <ele>309.68</ele>
        <time>2014-09-06T11:57:13Z</time>
      </trkpt>
      <trkpt lat="45.64826" lon="5.85716">
        <ele>309.2</ele>
        <time>2014-09-06T11:57:14Z</time>
      </trkpt>
      <trkpt lat="45.6483" lon="5.85727">
        <ele>307.76</ele>
        <time>2014-09-06T11:57:15Z</time>
      </trkpt>
      <trkpt lat="45.64834" lon="5.85739">
        <ele>307.28</ele>
        <time>2014-09-06T11:57:16Z</time>
      </trkpt>
      <trkpt lat="45.64836" lon="5.85751">
        <ele>306.8</ele>
        <time>2014-09-06T11:57:17Z</time>
      </trkpt>
      <trkpt lat="45.64838" lon="5.85763">
        <ele>306.32</ele>
        <time>2014-09-06T11:57:18Z</time>
      </trkpt>
      <trkpt lat="45.6484" lon="5.85783">
        <ele>303.43</ele>
        <time>2014-09-06T11:57:20Z</time>
      </trkpt>
      <trkpt lat="45.6484" lon="5.8579">
        <ele>302.47</ele>
        <time>2014-09-06T11:57:21Z</time>
      </trkpt>
      <trkpt lat="45.6484" lon="5.85796">
        <ele>301.99</ele>
        <time>2014-09-06T11:57:22Z</time>
      </trkpt>
      <trkpt lat="45.6484" lon="5.85801">
        <ele>301.51</ele>
        <time>2014-09-06T11:57:23Z</time>
      </trkpt>
      <trkpt lat="45.6484" lon="5.85805">
        <ele>301.51</ele>
        <time>2014-09-06T11:57:24Z</time>
      </trkpt>
      <trkpt lat="45.6484" lon="5.85808">
        <ele>300.55</ele>
        <time>2014-09-06T11:57:25Z</time>
      </trkpt>
      <trkpt lat="45.6484" lon="5.8581">
        <ele>300.55</ele>
        <time>2014-09-06T11:57:26Z</time>
      </trkpt>
      <trkpt lat="45.64843" lon="5.85836">
        <ele>299.11</ele>
        <time>2014-09-06T11:57:36Z</time>
      </trkpt>
      <trkpt lat="45.64844" lon="5.85859">
        <ele>297.18</ele>
        <time>2014-09-06T11:57:46Z</time>
      </trkpt>
      <trkpt lat="45.64846" lon="5.85859">
        <ele>296.22</ele>
        <time>2014-09-06T11:58:01Z</time>
      </trkpt>
      <trkpt lat="45.64845" lon="5.85858">
        <ele>296.22</ele>
        <time>2014-09-06T11:58:10Z</time>
      </trkpt>
      <trkpt lat="45.64843" lon="5.85861">
        <ele>295.74</ele>
        <time>2014-09-06T11:58:25Z</time>
      </trkpt>
      <trkpt lat="45.64842" lon="5.85862">
        <ele>295.26</ele>
        <time>2014-09-06T11:58:44Z</time>
      </trkpt>
      <trkpt lat="45.64842" lon="5.85863">
        <ele>294.78</ele>
        <time>2014-09-06T11:59:03Z</time>
      </trkpt>
      <trkpt lat="45.64841" lon="5.85862">
        <ele>294.3</ele>
        <time>2014-09-06T11:59:28Z</time>
      </trkpt>
      <trkpt lat="45.64842" lon="5.85863">
        <ele>293.34</ele>
        <time>2014-09-06T11:59:56Z</time>
      </trkpt>
      <trkpt lat="45.64842" lon="5.85863">
        <ele>291.9</ele>
        <time>2014-09-06T12:00:03Z</time>
      </trkpt>
      <trkpt lat="45.64843" lon="5.85863">
        <ele>292.86</ele>
        <time>2014-09-06T12:00:08Z</time>
      </trkpt>
      <trkpt lat="45.64844" lon="5.85862">
        <ele>292.86</ele>
        <time>2014-09-06T12:00:33Z</time>
      </trkpt>
      <trkpt lat="45.64848" lon="5.85861">
        <ele>292.38</ele>
        <time>2014-09-06T12:01:01Z</time>
      </trkpt>
      <trkpt lat="45.6485" lon="5.85861">
        <ele>291.9</ele>
        <time>2014-09-06T12:01:24Z</time>
      </trkpt>
      <trkpt lat="45.6485" lon="5.8586">
        <ele>290.94</ele>
        <time>2014-09-06T12:01:58Z</time>
      </trkpt>
      <trkpt lat="45.64847" lon="5.85862">
        <ele>290.46</ele>
        <time>2014-09-06T12:02:19Z</time>
      </trkpt>
      <trkpt lat="45.64845" lon="5.85862">
        <ele>289.97</ele>
        <time>2014-09-06T12:02:41Z</time>
      </trkpt>
      <trkpt lat="45.64847" lon="5.85862">
        <ele>288.53</ele>
        <time>2014-09-06T12:02:59Z</time>
      </trkpt>
      <trkpt lat="45.64849" lon="5.85862">
        <ele>289.97</ele>
        <time>2014-09-06T12:03:06Z</time>
      </trkpt>
      <trkpt lat="45.6485" lon="5.85861">
        <ele>288.05</ele>
        <time>2014-09-06T12:03:14Z</time>
      </trkpt>
      <trkpt lat="45.64846" lon="5.85862">
        <ele>289.49</ele>
        <time>2014-09-06T12:03:30Z</time>
      </trkpt>
      <trkpt lat="45.64844" lon="5.8586">
        <ele>289.01</ele>
        <time>2014-09-06T12:03:44Z</time>
      </trkpt>
      <trkpt lat="45.64845" lon="5.85864">
        <ele>288.53</ele>
        <time>2014-09-06T12:03:59Z</time>
      </trkpt>
      <trkpt lat="45.64845" lon="5.85866">
        <ele>288.53</ele>
        <time>2014-09-06T12:04:00Z</time>
      </trkpt>
      <trkpt lat="45.64845" lon="5.85869">
        <ele>288.53</ele>
        <time>2014-09-06T12:04:01Z</time>
      </trkpt>
      <trkpt lat="45.64845" lon="5.85872">
        <ele>288.53</ele>
        <time>2014-09-06T12:04:02Z</time>
      </trkpt>
      <trkpt lat="45.64846" lon="5.85876">
        <ele>288.53</ele>
        <time>2014-09-06T12:04:03Z</time>
      </trkpt>
      <trkpt lat="45.64848" lon="5.8588">
        <ele>288.53</ele>
        <time>2014-09-06T12:04:04Z</time>
      </trkpt>
      <trkpt lat="45.6485" lon="5.85884">
        <ele>288.53</ele>
        <time>2014-09-06T12:04:05Z</time>
      </trkpt>
      <trkpt lat="45.64853" lon="5.85889">
        <ele>288.53</ele>
        <time>2014-09-06T12:04:06Z</time>
      </trkpt>
      <trkpt lat="45.64854" lon="5.85895">
        <ele>288.53</ele>
        <time>2014-09-06T12:04:07Z</time>
      </trkpt>
      <trkpt lat="45.64855" lon="5.85903">
        <ele>287.09</ele>
        <time>2014-09-06T12:04:08Z</time>
      </trkpt>
      <trkpt lat="45.64856" lon="5.85911">
        <ele>287.09</ele>
        <time>2014-09-06T12:04:09Z</time>
      </trkpt>
      <trkpt lat="45.64857" lon="5.85919">
        <ele>287.09</ele>
        <time>2014-09-06T12:04:10Z</time>
      </trkpt>
      <trkpt lat="45.64857" lon="5.85927">
        <ele>286.61</ele>
        <time>2014-09-06T12:04:11Z</time>
      </trkpt>
      <trkpt lat="45.64857" lon="5.85934">
        <ele>286.13</ele>
        <time>2014-09-06T12:04:12Z</time>
      </trkpt>
      <trkpt lat="45.64858" lon="5.85941">
        <ele>285.65</ele>
        <time>2014-09-06T12:04:13Z</time>
      </trkpt>
      <trkpt lat="45.64859" lon="5.85948">
        <ele>285.17</ele>
        <time>2014-09-06T12:04:14Z</time>
      </trkpt>
      <trkpt lat="45.64861" lon="5.85954">
        <ele>285.17</ele>
        <time>2014-09-06T12:04:15Z</time>
      </trkpt>
      <trkpt lat="45.64862" lon="5.85961">
        <ele>285.17</ele>
        <time>2014-09-06T12:04:16Z</time>
      </trkpt>
      <trkpt lat="45.64863" lon="5.85968">
        <ele>284.21</ele>
        <time>2014-09-06T12:04:17Z</time>
      </trkpt>
      <trkpt lat="45.64863" lon="5.85974">
        <ele>283.73</ele>
        <time>2014-09-06T12:04:18Z</time>
      </trkpt>
      <trkpt lat="45.64862" lon="5.85979">
        <ele>282.77</ele>
        <time>2014-09-06T12:04:19Z</time>
      </trkpt>
      <trkpt lat="45.6486" lon="5.85982">
        <ele>282.28</ele>
        <time>2014-09-06T12:04:20Z</time>
      </trkpt>
      <trkpt lat="45.64857" lon="5.85984">
        <ele>282.28</ele>
        <time>2014-09-06T12:04:21Z</time>
      </trkpt>
      <trkpt lat="45.64853" lon="5.85986">
        <ele>282.28</ele>
        <time>2014-09-06T12:04:22Z</time>
      </trkpt>
      <trkpt lat="45.64849" lon="5.85987">
        <ele>282.28</ele>
        <time>2014-09-06T12:04:23Z</time>
      </trkpt>
      <trkpt lat="45.64844" lon="5.85988">
        <ele>282.28</ele>
        <time>2014-09-06T12:04:24Z</time>
      </trkpt>
      <trkpt lat="45.6484" lon="5.85988">
        <ele>282.28</ele>
        <time>2014-09-06T12:04:25Z</time>
      </trkpt>
      <trkpt lat="45.64784" lon="5.86005">
        <ele>282.28</ele>
        <time>2014-09-06T12:04:39Z</time>
      </trkpt>
      <trkpt lat="45.64772" lon="5.86014">
        <ele>282.28</ele>
        <time>2014-09-06T12:04:43Z</time>
      </trkpt>
      <trkpt lat="45.64771" lon="5.8602">
        <ele>282.28</ele>
        <time>2014-09-06T12:04:44Z</time>
      </trkpt>
      <trkpt lat="45.64771" lon="5.86026">
        <ele>282.28</ele>
        <time>2014-09-06T12:04:45Z</time>
      </trkpt>
      <trkpt lat="45.64774" lon="5.86071">
        <ele>281.8</ele>
        <time>2014-09-06T12:04:51Z</time>
      </trkpt>
      <trkpt lat="45.64776" lon="5.862">
        <ele>278.92</ele>
        <time>2014-09-06T12:05:05Z</time>
      </trkpt>
      <trkpt lat="45.6478" lon="5.86293">
        <ele>277.48</ele>
        <time>2014-09-06T12:05:17Z</time>
      </trkpt>
      <trkpt lat="45.6478" lon="5.86298">
        <ele>277.48</ele>
        <time>2014-09-06T12:05:18Z</time>
      </trkpt>
      <trkpt lat="45.64778" lon="5.86303">
        <ele>277.48</ele>
        <time>2014-09-06T12:05:19Z</time>
      </trkpt>
      <trkpt lat="45.64776" lon="5.86308">
        <ele>277.48</ele>
        <time>2014-09-06T12:05:20Z</time>
      </trkpt>
      <trkpt lat="45.64773" lon="5.86313">
        <ele>277.48</ele>
        <time>2014-09-06T12:05:21Z</time>
      </trkpt>
      <trkpt lat="45.6477" lon="5.86319">
        <ele>277.48</ele>
        <time>2014-09-06T12:05:22Z</time>
      </trkpt>
      <trkpt lat="45.64768" lon="5.86325">
        <ele>277.48</ele>
        <time>2014-09-06T12:05:23Z</time>
      </trkpt>
      <trkpt lat="45.64764" lon="5.8633">
        <ele>277.48</ele>
        <time>2014-09-06T12:05:24Z</time>
      </trkpt>
      <trkpt lat="45.64761" lon="5.86334">
        <ele>277.48</ele>
        <time>2014-09-06T12:05:25Z</time>
      </trkpt>
      <trkpt lat="45.64742" lon="5.86357">
        <ele>277.48</ele>
        <time>2014-09-06T12:05:35Z</time>
      </trkpt>
      <trkpt lat="45.64722" lon="5.86385">
        <ele>277.48</ele>
        <time>2014-09-06T12:05:44Z</time>
      </trkpt>
      <trkpt lat="45.64695" lon="5.86411">
        <ele>276.52</ele>
        <time>2014-09-06T12:05:50Z</time>
      </trkpt>
      <trkpt lat="45.6468" lon="5.86428">
        <ele>276.04</ele>
        <time>2014-09-06T12:05:53Z</time>
      </trkpt>
      <trkpt lat="45.64658" lon="5.86454">
        <ele>275.56</ele>
        <time>2014-09-06T12:05:58Z</time>
      </trkpt>
      <trkpt lat="45.64618" lon="5.86503">
        <ele>277.48</ele>
        <time>2014-09-06T12:06:10Z</time>
      </trkpt>
      <trkpt lat="45.64614" lon="5.86507">
        <ele>277.96</ele>
        <time>2014-09-06T12:06:11Z</time>
      </trkpt>
      <trkpt lat="45.64554" lon="5.86572">
        <ele>277.96</ele>
        <time>2014-09-06T12:06:26Z</time>
      </trkpt>
      <trkpt lat="45.64521" lon="5.86596">
        <ele>277.96</ele>
        <time>2014-09-06T12:06:34Z</time>
      </trkpt>
      <trkpt lat="45.64516" lon="5.86598">
        <ele>277.96</ele>
        <time>2014-09-06T12:06:35Z</time>
      </trkpt>
      <trkpt lat="45.64493" lon="5.86609">
        <ele>277.96</ele>
        <time>2014-09-06T12:06:40Z</time>
      </trkpt>
      <trkpt lat="45.64488" lon="5.8661">
        <ele>277.96</ele>
        <time>2014-09-06T12:06:41Z</time>
      </trkpt>
      <trkpt lat="45.64483" lon="5.8661">
        <ele>277.96</ele>
        <time>2014-09-06T12:06:42Z</time>
      </trkpt>
      <trkpt lat="45.64478" lon="5.8661">
        <ele>277.96</ele>
        <time>2014-09-06T12:06:43Z</time>
      </trkpt>
      <trkpt lat="45.64473" lon="5.86611">
        <ele>277.96</ele>
        <time>2014-09-06T12:06:44Z</time>
      </trkpt>
      <trkpt lat="45.64418" lon="5.86616">
        <ele>277.96</ele>
        <time>2014-09-06T12:06:55Z</time>
      </trkpt>
      <trkpt lat="45.6441" lon="5.86618">
        <ele>277.96</ele>
        <time>2014-09-06T12:06:57Z</time>
      </trkpt>
      <trkpt lat="45.64407" lon="5.86621">
        <ele>278.44</ele>
        <time>2014-09-06T12:06:58Z</time>
      </trkpt>
      <trkpt lat="45.64406" lon="5.86625">
        <ele>278.44</ele>
        <time>2014-09-06T12:06:59Z</time>
      </trkpt>
      <trkpt lat="45.64406" lon="5.8663">
        <ele>278.92</ele>
        <time>2014-09-06T12:07:00Z</time>
      </trkpt>
      <trkpt lat="45.64406" lon="5.86635">
        <ele>278.92</ele>
        <time>2014-09-06T12:07:01Z</time>
      </trkpt>
      <trkpt lat="45.64409" lon="5.86663">
        <ele>278.92</ele>
        <time>2014-09-06T12:07:08Z</time>
      </trkpt>
      <trkpt lat="45.64408" lon="5.86665">
        <ele>278.92</ele>
        <time>2014-09-06T12:07:09Z</time>
      </trkpt>
      <trkpt lat="45.64407" lon="5.86667">
        <ele>278.92</ele>
        <time>2014-09-06T12:07:10Z</time>
      </trkpt>
      <trkpt lat="45.64394" lon="5.86672">
        <ele>278.92</ele>
        <time>2014-09-06T12:07:14Z</time>
      </trkpt>
      <trkpt lat="45.64389" lon="5.86675">
        <ele>278.44</ele>
        <time>2014-09-06T12:07:15Z</time>
      </trkpt>
      <trkpt lat="45.64357" lon="5.8669">
        <ele>277.48</ele>
        <time>2014-09-06T12:07:21Z</time>
      </trkpt>
      <trkpt lat="45.64299" lon="5.86722">
        <ele>277</ele>
        <time>2014-09-06T12:07:32Z</time>
      </trkpt>
      <trkpt lat="45.64232" lon="5.8676">
        <ele>277</ele>
        <time>2014-09-06T12:07:46Z</time>
      </trkpt>
      <trkpt lat="45.64183" lon="5.86782">
        <ele>277.96</ele>
        <time>2014-09-06T12:07:56Z</time>
      </trkpt>
      <trkpt lat="45.64178" lon="5.86784">
        <ele>277.96</ele>
        <time>2014-09-06T12:07:57Z</time>
      </trkpt>
      <trkpt lat="45.64173" lon="5.86787">
        <ele>277.96</ele>
        <time>2014-09-06T12:07:58Z</time>
      </trkpt>
      <trkpt lat="45.64168" lon="5.86791">
        <ele>277.96</ele>
        <time>2014-09-06T12:07:59Z</time>
      </trkpt>
      <trkpt lat="45.64163" lon="5.86795">
        <ele>277.96</ele>
        <time>2014-09-06T12:08:00Z</time>
      </trkpt>
      <trkpt lat="45.6408" lon="5.86846">
        <ele>277.48</ele>
        <time>2014-09-06T12:08:15Z</time>
      </trkpt>
      <trkpt lat="45.64051" lon="5.86863">
        <ele>277.48</ele>
        <time>2014-09-06T12:08:22Z</time>
      </trkpt>
      <trkpt lat="45.64007" lon="5.86885">
        <ele>277.48</ele>
        <time>2014-09-06T12:08:31Z</time>
      </trkpt>
      <trkpt lat="45.63996" lon="5.86888">
        <ele>277.48</ele>
        <time>2014-09-06T12:08:33Z</time>
      </trkpt>
      <trkpt lat="45.63967" lon="5.86896">
        <ele>277.48</ele>
        <time>2014-09-06T12:08:37Z</time>
      </trkpt>
      <trkpt lat="45.63954" lon="5.86896">
        <ele>276.04</ele>
        <time>2014-09-06T12:08:39Z</time>
      </trkpt>
      <trkpt lat="45.63941" lon="5.86899">
        <ele>276.04</ele>
        <time>2014-09-06T12:08:41Z</time>
      </trkpt>
      <trkpt lat="45.63934" lon="5.86902">
        <ele>276.04</ele>
        <time>2014-09-06T12:08:42Z</time>
      </trkpt>
      <trkpt lat="45.63928" lon="5.86906">
        <ele>276.04</ele>
        <time>2014-09-06T12:08:43Z</time>
      </trkpt>
      <trkpt lat="45.63922" lon="5.86912">
        <ele>276.04</ele>
        <time>2014-09-06T12:08:44Z</time>
      </trkpt>
      <trkpt lat="45.63918" lon="5.86919">
        <ele>276.04</ele>
        <time>2014-09-06T12:08:45Z</time>
      </trkpt>
      <trkpt lat="45.63913" lon="5.86925">
        <ele>276.04</ele>
        <time>2014-09-06T12:08:46Z</time>
      </trkpt>
      <trkpt lat="45.63907" lon="5.86931">
        <ele>275.56</ele>
        <time>2014-09-06T12:08:47Z</time>
      </trkpt>
      <trkpt lat="45.63902" lon="5.86936">
        <ele>275.56</ele>
        <time>2014-09-06T12:08:48Z</time>
      </trkpt>
      <trkpt lat="45.63896" lon="5.86939">
        <ele>277</ele>
        <time>2014-09-06T12:08:49Z</time>
      </trkpt>
      <trkpt lat="45.63891" lon="5.86942">
        <ele>277</ele>
        <time>2014-09-06T12:08:50Z</time>
      </trkpt>
      <trkpt lat="45.63806" lon="5.86975">
        <ele>277.96</ele>
        <time>2014-09-06T12:09:05Z</time>
      </trkpt>
      <trkpt lat="45.63706" lon="5.86982">
        <ele>278.44</ele>
        <time>2014-09-06T12:09:21Z</time>
      </trkpt>
      <trkpt lat="45.63586" lon="5.87012">
        <ele>277.96</ele>
        <time>2014-09-06T12:09:41Z</time>
      </trkpt>
      <trkpt lat="45.63491" lon="5.87052">
        <ele>277.96</ele>
        <time>2014-09-06T12:09:57Z</time>
      </trkpt>
      <trkpt lat="45.6341" lon="5.87088">
        <ele>277.96</ele>
        <time>2014-09-06T12:10:10Z</time>
      </trkpt>
      <trkpt lat="45.63298" lon="5.871">
        <ele>277.48</ele>
        <time>2014-09-06T12:10:27Z</time>
      </trkpt>
      <trkpt lat="45.63278" lon="5.87101">
        <ele>277.48</ele>
        <time>2014-09-06T12:10:30Z</time>
      </trkpt>
      <trkpt lat="45.63272" lon="5.87103">
        <ele>277.48</ele>
        <time>2014-09-06T12:10:31Z</time>
      </trkpt>
      <trkpt lat="45.63174" lon="5.87162">
        <ele>277.48</ele>
        <time>2014-09-06T12:10:47Z</time>
      </trkpt>
      <trkpt lat="45.63075" lon="5.87202">
        <ele>277.48</ele>
        <time>2014-09-06T12:11:02Z</time>
      </trkpt>
      <trkpt lat="45.63068" lon="5.87202">
        <ele>277.48</ele>
        <time>2014-09-06T12:11:03Z</time>
      </trkpt>
      <trkpt lat="45.6301" lon="5.87207">
        <ele>277.48</ele>
        <time>2014-09-06T12:11:12Z</time>
      </trkpt>
      <trkpt lat="45.63005" lon="5.87211">
        <ele>277.48</ele>
        <time>2014-09-06T12:11:13Z</time>
      </trkpt>
      <trkpt lat="45.62999" lon="5.87215">
        <ele>277.48</ele>
        <time>2014-09-06T12:11:14Z</time>
      </trkpt>
      <trkpt lat="45.62954" lon="5.87254">
        <ele>277.96</ele>
        <time>2014-09-06T12:11:22Z</time>
      </trkpt>
      <trkpt lat="45.62949" lon="5.8726">
        <ele>277.96</ele>
        <time>2014-09-06T12:11:23Z</time>
      </trkpt>
      <trkpt lat="45.62869" lon="5.87351">
        <ele>277.96</ele>
        <time>2014-09-06T12:11:39Z</time>
      </trkpt>
      <trkpt lat="45.62864" lon="5.87356">
        <ele>277.96</ele>
        <time>2014-09-06T12:11:40Z</time>
      </trkpt>
      <trkpt lat="45.62859" lon="5.87359">
        <ele>277.96</ele>
        <time>2014-09-06T12:11:41Z</time>
      </trkpt>
      <trkpt lat="45.62842" lon="5.87365">
        <ele>277</ele>
        <time>2014-09-06T12:11:44Z</time>
      </trkpt>
      <trkpt lat="45.62806" lon="5.87369">
        <ele>276.04</ele>
        <time>2014-09-06T12:11:51Z</time>
      </trkpt>
      <trkpt lat="45.62803" lon="5.87366">
        <ele>276.04</ele>
        <time>2014-09-06T12:11:52Z</time>
      </trkpt>
      <trkpt lat="45.62802" lon="5.87361">
        <ele>276.04</ele>
        <time>2014-09-06T12:11:53Z</time>
      </trkpt>
      <trkpt lat="45.62801" lon="5.87355">
        <ele>276.04</ele>
        <time>2014-09-06T12:11:54Z</time>
      </trkpt>
      <trkpt lat="45.62802" lon="5.8735">
        <ele>277.48</ele>
        <time>2014-09-06T12:11:55Z</time>
      </trkpt>
      <trkpt lat="45.62801" lon="5.87287">
        <ele>278.44</ele>
        <time>2014-09-06T12:12:06Z</time>
      </trkpt>
      <trkpt lat="45.628" lon="5.8728">
        <ele>278.44</ele>
        <time>2014-09-06T12:12:07Z</time>
      </trkpt>
      <trkpt lat="45.628" lon="5.87273">
        <ele>278.44</ele>
        <time>2014-09-06T12:12:08Z</time>
      </trkpt>
      <trkpt lat="45.62798" lon="5.87258">
        <ele>278.44</ele>
        <time>2014-09-06T12:12:10Z</time>
      </trkpt>
      <trkpt lat="45.62796" lon="5.87243">
        <ele>278.44</ele>
        <time>2014-09-06T12:12:12Z</time>
      </trkpt>
      <trkpt lat="45.62795" lon="5.87237">
        <ele>278.44</ele>
        <time>2014-09-06T12:12:13Z</time>
      </trkpt>
      <trkpt lat="45.62792" lon="5.87233">
        <ele>277</ele>
        <time>2014-09-06T12:12:14Z</time>
      </trkpt>
      <trkpt lat="45.62789" lon="5.87232">
        <ele>277</ele>
        <time>2014-09-06T12:12:15Z</time>
      </trkpt>
      <trkpt lat="45.62786" lon="5.87231">
        <ele>276.52</ele>
        <time>2014-09-06T12:12:16Z</time>
      </trkpt>
      <trkpt lat="45.62784" lon="5.8723">
        <ele>276.04</ele>
        <time>2014-09-06T12:12:17Z</time>
      </trkpt>
      <trkpt lat="45.62781" lon="5.87228">
        <ele>275.56</ele>
        <time>2014-09-06T12:12:18Z</time>
      </trkpt>
      <trkpt lat="45.62778" lon="5.87227">
        <ele>275.56</ele>
        <time>2014-09-06T12:12:19Z</time>
      </trkpt>
      <trkpt lat="45.62773" lon="5.87228">
        <ele>275.56</ele>
        <time>2014-09-06T12:12:20Z</time>
      </trkpt>
      <trkpt lat="45.62769" lon="5.8723">
        <ele>275.56</ele>
        <time>2014-09-06T12:12:21Z</time>
      </trkpt>
      <trkpt lat="45.62713" lon="5.87251">
        <ele>275.56</ele>
        <time>2014-09-06T12:12:32Z</time>
      </trkpt>
      <trkpt lat="45.62708" lon="5.87251">
        <ele>275.56</ele>
        <time>2014-09-06T12:12:33Z</time>
      </trkpt>
      <trkpt lat="45.62703" lon="5.87249">
        <ele>275.56</ele>
        <time>2014-09-06T12:12:34Z</time>
      </trkpt>
      <trkpt lat="45.62689" lon="5.87246">
        <ele>275.07</ele>
        <time>2014-09-06T12:12:37Z</time>
      </trkpt>
      <trkpt lat="45.6268" lon="5.87246">
        <ele>275.07</ele>
        <time>2014-09-06T12:12:39Z</time>
      </trkpt>
      <trkpt lat="45.62675" lon="5.87246">
        <ele>275.07</ele>
        <time>2014-09-06T12:12:40Z</time>
      </trkpt>
      <trkpt lat="45.62671" lon="5.87246">
        <ele>275.07</ele>
        <time>2014-09-06T12:12:41Z</time>
      </trkpt>
      <trkpt lat="45.62666" lon="5.87249">
        <ele>275.07</ele>
        <time>2014-09-06T12:12:42Z</time>
      </trkpt>
      <trkpt lat="45.62661" lon="5.87251">
        <ele>275.07</ele>
        <time>2014-09-06T12:12:43Z</time>
      </trkpt>
      <trkpt lat="45.62656" lon="5.87254">
        <ele>275.07</ele>
        <time>2014-09-06T12:12:44Z</time>
      </trkpt>
      <trkpt lat="45.62651" lon="5.87255">
        <ele>275.07</ele>
        <time>2014-09-06T12:12:45Z</time>
      </trkpt>
      <trkpt lat="45.62647" lon="5.87255">
        <ele>275.07</ele>
        <time>2014-09-06T12:12:46Z</time>
      </trkpt>
      <trkpt lat="45.62642" lon="5.87256">
        <ele>275.07</ele>
        <time>2014-09-06T12:12:47Z</time>
      </trkpt>
      <trkpt lat="45.62638" lon="5.87256">
        <ele>275.07</ele>
        <time>2014-09-06T12:12:48Z</time>
      </trkpt>
      <trkpt lat="45.62634" lon="5.87258">
        <ele>275.07</ele>
        <time>2014-09-06T12:12:49Z</time>
      </trkpt>
      <trkpt lat="45.62629" lon="5.87261">
        <ele>275.07</ele>
        <time>2014-09-06T12:12:50Z</time>
      </trkpt>
      <trkpt lat="45.62624" lon="5.87262">
        <ele>275.07</ele>
        <time>2014-09-06T12:12:51Z</time>
      </trkpt>
      <trkpt lat="45.62619" lon="5.87264">
        <ele>275.07</ele>
        <time>2014-09-06T12:12:52Z</time>
      </trkpt>
      <trkpt lat="45.62614" lon="5.87266">
        <ele>275.07</ele>
        <time>2014-09-06T12:12:53Z</time>
      </trkpt>
      <trkpt lat="45.62585" lon="5.87279">
        <ele>275.07</ele>
        <time>2014-09-06T12:12:59Z</time>
      </trkpt>
      <trkpt lat="45.6258" lon="5.87281">
        <ele>275.07</ele>
        <time>2014-09-06T12:13:00Z</time>
      </trkpt>
      <trkpt lat="45.62575" lon="5.87283">
        <ele>275.07</ele>
        <time>2014-09-06T12:13:01Z</time>
      </trkpt>
      <trkpt lat="45.6257" lon="5.87285">
        <ele>275.07</ele>
        <time>2014-09-06T12:13:02Z</time>
      </trkpt>
      <trkpt lat="45.62565" lon="5.87288">
        <ele>275.07</ele>
        <time>2014-09-06T12:13:03Z</time>
      </trkpt>
      <trkpt lat="45.6256" lon="5.8729">
        <ele>274.59</ele>
        <time>2014-09-06T12:13:04Z</time>
      </trkpt>
      <trkpt lat="45.62551" lon="5.87294">
        <ele>274.59</ele>
        <time>2014-09-06T12:13:06Z</time>
      </trkpt>
      <trkpt lat="45.62546" lon="5.87297">
        <ele>274.59</ele>
        <time>2014-09-06T12:13:07Z</time>
      </trkpt>
      <trkpt lat="45.62542" lon="5.87299">
        <ele>274.59</ele>
        <time>2014-09-06T12:13:08Z</time>
      </trkpt>
      <trkpt lat="45.62537" lon="5.873">
        <ele>276.04</ele>
        <time>2014-09-06T12:13:09Z</time>
      </trkpt>
      <trkpt lat="45.62515" lon="5.87306">
        <ele>276.04</ele>
        <time>2014-09-06T12:13:14Z</time>
      </trkpt>
      <trkpt lat="45.62497" lon="5.87305">
        <ele>276.04</ele>
        <time>2014-09-06T12:13:18Z</time>
      </trkpt>
      <trkpt lat="45.62473" lon="5.87304">
        <ele>276.04</ele>
        <time>2014-09-06T12:13:23Z</time>
      </trkpt>
      <trkpt lat="45.62463" lon="5.87304">
        <ele>276.04</ele>
        <time>2014-09-06T12:13:25Z</time>
      </trkpt>
      <trkpt lat="45.62445" lon="5.87305">
        <ele>276.04</ele>
        <time>2014-09-06T12:13:29Z</time>
      </trkpt>
      <trkpt lat="45.6242" lon="5.87301">
        <ele>275.56</ele>
        <time>2014-09-06T12:13:37Z</time>
      </trkpt>
      <trkpt lat="45.62405" lon="5.873">
        <ele>275.56</ele>
        <time>2014-09-06T12:13:52Z</time>
      </trkpt>
      <trkpt lat="45.62368" lon="5.87297">
        <ele>276.04</ele>
        <time>2014-09-06T12:14:02Z</time>
      </trkpt>
      <trkpt lat="45.62313" lon="5.87309">
        <ele>276.04</ele>
        <time>2014-09-06T12:14:14Z</time>
      </trkpt>
      <trkpt lat="45.62293" lon="5.87317">
        <ele>276.04</ele>
        <time>2014-09-06T12:14:18Z</time>
      </trkpt>
      <trkpt lat="45.62264" lon="5.87328">
        <ele>276.04</ele>
        <time>2014-09-06T12:14:24Z</time>
      </trkpt>
      <trkpt lat="45.62245" lon="5.87337">
        <ele>276.04</ele>
        <time>2014-09-06T12:14:28Z</time>
      </trkpt>
      <trkpt lat="45.62217" lon="5.87347">
        <ele>276.04</ele>
        <time>2014-09-06T12:14:34Z</time>
      </trkpt>
      <trkpt lat="45.62213" lon="5.8736">
        <ele>276.04</ele>
        <time>2014-09-06T12:14:38Z</time>
      </trkpt>
      <trkpt lat="45.62212" lon="5.87363">
        <ele>275.56</ele>
        <time>2014-09-06T12:14:39Z</time>
      </trkpt>
      <trkpt lat="45.62211" lon="5.87367">
        <ele>275.56</ele>
        <time>2014-09-06T12:14:40Z</time>
      </trkpt>
      <trkpt lat="45.6221" lon="5.8737">
        <ele>275.56</ele>
        <time>2014-09-06T12:14:41Z</time>
      </trkpt>
      <trkpt lat="45.62207" lon="5.87373">
        <ele>275.56</ele>
        <time>2014-09-06T12:14:42Z</time>
      </trkpt>
      <trkpt lat="45.62204" lon="5.87374">
        <ele>275.56</ele>
        <time>2014-09-06T12:14:43Z</time>
      </trkpt>
      <trkpt lat="45.62199" lon="5.87375">
        <ele>275.56</ele>
        <time>2014-09-06T12:14:44Z</time>
      </trkpt>
      <trkpt lat="45.62195" lon="5.87376">
        <ele>275.56</ele>
        <time>2014-09-06T12:14:45Z</time>
      </trkpt>
      <trkpt lat="45.6219" lon="5.87377">
        <ele>275.56</ele>
        <time>2014-09-06T12:14:46Z</time>
      </trkpt>
      <trkpt lat="45.62185" lon="5.87379">
        <ele>275.56</ele>
        <time>2014-09-06T12:14:47Z</time>
      </trkpt>
      <trkpt lat="45.6215" lon="5.87394">
        <ele>274.11</ele>
        <time>2014-09-06T12:14:54Z</time>
      </trkpt>
      <trkpt lat="45.62124" lon="5.874">
        <ele>274.11</ele>
        <time>2014-09-06T12:14:59Z</time>
      </trkpt>
      <trkpt lat="45.62028" lon="5.87402">
        <ele>273.63</ele>
        <time>2014-09-06T12:15:18Z</time>
      </trkpt>
      <trkpt lat="45.62008" lon="5.87408">
        <ele>273.63</ele>
        <time>2014-09-06T12:15:22Z</time>
      </trkpt>
      <trkpt lat="45.61945" lon="5.8744">
        <ele>273.15</ele>
        <time>2014-09-06T12:15:35Z</time>
      </trkpt>
      <trkpt lat="45.61923" lon="5.87448">
        <ele>273.15</ele>
        <time>2014-09-06T12:15:40Z</time>
      </trkpt>
      <trkpt lat="45.61847" lon="5.87458">
        <ele>273.15</ele>
        <time>2014-09-06T12:15:55Z</time>
      </trkpt>
      <trkpt lat="45.61841" lon="5.87459">
        <ele>273.15</ele>
        <time>2014-09-06T12:15:56Z</time>
      </trkpt>
      <trkpt lat="45.61821" lon="5.8746">
        <ele>273.15</ele>
        <time>2014-09-06T12:16:00Z</time>
      </trkpt>
      <trkpt lat="45.61811" lon="5.87461">
        <ele>273.15</ele>
        <time>2014-09-06T12:16:02Z</time>
      </trkpt>
      <trkpt lat="45.61746" lon="5.87479">
        <ele>272.67</ele>
        <time>2014-09-06T12:16:16Z</time>
      </trkpt>
      <trkpt lat="45.61737" lon="5.87484">
        <ele>272.67</ele>
        <time>2014-09-06T12:16:18Z</time>
      </trkpt>
      <trkpt lat="45.61707" lon="5.87505">
        <ele>272.67</ele>
        <time>2014-09-06T12:16:25Z</time>
      </trkpt>
      <trkpt lat="45.61681" lon="5.87522">
        <ele>273.63</ele>
        <time>2014-09-06T12:16:31Z</time>
      </trkpt>
      <trkpt lat="45.61626" lon="5.87548">
        <ele>273.63</ele>
        <time>2014-09-06T12:16:42Z</time>
      </trkpt>
      <trkpt lat="45.61617" lon="5.87555">
        <ele>274.11</ele>
        <time>2014-09-06T12:16:44Z</time>
      </trkpt>
      <trkpt lat="45.6154" lon="5.87595">
        <ele>273.63</ele>
        <time>2014-09-06T12:16:59Z</time>
      </trkpt>
      <trkpt lat="45.61466" lon="5.87649">
        <ele>273.63</ele>
        <time>2014-09-06T12:17:15Z</time>
      </trkpt>
      <trkpt lat="45.61406" lon="5.87689">
        <ele>273.15</ele>
        <time>2014-09-06T12:17:29Z</time>
      </trkpt>
      <trkpt lat="45.61393" lon="5.87697">
        <ele>273.15</ele>
        <time>2014-09-06T12:17:32Z</time>
      </trkpt>
      <trkpt lat="45.61388" lon="5.87699">
        <ele>273.15</ele>
        <time>2014-09-06T12:17:33Z</time>
      </trkpt>
      <trkpt lat="45.61318" lon="5.87739">
        <ele>273.15</ele>
        <time>2014-09-06T12:17:47Z</time>
      </trkpt>
      <trkpt lat="45.61225" lon="5.8777">
        <ele>273.63</ele>
        <time>2014-09-06T12:18:06Z</time>
      </trkpt>
      <trkpt lat="45.61205" lon="5.87776">
        <ele>273.63</ele>
        <time>2014-09-06T12:18:10Z</time>
      </trkpt>
      <trkpt lat="45.61161" lon="5.87789">
        <ele>273.15</ele>
        <time>2014-09-06T12:18:19Z</time>
      </trkpt>
      <trkpt lat="45.61156" lon="5.8779">
        <ele>273.15</ele>
        <time>2014-09-06T12:18:20Z</time>
      </trkpt>
      <trkpt lat="45.61152" lon="5.8779">
        <ele>273.15</ele>
        <time>2014-09-06T12:18:21Z</time>
      </trkpt>
      <trkpt lat="45.61147" lon="5.87792">
        <ele>273.15</ele>
        <time>2014-09-06T12:18:22Z</time>
      </trkpt>
      <trkpt lat="45.61141" lon="5.87794">
        <ele>273.15</ele>
        <time>2014-09-06T12:18:23Z</time>
      </trkpt>
      <trkpt lat="45.61049" lon="5.87835">
        <ele>274.11</ele>
        <time>2014-09-06T12:18:38Z</time>
      </trkpt>
      <trkpt lat="45.60973" lon="5.87867">
        <ele>273.63</ele>
        <time>2014-09-06T12:18:51Z</time>
      </trkpt>
      <trkpt lat="45.60956" lon="5.87875">
        <ele>273.63</ele>
        <time>2014-09-06T12:18:54Z</time>
      </trkpt>
      <trkpt lat="45.6095" lon="5.87877">
        <ele>273.63</ele>
        <time>2014-09-06T12:18:55Z</time>
      </trkpt>
      <trkpt lat="45.60945" lon="5.8788">
        <ele>273.63</ele>
        <time>2014-09-06T12:18:56Z</time>
      </trkpt>
      <trkpt lat="45.60881" lon="5.87926">
        <ele>274.11</ele>
        <time>2014-09-06T12:19:09Z</time>
      </trkpt>
      <trkpt lat="45.60877" lon="5.87929">
        <ele>274.11</ele>
        <time>2014-09-06T12:19:10Z</time>
      </trkpt>
      <trkpt lat="45.60864" lon="5.8794">
        <ele>274.59</ele>
        <time>2014-09-06T12:19:13Z</time>
      </trkpt>
      <trkpt lat="45.60814" lon="5.87975">
        <ele>274.59</ele>
        <time>2014-09-06T12:19:25Z</time>
      </trkpt>
      <trkpt lat="45.6076" lon="5.8802">
        <ele>275.07</ele>
        <time>2014-09-06T12:19:38Z</time>
      </trkpt>
      <trkpt lat="45.60748" lon="5.88029">
        <ele>275.07</ele>
        <time>2014-09-06T12:19:41Z</time>
      </trkpt>
      <trkpt lat="45.60727" lon="5.88048">
        <ele>275.07</ele>
        <time>2014-09-06T12:19:46Z</time>
      </trkpt>
      <trkpt lat="45.60681" lon="5.88086">
        <ele>275.07</ele>
        <time>2014-09-06T12:19:58Z</time>
      </trkpt>
      <trkpt lat="45.60626" lon="5.88119">
        <ele>275.07</ele>
        <time>2014-09-06T12:20:11Z</time>
      </trkpt>
      <trkpt lat="45.60599" lon="5.88126">
        <ele>275.07</ele>
        <time>2014-09-06T12:20:16Z</time>
      </trkpt>
      <trkpt lat="45.60574" lon="5.88133">
        <ele>275.07</ele>
        <time>2014-09-06T12:20:21Z</time>
      </trkpt>
      <trkpt lat="45.6057" lon="5.88135">
        <ele>275.07</ele>
        <time>2014-09-06T12:20:22Z</time>
      </trkpt>
      <trkpt lat="45.60564" lon="5.88137">
        <ele>275.07</ele>
        <time>2014-09-06T12:20:23Z</time>
      </trkpt>
      <trkpt lat="45.60542" lon="5.88141">
        <ele>275.07</ele>
        <time>2014-09-06T12:20:27Z</time>
      </trkpt>
      <trkpt lat="45.60512" lon="5.88141">
        <ele>275.07</ele>
        <time>2014-09-06T12:20:33Z</time>
      </trkpt>
      <trkpt lat="45.605" lon="5.88141">
        <ele>275.07</ele>
        <time>2014-09-06T12:20:35Z</time>
      </trkpt>
      <trkpt lat="45.60432" lon="5.88121">
        <ele>275.56</ele>
        <time>2014-09-06T12:20:50Z</time>
      </trkpt>
      <trkpt lat="45.60401" lon="5.8812">
        <ele>276.04</ele>
        <time>2014-09-06T12:21:02Z</time>
      </trkpt>
      <trkpt lat="45.60391" lon="5.88114">
        <ele>276.04</ele>
        <time>2014-09-06T12:21:17Z</time>
      </trkpt>
      <trkpt lat="45.60391" lon="5.88115">
        <ele>276.04</ele>
        <time>2014-09-06T12:21:18Z</time>
      </trkpt>
      <trkpt lat="45.60392" lon="5.88116">
        <ele>276.04</ele>
        <time>2014-09-06T12:21:19Z</time>
      </trkpt>
      <trkpt lat="45.60392" lon="5.88116">
        <ele>276.04</ele>
        <time>2014-09-06T12:21:20Z</time>
      </trkpt>
      <trkpt lat="45.60391" lon="5.88113">
        <ele>276.04</ele>
        <time>2014-09-06T12:21:32Z</time>
      </trkpt>
      <trkpt lat="45.6039" lon="5.88113">
        <ele>275.56</ele>
        <time>2014-09-06T12:22:10Z</time>
      </trkpt>
      <trkpt lat="45.60404" lon="5.88126">
        <ele>276.04</ele>
        <time>2014-09-06T12:22:25Z</time>
      </trkpt>
      <trkpt lat="45.60423" lon="5.88143">
        <ele>276.04</ele>
        <time>2014-09-06T12:22:31Z</time>
      </trkpt>
      <trkpt lat="45.60427" lon="5.88145">
        <ele>276.04</ele>
        <time>2014-09-06T12:22:32Z</time>
      </trkpt>
      <trkpt lat="45.60507" lon="5.88199">
        <ele>274.59</ele>
        <time>2014-09-06T12:22:48Z</time>
      </trkpt>
      <trkpt lat="45.60565" lon="5.88287">
        <ele>274.59</ele>
        <time>2014-09-06T12:23:04Z</time>
      </trkpt>
      <trkpt lat="45.60575" lon="5.88321">
        <ele>274.59</ele>
        <time>2014-09-06T12:23:09Z</time>
      </trkpt>
      <trkpt lat="45.60576" lon="5.88329">
        <ele>274.59</ele>
        <time>2014-09-06T12:23:10Z</time>
      </trkpt>
      <trkpt lat="45.6057" lon="5.88433">
        <ele>276.04</ele>
        <time>2014-09-06T12:23:25Z</time>
      </trkpt>
      <trkpt lat="45.60568" lon="5.88439">
        <ele>276.04</ele>
        <time>2014-09-06T12:23:26Z</time>
      </trkpt>
      <trkpt lat="45.60566" lon="5.88445">
        <ele>276.04</ele>
        <time>2014-09-06T12:23:27Z</time>
      </trkpt>
      <trkpt lat="45.60564" lon="5.88451">
        <ele>276.04</ele>
        <time>2014-09-06T12:23:28Z</time>
      </trkpt>
      <trkpt lat="45.60547" lon="5.88498">
        <ele>277</ele>
        <time>2014-09-06T12:23:36Z</time>
      </trkpt>
      <trkpt lat="45.60545" lon="5.88504">
        <ele>277</ele>
        <time>2014-09-06T12:23:37Z</time>
      </trkpt>
      <trkpt lat="45.60531" lon="5.88551">
        <ele>277</ele>
        <time>2014-09-06T12:23:46Z</time>
      </trkpt>
      <trkpt lat="45.60528" lon="5.88557">
        <ele>277</ele>
        <time>2014-09-06T12:23:47Z</time>
      </trkpt>
      <trkpt lat="45.60523" lon="5.88563">
        <ele>277</ele>
        <time>2014-09-06T12:23:48Z</time>
      </trkpt>
      <trkpt lat="45.60518" lon="5.88568">
        <ele>275.56</ele>
        <time>2014-09-06T12:23:49Z</time>
      </trkpt>
      <trkpt lat="45.60513" lon="5.88571">
        <ele>275.56</ele>
        <time>2014-09-06T12:23:50Z</time>
      </trkpt>
      <trkpt lat="45.60497" lon="5.88581">
        <ele>275.56</ele>
        <time>2014-09-06T12:23:53Z</time>
      </trkpt>
      <trkpt lat="45.60492" lon="5.88584">
        <ele>275.56</ele>
        <time>2014-09-06T12:23:54Z</time>
      </trkpt>
      <trkpt lat="45.60488" lon="5.88587">
        <ele>275.56</ele>
        <time>2014-09-06T12:23:55Z</time>
      </trkpt>
      <trkpt lat="45.60484" lon="5.8859">
        <ele>275.56</ele>
        <time>2014-09-06T12:23:56Z</time>
      </trkpt>
      <trkpt lat="45.60481" lon="5.88593">
        <ele>275.56</ele>
        <time>2014-09-06T12:23:57Z</time>
      </trkpt>
      <trkpt lat="45.60478" lon="5.88596">
        <ele>277</ele>
        <time>2014-09-06T12:23:58Z</time>
      </trkpt>
      <trkpt lat="45.60475" lon="5.88599">
        <ele>277</ele>
        <time>2014-09-06T12:23:59Z</time>
      </trkpt>
      <trkpt lat="45.60472" lon="5.88602">
        <ele>277</ele>
        <time>2014-09-06T12:24:00Z</time>
      </trkpt>
      <trkpt lat="45.60423" lon="5.8863">
        <ele>277.48</ele>
        <time>2014-09-06T12:24:14Z</time>
      </trkpt>
      <trkpt lat="45.60376" lon="5.88628">
        <ele>277</ele>
        <time>2014-09-06T12:24:26Z</time>
      </trkpt>
      <trkpt lat="45.6037" lon="5.88628">
        <ele>277</ele>
        <time>2014-09-06T12:24:29Z</time>
      </trkpt>
      <trkpt lat="45.60344" lon="5.88623">
        <ele>277</ele>
        <time>2014-09-06T12:24:39Z</time>
      </trkpt>
      <trkpt lat="45.60343" lon="5.88624">
        <ele>277</ele>
        <time>2014-09-06T12:24:40Z</time>
      </trkpt>
      <trkpt lat="45.60341" lon="5.88625">
        <ele>277</ele>
        <time>2014-09-06T12:24:41Z</time>
      </trkpt>
      <trkpt lat="45.6034" lon="5.88634">
        <ele>277</ele>
        <time>2014-09-06T12:24:44Z</time>
      </trkpt>
      <trkpt lat="45.60341" lon="5.88637">
        <ele>277.48</ele>
        <time>2014-09-06T12:24:45Z</time>
      </trkpt>
      <trkpt lat="45.60343" lon="5.88639">
        <ele>277.48</ele>
        <time>2014-09-06T12:24:46Z</time>
      </trkpt>
      <trkpt lat="45.60347" lon="5.88644">
        <ele>277.48</ele>
        <time>2014-09-06T12:24:48Z</time>
      </trkpt>
      <trkpt lat="45.60359" lon="5.88665">
        <ele>277.48</ele>
        <time>2014-09-06T12:24:57Z</time>
      </trkpt>
      <trkpt lat="45.60364" lon="5.88685">
        <ele>275.07</ele>
        <time>2014-09-06T12:25:02Z</time>
      </trkpt>
      <trkpt lat="45.60358" lon="5.88694">
        <ele>275.07</ele>
        <time>2014-09-06T12:25:04Z</time>
      </trkpt>
      <trkpt lat="45.60337" lon="5.88721">
        <ele>275.07</ele>
        <time>2014-09-06T12:25:09Z</time>
      </trkpt>
      <trkpt lat="45.60325" lon="5.88743">
        <ele>275.07</ele>
        <time>2014-09-06T12:25:13Z</time>
      </trkpt>
      <trkpt lat="45.60311" lon="5.88765">
        <ele>276.52</ele>
        <time>2014-09-06T12:25:17Z</time>
      </trkpt>
      <trkpt lat="45.60283" lon="5.88798">
        <ele>277.48</ele>
        <time>2014-09-06T12:25:24Z</time>
      </trkpt>
      <trkpt lat="45.60236" lon="5.88852">
        <ele>278.92</ele>
        <time>2014-09-06T12:25:37Z</time>
      </trkpt>
      <trkpt lat="45.60211" lon="5.88893">
        <ele>277.48</ele>
        <time>2014-09-06T12:25:46Z</time>
      </trkpt>
      <trkpt lat="45.60187" lon="5.88925">
        <ele>276.04</ele>
        <time>2014-09-06T12:25:53Z</time>
      </trkpt>
      <trkpt lat="45.60184" lon="5.8893">
        <ele>276.04</ele>
        <time>2014-09-06T12:25:54Z</time>
      </trkpt>
      <trkpt lat="45.6018" lon="5.88934">
        <ele>276.04</ele>
        <time>2014-09-06T12:25:55Z</time>
      </trkpt>
      <trkpt lat="45.60132" lon="5.88987">
        <ele>278.92</ele>
        <time>2014-09-06T12:26:08Z</time>
      </trkpt>
      <trkpt lat="45.60128" lon="5.88992">
        <ele>278.92</ele>
        <time>2014-09-06T12:26:09Z</time>
      </trkpt>
      <trkpt lat="45.60061" lon="5.89058">
        <ele>280.36</ele>
        <time>2014-09-06T12:26:25Z</time>
      </trkpt>
      <trkpt lat="45.60008" lon="5.89087">
        <ele>280.84</ele>
        <time>2014-09-06T12:26:36Z</time>
      </trkpt>
      <trkpt lat="45.59996" lon="5.89093">
        <ele>279.4</ele>
        <time>2014-09-06T12:26:38Z</time>
      </trkpt>
      <trkpt lat="45.59911" lon="5.89127">
        <ele>278.92</ele>
        <time>2014-09-06T12:26:52Z</time>
      </trkpt>
      <trkpt lat="45.59838" lon="5.89158">
        <ele>278.92</ele>
        <time>2014-09-06T12:27:05Z</time>
      </trkpt>
      <trkpt lat="45.59757" lon="5.89202">
        <ele>278.44</ele>
        <time>2014-09-06T12:27:20Z</time>
      </trkpt>
      <trkpt lat="45.59752" lon="5.89204">
        <ele>278.44</ele>
        <time>2014-09-06T12:27:21Z</time>
      </trkpt>
      <trkpt lat="45.59747" lon="5.89207">
        <ele>278.44</ele>
        <time>2014-09-06T12:27:22Z</time>
      </trkpt>
      <trkpt lat="45.59716" lon="5.8922">
        <ele>278.44</ele>
        <time>2014-09-06T12:27:28Z</time>
      </trkpt>
      <trkpt lat="45.59711" lon="5.89224">
        <ele>278.44</ele>
        <time>2014-09-06T12:27:29Z</time>
      </trkpt>
      <trkpt lat="45.59706" lon="5.89227">
        <ele>278.44</ele>
        <time>2014-09-06T12:27:30Z</time>
      </trkpt>
      <trkpt lat="45.597" lon="5.8923">
        <ele>278.44</ele>
        <time>2014-09-06T12:27:31Z</time>
      </trkpt>
      <trkpt lat="45.59694" lon="5.89232">
        <ele>278.44</ele>
        <time>2014-09-06T12:27:32Z</time>
      </trkpt>
      <trkpt lat="45.59632" lon="5.8925">
        <ele>278.44</ele>
        <time>2014-09-06T12:27:42Z</time>
      </trkpt>
      <trkpt lat="45.59626" lon="5.89251">
        <ele>278.44</ele>
        <time>2014-09-06T12:27:43Z</time>
      </trkpt>
      <trkpt lat="45.59608" lon="5.89252">
        <ele>279.4</ele>
        <time>2014-09-06T12:27:46Z</time>
      </trkpt>
      <trkpt lat="45.59499" lon="5.8928">
        <ele>279.4</ele>
        <time>2014-09-06T12:28:03Z</time>
      </trkpt>
      <trkpt lat="45.59477" lon="5.89294">
        <ele>279.4</ele>
        <time>2014-09-06T12:28:07Z</time>
      </trkpt>
      <trkpt lat="45.59466" lon="5.89298">
        <ele>279.4</ele>
        <time>2014-09-06T12:28:09Z</time>
      </trkpt>
      <trkpt lat="45.5946" lon="5.89302">
        <ele>279.4</ele>
        <time>2014-09-06T12:28:10Z</time>
      </trkpt>
      <trkpt lat="45.59454" lon="5.89306">
        <ele>279.4</ele>
        <time>2014-09-06T12:28:11Z</time>
      </trkpt>
      <trkpt lat="45.59449" lon="5.89311">
        <ele>279.4</ele>
        <time>2014-09-06T12:28:12Z</time>
      </trkpt>
      <trkpt lat="45.59444" lon="5.89316">
        <ele>279.4</ele>
        <time>2014-09-06T12:28:13Z</time>
      </trkpt>
      <trkpt lat="45.5936" lon="5.89408">
        <ele>279.4</ele>
        <time>2014-09-06T12:28:31Z</time>
      </trkpt>
      <trkpt lat="45.59287" lon="5.89507">
        <ele>280.36</ele>
        <time>2014-09-06T12:28:47Z</time>
      </trkpt>
      <trkpt lat="45.59207" lon="5.89618">
        <ele>279.88</ele>
        <time>2014-09-06T12:29:06Z</time>
      </trkpt>
      <trkpt lat="45.59153" lon="5.89698">
        <ele>279.88</ele>
        <time>2014-09-06T12:29:19Z</time>
      </trkpt>
      <trkpt lat="45.59087" lon="5.89772">
        <ele>280.84</ele>
        <time>2014-09-06T12:29:33Z</time>
      </trkpt>
      <trkpt lat="45.59021" lon="5.89862">
        <ele>280.84</ele>
        <time>2014-09-06T12:29:48Z</time>
      </trkpt>
      <trkpt lat="45.58955" lon="5.89951">
        <ele>281.32</ele>
        <time>2014-09-06T12:30:03Z</time>
      </trkpt>
      <trkpt lat="45.58913" lon="5.90018">
        <ele>281.32</ele>
        <time>2014-09-06T12:30:13Z</time>
      </trkpt>
      <trkpt lat="45.5891" lon="5.90025">
        <ele>281.8</ele>
        <time>2014-09-06T12:30:14Z</time>
      </trkpt>
      <trkpt lat="45.58892" lon="5.9006">
        <ele>280.36</ele>
        <time>2014-09-06T12:30:18Z</time>
      </trkpt>
      <trkpt lat="45.58886" lon="5.90068">
        <ele>279.88</ele>
        <time>2014-09-06T12:30:19Z</time>
      </trkpt>
      <trkpt lat="45.5888" lon="5.90075">
        <ele>279.88</ele>
        <time>2014-09-06T12:30:20Z</time>
      </trkpt>
      <trkpt lat="45.58873" lon="5.9008">
        <ele>279.88</ele>
        <time>2014-09-06T12:30:21Z</time>
      </trkpt>
      <trkpt lat="45.58867" lon="5.90085">
        <ele>279.88</ele>
        <time>2014-09-06T12:30:22Z</time>
      </trkpt>
      <trkpt lat="45.58847" lon="5.90102">
        <ele>281.32</ele>
        <time>2014-09-06T12:30:26Z</time>
      </trkpt>
      <trkpt lat="45.58844" lon="5.90106">
        <ele>281.32</ele>
        <time>2014-09-06T12:30:27Z</time>
      </trkpt>
      <trkpt lat="45.58792" lon="5.90177">
        <ele>281.8</ele>
        <time>2014-09-06T12:30:40Z</time>
      </trkpt>
      <trkpt lat="45.58706" lon="5.90288">
        <ele>281.8</ele>
        <time>2014-09-06T12:31:00Z</time>
      </trkpt>
      <trkpt lat="45.58647" lon="5.90374">
        <ele>281.8</ele>
        <time>2014-09-06T12:31:15Z</time>
      </trkpt>
      <trkpt lat="45.58569" lon="5.90463">
        <ele>283.25</ele>
        <time>2014-09-06T12:31:33Z</time>
      </trkpt>
      <trkpt lat="45.58488" lon="5.9055">
        <ele>283.25</ele>
        <time>2014-09-06T12:31:51Z</time>
      </trkpt>
      <trkpt lat="45.58439" lon="5.90625">
        <ele>283.73</ele>
        <time>2014-09-06T12:32:03Z</time>
      </trkpt>
      <trkpt lat="45.58423" lon="5.90646">
        <ele>283.73</ele>
        <time>2014-09-06T12:32:07Z</time>
      </trkpt>
      <trkpt lat="45.58418" lon="5.9065">
        <ele>283.73</ele>
        <time>2014-09-06T12:32:08Z</time>
      </trkpt>
      <trkpt lat="45.58414" lon="5.90653">
        <ele>283.73</ele>
        <time>2014-09-06T12:32:09Z</time>
      </trkpt>
      <trkpt lat="45.58408" lon="5.90654">
        <ele>283.73</ele>
        <time>2014-09-06T12:32:10Z</time>
      </trkpt>
      <trkpt lat="45.58402" lon="5.90653">
        <ele>283.73</ele>
        <time>2014-09-06T12:32:11Z</time>
      </trkpt>
      <trkpt lat="45.58397" lon="5.90652">
        <ele>283.73</ele>
        <time>2014-09-06T12:32:12Z</time>
      </trkpt>
      <trkpt lat="45.58386" lon="5.90652">
        <ele>283.25</ele>
        <time>2014-09-06T12:32:14Z</time>
      </trkpt>
      <trkpt lat="45.5838" lon="5.90653">
        <ele>283.25</ele>
        <time>2014-09-06T12:32:15Z</time>
      </trkpt>
      <trkpt lat="45.58375" lon="5.90655">
        <ele>283.25</ele>
        <time>2014-09-06T12:32:16Z</time>
      </trkpt>
      <trkpt lat="45.58282" lon="5.9068">
        <ele>283.73</ele>
        <time>2014-09-06T12:32:32Z</time>
      </trkpt>
      <trkpt lat="45.58246" lon="5.90694">
        <ele>281.8</ele>
        <time>2014-09-06T12:32:38Z</time>
      </trkpt>
      <trkpt lat="45.58235" lon="5.907">
        <ele>281.8</ele>
        <time>2014-09-06T12:32:40Z</time>
      </trkpt>
      <trkpt lat="45.58224" lon="5.90705">
        <ele>281.8</ele>
        <time>2014-09-06T12:32:42Z</time>
      </trkpt>
      <trkpt lat="45.58219" lon="5.90708">
        <ele>281.8</ele>
        <time>2014-09-06T12:32:43Z</time>
      </trkpt>
      <trkpt lat="45.58214" lon="5.90713">
        <ele>283.25</ele>
        <time>2014-09-06T12:32:44Z</time>
      </trkpt>
      <trkpt lat="45.5821" lon="5.90717">
        <ele>283.25</ele>
        <time>2014-09-06T12:32:45Z</time>
      </trkpt>
      <trkpt lat="45.58206" lon="5.90722">
        <ele>283.25</ele>
        <time>2014-09-06T12:32:46Z</time>
      </trkpt>
      <trkpt lat="45.58202" lon="5.90726">
        <ele>283.25</ele>
        <time>2014-09-06T12:32:47Z</time>
      </trkpt>
      <trkpt lat="45.58196" lon="5.90728">
        <ele>283.25</ele>
        <time>2014-09-06T12:32:48Z</time>
      </trkpt>
      <trkpt lat="45.58105" lon="5.90764">
        <ele>284.69</ele>
        <time>2014-09-06T12:33:04Z</time>
      </trkpt>
      <trkpt lat="45.58002" lon="5.90803">
        <ele>285.17</ele>
        <time>2014-09-06T12:33:23Z</time>
      </trkpt>
      <trkpt lat="45.57963" lon="5.90813">
        <ele>285.65</ele>
        <time>2014-09-06T12:33:30Z</time>
      </trkpt>
      <trkpt lat="45.57958" lon="5.90813">
        <ele>285.65</ele>
        <time>2014-09-06T12:33:31Z</time>
      </trkpt>
      <trkpt lat="45.57877" lon="5.90806">
        <ele>285.65</ele>
        <time>2014-09-06T12:33:46Z</time>
      </trkpt>
      <trkpt lat="45.57844" lon="5.90801">
        <ele>285.65</ele>
        <time>2014-09-06T12:33:52Z</time>
      </trkpt>
      <trkpt lat="45.57839" lon="5.90799">
        <ele>286.61</ele>
        <time>2014-09-06T12:33:53Z</time>
      </trkpt>
      <trkpt lat="45.57749" lon="5.90748">
        <ele>287.09</ele>
        <time>2014-09-06T12:34:11Z</time>
      </trkpt>
      <trkpt lat="45.57658" lon="5.90695">
        <ele>288.53</ele>
        <time>2014-09-06T12:34:30Z</time>
      </trkpt>
      <trkpt lat="45.57603" lon="5.90664">
        <ele>289.01</ele>
        <time>2014-09-06T12:34:45Z</time>
      </trkpt>
      <trkpt lat="45.5757" lon="5.90642">
        <ele>289.49</ele>
        <time>2014-09-06T12:34:56Z</time>
      </trkpt>
      <trkpt lat="45.57497" lon="5.90602">
        <ele>289.49</ele>
        <time>2014-09-06T12:35:11Z</time>
      </trkpt>
      <trkpt lat="45.57414" lon="5.90551">
        <ele>289.97</ele>
        <time>2014-09-06T12:35:30Z</time>
      </trkpt>
      <trkpt lat="45.57377" lon="5.90523">
        <ele>290.46</ele>
        <time>2014-09-06T12:35:44Z</time>
      </trkpt>
      <trkpt lat="45.57372" lon="5.90521">
        <ele>290.94</ele>
        <time>2014-09-06T12:35:56Z</time>
      </trkpt>
      <trkpt lat="45.57361" lon="5.90516">
        <ele>291.42</ele>
        <time>2014-09-06T12:36:07Z</time>
      </trkpt>
      <trkpt lat="45.5736" lon="5.90513">
        <ele>291.42</ele>
        <time>2014-09-06T12:36:08Z</time>
      </trkpt>
      <trkpt lat="45.57359" lon="5.9051">
        <ele>291.42</ele>
        <time>2014-09-06T12:36:09Z</time>
      </trkpt>
      <trkpt lat="45.57359" lon="5.90507">
        <ele>291.42</ele>
        <time>2014-09-06T12:36:10Z</time>
      </trkpt>
      <trkpt lat="45.57358" lon="5.90503">
        <ele>291.42</ele>
        <time>2014-09-06T12:36:11Z</time>
      </trkpt>
      <trkpt lat="45.57357" lon="5.90502">
        <ele>291.42</ele>
        <time>2014-09-06T12:36:22Z</time>
      </trkpt>
      <trkpt lat="45.57355" lon="5.90503">
        <ele>290.94</ele>
        <time>2014-09-06T12:36:48Z</time>
      </trkpt>
      <trkpt lat="45.57354" lon="5.90502">
        <ele>290.94</ele>
        <time>2014-09-06T12:37:10Z</time>
      </trkpt>
      <trkpt lat="45.57354" lon="5.905">
        <ele>290.94</ele>
        <time>2014-09-06T12:37:27Z</time>
      </trkpt>
      <trkpt lat="45.57354" lon="5.90499">
        <ele>290.46</ele>
        <time>2014-09-06T12:37:52Z</time>
      </trkpt>
      <trkpt lat="45.57354" lon="5.90497">
        <ele>290.46</ele>
        <time>2014-09-06T12:38:07Z</time>
      </trkpt>
      <trkpt lat="45.57354" lon="5.90497">
        <ele>290.46</ele>
        <time>2014-09-06T12:38:31Z</time>
      </trkpt>
      <trkpt lat="45.57354" lon="5.90496">
        <ele>289.97</ele>
        <time>2014-09-06T12:38:59Z</time>
      </trkpt>
      <trkpt lat="45.57354" lon="5.90497">
        <ele>289.97</ele>
        <time>2014-09-06T12:39:21Z</time>
      </trkpt>
      <trkpt lat="45.57355" lon="5.90496">
        <ele>289.49</ele>
        <time>2014-09-06T12:39:45Z</time>
      </trkpt>
      <trkpt lat="45.57355" lon="5.90497">
        <ele>289.49</ele>
        <time>2014-09-06T12:40:12Z</time>
      </trkpt>
      <trkpt lat="45.57354" lon="5.90498">
        <ele>289.01</ele>
        <time>2014-09-06T12:40:40Z</time>
      </trkpt>
      <trkpt lat="45.57355" lon="5.905">
        <ele>289.01</ele>
        <time>2014-09-06T12:41:09Z</time>
      </trkpt>
      <trkpt lat="45.57355" lon="5.90499">
        <ele>288.53</ele>
        <time>2014-09-06T12:41:35Z</time>
      </trkpt>
      <trkpt lat="45.57355" lon="5.90498">
        <ele>288.53</ele>
        <time>2014-09-06T12:41:51Z</time>
      </trkpt>
      <trkpt lat="45.57355" lon="5.90501">
        <ele>288.53</ele>
        <time>2014-09-06T12:42:11Z</time>
      </trkpt>
      <trkpt lat="45.57355" lon="5.90503">
        <ele>288.53</ele>
        <time>2014-09-06T12:42:12Z</time>
      </trkpt>
      <trkpt lat="45.57355" lon="5.90505">
        <ele>288.53</ele>
        <time>2014-09-06T12:42:13Z</time>
      </trkpt>
      <trkpt lat="45.57355" lon="5.90508">
        <ele>288.53</ele>
        <time>2014-09-06T12:42:14Z</time>
      </trkpt>
      <trkpt lat="45.57354" lon="5.90511">
        <ele>289.01</ele>
        <time>2014-09-06T12:42:15Z</time>
      </trkpt>
      <trkpt lat="45.57347" lon="5.90544">
        <ele>289.01</ele>
        <time>2014-09-06T12:42:26Z</time>
      </trkpt>
      <trkpt lat="45.57327" lon="5.90626">
        <ele>288.53</ele>
        <time>2014-09-06T12:42:41Z</time>
      </trkpt>
      <trkpt lat="45.57306" lon="5.90707">
        <ele>287.57</ele>
        <time>2014-09-06T12:42:51Z</time>
      </trkpt>
      <trkpt lat="45.57268" lon="5.90849">
        <ele>286.61</ele>
        <time>2014-09-06T12:43:08Z</time>
      </trkpt>
      <trkpt lat="45.5723" lon="5.90996">
        <ele>284.69</ele>
        <time>2014-09-06T12:43:26Z</time>
      </trkpt>
      <trkpt lat="45.57219" lon="5.91014">
        <ele>283.73</ele>
        <time>2014-09-06T12:43:30Z</time>
      </trkpt>
      <trkpt lat="45.57211" lon="5.91021">
        <ele>283.73</ele>
        <time>2014-09-06T12:43:32Z</time>
      </trkpt>
      <trkpt lat="45.57208" lon="5.91025">
        <ele>283.73</ele>
        <time>2014-09-06T12:43:33Z</time>
      </trkpt>
      <trkpt lat="45.57206" lon="5.9103">
        <ele>283.25</ele>
        <time>2014-09-06T12:43:34Z</time>
      </trkpt>
      <trkpt lat="45.57204" lon="5.91034">
        <ele>283.25</ele>
        <time>2014-09-06T12:43:35Z</time>
      </trkpt>
      <trkpt lat="45.57203" lon="5.91038">
        <ele>283.25</ele>
        <time>2014-09-06T12:43:36Z</time>
      </trkpt>
      <trkpt lat="45.57203" lon="5.91043">
        <ele>283.25</ele>
        <time>2014-09-06T12:43:37Z</time>
      </trkpt>
      <trkpt lat="45.57204" lon="5.91048">
        <ele>283.25</ele>
        <time>2014-09-06T12:43:38Z</time>
      </trkpt>
      <trkpt lat="45.57205" lon="5.91053">
        <ele>283.25</ele>
        <time>2014-09-06T12:43:39Z</time>
      </trkpt>
      <trkpt lat="45.57206" lon="5.91057">
        <ele>283.25</ele>
        <time>2014-09-06T12:43:40Z</time>
      </trkpt>
      <trkpt lat="45.57205" lon="5.9106">
        <ele>283.25</ele>
        <time>2014-09-06T12:43:41Z</time>
      </trkpt>
      <trkpt lat="45.57201" lon="5.9106">
        <ele>283.25</ele>
        <time>2014-09-06T12:43:42Z</time>
      </trkpt>
      <trkpt lat="45.57197" lon="5.91059">
        <ele>283.25</ele>
        <time>2014-09-06T12:43:43Z</time>
      </trkpt>
      <trkpt lat="45.57192" lon="5.91061">
        <ele>283.25</ele>
        <time>2014-09-06T12:43:44Z</time>
      </trkpt>
      <trkpt lat="45.57188" lon="5.91063">
        <ele>283.25</ele>
        <time>2014-09-06T12:43:45Z</time>
      </trkpt>
      <trkpt lat="45.57184" lon="5.91066">
        <ele>283.25</ele>
        <time>2014-09-06T12:43:46Z</time>
      </trkpt>
      <trkpt lat="45.57123" lon="5.91117">
        <ele>283.25</ele>
        <time>2014-09-06T12:44:00Z</time>
      </trkpt>
      <trkpt lat="45.57075" lon="5.9116">
        <ele>283.25</ele>
        <time>2014-09-06T12:44:11Z</time>
      </trkpt>
      <trkpt lat="45.5702" lon="5.91204">
        <ele>283.25</ele>
        <time>2014-09-06T12:44:24Z</time>
      </trkpt>
      <trkpt lat="45.56982" lon="5.91238">
        <ele>283.25</ele>
        <time>2014-09-06T12:44:36Z</time>
      </trkpt>
      <trkpt lat="45.56975" lon="5.91246">
        <ele>282.77</ele>
        <time>2014-09-06T12:44:44Z</time>
      </trkpt>
      <trkpt lat="45.56963" lon="5.91251">
        <ele>282.77</ele>
        <time>2014-09-06T12:44:52Z</time>
      </trkpt>
      <trkpt lat="45.56961" lon="5.91249">
        <ele>282.77</ele>
        <time>2014-09-06T12:44:53Z</time>
      </trkpt>
      <trkpt lat="45.56958" lon="5.91248">
        <ele>282.77</ele>
        <time>2014-09-06T12:44:54Z</time>
      </trkpt>
      <trkpt lat="45.56955" lon="5.91249">
        <ele>282.77</ele>
        <time>2014-09-06T12:44:55Z</time>
      </trkpt>
      <trkpt lat="45.5695" lon="5.91253">
        <ele>282.77</ele>
        <time>2014-09-06T12:44:56Z</time>
      </trkpt>
      <trkpt lat="45.56946" lon="5.91257">
        <ele>282.77</ele>
        <time>2014-09-06T12:44:57Z</time>
      </trkpt>
      <trkpt lat="45.56899" lon="5.91301">
        <ele>284.21</ele>
        <time>2014-09-06T12:45:09Z</time>
      </trkpt>
      <trkpt lat="45.56895" lon="5.91305">
        <ele>284.21</ele>
        <time>2014-09-06T12:45:10Z</time>
      </trkpt>
      <trkpt lat="45.56891" lon="5.91308">
        <ele>284.21</ele>
        <time>2014-09-06T12:45:11Z</time>
      </trkpt>
      <trkpt lat="45.56887" lon="5.91311">
        <ele>284.21</ele>
        <time>2014-09-06T12:45:12Z</time>
      </trkpt>
      <trkpt lat="45.56874" lon="5.91322">
        <ele>284.21</ele>
        <time>2014-09-06T12:45:15Z</time>
      </trkpt>
      <trkpt lat="45.5683" lon="5.91365">
        <ele>284.21</ele>
        <time>2014-09-06T12:45:26Z</time>
      </trkpt>
      <trkpt lat="45.56826" lon="5.91369">
        <ele>284.21</ele>
        <time>2014-09-06T12:45:27Z</time>
      </trkpt>
      <trkpt lat="45.56822" lon="5.91373">
        <ele>284.21</ele>
        <time>2014-09-06T12:45:28Z</time>
      </trkpt>
      <trkpt lat="45.56817" lon="5.91376">
        <ele>284.21</ele>
        <time>2014-09-06T12:45:29Z</time>
      </trkpt>
      <trkpt lat="45.56813" lon="5.9138">
        <ele>284.21</ele>
        <time>2014-09-06T12:45:30Z</time>
      </trkpt>
      <trkpt lat="45.56806" lon="5.91387">
        <ele>284.21</ele>
        <time>2014-09-06T12:45:32Z</time>
      </trkpt>
      <trkpt lat="45.56783" lon="5.91409">
        <ele>284.21</ele>
        <time>2014-09-06T12:45:38Z</time>
      </trkpt>
      <trkpt lat="45.56775" lon="5.91415">
        <ele>284.21</ele>
        <time>2014-09-06T12:45:40Z</time>
      </trkpt>
      <trkpt lat="45.56742" lon="5.91446">
        <ele>284.21</ele>
        <time>2014-09-06T12:45:48Z</time>
      </trkpt>
      <trkpt lat="45.56734" lon="5.91453">
        <ele>284.21</ele>
        <time>2014-09-06T12:45:50Z</time>
      </trkpt>
      <trkpt lat="45.56716" lon="5.91466">
        <ele>284.21</ele>
        <time>2014-09-06T12:45:54Z</time>
      </trkpt>
      <trkpt lat="45.56712" lon="5.91468">
        <ele>284.21</ele>
        <time>2014-09-06T12:45:55Z</time>
      </trkpt>
      <trkpt lat="45.56698" lon="5.91476">
        <ele>284.21</ele>
        <time>2014-09-06T12:45:58Z</time>
      </trkpt>
      <trkpt lat="45.56694" lon="5.9148">
        <ele>284.21</ele>
        <time>2014-09-06T12:45:59Z</time>
      </trkpt>
      <trkpt lat="45.56691" lon="5.91485">
        <ele>284.69</ele>
        <time>2014-09-06T12:46:00Z</time>
      </trkpt>
      <trkpt lat="45.56688" lon="5.91489">
        <ele>284.69</ele>
        <time>2014-09-06T12:46:01Z</time>
      </trkpt>
      <trkpt lat="45.56687" lon="5.91494">
        <ele>284.69</ele>
        <time>2014-09-06T12:46:02Z</time>
      </trkpt>
      <trkpt lat="45.56684" lon="5.91498">
        <ele>283.25</ele>
        <time>2014-09-06T12:46:10Z</time>
      </trkpt>
      <trkpt lat="45.56686" lon="5.91495">
        <ele>283.25</ele>
        <time>2014-09-06T12:46:42Z</time>
      </trkpt>
      <trkpt lat="45.56685" lon="5.91494">
        <ele>283.25</ele>
        <time>2014-09-06T12:47:17Z</time>
      </trkpt>
      <trkpt lat="45.56685" lon="5.91495">
        <ele>282.77</ele>
        <time>2014-09-06T12:47:40Z</time>
      </trkpt>
      <trkpt lat="45.56682" lon="5.91498">
        <ele>282.77</ele>
        <time>2014-09-06T12:48:21Z</time>
      </trkpt>
      <trkpt lat="45.56681" lon="5.91499">
        <ele>282.77</ele>
        <time>2014-09-06T12:48:55Z</time>
      </trkpt>
      <trkpt lat="45.56684" lon="5.915">
        <ele>282.77</ele>
        <time>2014-09-06T12:49:20Z</time>
      </trkpt>
      <trkpt lat="45.56684" lon="5.91501">
        <ele>282.28</ele>
        <time>2014-09-06T12:49:39Z</time>
      </trkpt>
      <trkpt lat="45.56683" lon="5.915">
        <ele>282.28</ele>
        <time>2014-09-06T12:49:40Z</time>
      </trkpt>
      <trkpt lat="45.56682" lon="5.91498">
        <ele>282.28</ele>
        <time>2014-09-06T12:49:41Z</time>
      </trkpt>
      <trkpt lat="45.56681" lon="5.91496">
        <ele>282.28</ele>
        <time>2014-09-06T12:49:42Z</time>
      </trkpt>
      <trkpt lat="45.56679" lon="5.91495">
        <ele>282.28</ele>
        <time>2014-09-06T12:49:43Z</time>
      </trkpt>
      <trkpt lat="45.56677" lon="5.91496">
        <ele>283.73</ele>
        <time>2014-09-06T12:49:44Z</time>
      </trkpt>
      <trkpt lat="45.56674" lon="5.91499">
        <ele>283.73</ele>
        <time>2014-09-06T12:49:45Z</time>
      </trkpt>
      <trkpt lat="45.56672" lon="5.91502">
        <ele>283.73</ele>
        <time>2014-09-06T12:49:46Z</time>
      </trkpt>
      <trkpt lat="45.56668" lon="5.91505">
        <ele>283.73</ele>
        <time>2014-09-06T12:49:47Z</time>
      </trkpt>
      <trkpt lat="45.56664" lon="5.91506">
        <ele>283.73</ele>
        <time>2014-09-06T12:49:48Z</time>
      </trkpt>
      <trkpt lat="45.5666" lon="5.91507">
        <ele>283.73</ele>
        <time>2014-09-06T12:49:49Z</time>
      </trkpt>
      <trkpt lat="45.56655" lon="5.91508">
        <ele>283.73</ele>
        <time>2014-09-06T12:49:50Z</time>
      </trkpt>
      <trkpt lat="45.56651" lon="5.91509">
        <ele>283.73</ele>
        <time>2014-09-06T12:49:51Z</time>
      </trkpt>
      <trkpt lat="45.56646" lon="5.9151">
        <ele>283.73</ele>
        <time>2014-09-06T12:49:52Z</time>
      </trkpt>
      <trkpt lat="45.5664" lon="5.91511">
        <ele>283.73</ele>
        <time>2014-09-06T12:49:53Z</time>
      </trkpt>
      <trkpt lat="45.56635" lon="5.91513">
        <ele>283.73</ele>
        <time>2014-09-06T12:49:54Z</time>
      </trkpt>
      <trkpt lat="45.56626" lon="5.91521">
        <ele>283.73</ele>
        <time>2014-09-06T12:49:56Z</time>
      </trkpt>
      <trkpt lat="45.56624" lon="5.91527">
        <ele>283.73</ele>
        <time>2014-09-06T12:49:57Z</time>
      </trkpt>
      <trkpt lat="45.5662" lon="5.9154">
        <ele>283.73</ele>
        <time>2014-09-06T12:49:59Z</time>
      </trkpt>
      <trkpt lat="45.56617" lon="5.91546">
        <ele>283.73</ele>
        <time>2014-09-06T12:50:00Z</time>
      </trkpt>
      <trkpt lat="45.56574" lon="5.91635">
        <ele>283.73</ele>
        <time>2014-09-06T12:50:14Z</time>
      </trkpt>
      <trkpt lat="45.56565" lon="5.91682">
        <ele>284.21</ele>
        <time>2014-09-06T12:50:21Z</time>
      </trkpt>
      <trkpt lat="45.56561" lon="5.91727">
        <ele>285.17</ele>
        <time>2014-09-06T12:50:30Z</time>
      </trkpt>
      <trkpt lat="45.56563" lon="5.9173">
        <ele>285.65</ele>
        <time>2014-09-06T12:50:31Z</time>
      </trkpt>
      <trkpt lat="45.56622" lon="5.91772">
        <ele>286.13</ele>
        <time>2014-09-06T12:50:43Z</time>
      </trkpt>
      <trkpt lat="45.56639" lon="5.91784">
        <ele>286.61</ele>
        <time>2014-09-06T12:50:46Z</time>
      </trkpt>
      <trkpt lat="45.56644" lon="5.91789">
        <ele>286.61</ele>
        <time>2014-09-06T12:50:47Z</time>
      </trkpt>
      <trkpt lat="45.56672" lon="5.91809">
        <ele>287.09</ele>
        <time>2014-09-06T12:50:52Z</time>
      </trkpt>
      <trkpt lat="45.56687" lon="5.91823">
        <ele>287.09</ele>
        <time>2014-09-06T12:50:55Z</time>
      </trkpt>
      <trkpt lat="45.56697" lon="5.91834">
        <ele>287.09</ele>
        <time>2014-09-06T12:50:57Z</time>
      </trkpt>
      <trkpt lat="45.56702" lon="5.91839">
        <ele>287.09</ele>
        <time>2014-09-06T12:50:58Z</time>
      </trkpt>
      <trkpt lat="45.56721" lon="5.9186">
        <ele>287.57</ele>
        <time>2014-09-06T12:51:02Z</time>
      </trkpt>
      <trkpt lat="45.5673" lon="5.9187">
        <ele>287.57</ele>
        <time>2014-09-06T12:51:04Z</time>
      </trkpt>
      <trkpt lat="45.56775" lon="5.91911">
        <ele>288.53</ele>
        <time>2014-09-06T12:51:13Z</time>
      </trkpt>
      <trkpt lat="45.56779" lon="5.91915">
        <ele>288.53</ele>
        <time>2014-09-06T12:51:14Z</time>
      </trkpt>
      <trkpt lat="45.56848" lon="5.91979">
        <ele>288.53</ele>
        <time>2014-09-06T12:51:29Z</time>
      </trkpt>
      <trkpt lat="45.56847" lon="5.91989">
        <ele>288.53</ele>
        <time>2014-09-06T12:51:31Z</time>
      </trkpt>
      <trkpt lat="45.56844" lon="5.91995">
        <ele>289.01</ele>
        <time>2014-09-06T12:51:32Z</time>
      </trkpt>
      <trkpt lat="45.56842" lon="5.92002">
        <ele>287.57</ele>
        <time>2014-09-06T12:51:33Z</time>
      </trkpt>
      <trkpt lat="45.5684" lon="5.92008">
        <ele>287.57</ele>
        <time>2014-09-06T12:51:34Z</time>
      </trkpt>
      <trkpt lat="45.56824" lon="5.92057">
        <ele>287.57</ele>
        <time>2014-09-06T12:51:41Z</time>
      </trkpt>
      <trkpt lat="45.56823" lon="5.92064">
        <ele>287.57</ele>
        <time>2014-09-06T12:51:42Z</time>
      </trkpt>
      <trkpt lat="45.56823" lon="5.92091">
        <ele>287.57</ele>
        <time>2014-09-06T12:51:46Z</time>
      </trkpt>
      <trkpt lat="45.56821" lon="5.92097">
        <ele>287.57</ele>
        <time>2014-09-06T12:51:47Z</time>
      </trkpt>
      <trkpt lat="45.56818" lon="5.92103">
        <ele>289.01</ele>
        <time>2014-09-06T12:51:48Z</time>
      </trkpt>
      <trkpt lat="45.56815" lon="5.9211">
        <ele>289.49</ele>
        <time>2014-09-06T12:51:49Z</time>
      </trkpt>
      <trkpt lat="45.56811" lon="5.92117">
        <ele>289.49</ele>
        <time>2014-09-06T12:51:50Z</time>
      </trkpt>
      <trkpt lat="45.56807" lon="5.92123">
        <ele>289.49</ele>
        <time>2014-09-06T12:51:51Z</time>
      </trkpt>
      <trkpt lat="45.56802" lon="5.92128">
        <ele>289.49</ele>
        <time>2014-09-06T12:51:52Z</time>
      </trkpt>
      <trkpt lat="45.56797" lon="5.92133">
        <ele>289.49</ele>
        <time>2014-09-06T12:51:53Z</time>
      </trkpt>
      <trkpt lat="45.56793" lon="5.92138">
        <ele>289.49</ele>
        <time>2014-09-06T12:51:54Z</time>
      </trkpt>
      <trkpt lat="45.56744" lon="5.92204">
        <ele>289.49</ele>
        <time>2014-09-06T12:52:05Z</time>
      </trkpt>
      <trkpt lat="45.56683" lon="5.92276">
        <ele>289.97</ele>
        <time>2014-09-06T12:52:18Z</time>
      </trkpt>
      <trkpt lat="45.56676" lon="5.92287">
        <ele>289.97</ele>
        <time>2014-09-06T12:52:20Z</time>
      </trkpt>
      <trkpt lat="45.56674" lon="5.92294">
        <ele>289.97</ele>
        <time>2014-09-06T12:52:21Z</time>
      </trkpt>
      <trkpt lat="45.56675" lon="5.92301">
        <ele>289.97</ele>
        <time>2014-09-06T12:52:22Z</time>
      </trkpt>
      <trkpt lat="45.56677" lon="5.92308">
        <ele>289.97</ele>
        <time>2014-09-06T12:52:23Z</time>
      </trkpt>
      <trkpt lat="45.5668" lon="5.92316">
        <ele>289.97</ele>
        <time>2014-09-06T12:52:24Z</time>
      </trkpt>
      <trkpt lat="45.56683" lon="5.92324">
        <ele>289.97</ele>
        <time>2014-09-06T12:52:25Z</time>
      </trkpt>
      <trkpt lat="45.56686" lon="5.92331">
        <ele>289.97</ele>
        <time>2014-09-06T12:52:26Z</time>
      </trkpt>
      <trkpt lat="45.56696" lon="5.92352">
        <ele>290.46</ele>
        <time>2014-09-06T12:52:29Z</time>
      </trkpt>
      <trkpt lat="45.56717" lon="5.92394">
        <ele>290.94</ele>
        <time>2014-09-06T12:52:35Z</time>
      </trkpt>
      <trkpt lat="45.56728" lon="5.92423">
        <ele>291.42</ele>
        <time>2014-09-06T12:52:39Z</time>
      </trkpt>
      <trkpt lat="45.5673" lon="5.9243">
        <ele>291.42</ele>
        <time>2014-09-06T12:52:40Z</time>
      </trkpt>
      <trkpt lat="45.5673" lon="5.92436">
        <ele>291.42</ele>
        <time>2014-09-06T12:52:41Z</time>
      </trkpt>
      <trkpt lat="45.56731" lon="5.92442">
        <ele>291.42</ele>
        <time>2014-09-06T12:52:42Z</time>
      </trkpt>
      <trkpt lat="45.56731" lon="5.92448">
        <ele>291.42</ele>
        <time>2014-09-06T12:52:43Z</time>
      </trkpt>
      <trkpt lat="45.56731" lon="5.92453">
        <ele>291.42</ele>
        <time>2014-09-06T12:52:44Z</time>
      </trkpt>
      <trkpt lat="45.5673" lon="5.92468">
        <ele>291.9</ele>
        <time>2014-09-06T12:52:48Z</time>
      </trkpt>
      <trkpt lat="45.56729" lon="5.92471">
        <ele>291.9</ele>
        <time>2014-09-06T12:52:49Z</time>
      </trkpt>
      <trkpt lat="45.56728" lon="5.92473">
        <ele>291.9</ele>
        <time>2014-09-06T12:52:50Z</time>
      </trkpt>
      <trkpt lat="45.56721" lon="5.9248">
        <ele>291.9</ele>
        <time>2014-09-06T12:52:58Z</time>
      </trkpt>
      <trkpt lat="45.56718" lon="5.92485">
        <ele>291.9</ele>
        <time>2014-09-06T12:53:00Z</time>
      </trkpt>
      <trkpt lat="45.56705" lon="5.92497">
        <ele>291.9</ele>
        <time>2014-09-06T12:53:03Z</time>
      </trkpt>
      <trkpt lat="45.56688" lon="5.92525">
        <ele>291.9</ele>
        <time>2014-09-06T12:53:07Z</time>
      </trkpt>
      <trkpt lat="45.56658" lon="5.92554">
        <ele>290.94</ele>
        <time>2014-09-06T12:53:13Z</time>
      </trkpt>
      <trkpt lat="45.56655" lon="5.92559">
        <ele>290.46</ele>
        <time>2014-09-06T12:53:14Z</time>
      </trkpt>
      <trkpt lat="45.56653" lon="5.92566">
        <ele>290.46</ele>
        <time>2014-09-06T12:53:15Z</time>
      </trkpt>
      <trkpt lat="45.56652" lon="5.92574">
        <ele>290.46</ele>
        <time>2014-09-06T12:53:16Z</time>
      </trkpt>
      <trkpt lat="45.56652" lon="5.92584">
        <ele>290.46</ele>
        <time>2014-09-06T12:53:17Z</time>
      </trkpt>
      <trkpt lat="45.56653" lon="5.92594">
        <ele>290.46</ele>
        <time>2014-09-06T12:53:18Z</time>
      </trkpt>
      <trkpt lat="45.56654" lon="5.92603">
        <ele>290.46</ele>
        <time>2014-09-06T12:53:19Z</time>
      </trkpt>
      <trkpt lat="45.56654" lon="5.92614">
        <ele>290.46</ele>
        <time>2014-09-06T12:53:20Z</time>
      </trkpt>
      <trkpt lat="45.5665" lon="5.92741">
        <ele>290.46</ele>
        <time>2014-09-06T12:53:33Z</time>
      </trkpt>
      <trkpt lat="45.56649" lon="5.92765">
        <ele>290.46</ele>
        <time>2014-09-06T12:53:36Z</time>
      </trkpt>
      <trkpt lat="45.56651" lon="5.92773">
        <ele>290.46</ele>
        <time>2014-09-06T12:53:37Z</time>
      </trkpt>
      <trkpt lat="45.56654" lon="5.92778">
        <ele>290.46</ele>
        <time>2014-09-06T12:53:38Z</time>
      </trkpt>
      <trkpt lat="45.56658" lon="5.92781">
        <ele>290.46</ele>
        <time>2014-09-06T12:53:39Z</time>
      </trkpt>
      <trkpt lat="45.56663" lon="5.92784">
        <ele>290.46</ele>
        <time>2014-09-06T12:53:40Z</time>
      </trkpt>
      <trkpt lat="45.56668" lon="5.92785">
        <ele>290.46</ele>
        <time>2014-09-06T12:53:41Z</time>
      </trkpt>
      <trkpt lat="45.56672" lon="5.92786">
        <ele>290.46</ele>
        <time>2014-09-06T12:53:42Z</time>
      </trkpt>
      <trkpt lat="45.56685" lon="5.92786">
        <ele>290.46</ele>
        <time>2014-09-06T12:53:45Z</time>
      </trkpt>
      <trkpt lat="45.56686" lon="5.92784">
        <ele>290.46</ele>
        <time>2014-09-06T12:53:55Z</time>
      </trkpt>
      <trkpt lat="45.56685" lon="5.92785">
        <ele>290.46</ele>
        <time>2014-09-06T12:54:05Z</time>
      </trkpt>
      <trkpt lat="45.56682" lon="5.92779">
        <ele>288.05</ele>
        <time>2014-09-06T12:54:13Z</time>
      </trkpt>
    </trkseg>
  </trk>
</gpx>